<?xml version='1.0' encoding='UTF-8'?><gpx version="1.1" creator="JPX - https://github.com/jenetics/jpx" xmlns="http://www.topografix.com/GPX/1/1"><trk><trkseg><trkpt lat="46.154714238889525" lon="9.761842916406339"><ele>271.0</ele><time>2026-05-02T11:31:59.999Z</time></trkpt><trkpt lat="46.15462626953372" lon="9.761816547767694"><ele>271.0</ele><time>2026-05-02T11:32:00.999Z</time></trkpt><trkpt lat="46.154527827756965" lon="9.761787988918337"><ele>271.0</ele><time>2026-05-02T11:32:01.999Z</time></trkpt><trkpt lat="46.1544276913736" lon="9.76179530060064"><ele>271.0</ele><time>2026-05-02T11:32:02.999Z</time></trkpt><trkpt lat="46.154314661666476" lon="9.76179846407993"><ele>271.0</ele><time>2026-05-02T11:32:03.999Z</time></trkpt><trkpt lat="46.154224666439006" lon="9.761798890798822"><ele>271.0</ele><time>2026-05-02T11:32:04.999Z</time></trkpt><trkpt lat="46.154156925919054" lon="9.761793501080623"><ele>271.0</ele><time>2026-05-02T11:32:05.999Z</time></trkpt><trkpt lat="46.15403734910962" lon="9.761789222790085"><ele>271.0</ele><time>2026-05-02T11:32:07.999Z</time></trkpt><trkpt lat="46.15396608427777" lon="9.761783626409231"><ele>271.0</ele><time>2026-05-02T11:32:08.999Z</time></trkpt><trkpt lat="46.15390205859852" lon="9.761770048071977"><ele>271.0</ele><time>2026-05-02T11:32:09.999Z</time></trkpt><trkpt lat="46.153827671408" lon="9.76181339666905"><ele>271.0</ele><time>2026-05-02T11:32:11.999Z</time></trkpt><trkpt lat="46.15380484983524" lon="9.76191557445908"><ele>271.8</ele><time>2026-05-02T11:32:12.999Z</time></trkpt><trkpt lat="46.15378944353808" lon="9.762056119986324"><ele>272.6</ele><time>2026-05-02T11:32:13.999Z</time></trkpt><trkpt lat="46.153795571215824" lon="9.76223019274675"><ele>273.4</ele><time>2026-05-02T11:32:14.999Z</time></trkpt><trkpt lat="46.15379928467835" lon="9.762389821902456"><ele>274.2</ele><time>2026-05-02T11:32:15.999Z</time></trkpt><trkpt lat="46.15379134759665" lon="9.762538269290872"><ele>275.0</ele><time>2026-05-02T11:32:16.999Z</time></trkpt><trkpt lat="46.153784847053366" lon="9.762680492756125"><ele>275.4</ele><time>2026-05-02T11:32:17.999Z</time></trkpt><trkpt lat="46.1537758566241" lon="9.762840090131455"><ele>275.8</ele><time>2026-05-02T11:32:18.999Z</time></trkpt><trkpt lat="46.153765498783066" lon="9.76299195432565"><ele>276.2</ele><time>2026-05-02T11:32:19.999Z</time></trkpt><trkpt lat="46.15376934644331" lon="9.763157400205008"><ele>276.6</ele><time>2026-05-02T11:32:20.999Z</time></trkpt><trkpt lat="46.153760282465164" lon="9.76332592862346"><ele>277.0</ele><time>2026-05-02T11:32:21.999Z</time></trkpt><trkpt lat="46.153753022113214" lon="9.76350327072538"><ele>277.0</ele><time>2026-05-02T11:32:22.999Z</time></trkpt><trkpt lat="46.15374340447762" lon="9.763672112210438"><ele>277.0</ele><time>2026-05-02T11:32:23.999Z</time></trkpt><trkpt lat="46.153726258397576" lon="9.763810144461337"><ele>277.0</ele><time>2026-05-02T11:32:24.999Z</time></trkpt><trkpt lat="46.15371908417378" lon="9.763948567542473"><ele>277.0</ele><time>2026-05-02T11:32:25.999Z</time></trkpt><trkpt lat="46.153722113260365" lon="9.764072677820513"><ele>277.0</ele><time>2026-05-02T11:32:26.999Z</time></trkpt><trkpt lat="46.15371014623416" lon="9.764200408134085"><ele>277.0</ele><time>2026-05-02T11:32:27.999Z</time></trkpt><trkpt lat="46.15366739310439" lon="9.764297310577241"><ele>277.0</ele><time>2026-05-02T11:32:28.999Z</time></trkpt><trkpt lat="46.15358120814153" lon="9.764340976008361"><ele>277.0</ele><time>2026-05-02T11:32:29.999Z</time></trkpt><trkpt lat="46.15349298619061" lon="9.764291676899346"><ele>277.0</ele><time>2026-05-02T11:32:30.999Z</time></trkpt><trkpt lat="46.15337689064082" lon="9.764235285987594"><ele>277.0</ele><time>2026-05-02T11:32:31.999Z</time></trkpt><trkpt lat="46.15323459124314" lon="9.764175056138235"><ele>277.66666666666663</ele><time>2026-05-02T11:32:32.999Z</time></trkpt><trkpt lat="46.153088377849585" lon="9.76413715736199"><ele>278.3333333333333</ele><time>2026-05-02T11:32:33.999Z</time></trkpt><trkpt lat="46.1529323137899" lon="9.76410164860953"><ele>279.0</ele><time>2026-05-02T11:32:34.999Z</time></trkpt><trkpt lat="46.15276201128867" lon="9.764046756737653"><ele>279.0</ele><time>2026-05-02T11:32:35.999Z</time></trkpt><trkpt lat="46.15258959287632" lon="9.7639869868858"><ele>279.0</ele><time>2026-05-02T11:32:36.999Z</time></trkpt><trkpt lat="46.15240411775137" lon="9.763931356756192"><ele>279.0</ele><time>2026-05-02T11:32:37.999Z</time></trkpt><trkpt lat="46.15222175175934" lon="9.763874130102405"><ele>279.6666666666667</ele><time>2026-05-02T11:32:38.999Z</time></trkpt><trkpt lat="46.15205654913842" lon="9.763839291878217"><ele>280.33333333333337</ele><time>2026-05-02T11:32:39.999Z</time></trkpt><trkpt lat="46.15189854626206" lon="9.7638196578407"><ele>281.0</ele><time>2026-05-02T11:32:40.999Z</time></trkpt><trkpt lat="46.15173029523936" lon="9.763821857739549"><ele>281.0</ele><time>2026-05-02T11:32:41.999Z</time></trkpt><trkpt lat="46.151556140176744" lon="9.763817379902527"><ele>281.0</ele><time>2026-05-02T11:32:42.999Z</time></trkpt><trkpt lat="46.151386109985985" lon="9.763818447310447"><ele>281.0</ele><time>2026-05-02T11:32:43.999Z</time></trkpt><trkpt lat="46.1512282553219" lon="9.76380923994689"><ele>281.75</ele><time>2026-05-02T11:32:44.999Z</time></trkpt><trkpt lat="46.151087075844515" lon="9.763804953421097"><ele>282.5</ele><time>2026-05-02T11:32:45.999Z</time></trkpt><trkpt lat="46.15095918982662" lon="9.763805021983233"><ele>283.25</ele><time>2026-05-02T11:32:46.999Z</time></trkpt><trkpt lat="46.150828727179885" lon="9.763809022293087"><ele>284.0</ele><time>2026-05-02T11:32:47.999Z</time></trkpt><trkpt lat="46.15071953411814" lon="9.76380746937608"><ele>284.5</ele><time>2026-05-02T11:32:48.999Z</time></trkpt><trkpt lat="46.15061553824956" lon="9.763818748606575"><ele>285.0</ele><time>2026-05-02T11:32:49.999Z</time></trkpt><trkpt lat="46.15053601297672" lon="9.763838519834794"><ele>285.5</ele><time>2026-05-02T11:32:50.999Z</time></trkpt><trkpt lat="46.15044258402184" lon="9.76385230589915"><ele>286.0</ele><time>2026-05-02T11:32:52.999Z</time></trkpt><trkpt lat="46.1503661013533" lon="9.76388784552381"><ele>286.5</ele><time>2026-05-02T11:32:57.999Z</time></trkpt><trkpt lat="46.15033926224139" lon="9.763980377171801"><ele>287.0</ele><time>2026-05-02T11:32:58.999Z</time></trkpt><trkpt lat="46.150343711861616" lon="9.764127470975012"><ele>287.0</ele><time>2026-05-02T11:32:59.999Z</time></trkpt><trkpt lat="46.150372276036535" lon="9.764287931124924"><ele>287.0</ele><time>2026-05-02T11:33:00.999Z</time></trkpt><trkpt lat="46.15040036664313" lon="9.76443377916875"><ele>287.0</ele><time>2026-05-02T11:33:01.999Z</time></trkpt><trkpt lat="46.15038368296803" lon="9.76458651014702"><ele>287.0</ele><time>2026-05-02T11:33:03.999Z</time></trkpt><trkpt lat="46.15031470307727" lon="9.764608500830288"><ele>287.0</ele><time>2026-05-02T11:33:04.999Z</time></trkpt><trkpt lat="46.150222612588514" lon="9.764617906627223"><ele>287.5</ele><time>2026-05-02T11:33:05.999Z</time></trkpt><trkpt lat="46.15009603068257" lon="9.76462611498623"><ele>288.0</ele><time>2026-05-02T11:33:06.999Z</time></trkpt><trkpt lat="46.14996764867858" lon="9.764673037117438"><ele>288.5</ele><time>2026-05-02T11:33:07.999Z</time></trkpt><trkpt lat="46.14983615251312" lon="9.764732312330484"><ele>289.0</ele><time>2026-05-02T11:33:08.999Z</time></trkpt><trkpt lat="46.14969182369171" lon="9.764798811831191"><ele>290.66666666666663</ele><time>2026-05-02T11:33:09.999Z</time></trkpt><trkpt lat="46.1495467599643" lon="9.764873428724643"><ele>292.3333333333333</ele><time>2026-05-02T11:33:10.999Z</time></trkpt><trkpt lat="46.14940192342219" lon="9.7649526293895"><ele>294.0</ele><time>2026-05-02T11:33:11.999Z</time></trkpt><trkpt lat="46.14924827795476" lon="9.765029220541024"><ele>294.0</ele><time>2026-05-02T11:33:12.999Z</time></trkpt><trkpt lat="46.14908813596991" lon="9.76510885186069"><ele>294.0</ele><time>2026-05-02T11:33:13.999Z</time></trkpt><trkpt lat="46.148942116569046" lon="9.765187450114954"><ele>294.0</ele><time>2026-05-02T11:33:14.999Z</time></trkpt><trkpt lat="46.14881504752879" lon="9.765256428494569"><ele>295.59999999999997</ele><time>2026-05-02T11:33:15.999Z</time></trkpt><trkpt lat="46.148699073305714" lon="9.76531531126804"><ele>297.2</ele><time>2026-05-02T11:33:16.999Z</time></trkpt><trkpt lat="46.148600999576814" lon="9.765361148130511"><ele>298.79999999999995</ele><time>2026-05-02T11:33:17.999Z</time></trkpt><trkpt lat="46.148508204994286" lon="9.765407865810413"><ele>300.4</ele><time>2026-05-02T11:33:18.999Z</time></trkpt><trkpt lat="46.14841400553155" lon="9.765472989898518"><ele>302.0</ele><time>2026-05-02T11:33:19.999Z</time></trkpt><trkpt lat="46.14833391081804" lon="9.765542677708932"><ele>302.0</ele><time>2026-05-02T11:33:21Z</time></trkpt><trkpt lat="46.14825487064171" lon="9.76564060653364"><ele>302.0</ele><time>2026-05-02T11:33:22Z</time></trkpt><trkpt lat="46.14818689895443" lon="9.76578458644017"><ele>302.0</ele><time>2026-05-02T11:33:23Z</time></trkpt><trkpt lat="46.14813715660003" lon="9.765928507710802"><ele>302.0</ele><time>2026-05-02T11:33:24.001Z</time></trkpt><trkpt lat="46.148091165657426" lon="9.766052312216823"><ele>302.0</ele><time>2026-05-02T11:33:25Z</time></trkpt><trkpt lat="46.14804869453416" lon="9.766152324074794"><ele>303.8</ele><time>2026-05-02T11:33:26Z</time></trkpt><trkpt lat="46.14801082688996" lon="9.766239702268953"><ele>305.6</ele><time>2026-05-02T11:33:27.001Z</time></trkpt><trkpt lat="46.147907482322616" lon="9.76630208187939"><ele>307.40000000000003</ele><time>2026-05-02T11:33:29.001Z</time></trkpt><trkpt lat="46.14777319626273" lon="9.766255105775079"><ele>309.2</ele><time>2026-05-02T11:33:31.001Z</time></trkpt><trkpt lat="46.147669052150285" lon="9.766233581534783"><ele>311.0</ele><time>2026-05-02T11:33:32Z</time></trkpt><trkpt lat="46.147560082986246" lon="9.766219888002107"><ele>311.0</ele><time>2026-05-02T11:33:33Z</time></trkpt><trkpt lat="46.14746197597108" lon="9.766225651041415"><ele>311.0</ele><time>2026-05-02T11:33:34Z</time></trkpt><trkpt lat="46.14738024846552" lon="9.76627549892946"><ele>311.0</ele><time>2026-05-02T11:33:35Z</time></trkpt><trkpt lat="46.147306506136026" lon="9.766307186885395"><ele>311.0</ele><time>2026-05-02T11:33:36Z</time></trkpt><trkpt lat="46.14723256238992" lon="9.766452472388503"><ele>311.0</ele><time>2026-05-02T11:33:38Z</time></trkpt><trkpt lat="46.14722177453813" lon="9.766585389430363"><ele>317.25</ele><time>2026-05-02T11:33:39Z</time></trkpt><trkpt lat="46.14722618150217" lon="9.766741547950605"><ele>323.5</ele><time>2026-05-02T11:33:40Z</time></trkpt><trkpt lat="46.147237929730686" lon="9.766920784018705"><ele>329.75</ele><time>2026-05-02T11:33:41Z</time></trkpt><trkpt lat="46.14725119401028" lon="9.76710647624238"><ele>336.0</ele><time>2026-05-02T11:33:42Z</time></trkpt><trkpt lat="46.147264712500544" lon="9.767294624895207"><ele>342.5</ele><time>2026-05-02T11:33:43Z</time></trkpt><trkpt lat="46.14725688840739" lon="9.767495823469625"><ele>349.0</ele><time>2026-05-02T11:33:44Z</time></trkpt><trkpt lat="46.1472573612828" lon="9.767685551904494"><ele>355.5</ele><time>2026-05-02T11:33:45Z</time></trkpt><trkpt lat="46.14724385240265" lon="9.767878982227304"><ele>362.0</ele><time>2026-05-02T11:33:46Z</time></trkpt><trkpt lat="46.147243405935676" lon="9.768045880797903"><ele>365.0</ele><time>2026-05-02T11:33:47Z</time></trkpt><trkpt lat="46.14725242806772" lon="9.768167913219669"><ele>368.0</ele><time>2026-05-02T11:33:48Z</time></trkpt><trkpt lat="46.147256762836086" lon="9.768272743587943"><ele>371.0</ele><time>2026-05-02T11:33:49Z</time></trkpt><trkpt lat="46.14725284989799" lon="9.768367167948766"><ele>374.0</ele><time>2026-05-02T11:33:50Z</time></trkpt><trkpt lat="46.147184710443284" lon="9.768455721454837"><ele>377.0</ele><time>2026-05-02T11:33:52Z</time></trkpt><trkpt lat="46.14712884850417" lon="9.768412287076977"><ele>380.0</ele><time>2026-05-02T11:33:53Z</time></trkpt><trkpt lat="46.14708652247786" lon="9.768325311285466"><ele>380.0</ele><time>2026-05-02T11:33:54Z</time></trkpt><trkpt lat="46.14708651714628" lon="9.768188896008533"><ele>380.0</ele><time>2026-05-02T11:33:55Z</time></trkpt><trkpt lat="46.14706556033322" lon="9.768041890258976"><ele>380.0</ele><time>2026-05-02T11:33:56Z</time></trkpt><trkpt lat="46.14704168792991" lon="9.76788264560631"><ele>380.0</ele><time>2026-05-02T11:33:57Z</time></trkpt><trkpt lat="46.146998060878275" lon="9.767707722355453"><ele>380.0</ele><time>2026-05-02T11:33:58Z</time></trkpt><trkpt lat="46.146931852880975" lon="9.767545478771119"><ele>377.0</ele><time>2026-05-02T11:33:59Z</time></trkpt><trkpt lat="46.1468939277131" lon="9.767417847098622"><ele>374.0</ele><time>2026-05-02T11:34:00Z</time></trkpt><trkpt lat="46.14687317105132" lon="9.767312956875973"><ele>371.0</ele><time>2026-05-02T11:34:01Z</time></trkpt><trkpt lat="46.14684027227456" lon="9.767219764951127"><ele>368.0</ele><time>2026-05-02T11:34:03Z</time></trkpt><trkpt lat="46.14677620471682" lon="9.767314737434285"><ele>365.0</ele><time>2026-05-02T11:34:05Z</time></trkpt><trkpt lat="46.14676979716231" lon="9.767414976489942"><ele>362.0</ele><time>2026-05-02T11:34:06Z</time></trkpt><trkpt lat="46.146796590349915" lon="9.767563492917152"><ele>365.6</ele><time>2026-05-02T11:34:07Z</time></trkpt><trkpt lat="46.146824937325285" lon="9.767725845939477"><ele>369.20000000000005</ele><time>2026-05-02T11:34:08Z</time></trkpt><trkpt lat="46.14684882256962" lon="9.767876848104471"><ele>372.8</ele><time>2026-05-02T11:34:09Z</time></trkpt><trkpt lat="46.146874032334836" lon="9.768010573018191"><ele>376.4</ele><time>2026-05-02T11:34:10Z</time></trkpt><trkpt lat="46.14687712689951" lon="9.768133962921755"><ele>380.0</ele><time>2026-05-02T11:34:11Z</time></trkpt><trkpt lat="46.14688644073386" lon="9.76827222772461"><ele>380.0</ele><time>2026-05-02T11:34:12Z</time></trkpt><trkpt lat="46.14687013480433" lon="9.768453215970032"><ele>380.0</ele><time>2026-05-02T11:34:13Z</time></trkpt><trkpt lat="46.14684582036414" lon="9.76862998927267"><ele>380.0</ele><time>2026-05-02T11:34:14Z</time></trkpt><trkpt lat="46.146830901004876" lon="9.768807314410198"><ele>380.0</ele><time>2026-05-02T11:34:15Z</time></trkpt><trkpt lat="46.1467972093785" lon="9.76900044566055"><ele>382.5</ele><time>2026-05-02T11:34:16Z</time></trkpt><trkpt lat="46.14676556128413" lon="9.769185368501702"><ele>385.0</ele><time>2026-05-02T11:34:17Z</time></trkpt><trkpt lat="46.14676877212276" lon="9.769362298257311"><ele>387.5</ele><time>2026-05-02T11:34:18Z</time></trkpt><trkpt lat="46.146792606807836" lon="9.769525513676694"><ele>390.0</ele><time>2026-05-02T11:34:19Z</time></trkpt><trkpt lat="46.14680505751008" lon="9.769675828661645"><ele>393.0</ele><time>2026-05-02T11:34:20Z</time></trkpt><trkpt lat="46.146803319538535" lon="9.769848353548934"><ele>396.0</ele><time>2026-05-02T11:34:21Z</time></trkpt><trkpt lat="46.14680203771312" lon="9.770022112718252"><ele>399.0</ele><time>2026-05-02T11:34:22Z</time></trkpt><trkpt lat="46.146830135746576" lon="9.770207423494204"><ele>402.0</ele><time>2026-05-02T11:34:23Z</time></trkpt><trkpt lat="46.1468748289591" lon="9.770405116081763"><ele>405.5</ele><time>2026-05-02T11:34:24Z</time></trkpt><trkpt lat="46.14692841526223" lon="9.770618987131279"><ele>409.0</ele><time>2026-05-02T11:34:25Z</time></trkpt><trkpt lat="46.14696446576703" lon="9.77083674615935"><ele>412.5</ele><time>2026-05-02T11:34:26Z</time></trkpt><trkpt lat="46.14698109630818" lon="9.771020507550832"><ele>416.0</ele><time>2026-05-02T11:34:27Z</time></trkpt><trkpt lat="46.14699926658558" lon="9.771175782763319"><ele>418.25</ele><time>2026-05-02T11:34:28Z</time></trkpt><trkpt lat="46.1470056060666" lon="9.771334118601809"><ele>420.5</ele><time>2026-05-02T11:34:29Z</time></trkpt><trkpt lat="46.147008661793144" lon="9.771529004303936"><ele>422.75</ele><time>2026-05-02T11:34:30Z</time></trkpt><trkpt lat="46.147007105424144" lon="9.771755710912165"><ele>425.0</ele><time>2026-05-02T11:34:31Z</time></trkpt><trkpt lat="46.14701890758385" lon="9.771961153661648"><ele>427.8</ele><time>2026-05-02T11:34:31.999Z</time></trkpt><trkpt lat="46.14701763907799" lon="9.772128603381205"><ele>430.6</ele><time>2026-05-02T11:34:32.999Z</time></trkpt><trkpt lat="46.147029390261" lon="9.772266297521986"><ele>433.4</ele><time>2026-05-02T11:34:33.999Z</time></trkpt><trkpt lat="46.14705562426429" lon="9.772383498359897"><ele>436.2</ele><time>2026-05-02T11:34:34.999Z</time></trkpt><trkpt lat="46.14709621211872" lon="9.772468328384146"><ele>439.0</ele><time>2026-05-02T11:34:35.999Z</time></trkpt><trkpt lat="46.14711088869852" lon="9.772589943304821"><ele>439.0</ele><time>2026-05-02T11:34:37.999Z</time></trkpt><trkpt lat="46.146981522085504" lon="9.772493373035863"><ele>439.0</ele><time>2026-05-02T11:34:39.999Z</time></trkpt><trkpt lat="46.146950593067736" lon="9.772388595922715"><ele>439.0</ele><time>2026-05-02T11:34:40.999Z</time></trkpt><trkpt lat="46.14691818026785" lon="9.772269357368534"><ele>439.0</ele><time>2026-05-02T11:34:41.999Z</time></trkpt><trkpt lat="46.14688622520058" lon="9.772110012347945"><ele>439.0</ele><time>2026-05-02T11:34:42.999Z</time></trkpt><trkpt lat="46.14684455563857" lon="9.771937344978765"><ele>435.5</ele><time>2026-05-02T11:34:43.999Z</time></trkpt><trkpt lat="46.14680797632355" lon="9.77173782868669"><ele>432.0</ele><time>2026-05-02T11:34:44.999Z</time></trkpt><trkpt lat="46.146775452648235" lon="9.77155450772263"><ele>428.5</ele><time>2026-05-02T11:34:45.999Z</time></trkpt><trkpt lat="46.146746627528316" lon="9.77138767169504"><ele>425.0</ele><time>2026-05-02T11:34:46.999Z</time></trkpt><trkpt lat="46.1467111675431" lon="9.771243042302363"><ele>425.0</ele><time>2026-05-02T11:34:47.999Z</time></trkpt><trkpt lat="46.14666925188595" lon="9.771106633809962"><ele>425.0</ele><time>2026-05-02T11:34:48.999Z</time></trkpt><trkpt lat="46.1466062325704" lon="9.770966987016571"><ele>425.0</ele><time>2026-05-02T11:34:49.999Z</time></trkpt><trkpt lat="46.14651409182006" lon="9.770825312380207"><ele>425.0</ele><time>2026-05-02T11:34:50.999Z</time></trkpt><trkpt lat="46.14645611931603" lon="9.770671326970216"><ele>431.8333333333333</ele><time>2026-05-02T11:34:51.999Z</time></trkpt><trkpt lat="46.146426194153065" lon="9.770514099374713"><ele>438.66666666666663</ele><time>2026-05-02T11:34:52.999Z</time></trkpt><trkpt lat="46.14638869194439" lon="9.770384846882791"><ele>445.5</ele><time>2026-05-02T11:34:53.999Z</time></trkpt><trkpt lat="46.14635046650829" lon="9.770295290092474"><ele>452.33333333333337</ele><time>2026-05-02T11:34:54.999Z</time></trkpt><trkpt lat="46.146316228529145" lon="9.770216270085704"><ele>459.1666666666667</ele><time>2026-05-02T11:34:55.999Z</time></trkpt><trkpt lat="46.14628635973124" lon="9.77012732636373"><ele>466.0</ele><time>2026-05-02T11:34:56.999Z</time></trkpt><trkpt lat="46.14626509960238" lon="9.76996559089345"><ele>466.0</ele><time>2026-05-02T11:34:58.999Z</time></trkpt><trkpt lat="46.14622405773653" lon="9.769826550922907"><ele>466.0</ele><time>2026-05-02T11:35:00.999Z</time></trkpt><trkpt lat="46.1461698012553" lon="9.769693556286914"><ele>466.0</ele><time>2026-05-02T11:35:02.999Z</time></trkpt><trkpt lat="46.14608291499821" lon="9.76962661253415"><ele>466.0</ele><time>2026-05-02T11:35:04.999Z</time></trkpt><trkpt lat="46.1460032349872" lon="9.769560756216332"><ele>466.0</ele><time>2026-05-02T11:35:06.999Z</time></trkpt><trkpt lat="46.14599906243132" lon="9.769469624470558"><ele>464.20000000000005</ele><time>2026-05-02T11:35:08.999Z</time></trkpt><trkpt lat="46.14594908617434" lon="9.769315364521944"><ele>462.40000000000003</ele><time>2026-05-02T11:35:10.999Z</time></trkpt><trkpt lat="46.14589378868148" lon="9.769191901983454"><ele>460.6</ele><time>2026-05-02T11:35:12.999Z</time></trkpt><trkpt lat="46.145800912487395" lon="9.769071120981812"><ele>458.8</ele><time>2026-05-02T11:35:14.999Z</time></trkpt><trkpt lat="46.14571236980936" lon="9.769004629816203"><ele>457.0</ele><time>2026-05-02T11:35:16.999Z</time></trkpt><trkpt lat="46.14562641890277" lon="9.768931812631175"><ele>464.1666666666667</ele><time>2026-05-02T11:35:18.999Z</time></trkpt><trkpt lat="46.14560461149584" lon="9.768823213529808"><ele>471.33333333333337</ele><time>2026-05-02T11:35:20.999Z</time></trkpt><trkpt lat="46.14558635566296" lon="9.768727916173686"><ele>478.5</ele><time>2026-05-02T11:35:22.999Z</time></trkpt><trkpt lat="46.14556452195226" lon="9.76864010947228"><ele>485.66666666666663</ele><time>2026-05-02T11:35:24.999Z</time></trkpt><trkpt lat="46.14544208227427" lon="9.768531563681135"><ele>492.8333333333333</ele><time>2026-05-02T11:35:27.001Z</time></trkpt><trkpt lat="46.14537414893458" lon="9.768476499991563"><ele>500.0</ele><time>2026-05-02T11:35:28.001Z</time></trkpt><trkpt lat="46.14530711619659" lon="9.768424257670661"><ele>499.99999999999994</ele><time>2026-05-02T11:35:29.001Z</time></trkpt><trkpt lat="46.145219638616936" lon="9.768359408803219"><ele>500.0</ele><time>2026-05-02T11:35:31.001Z</time></trkpt><trkpt lat="46.145160731250016" lon="9.768287821787263"><ele>500.0</ele><time>2026-05-02T11:35:33Z</time></trkpt><trkpt lat="46.14515867967664" lon="9.768152003548263"><ele>500.0</ele><time>2026-05-02T11:35:36Z</time></trkpt><trkpt lat="46.145158046886976" lon="9.768056456893232"><ele>499.99999999999994</ele><time>2026-05-02T11:35:37Z</time></trkpt><trkpt lat="46.14516229103086" lon="9.767949433976359"><ele>500.0</ele><time>2026-05-02T11:35:40Z</time></trkpt><trkpt lat="46.145105202828454" lon="9.767881856504859"><ele>500.0</ele><time>2026-05-02T11:35:45Z</time></trkpt><trkpt lat="46.14502616162001" lon="9.767830881389825"><ele>500.0</ele><time>2026-05-02T11:35:51Z</time></trkpt><trkpt lat="46.14498615773248" lon="9.767747126809136"><ele>500.0</ele><time>2026-05-02T11:36:06Z</time></trkpt><trkpt lat="46.14505130101731" lon="9.767718539781264"><ele>500.0</ele><time>2026-05-02T11:36:36.999Z</time></trkpt><trkpt lat="46.14507088571567" lon="9.767807001953305"><ele>500.0</ele><time>2026-05-02T11:37:32.999Z</time></trkpt><trkpt lat="46.14501911449795" lon="9.767751165187603"><ele>500.0</ele><time>2026-05-02T11:38:02.998Z</time></trkpt><trkpt lat="46.14497550273494" lon="9.767681538931193"><ele>500.0</ele><time>2026-05-02T11:38:30.998Z</time></trkpt><trkpt lat="46.14493986980334" lon="9.767599706027832"><ele>507.16666666666663</ele><time>2026-05-02T11:38:33.998Z</time></trkpt><trkpt lat="46.14487034100867" lon="9.767577365116319"><ele>514.3333333333333</ele><time>2026-05-02T11:38:35.998Z</time></trkpt><trkpt lat="46.14479732822406" lon="9.7675109348233"><ele>521.5</ele><time>2026-05-02T11:38:37.998Z</time></trkpt><trkpt lat="46.14474487409259" lon="9.767432022080213"><ele>528.6666666666666</ele><time>2026-05-02T11:38:39.998Z</time></trkpt><trkpt lat="46.14473394350762" lon="9.767322451686988"><ele>535.8333333333334</ele><time>2026-05-02T11:38:42.998Z</time></trkpt><trkpt lat="46.144675846689175" lon="9.767236320767887"><ele>543.0</ele><time>2026-05-02T11:38:44.998Z</time></trkpt><trkpt lat="46.144614344980965" lon="9.767317077662938"><ele>543.0</ele><time>2026-05-02T11:38:47.998Z</time></trkpt><trkpt lat="46.14461247951689" lon="9.767445260184708"><ele>543.0</ele><time>2026-05-02T11:38:49.998Z</time></trkpt><trkpt lat="46.14458776693704" lon="9.76760670672855"><ele>543.0</ele><time>2026-05-02T11:38:51.998Z</time></trkpt><trkpt lat="46.144499957883674" lon="9.767571097680058"><ele>543.0</ele><time>2026-05-02T11:38:55.998Z</time></trkpt><trkpt lat="46.144441294495294" lon="9.767423605851373"><ele>543.0</ele><time>2026-05-02T11:38:57.998Z</time></trkpt><trkpt lat="46.144374125113316" lon="9.767335274935071"><ele>543.0</ele><time>2026-05-02T11:38:59.998Z</time></trkpt><trkpt lat="46.14426861334118" lon="9.767342113952626"><ele>543.0</ele><time>2026-05-02T11:39:01.998Z</time></trkpt><trkpt lat="46.14420291630059" lon="9.767336914785032"><ele>543.0</ele><time>2026-05-02T11:39:02.998Z</time></trkpt><trkpt lat="46.14413199298515" lon="9.767310062948127"><ele>543.0</ele><time>2026-05-02T11:39:04.998Z</time></trkpt><trkpt lat="46.144026539705" lon="9.76723048848575"><ele>543.0</ele><time>2026-05-02T11:39:06.998Z</time></trkpt><trkpt lat="46.14399622003503" lon="9.767118228768501"><ele>543.0</ele><time>2026-05-02T11:39:08.998Z</time></trkpt><trkpt lat="46.14392005388452" lon="9.767206301549903"><ele>546.1666666666666</ele><time>2026-05-02T11:39:10.998Z</time></trkpt><trkpt lat="46.14389549484217" lon="9.767290214104438"><ele>549.3333333333334</ele><time>2026-05-02T11:39:11.998Z</time></trkpt><trkpt lat="46.1438865564036" lon="9.767385477342915"><ele>552.5</ele><time>2026-05-02T11:39:12.998Z</time></trkpt><trkpt lat="46.143934739375425" lon="9.76748027434483"><ele>555.6666666666667</ele><time>2026-05-02T11:39:14.998Z</time></trkpt><trkpt lat="46.143849066641366" lon="9.767424413707936"><ele>558.8333333333334</ele><time>2026-05-02T11:39:17.998Z</time></trkpt><trkpt lat="46.14378508469277" lon="9.76734547749853"><ele>562.0</ele><time>2026-05-02T11:39:19.998Z</time></trkpt><trkpt lat="46.1437257682986" lon="9.767255315815017"><ele>562.0</ele><time>2026-05-02T11:39:21.998Z</time></trkpt><trkpt lat="46.14363986654264" lon="9.767249962606252"><ele>562.0</ele><time>2026-05-02T11:39:23.998Z</time></trkpt><trkpt lat="46.143616048187006" lon="9.767344740983988"><ele>562.0</ele><time>2026-05-02T11:39:26.998Z</time></trkpt><trkpt lat="46.14365367934383" lon="9.767456963034267"><ele>562.0</ele><time>2026-05-02T11:39:29.998Z</time></trkpt><trkpt lat="46.14371376870419" lon="9.767597614178182"><ele>562.0</ele><time>2026-05-02T11:39:31.998Z</time></trkpt><trkpt lat="46.14374574350353" lon="9.76775572503401"><ele>567.3333333333334</ele><time>2026-05-02T11:39:33.998Z</time></trkpt><trkpt lat="46.143804134462414" lon="9.767843220989215"><ele>572.6666666666667</ele><time>2026-05-02T11:39:35.998Z</time></trkpt><trkpt lat="46.143738309312525" lon="9.767823684569773"><ele>578.0</ele><time>2026-05-02T11:39:39.997Z</time></trkpt><trkpt lat="46.14365508448999" lon="9.767788051972063"><ele>583.3333333333334</ele><time>2026-05-02T11:39:41.997Z</time></trkpt><trkpt lat="46.14355585610704" lon="9.767812871351195"><ele>588.6666666666666</ele><time>2026-05-02T11:39:43.997Z</time></trkpt><trkpt lat="46.14347911430913" lon="9.767850425604712"><ele>594.0</ele><time>2026-05-02T11:39:45.997Z</time></trkpt><trkpt lat="46.14343773933738" lon="9.768000329377871"><ele>594.0</ele><time>2026-05-02T11:39:47.997Z</time></trkpt><trkpt lat="46.14344770208578" lon="9.76818198990528"><ele>594.0</ele><time>2026-05-02T11:39:49.997Z</time></trkpt><trkpt lat="46.14344495302901" lon="9.768292728462223"><ele>594.0</ele><time>2026-05-02T11:39:50.997Z</time></trkpt><trkpt lat="46.14343057320942" lon="9.768383189902561"><ele>594.0</ele><time>2026-05-02T11:39:51.997Z</time></trkpt><trkpt lat="46.143451560762216" lon="9.76850058252461"><ele>594.0</ele><time>2026-05-02T11:39:53.997Z</time></trkpt><trkpt lat="46.14351246455639" lon="9.768578238567898"><ele>594.0</ele><time>2026-05-02T11:39:55.997Z</time></trkpt><trkpt lat="46.14355957537656" lon="9.768646008721596"><ele>599.3333333333334</ele><time>2026-05-02T11:39:56.997Z</time></trkpt><trkpt lat="46.143577327557985" lon="9.768749831385877"><ele>604.6666666666666</ele><time>2026-05-02T11:39:57.997Z</time></trkpt><trkpt lat="46.1436121703054" lon="9.768836345723521"><ele>610.0</ele><time>2026-05-02T11:39:58.997Z</time></trkpt><trkpt lat="46.14364522153432" lon="9.768970418247337"><ele>615.3333333333333</ele><time>2026-05-02T11:40:00.997Z</time></trkpt><trkpt lat="46.14354388687795" lon="9.768938200385017"><ele>620.6666666666666</ele><time>2026-05-02T11:40:04.997Z</time></trkpt><trkpt lat="46.14348626030076" lon="9.768987554859768"><ele>626.0</ele><time>2026-05-02T11:40:07.997Z</time></trkpt><trkpt lat="46.143546979466215" lon="9.769045580148461"><ele>626.0</ele><time>2026-05-02T11:40:10.997Z</time></trkpt><trkpt lat="46.14345818604222" lon="9.769074230550823"><ele>626.0</ele><time>2026-05-02T11:40:12.997Z</time></trkpt><trkpt lat="46.143366889833615" lon="9.769094957617284"><ele>626.0</ele><time>2026-05-02T11:40:14.997Z</time></trkpt><trkpt lat="46.14332458170441" lon="9.769169928798478"><ele>626.0</ele><time>2026-05-02T11:40:16.997Z</time></trkpt><trkpt lat="46.143405540120106" lon="9.769265081560569"><ele>626.0</ele><time>2026-05-02T11:40:19.997Z</time></trkpt><trkpt lat="46.14336406834549" lon="9.769342754848072"><ele>626.0</ele><time>2026-05-02T11:40:22.997Z</time></trkpt><trkpt lat="46.14328889030991" lon="9.769378639643977"><ele>627.6666666666666</ele><time>2026-05-02T11:40:24.997Z</time></trkpt><trkpt lat="46.14323967737862" lon="9.769453883526255"><ele>629.3333333333333</ele><time>2026-05-02T11:40:26.997Z</time></trkpt><trkpt lat="46.143163410568874" lon="9.769579773044327"><ele>631.0</ele><time>2026-05-02T11:40:28.997Z</time></trkpt><trkpt lat="46.14307602578772" lon="9.769636698555528"><ele>632.6666666666666</ele><time>2026-05-02T11:40:30.997Z</time></trkpt><trkpt lat="46.14300989241417" lon="9.76963676325889"><ele>634.3333333333334</ele><time>2026-05-02T11:40:31.997Z</time></trkpt><trkpt lat="46.14294269735639" lon="9.76960925492669"><ele>636.0</ele><time>2026-05-02T11:40:32.997Z</time></trkpt><trkpt lat="46.14287684543316" lon="9.769554876667309"><ele>640.0</ele><time>2026-05-02T11:40:33.997Z</time></trkpt><trkpt lat="46.14282216720155" lon="9.769486920200352"><ele>644.0</ele><time>2026-05-02T11:40:34.997Z</time></trkpt><trkpt lat="46.1427245918973" lon="9.769406856458597"><ele>648.0</ele><time>2026-05-02T11:40:36.997Z</time></trkpt><trkpt lat="46.14266040015149" lon="9.769353187148173"><ele>652.0</ele><time>2026-05-02T11:40:37.997Z</time></trkpt><trkpt lat="46.14260285448682" lon="9.769314806158997"><ele>656.0</ele><time>2026-05-02T11:40:38.997Z</time></trkpt><trkpt lat="46.14250689662552" lon="9.769279168815546"><ele>660.0</ele><time>2026-05-02T11:40:39.997Z</time></trkpt><trkpt lat="46.14239872408715" lon="9.769229820016143"><ele>667.1666666666666</ele><time>2026-05-02T11:40:40.997Z</time></trkpt><trkpt lat="46.14231291918134" lon="9.769194462778996"><ele>674.3333333333334</ele><time>2026-05-02T11:40:41.997Z</time></trkpt><trkpt lat="46.14222871787281" lon="9.769168918051504"><ele>681.5</ele><time>2026-05-02T11:40:42.997Z</time></trkpt><trkpt lat="46.14213482871137" lon="9.769119684934996"><ele>688.6666666666667</ele><time>2026-05-02T11:40:44.997Z</time></trkpt><trkpt lat="46.14207823716666" lon="9.769200927795392"><ele>695.8333333333334</ele><time>2026-05-02T11:40:48.997Z</time></trkpt><trkpt lat="46.14200201076554" lon="9.769219007831548"><ele>703.0</ele><time>2026-05-02T11:40:50.997Z</time></trkpt><trkpt lat="46.14196494549344" lon="9.76912394877189"><ele>703.0</ele><time>2026-05-02T11:40:52.997Z</time></trkpt><trkpt lat="46.14194317722179" lon="9.769027468569595"><ele>703.0</ele><time>2026-05-02T11:40:53.997Z</time></trkpt><trkpt lat="46.141903895917984" lon="9.768942894171678"><ele>703.0</ele><time>2026-05-02T11:40:54.997Z</time></trkpt><trkpt lat="46.14181433285007" lon="9.769020463408363"><ele>703.0</ele><time>2026-05-02T11:40:56.997Z</time></trkpt><trkpt lat="46.14182830280968" lon="9.769115217277703"><ele>703.0</ele><time>2026-05-02T11:40:57.997Z</time></trkpt><trkpt lat="46.14188297472959" lon="9.769207010823795"><ele>703.0</ele><time>2026-05-02T11:40:58.997Z</time></trkpt><trkpt lat="46.141942039112166" lon="9.769290719877896"><ele>703.0</ele><time>2026-05-02T11:40:59.997Z</time></trkpt><trkpt lat="46.1419965286069" lon="9.769350144161699"><ele>703.0</ele><time>2026-05-02T11:41:00.997Z</time></trkpt><trkpt lat="46.14192412427181" lon="9.769361148898142"><ele>703.0</ele><time>2026-05-02T11:41:04.997Z</time></trkpt><trkpt lat="46.141866561031534" lon="9.76923816127428"><ele>703.0</ele><time>2026-05-02T11:41:06.997Z</time></trkpt><trkpt lat="46.14181480006327" lon="9.769173179801127"><ele>703.0</ele><time>2026-05-02T11:41:07.997Z</time></trkpt><trkpt lat="46.141733696240735" lon="9.769123801939394"><ele>703.0</ele><time>2026-05-02T11:41:08.997Z</time></trkpt><trkpt lat="46.141638352274306" lon="9.769070715075332"><ele>703.0</ele><time>2026-05-02T11:41:09.997Z</time></trkpt><trkpt lat="46.14157919526536" lon="9.769025443252328"><ele>703.0</ele><time>2026-05-02T11:41:10.997Z</time></trkpt><trkpt lat="46.14150933134667" lon="9.768956513023605"><ele>703.0</ele><time>2026-05-02T11:41:13.997Z</time></trkpt><trkpt lat="46.14144204117853" lon="9.768945356672644"><ele>703.0</ele><time>2026-05-02T11:41:14.997Z</time></trkpt><trkpt lat="46.141375306810374" lon="9.768878377787727"><ele>703.0</ele><time>2026-05-02T11:41:16.996Z</time></trkpt><trkpt lat="46.14140720645409" lon="9.768996452111931"><ele>703.0</ele><time>2026-05-02T11:41:20.996Z</time></trkpt><trkpt lat="46.14138655700987" lon="9.76910779337672"><ele>702.2857142857142</ele><time>2026-05-02T11:41:24.996Z</time></trkpt><trkpt lat="46.14132623267077" lon="9.769138737389666"><ele>701.5714285714286</ele><time>2026-05-02T11:41:26.996Z</time></trkpt><trkpt lat="46.14129730454867" lon="9.769229773318404"><ele>700.8571428571429</ele><time>2026-05-02T11:41:28.996Z</time></trkpt><trkpt lat="46.14125147393286" lon="9.769304351014812"><ele>700.1428571428571</ele><time>2026-05-02T11:41:32.996Z</time></trkpt><trkpt lat="46.14117517819957" lon="9.76927819540445"><ele>699.4285714285714</ele><time>2026-05-02T11:41:34.996Z</time></trkpt><trkpt lat="46.141095924736376" lon="9.769246569209432"><ele>698.7142857142857</ele><time>2026-05-02T11:41:36.996Z</time></trkpt><trkpt lat="46.14103779603738" lon="9.769297807255258"><ele>698.0</ele><time>2026-05-02T11:41:38.996Z</time></trkpt><trkpt lat="46.141043838240414" lon="9.769466365031256"><ele>706.1666666666666</ele><time>2026-05-02T11:41:40.996Z</time></trkpt><trkpt lat="46.14103964225426" lon="9.769581382068752"><ele>714.3333333333333</ele><time>2026-05-02T11:41:42.996Z</time></trkpt><trkpt lat="46.141036535787336" lon="9.769702932158173"><ele>722.5</ele><time>2026-05-02T11:41:45.996Z</time></trkpt><trkpt lat="46.141122768155434" lon="9.769779149772136"><ele>730.6666666666666</ele><time>2026-05-02T11:41:49.996Z</time></trkpt><trkpt lat="46.14118502259137" lon="9.769833364639391"><ele>738.8333333333334</ele><time>2026-05-02T11:41:50.996Z</time></trkpt><trkpt lat="46.14124353325529" lon="9.76990005387049"><ele>747.0</ele><time>2026-05-02T11:41:51.996Z</time></trkpt><trkpt lat="46.141241403497375" lon="9.770013559008499"><ele>747.0</ele><time>2026-05-02T11:41:53.996Z</time></trkpt><trkpt lat="46.14115983249284" lon="9.770023194311149"><ele>747.0</ele><time>2026-05-02T11:41:55.996Z</time></trkpt><trkpt lat="46.141075625785795" lon="9.770029937142397"><ele>747.0</ele><time>2026-05-02T11:41:57.996Z</time></trkpt><trkpt lat="46.14101392731376" lon="9.770115368578749"><ele>747.0</ele><time>2026-05-02T11:41:59.996Z</time></trkpt><trkpt lat="46.140968782447565" lon="9.770248148169586"><ele>747.0</ele><time>2026-05-02T11:42:01.996Z</time></trkpt><trkpt lat="46.14098798793624" lon="9.770371157678902"><ele>747.0</ele><time>2026-05-02T11:42:03.996Z</time></trkpt><trkpt lat="46.14101974219921" lon="9.770482280051674"><ele>752.8333333333334</ele><time>2026-05-02T11:42:05.996Z</time></trkpt><trkpt lat="46.14094126054842" lon="9.770512132839553"><ele>758.6666666666667</ele><time>2026-05-02T11:42:08.996Z</time></trkpt><trkpt lat="46.14090574995864" lon="9.770588050160901"><ele>764.5</ele><time>2026-05-02T11:42:11.996Z</time></trkpt><trkpt lat="46.14084137113211" lon="9.770663889004197"><ele>770.3333333333334</ele><time>2026-05-02T11:42:13.996Z</time></trkpt><trkpt lat="46.14090817512473" lon="9.770760724808207"><ele>776.1666666666667</ele><time>2026-05-02T11:42:15.996Z</time></trkpt><trkpt lat="46.14089178684618" lon="9.770850070884888"><ele>782.0</ele><time>2026-05-02T11:42:19.996Z</time></trkpt><trkpt lat="46.140933725855604" lon="9.770942212977866"><ele>782.0000000000001</ele><time>2026-05-02T11:42:21.996Z</time></trkpt><trkpt lat="46.14098659786693" lon="9.771009533951315"><ele>782.0</ele><time>2026-05-02T11:42:24.996Z</time></trkpt><trkpt lat="46.14101895503342" lon="9.771139117858437"><ele>782.0</ele><time>2026-05-02T11:42:26.996Z</time></trkpt><trkpt lat="46.14103087700212" lon="9.771249534718116"><ele>782.0</ele><time>2026-05-02T11:42:28.996Z</time></trkpt><trkpt lat="46.140996488399274" lon="9.771387659069756"><ele>782.0000000000001</ele><time>2026-05-02T11:42:31.996Z</time></trkpt><trkpt lat="46.14100939469946" lon="9.771479696506432"><ele>782.0</ele><time>2026-05-02T11:42:32.996Z</time></trkpt><trkpt lat="46.1410286726935" lon="9.771578239359167"><ele>786.7142857142857</ele><time>2026-05-02T11:42:33.996Z</time></trkpt><trkpt lat="46.14107531971535" lon="9.771674338084418"><ele>791.4285714285714</ele><time>2026-05-02T11:42:34.996Z</time></trkpt><trkpt lat="46.14113535788541" lon="9.771719761431566"><ele>796.1428571428571</ele><time>2026-05-02T11:42:35.996Z</time></trkpt><trkpt lat="46.14119529552971" lon="9.771754975086242"><ele>800.8571428571429</ele><time>2026-05-02T11:42:36.996Z</time></trkpt><trkpt lat="46.14124751819093" lon="9.771851778717982"><ele>805.5714285714286</ele><time>2026-05-02T11:42:37.996Z</time></trkpt><trkpt lat="46.14127531564972" lon="9.771971480063076"><ele>810.2857142857142</ele><time>2026-05-02T11:42:38.996Z</time></trkpt><trkpt lat="46.14129808615336" lon="9.772056303403868"><ele>815.0</ele><time>2026-05-02T11:42:39.996Z</time></trkpt><trkpt lat="46.14134907968443" lon="9.772222207613282"><ele>820.6</ele><time>2026-05-02T11:42:41.996Z</time></trkpt><trkpt lat="46.141385899754965" lon="9.77237303916609"><ele>826.2</ele><time>2026-05-02T11:42:43.996Z</time></trkpt><trkpt lat="46.1414147118228" lon="9.772567270264183"><ele>831.8</ele><time>2026-05-02T11:42:45.996Z</time></trkpt><trkpt lat="46.141435501062894" lon="9.772686103394001"><ele>837.4</ele><time>2026-05-02T11:42:46.996Z</time></trkpt><trkpt lat="46.141453952846625" lon="9.772805944489294"><ele>843.0</ele><time>2026-05-02T11:42:47.996Z</time></trkpt><trkpt lat="46.14148644479136" lon="9.772906753541708"><ele>843.3333333333334</ele><time>2026-05-02T11:42:48.996Z</time></trkpt><trkpt lat="46.1415214850762" lon="9.772985692215443"><ele>843.6666666666667</ele><time>2026-05-02T11:42:49.996Z</time></trkpt><trkpt lat="46.14154597386983" lon="9.77307776602297"><ele>844.0</ele><time>2026-05-02T11:42:50.996Z</time></trkpt><trkpt lat="46.14155817378963" lon="9.773247551198102"><ele>844.3333333333334</ele><time>2026-05-02T11:42:52.996Z</time></trkpt><trkpt lat="46.141615155611554" lon="9.773375788899525"><ele>844.6666666666667</ele><time>2026-05-02T11:42:54.995Z</time></trkpt><trkpt lat="46.14163428481678" lon="9.773470532199326"><ele>845.0</ele><time>2026-05-02T11:42:57.995Z</time></trkpt><trkpt lat="46.14164854615725" lon="9.773562530240254"><ele>845.0</ele><time>2026-05-02T11:42:58.995Z</time></trkpt><trkpt lat="46.14167623752376" lon="9.773661455703026"><ele>845.0</ele><time>2026-05-02T11:42:59.995Z</time></trkpt><trkpt lat="46.14170441463637" lon="9.773775151783617"><ele>845.0</ele><time>2026-05-02T11:43:00.995Z</time></trkpt><trkpt lat="46.14173045586952" lon="9.773907102448245"><ele>845.0</ele><time>2026-05-02T11:43:01.995Z</time></trkpt><trkpt lat="46.141761945622484" lon="9.774022466653443"><ele>845.0</ele><time>2026-05-02T11:43:02.995Z</time></trkpt><trkpt lat="46.14170936855189" lon="9.774211951571182"><ele>845.0000000000001</ele><time>2026-05-02T11:43:04.995Z</time></trkpt><trkpt lat="46.14163557348084" lon="9.774307449512865"><ele>845.0</ele><time>2026-05-02T11:43:05.995Z</time></trkpt><trkpt lat="46.141574451860016" lon="9.774371426337483"><ele>845.0</ele><time>2026-05-02T11:43:06.995Z</time></trkpt><trkpt lat="46.14150571321244" lon="9.774495747846416"><ele>845.0</ele><time>2026-05-02T11:43:08.995Z</time></trkpt><trkpt lat="46.1414479050542" lon="9.774431576973285"><ele>845.0000000000001</ele><time>2026-05-02T11:43:10.995Z</time></trkpt><trkpt lat="46.14143147556196" lon="9.77433659973872"><ele>845.0</ele><time>2026-05-02T11:43:12.995Z</time></trkpt><trkpt lat="46.141371872317485" lon="9.774208631586758"><ele>852.4</ele><time>2026-05-02T11:43:14.995Z</time></trkpt><trkpt lat="46.14128973808118" lon="9.774059809180205"><ele>859.8</ele><time>2026-05-02T11:43:16.995Z</time></trkpt><trkpt lat="46.141237849849965" lon="9.773981751558342"><ele>867.2</ele><time>2026-05-02T11:43:17.995Z</time></trkpt><trkpt lat="46.141265057623386" lon="9.773877752151723"><ele>874.6</ele><time>2026-05-02T11:43:19.995Z</time></trkpt><trkpt lat="46.14125924752976" lon="9.773749061544303"><ele>882.0</ele><time>2026-05-02T11:43:21.995Z</time></trkpt><trkpt lat="46.14115968570116" lon="9.773700870047385"><ele>882.0</ele><time>2026-05-02T11:43:23.995Z</time></trkpt><trkpt lat="46.141100488603456" lon="9.773645799706156"><ele>882.0</ele><time>2026-05-02T11:43:24.995Z</time></trkpt><trkpt lat="46.14103903510909" lon="9.773602468976078"><ele>882.0</ele><time>2026-05-02T11:43:25.995Z</time></trkpt><trkpt lat="46.14098268126325" lon="9.773547822857601"><ele>882.0</ele><time>2026-05-02T11:43:26.995Z</time></trkpt><trkpt lat="46.14089029333657" lon="9.773551712409429"><ele>882.0</ele><time>2026-05-02T11:43:28.995Z</time></trkpt><trkpt lat="46.140851361670016" lon="9.773672445875262"><ele>882.0</ele><time>2026-05-02T11:43:30.995Z</time></trkpt><trkpt lat="46.14079484726683" lon="9.773749298717165"><ele>882.0</ele><time>2026-05-02T11:43:32.995Z</time></trkpt><trkpt lat="46.140759607417976" lon="9.773844867271618"><ele>882.0</ele><time>2026-05-02T11:43:38.995Z</time></trkpt><trkpt lat="46.14070979591923" lon="9.773915412813366"><ele>882.0</ele><time>2026-05-02T11:43:40.995Z</time></trkpt><trkpt lat="46.14062574646073" lon="9.773972968295942"><ele>882.0</ele><time>2026-05-02T11:43:42.995Z</time></trkpt><trkpt lat="46.14055494089871" lon="9.77405338231792"><ele>882.0</ele><time>2026-05-02T11:43:44.995Z</time></trkpt><trkpt lat="46.14045976770255" lon="9.774149187298658"><ele>882.0</ele><time>2026-05-02T11:43:46.995Z</time></trkpt><trkpt lat="46.140395229926206" lon="9.774220686633276"><ele>887.0</ele><time>2026-05-02T11:43:48.995Z</time></trkpt><trkpt lat="46.14034660434281" lon="9.774283092463499"><ele>892.0</ele><time>2026-05-02T11:43:51.995Z</time></trkpt><trkpt lat="46.14027975338913" lon="9.774277932269388"><ele>897.0</ele><time>2026-05-02T11:43:53.995Z</time></trkpt><trkpt lat="46.14023306724629" lon="9.774215702785215"><ele>902.0</ele><time>2026-05-02T11:43:55.995Z</time></trkpt><trkpt lat="46.14016462590502" lon="9.774116215077166"><ele>907.0</ele><time>2026-05-02T11:43:57.995Z</time></trkpt><trkpt lat="46.140060817111305" lon="9.774042219100485"><ele>912.0</ele><time>2026-05-02T11:43:59.995Z</time></trkpt><trkpt lat="46.139976847984116" lon="9.774118756422597"><ele>912.0</ele><time>2026-05-02T11:44:01.995Z</time></trkpt><trkpt lat="46.139949461130904" lon="9.774246053963083"><ele>912.0</ele><time>2026-05-02T11:44:03.995Z</time></trkpt><trkpt lat="46.13992415110217" lon="9.77433324850044"><ele>912.0</ele><time>2026-05-02T11:44:04.995Z</time></trkpt><trkpt lat="46.13991632538672" lon="9.774424522282601"><ele>912.0</ele><time>2026-05-02T11:44:06.995Z</time></trkpt><trkpt lat="46.13984964594311" lon="9.774472141455028"><ele>912.0</ele><time>2026-05-02T11:44:08.995Z</time></trkpt><trkpt lat="46.139760731863106" lon="9.774512614440718"><ele>912.0</ele><time>2026-05-02T11:44:10.995Z</time></trkpt><trkpt lat="46.13966554782972" lon="9.774527278650377"><ele>918.6666666666666</ele><time>2026-05-02T11:44:12.995Z</time></trkpt><trkpt lat="46.13967099955699" lon="9.774633475079327"><ele>925.3333333333333</ele><time>2026-05-02T11:44:14.995Z</time></trkpt><trkpt lat="46.1397068797174" lon="9.77471088732891"><ele>932.0</ele><time>2026-05-02T11:44:15.995Z</time></trkpt><trkpt lat="46.1397450402183" lon="9.774798704657986"><ele>938.6666666666666</ele><time>2026-05-02T11:44:16.995Z</time></trkpt><trkpt lat="46.13980564528287" lon="9.774871545366317"><ele>945.3333333333333</ele><time>2026-05-02T11:44:18.995Z</time></trkpt><trkpt lat="46.13969349184967" lon="9.774870687999108"><ele>952.0</ele><time>2026-05-02T11:44:21.995Z</time></trkpt><trkpt lat="46.139608155495594" lon="9.774806116231145"><ele>951.9999999999999</ele><time>2026-05-02T11:44:22.995Z</time></trkpt><trkpt lat="46.139511577570005" lon="9.774756002482835"><ele>952.0</ele><time>2026-05-02T11:44:23.995Z</time></trkpt><trkpt lat="46.139394800648944" lon="9.774739044036052"><ele>952.0</ele><time>2026-05-02T11:44:24.995Z</time></trkpt><trkpt lat="46.13931742331538" lon="9.7747348800947"><ele>952.0</ele><time>2026-05-02T11:44:25.995Z</time></trkpt><trkpt lat="46.13924603961367" lon="9.774750964706126"><ele>951.9999999999999</ele><time>2026-05-02T11:44:26.995Z</time></trkpt><trkpt lat="46.139221647944716" lon="9.774842444993286"><ele>952.0</ele><time>2026-05-02T11:44:28.995Z</time></trkpt><trkpt lat="46.13928612679996" lon="9.774930275798372"><ele>952.0</ele><time>2026-05-02T11:44:30.995Z</time></trkpt><trkpt lat="46.139391547356624" lon="9.775018289314742"><ele>952.0</ele><time>2026-05-02T11:44:32.994Z</time></trkpt><trkpt lat="46.13948261953661" lon="9.775110521800134"><ele>952.0</ele><time>2026-05-02T11:44:33.994Z</time></trkpt><trkpt lat="46.13955850354365" lon="9.775227520196639"><ele>952.0</ele><time>2026-05-02T11:44:34.994Z</time></trkpt><trkpt lat="46.13963392711658" lon="9.775263808906107"><ele>952.0</ele><time>2026-05-02T11:44:35.994Z</time></trkpt><trkpt lat="46.13971810250145" lon="9.77526973212563"><ele>958.2857142857142</ele><time>2026-05-02T11:44:36.994Z</time></trkpt><trkpt lat="46.13979024810315" lon="9.775290053043427"><ele>964.5714285714286</ele><time>2026-05-02T11:44:38.994Z</time></trkpt><trkpt lat="46.13978686413566" lon="9.77538423881813"><ele>970.8571428571429</ele><time>2026-05-02T11:44:39.994Z</time></trkpt><trkpt lat="46.13972969406215" lon="9.775446638388628"><ele>977.1428571428571</ele><time>2026-05-02T11:44:40.994Z</time></trkpt><trkpt lat="46.13965863619797" lon="9.775442671564393"><ele>983.4285714285713</ele><time>2026-05-02T11:44:41.994Z</time></trkpt><trkpt lat="46.139588677478685" lon="9.775429422092975"><ele>989.7142857142857</ele><time>2026-05-02T11:44:42.994Z</time></trkpt><trkpt lat="46.13950132431131" lon="9.775369342350652"><ele>996.0</ele><time>2026-05-02T11:44:43.994Z</time></trkpt><trkpt lat="46.13943406079366" lon="9.775300085325163"><ele>996.0</ele><time>2026-05-02T11:44:44.994Z</time></trkpt><trkpt lat="46.13937008119494" lon="9.775231744241507"><ele>995.9999999999999</ele><time>2026-05-02T11:44:45.994Z</time></trkpt><trkpt lat="46.139303923917566" lon="9.775212945429756"><ele>996.0</ele><time>2026-05-02T11:44:46.994Z</time></trkpt><trkpt lat="46.13923023668756" lon="9.775225722484736"><ele>996.0</ele><time>2026-05-02T11:44:47.994Z</time></trkpt><trkpt lat="46.13915910956783" lon="9.775246642102342"><ele>995.9999999999999</ele><time>2026-05-02T11:44:48.994Z</time></trkpt><trkpt lat="46.13908603404538" lon="9.775249164782094"><ele>996.0</ele><time>2026-05-02T11:44:49.994Z</time></trkpt><trkpt lat="46.13902239540242" lon="9.775205410833918"><ele>996.0</ele><time>2026-05-02T11:44:50.994Z</time></trkpt><trkpt lat="46.13895731738918" lon="9.775186046381034"><ele>995.8333333333334</ele><time>2026-05-02T11:44:51.994Z</time></trkpt><trkpt lat="46.138883178197304" lon="9.775262530742534"><ele>995.6666666666667</ele><time>2026-05-02T11:44:52.994Z</time></trkpt><trkpt lat="46.13883292993488" lon="9.775341052542103"><ele>995.5</ele><time>2026-05-02T11:44:53.994Z</time></trkpt><trkpt lat="46.13877596772709" lon="9.77539532063112"><ele>995.3333333333334</ele><time>2026-05-02T11:44:54.994Z</time></trkpt><trkpt lat="46.13871497680258" lon="9.775441012732335"><ele>995.1666666666667</ele><time>2026-05-02T11:44:55.994Z</time></trkpt><trkpt lat="46.138818757894846" lon="9.775491725736348"><ele>995.0</ele><time>2026-05-02T11:45:00.994Z</time></trkpt><trkpt lat="46.13889810989005" lon="9.775547382180802"><ele>995.0</ele><time>2026-05-02T11:45:01.994Z</time></trkpt><trkpt lat="46.13897501421942" lon="9.775607563571608"><ele>995.0</ele><time>2026-05-02T11:45:02.994Z</time></trkpt><trkpt lat="46.139046536646205" lon="9.775685577271132"><ele>995.0</ele><time>2026-05-02T11:45:03.994Z</time></trkpt><trkpt lat="46.13914161654643" lon="9.775719783647219"><ele>995.0</ele><time>2026-05-02T11:45:04.994Z</time></trkpt><trkpt lat="46.1392380054742" lon="9.775757250932063"><ele>995.0</ele><time>2026-05-02T11:45:05.994Z</time></trkpt><trkpt lat="46.13933383309686" lon="9.7758260116266"><ele>995.2</ele><time>2026-05-02T11:45:06.994Z</time></trkpt><trkpt lat="46.13941104253884" lon="9.775912273953947"><ele>995.4</ele><time>2026-05-02T11:45:07.994Z</time></trkpt><trkpt lat="46.139492023965026" lon="9.776018869501186"><ele>995.5999999999999</ele><time>2026-05-02T11:45:08.994Z</time></trkpt><trkpt lat="46.13952747270568" lon="9.776161506778841"><ele>995.8</ele><time>2026-05-02T11:45:09.994Z</time></trkpt><trkpt lat="46.13952484245107" lon="9.776310853538785"><ele>996.0</ele><time>2026-05-02T11:45:10.994Z</time></trkpt><trkpt lat="46.13950713876645" lon="9.776445280025136"><ele>1001.8571428571428</ele><time>2026-05-02T11:45:11.994Z</time></trkpt><trkpt lat="46.13950745165236" lon="9.776544778369319"><ele>1007.7142857142856</ele><time>2026-05-02T11:45:12.994Z</time></trkpt><trkpt lat="46.13956359181309" lon="9.776628038136925"><ele>1013.5714285714286</ele><time>2026-05-02T11:45:13.994Z</time></trkpt><trkpt lat="46.13964216439114" lon="9.776702981855006"><ele>1019.4285714285713</ele><time>2026-05-02T11:45:14.994Z</time></trkpt><trkpt lat="46.1396994021271" lon="9.776755704715194"><ele>1025.2857142857142</ele><time>2026-05-02T11:45:15.994Z</time></trkpt><trkpt lat="46.139751165859735" lon="9.776811049284857"><ele>1031.142857142857</ele><time>2026-05-02T11:45:16.994Z</time></trkpt><trkpt lat="46.13973094804031" lon="9.776899494652957"><ele>1037.0</ele><time>2026-05-02T11:45:19.994Z</time></trkpt><trkpt lat="46.13963448272331" lon="9.776831353613504"><ele>1041.5</ele><time>2026-05-02T11:45:21.994Z</time></trkpt><trkpt lat="46.139571695190995" lon="9.776865012046523"><ele>1046.0</ele><time>2026-05-02T11:45:23.994Z</time></trkpt><trkpt lat="46.13961260660113" lon="9.77700527688475"><ele>1050.5</ele><time>2026-05-02T11:45:25.994Z</time></trkpt><trkpt lat="46.13967882807667" lon="9.777091885035569"><ele>1055.0</ele><time>2026-05-02T11:45:26.994Z</time></trkpt><trkpt lat="46.13972955819187" lon="9.777188421455353"><ele>1059.5</ele><time>2026-05-02T11:45:27.994Z</time></trkpt><trkpt lat="46.13975080444702" lon="9.777306630451243"><ele>1064.0</ele><time>2026-05-02T11:45:28.994Z</time></trkpt><trkpt lat="46.13976147859633" lon="9.777438277662409"><ele>1064.0</ele><time>2026-05-02T11:45:29.994Z</time></trkpt><trkpt lat="46.139807232563115" lon="9.777550507380413"><ele>1064.0</ele><time>2026-05-02T11:45:30.994Z</time></trkpt><trkpt lat="46.13984989836905" lon="9.77761973929811"><ele>1064.0</ele><time>2026-05-02T11:45:31.994Z</time></trkpt><trkpt lat="46.13995873137866" lon="9.7777211952873"><ele>1064.0</ele><time>2026-05-02T11:45:33.994Z</time></trkpt><trkpt lat="46.1400171433742" lon="9.777772170190683"><ele>1064.0</ele><time>2026-05-02T11:45:34.994Z</time></trkpt><trkpt lat="46.14007267297013" lon="9.777846677839383"><ele>1064.0</ele><time>2026-05-02T11:45:35.994Z</time></trkpt><trkpt lat="46.14010962273296" lon="9.777934384759401"><ele>1064.5</ele><time>2026-05-02T11:45:36.994Z</time></trkpt><trkpt lat="46.14010747317999" lon="9.77803028460494"><ele>1065.0</ele><time>2026-05-02T11:45:37.994Z</time></trkpt><trkpt lat="46.140094182265635" lon="9.778132096660475"><ele>1065.5</ele><time>2026-05-02T11:45:38.994Z</time></trkpt><trkpt lat="46.14008386590161" lon="9.778250923079813"><ele>1066.0</ele><time>2026-05-02T11:45:39.994Z</time></trkpt><trkpt lat="46.14010566310677" lon="9.778343107178728"><ele>1066.5</ele><time>2026-05-02T11:45:40.994Z</time></trkpt><trkpt lat="46.14017714349132" lon="9.778481154422376"><ele>1067.0</ele><time>2026-05-02T11:45:42.994Z</time></trkpt><trkpt lat="46.140191383639085" lon="9.778659202672083"><ele>1066.9999999999998</ele><time>2026-05-02T11:45:44.994Z</time></trkpt><trkpt lat="46.14015799975303" lon="9.778751259227697"><ele>1067.0</ele><time>2026-05-02T11:45:45.994Z</time></trkpt><trkpt lat="46.140118567113376" lon="9.778846059313073"><ele>1067.0</ele><time>2026-05-02T11:45:46.994Z</time></trkpt><trkpt lat="46.1400805430897" lon="9.77892869377885"><ele>1067.0</ele><time>2026-05-02T11:45:47.994Z</time></trkpt><trkpt lat="46.140043970905516" lon="9.779013525509685"><ele>1067.0</ele><time>2026-05-02T11:45:48.994Z</time></trkpt><trkpt lat="46.14003995207046" lon="9.779155524900931"><ele>1066.9999999999998</ele><time>2026-05-02T11:45:50.994Z</time></trkpt><trkpt lat="46.14005379693322" lon="9.779246193694808"><ele>1067.0</ele><time>2026-05-02T11:45:51.994Z</time></trkpt><trkpt lat="46.140040265034536" lon="9.779341012327647"><ele>1069.8</ele><time>2026-05-02T11:45:52.994Z</time></trkpt><trkpt lat="46.14002841012983" lon="9.779505062884832"><ele>1072.6</ele><time>2026-05-02T11:45:54.994Z</time></trkpt><trkpt lat="46.14001296089027" lon="9.77968265663488"><ele>1075.3999999999999</ele><time>2026-05-02T11:45:56.994Z</time></trkpt><trkpt lat="46.14000300672422" lon="9.779775908724956"><ele>1078.2</ele><time>2026-05-02T11:45:57.994Z</time></trkpt><trkpt lat="46.13997698087302" lon="9.779916258889317"><ele>1081.0</ele><time>2026-05-02T11:45:59.994Z</time></trkpt><trkpt lat="46.13992834204099" lon="9.780000244151879"><ele>1090.3333333333333</ele><time>2026-05-02T11:46:01.994Z</time></trkpt><trkpt lat="46.13986960954938" lon="9.779890729598362"><ele>1099.6666666666665</ele><time>2026-05-02T11:46:05.994Z</time></trkpt><trkpt lat="46.13981179316053" lon="9.779792056674642"><ele>1109.0</ele><time>2026-05-02T11:46:07.994Z</time></trkpt><trkpt lat="46.13974989367944" lon="9.779684042013105"><ele>1118.3333333333333</ele><time>2026-05-02T11:46:09.994Z</time></trkpt><trkpt lat="46.13968221857688" lon="9.779644884651288"><ele>1127.6666666666667</ele><time>2026-05-02T11:46:11.993Z</time></trkpt><trkpt lat="46.13961820689205" lon="9.77968898326704"><ele>1137.0</ele><time>2026-05-02T11:46:15.993Z</time></trkpt><trkpt lat="46.13960220153091" lon="9.779794886304515"><ele>1137.0</ele><time>2026-05-02T11:46:18.993Z</time></trkpt><trkpt lat="46.13951195120174" lon="9.779761228307866"><ele>1137.0</ele><time>2026-05-02T11:46:23.993Z</time></trkpt><trkpt lat="46.13940296898461" lon="9.779759694346792"><ele>1137.0</ele><time>2026-05-02T11:46:25.993Z</time></trkpt><trkpt lat="46.139318065372485" lon="9.77965866709396"><ele>1137.0</ele><time>2026-05-02T11:46:27.993Z</time></trkpt><trkpt lat="46.13926588821662" lon="9.77958193195405"><ele>1137.0</ele><time>2026-05-02T11:46:28.993Z</time></trkpt><trkpt lat="46.13921194695649" lon="9.779508817534435"><ele>1137.0</ele><time>2026-05-02T11:46:29.993Z</time></trkpt><trkpt lat="46.139157613091626" lon="9.779453078637353"><ele>1137.0</ele><time>2026-05-02T11:46:30.993Z</time></trkpt><trkpt lat="46.13907357611454" lon="9.779407968635129"><ele>1137.0</ele><time>2026-05-02T11:46:32.993Z</time></trkpt><trkpt lat="46.1390091145845" lon="9.779323142668952"><ele>1137.0</ele><time>2026-05-02T11:46:34.993Z</time></trkpt><trkpt lat="46.13892351428959" lon="9.779254018644442"><ele>1137.0</ele><time>2026-05-02T11:46:36.993Z</time></trkpt><trkpt lat="46.13885137131391" lon="9.779233453321863"><ele>1137.0</ele><time>2026-05-02T11:46:38.993Z</time></trkpt><trkpt lat="46.138784781364244" lon="9.779231108444847"><ele>1137.8333333333333</ele><time>2026-05-02T11:46:39.993Z</time></trkpt><trkpt lat="46.13872240634005" lon="9.779244440091327"><ele>1138.6666666666667</ele><time>2026-05-02T11:46:41.993Z</time></trkpt><trkpt lat="46.138651935026154" lon="9.779294583704443"><ele>1139.5</ele><time>2026-05-02T11:46:43.993Z</time></trkpt><trkpt lat="46.13858436820672" lon="9.779363861051184"><ele>1140.3333333333335</ele><time>2026-05-02T11:46:46.993Z</time></trkpt><trkpt lat="46.138609665825854" lon="9.779487095777036"><ele>1141.1666666666667</ele><time>2026-05-02T11:46:51.993Z</time></trkpt><trkpt lat="46.138655057326375" lon="9.77962963946218"><ele>1142.0</ele><time>2026-05-02T11:46:53.993Z</time></trkpt><trkpt lat="46.13873265573566" lon="9.779779322902394"><ele>1146.5</ele><time>2026-05-02T11:46:55.993Z</time></trkpt><trkpt lat="46.13877149431773" lon="9.77985455360338"><ele>1151.0</ele><time>2026-05-02T11:46:56.993Z</time></trkpt><trkpt lat="46.138821446677476" lon="9.77996035953725"><ele>1155.5</ele><time>2026-05-02T11:46:58.993Z</time></trkpt><trkpt lat="46.138879478280636" lon="9.780017829795936"><ele>1160.0</ele><time>2026-05-02T11:47:00.993Z</time></trkpt><trkpt lat="46.138895009014476" lon="9.78013793982748"><ele>1164.5</ele><time>2026-05-02T11:47:02.993Z</time></trkpt><trkpt lat="46.13885230114919" lon="9.780216034636638"><ele>1169.0</ele><time>2026-05-02T11:47:04.993Z</time></trkpt><trkpt lat="46.13874480931782" lon="9.780212615700984"><ele>1169.0</ele><time>2026-05-02T11:47:07.993Z</time></trkpt><trkpt lat="46.13866371566662" lon="9.780220361390905"><ele>1169.0</ele><time>2026-05-02T11:47:09.993Z</time></trkpt><trkpt lat="46.13859181438204" lon="9.780207751067222"><ele>1169.0</ele><time>2026-05-02T11:47:11.993Z</time></trkpt><trkpt lat="46.13849770526408" lon="9.780185649133092"><ele>1169.0</ele><time>2026-05-02T11:47:13.993Z</time></trkpt><trkpt lat="46.13843985332793" lon="9.780144385922076"><ele>1169.0</ele><time>2026-05-02T11:47:14.993Z</time></trkpt><trkpt lat="46.1383685331398" lon="9.780047221900473"><ele>1169.0</ele><time>2026-05-02T11:47:16.993Z</time></trkpt><trkpt lat="46.13830451748048" lon="9.780058151270246"><ele>1171.3333333333335</ele><time>2026-05-02T11:47:17.993Z</time></trkpt><trkpt lat="46.138192256179465" lon="9.780113019122837"><ele>1173.6666666666667</ele><time>2026-05-02T11:47:19.993Z</time></trkpt><trkpt lat="46.13813840321262" lon="9.780162235130954"><ele>1176.0</ele><time>2026-05-02T11:47:20.993Z</time></trkpt><trkpt lat="46.1381056897904" lon="9.780249893449854"><ele>1178.3333333333333</ele><time>2026-05-02T11:47:21.993Z</time></trkpt><trkpt lat="46.138055084204154" lon="9.780341927270449"><ele>1180.6666666666665</ele><time>2026-05-02T11:47:22.993Z</time></trkpt><trkpt lat="46.137969009092544" lon="9.78043949033759"><ele>1183.0</ele><time>2026-05-02T11:47:24.993Z</time></trkpt><trkpt lat="46.13788072024562" lon="9.780448883728003"><ele>1188.2</ele><time>2026-05-02T11:47:26.993Z</time></trkpt><trkpt lat="46.137756251555764" lon="9.780414850789962"><ele>1193.4</ele><time>2026-05-02T11:47:28.993Z</time></trkpt><trkpt lat="46.13764337426747" lon="9.780417194433216"><ele>1198.6000000000001</ele><time>2026-05-02T11:47:30.993Z</time></trkpt><trkpt lat="46.13755124150619" lon="9.780399003076042"><ele>1203.8</ele><time>2026-05-02T11:47:32.993Z</time></trkpt><trkpt lat="46.13744019042553" lon="9.780372064734168"><ele>1209.0</ele><time>2026-05-02T11:47:34.993Z</time></trkpt><trkpt lat="46.1373171946277" lon="9.780312058967255"><ele>1211.0</ele><time>2026-05-02T11:47:36.993Z</time></trkpt><trkpt lat="46.1372510234973" lon="9.780324198213307"><ele>1213.0</ele><time>2026-05-02T11:47:37.993Z</time></trkpt><trkpt lat="46.137167383968325" lon="9.780364483467423"><ele>1215.0</ele><time>2026-05-02T11:47:38.993Z</time></trkpt><trkpt lat="46.137100374288224" lon="9.780410838520496"><ele>1217.0</ele><time>2026-05-02T11:47:39.993Z</time></trkpt><trkpt lat="46.13704061745799" lon="9.780446941410213"><ele>1219.0</ele><time>2026-05-02T11:47:40.993Z</time></trkpt><trkpt lat="46.13691976564266" lon="9.78047064557328"><ele>1221.0</ele><time>2026-05-02T11:47:42.993Z</time></trkpt><trkpt lat="46.13685330678505" lon="9.78048625235609"><ele>1221.0</ele><time>2026-05-02T11:47:43.993Z</time></trkpt><trkpt lat="46.13680793966827" lon="9.78039768431388"><ele>1221.0</ele><time>2026-05-02T11:47:45.993Z</time></trkpt><trkpt lat="46.13675987302895" lon="9.78032730786626"><ele>1221.0</ele><time>2026-05-02T11:47:48.992Z</time></trkpt><trkpt lat="46.13676234786202" lon="9.780455669873586"><ele>1221.0</ele><time>2026-05-02T11:47:50.993Z</time></trkpt><trkpt lat="46.136770391211556" lon="9.7806137854508"><ele>1221.0</ele><time>2026-05-02T11:47:52.992Z</time></trkpt><trkpt lat="46.13679254434343" lon="9.780728139682882"><ele>1221.0</ele><time>2026-05-02T11:47:54.992Z</time></trkpt><trkpt lat="46.13686370300776" lon="9.780801381795794"><ele>1221.0</ele><time>2026-05-02T11:47:56.992Z</time></trkpt><trkpt lat="46.13681641296955" lon="9.780876181485246"><ele>1221.0</ele><time>2026-05-02T11:47:59.992Z</time></trkpt><trkpt lat="46.13675972533686" lon="9.780835067790528"><ele>1221.0</ele><time>2026-05-02T11:48:00.992Z</time></trkpt><trkpt lat="46.13665499937468" lon="9.78076228903225"><ele>1221.0</ele><time>2026-05-02T11:48:02.992Z</time></trkpt><trkpt lat="46.13658001465492" lon="9.780671478106258"><ele>1221.0</ele><time>2026-05-02T11:48:04.992Z</time></trkpt><trkpt lat="46.136573647102054" lon="9.780765285846675"><ele>1221.0</ele><time>2026-05-02T11:48:07.992Z</time></trkpt><trkpt lat="46.136589159316756" lon="9.78088593235774"><ele>1221.0</ele><time>2026-05-02T11:48:08.992Z</time></trkpt><trkpt lat="46.13665917384604" lon="9.781008005510893"><ele>1221.0</ele><time>2026-05-02T11:48:09.992Z</time></trkpt><trkpt lat="46.13672492799751" lon="9.781108968984814"><ele>1221.0</ele><time>2026-05-02T11:48:10.992Z</time></trkpt><trkpt lat="46.136780811646155" lon="9.781203000818154"><ele>1221.0</ele><time>2026-05-02T11:48:11.992Z</time></trkpt><trkpt lat="46.136786858564875" lon="9.78137385374203"><ele>1221.0</ele><time>2026-05-02T11:48:13.992Z</time></trkpt><trkpt lat="46.136727040603176" lon="9.781447502310424"><ele>1224.8</ele><time>2026-05-02T11:48:14.992Z</time></trkpt><trkpt lat="46.13665979741342" lon="9.78150822690271"><ele>1228.6</ele><time>2026-05-02T11:48:15.992Z</time></trkpt><trkpt lat="46.136585136157166" lon="9.781574868223315"><ele>1232.4</ele><time>2026-05-02T11:48:16.992Z</time></trkpt><trkpt lat="46.13653666825341" lon="9.781674702342157"><ele>1236.2</ele><time>2026-05-02T11:48:17.992Z</time></trkpt><trkpt lat="46.136533122325595" lon="9.781815806968641"><ele>1240.0</ele><time>2026-05-02T11:48:18.992Z</time></trkpt><trkpt lat="46.13653676566978" lon="9.781974948433202"><ele>1244.6666666666665</ele><time>2026-05-02T11:48:19.992Z</time></trkpt><trkpt lat="46.13654428092324" lon="9.7821006696262"><ele>1249.3333333333333</ele><time>2026-05-02T11:48:20.992Z</time></trkpt><trkpt lat="46.13653586757516" lon="9.782199787546396"><ele>1254.0</ele><time>2026-05-02T11:48:21.992Z</time></trkpt><trkpt lat="46.13648678661342" lon="9.782294134265614"><ele>1258.6666666666667</ele><time>2026-05-02T11:48:23.992Z</time></trkpt><trkpt lat="46.136433140802275" lon="9.782209279112083"><ele>1263.3333333333335</ele><time>2026-05-02T11:48:24.992Z</time></trkpt><trkpt lat="46.13640471790046" lon="9.782093929488276"><ele>1268.0</ele><time>2026-05-02T11:48:25.992Z</time></trkpt><trkpt lat="46.136386610847076" lon="9.78198631689187"><ele>1268.0</ele><time>2026-05-02T11:48:26.992Z</time></trkpt><trkpt lat="46.13634393984664" lon="9.781902478325483"><ele>1268.0</ele><time>2026-05-02T11:48:27.992Z</time></trkpt><trkpt lat="46.1362769229243" lon="9.781871048070293"><ele>1268.0</ele><time>2026-05-02T11:48:28.992Z</time></trkpt><trkpt lat="46.13621120941274" lon="9.781887548154854"><ele>1268.0</ele><time>2026-05-02T11:48:29.992Z</time></trkpt><trkpt lat="46.13614753553269" lon="9.781974102979067"><ele>1268.0</ele><time>2026-05-02T11:48:30.992Z</time></trkpt><trkpt lat="46.136053085243645" lon="9.782085106494497"><ele>1268.0</ele><time>2026-05-02T11:48:31.992Z</time></trkpt><trkpt lat="46.135955486310756" lon="9.782155491445934"><ele>1268.0</ele><time>2026-05-02T11:48:32.992Z</time></trkpt><trkpt lat="46.13585625177976" lon="9.782208654594887"><ele>1268.0</ele><time>2026-05-02T11:48:33.992Z</time></trkpt><trkpt lat="46.13576477855321" lon="9.782234978281876"><ele>1268.0</ele><time>2026-05-02T11:48:34.992Z</time></trkpt><trkpt lat="46.13566632971356" lon="9.782263135612956"><ele>1268.0</ele><time>2026-05-02T11:48:35.992Z</time></trkpt><trkpt lat="46.135585342301304" lon="9.782281443191856"><ele>1268.0</ele><time>2026-05-02T11:48:36.992Z</time></trkpt><trkpt lat="46.13551748388944" lon="9.78226503555682"><ele>1270.5</ele><time>2026-05-02T11:48:37.992Z</time></trkpt><trkpt lat="46.13542487914212" lon="9.782133060379401"><ele>1273.0</ele><time>2026-05-02T11:48:39.992Z</time></trkpt><trkpt lat="46.13536972467431" lon="9.782019728294184"><ele>1275.5</ele><time>2026-05-02T11:48:40.992Z</time></trkpt><trkpt lat="46.13528554623077" lon="9.781900327620752"><ele>1278.0</ele><time>2026-05-02T11:48:41.992Z</time></trkpt><trkpt lat="46.13520437207848" lon="9.781764873453156"><ele>1278.0</ele><time>2026-05-02T11:48:42.992Z</time></trkpt><trkpt lat="46.135138030965216" lon="9.781633464036407"><ele>1278.0</ele><time>2026-05-02T11:48:43.992Z</time></trkpt><trkpt lat="46.13508952753898" lon="9.781499284817267"><ele>1278.0</ele><time>2026-05-02T11:48:44.992Z</time></trkpt><trkpt lat="46.13503822824099" lon="9.781416242360898"><ele>1278.0</ele><time>2026-05-02T11:48:45.992Z</time></trkpt><trkpt lat="46.13497382307669" lon="9.78139857751202"><ele>1278.0</ele><time>2026-05-02T11:48:46.992Z</time></trkpt><trkpt lat="46.134876942544615" lon="9.781430181746458"><ele>1279.6</ele><time>2026-05-02T11:48:47.992Z</time></trkpt><trkpt lat="46.13475615362723" lon="9.781488521745318"><ele>1281.1999999999998</ele><time>2026-05-02T11:48:48.992Z</time></trkpt><trkpt lat="46.13465241745819" lon="9.781537108916586"><ele>1282.8</ele><time>2026-05-02T11:48:49.992Z</time></trkpt><trkpt lat="46.13457227794811" lon="9.781561340468304"><ele>1284.3999999999999</ele><time>2026-05-02T11:48:50.992Z</time></trkpt><trkpt lat="46.13448429393318" lon="9.781593246387231"><ele>1286.0</ele><time>2026-05-02T11:48:52.992Z</time></trkpt><trkpt lat="46.13455786818048" lon="9.781632091671746"><ele>1286.0</ele><time>2026-05-02T11:48:57.992Z</time></trkpt><trkpt lat="46.1346761963667" lon="9.78163863979516"><ele>1286.0</ele><time>2026-05-02T11:48:59.992Z</time></trkpt><trkpt lat="46.13474848061882" lon="9.781712725057782"><ele>1286.0</ele><time>2026-05-02T11:49:01.992Z</time></trkpt><trkpt lat="46.13483350794966" lon="9.781858893519065"><ele>1286.0</ele><time>2026-05-02T11:49:03.992Z</time></trkpt><trkpt lat="46.13487103885781" lon="9.781936601475568"><ele>1286.0</ele><time>2026-05-02T11:49:04.992Z</time></trkpt><trkpt lat="46.1348144712094" lon="9.781992681925724"><ele>1291.8333333333335</ele><time>2026-05-02T11:49:10.992Z</time></trkpt><trkpt lat="46.134737179247765" lon="9.781996088950518"><ele>1297.6666666666667</ele><time>2026-05-02T11:49:11.992Z</time></trkpt><trkpt lat="46.13466249941115" lon="9.781998436293797"><ele>1303.5</ele><time>2026-05-02T11:49:13.992Z</time></trkpt><trkpt lat="46.13461264045124" lon="9.782094420766532"><ele>1309.3333333333333</ele><time>2026-05-02T11:49:17.992Z</time></trkpt><trkpt lat="46.13457908322183" lon="9.782217861680367"><ele>1315.1666666666665</ele><time>2026-05-02T11:49:19.992Z</time></trkpt><trkpt lat="46.13452694521445" lon="9.782318887245886"><ele>1321.0</ele><time>2026-05-02T11:49:20.992Z</time></trkpt><trkpt lat="46.134487888131524" lon="9.782404714776526"><ele>1321.0</ele><time>2026-05-02T11:49:22.992Z</time></trkpt><trkpt lat="46.134403201941794" lon="9.782421908842258"><ele>1321.0</ele><time>2026-05-02T11:49:24.992Z</time></trkpt><trkpt lat="46.134353725627285" lon="9.782491149736794"><ele>1321.0</ele><time>2026-05-02T11:49:27.991Z</time></trkpt><trkpt lat="46.134354243832874" lon="9.782618544824858"><ele>1321.0</ele><time>2026-05-02T11:49:30.991Z</time></trkpt><trkpt lat="46.13432017319544" lon="9.78273522396867"><ele>1321.0</ele><time>2026-05-02T11:49:32.991Z</time></trkpt><trkpt lat="46.134366383598525" lon="9.782846239669153"><ele>1321.0</ele><time>2026-05-02T11:49:34.991Z</time></trkpt><trkpt lat="46.1344152306742" lon="9.782927607199783"><ele>1327.8</ele><time>2026-05-02T11:49:35.991Z</time></trkpt><trkpt lat="46.13447776952576" lon="9.783031890356735"><ele>1334.6</ele><time>2026-05-02T11:49:36.991Z</time></trkpt><trkpt lat="46.134478701708346" lon="9.783136918838853"><ele>1341.4</ele><time>2026-05-02T11:49:37.991Z</time></trkpt><trkpt lat="46.13441193815494" lon="9.783257067043621"><ele>1348.2</ele><time>2026-05-02T11:49:39.991Z</time></trkpt><trkpt lat="46.13430962669493" lon="9.783255804086496"><ele>1355.0</ele><time>2026-05-02T11:49:40.991Z</time></trkpt><trkpt lat="46.134174108549885" lon="9.783228445052249"><ele>1360.0</ele><time>2026-05-02T11:49:41.991Z</time></trkpt><trkpt lat="46.13403000075596" lon="9.783235146383937"><ele>1365.0</ele><time>2026-05-02T11:49:42.991Z</time></trkpt><trkpt lat="46.13389424071371" lon="9.783245626815742"><ele>1370.0</ele><time>2026-05-02T11:49:43.991Z</time></trkpt><trkpt lat="46.13377453676478" lon="9.783282433592856"><ele>1375.0</ele><time>2026-05-02T11:49:44.991Z</time></trkpt><trkpt lat="46.133647551285165" lon="9.783302906426124"><ele>1375.0</ele><time>2026-05-02T11:49:45.991Z</time></trkpt><trkpt lat="46.13352146191684" lon="9.783311759400265"><ele>1375.0</ele><time>2026-05-02T11:49:46.991Z</time></trkpt><trkpt lat="46.13340751452802" lon="9.783314682243113"><ele>1375.0</ele><time>2026-05-02T11:49:47.991Z</time></trkpt><trkpt lat="46.13332343899799" lon="9.783320354567854"><ele>1375.0</ele><time>2026-05-02T11:49:48.991Z</time></trkpt><trkpt lat="46.133244215493" lon="9.783298927326895"><ele>1375.0</ele><time>2026-05-02T11:49:49.991Z</time></trkpt><trkpt lat="46.13316751559419" lon="9.78328534254647"><ele>1378.2</ele><time>2026-05-02T11:49:50.991Z</time></trkpt><trkpt lat="46.133063729360586" lon="9.783252054674056"><ele>1381.4</ele><time>2026-05-02T11:49:52.991Z</time></trkpt><trkpt lat="46.132943068701685" lon="9.783298743490615"><ele>1384.6</ele><time>2026-05-02T11:49:54.991Z</time></trkpt><trkpt lat="46.13286410864959" lon="9.783341711016607"><ele>1387.8</ele><time>2026-05-02T11:49:55.991Z</time></trkpt><trkpt lat="46.13278780518278" lon="9.783378545174239"><ele>1391.0</ele><time>2026-05-02T11:49:56.991Z</time></trkpt><trkpt lat="46.13265002958817" lon="9.783435141309628"><ele>1391.0</ele><time>2026-05-02T11:49:57.991Z</time></trkpt><trkpt lat="46.132547085274766" lon="9.783476681862428"><ele>1391.0</ele><time>2026-05-02T11:49:58.991Z</time></trkpt><trkpt lat="46.13239266910183" lon="9.783485916264615"><ele>1391.0</ele><time>2026-05-02T11:49:59.991Z</time></trkpt><trkpt lat="46.13222751031745" lon="9.783464952436931"><ele>1391.0</ele><time>2026-05-02T11:50:00.991Z</time></trkpt><trkpt lat="46.13210884820294" lon="9.783411843662853"><ele>1395.25</ele><time>2026-05-02T11:50:01.991Z</time></trkpt><trkpt lat="46.13200439539734" lon="9.783362924319645"><ele>1399.5</ele><time>2026-05-02T11:50:02.991Z</time></trkpt><trkpt lat="46.1318931359365" lon="9.78332407946164"><ele>1403.75</ele><time>2026-05-02T11:50:03.991Z</time></trkpt><trkpt lat="46.13179149911458" lon="9.78327618746702"><ele>1408.0</ele><time>2026-05-02T11:50:04.991Z</time></trkpt><trkpt lat="46.13167112371148" lon="9.78323117526797"><ele>1408.0</ele><time>2026-05-02T11:50:05.991Z</time></trkpt><trkpt lat="46.13157151685917" lon="9.783192815164064"><ele>1408.0</ele><time>2026-05-02T11:50:06.991Z</time></trkpt><trkpt lat="46.13140906184587" lon="9.783179325111172"><ele>1408.0</ele><time>2026-05-02T11:50:07.991Z</time></trkpt><trkpt lat="46.1312751151878" lon="9.783162056931221"><ele>1408.0</ele><time>2026-05-02T11:50:08.991Z</time></trkpt><trkpt lat="46.13115895398627" lon="9.783140775147723"><ele>1408.25</ele><time>2026-05-02T11:50:09.991Z</time></trkpt><trkpt lat="46.13104485898836" lon="9.783117343857489"><ele>1408.5</ele><time>2026-05-02T11:50:10.991Z</time></trkpt><trkpt lat="46.130913789609416" lon="9.783109401157748"><ele>1408.75</ele><time>2026-05-02T11:50:11.991Z</time></trkpt><trkpt lat="46.13077761157345" lon="9.783120862348438"><ele>1409.0</ele><time>2026-05-02T11:50:12.991Z</time></trkpt><trkpt lat="46.13065465282676" lon="9.783114818913623"><ele>1409.0</ele><time>2026-05-02T11:50:13.991Z</time></trkpt><trkpt lat="46.13055991581489" lon="9.783102344585366"><ele>1409.0</ele><time>2026-05-02T11:50:14.991Z</time></trkpt><trkpt lat="46.130456633280254" lon="9.783066582124743"><ele>1409.0</ele><time>2026-05-02T11:50:15.991Z</time></trkpt><trkpt lat="46.13036444439586" lon="9.783042409328957"><ele>1409.0</ele><time>2026-05-02T11:50:16.991Z</time></trkpt><trkpt lat="46.130275560053775" lon="9.783016666124345"><ele>1409.0</ele><time>2026-05-02T11:50:17.991Z</time></trkpt><trkpt lat="46.130173491716135" lon="9.783052597250855"><ele>1409.0</ele><time>2026-05-02T11:50:18.991Z</time></trkpt><trkpt lat="46.13009609410137" lon="9.783122470289497"><ele>1409.0</ele><time>2026-05-02T11:50:19.991Z</time></trkpt><trkpt lat="46.13000523318925" lon="9.783231689261223"><ele>1409.0</ele><time>2026-05-02T11:50:20.991Z</time></trkpt><trkpt lat="46.129892718464404" lon="9.783321959972431"><ele>1409.0</ele><time>2026-05-02T11:50:21.991Z</time></trkpt><trkpt lat="46.12977232370349" lon="9.783390789048951"><ele>1412.6</ele><time>2026-05-02T11:50:22.991Z</time></trkpt><trkpt lat="46.12965315655185" lon="9.783437347009285"><ele>1416.2</ele><time>2026-05-02T11:50:23.991Z</time></trkpt><trkpt lat="46.129546060781514" lon="9.783456833102592"><ele>1419.8</ele><time>2026-05-02T11:50:24.991Z</time></trkpt><trkpt lat="46.129470859949514" lon="9.7835010859956"><ele>1423.3999999999999</ele><time>2026-05-02T11:50:25.991Z</time></trkpt><trkpt lat="46.12936768190025" lon="9.783557126508367"><ele>1427.0</ele><time>2026-05-02T11:50:26.991Z</time></trkpt><trkpt lat="46.129273611629124" lon="9.783625327026748"><ele>1427.0</ele><time>2026-05-02T11:50:27.991Z</time></trkpt><trkpt lat="46.129199770695486" lon="9.783709997029137"><ele>1427.0</ele><time>2026-05-02T11:50:28.991Z</time></trkpt><trkpt lat="46.12914478176816" lon="9.783786668427467"><ele>1427.0</ele><time>2026-05-02T11:50:29.991Z</time></trkpt><trkpt lat="46.12909063336699" lon="9.783901125480792"><ele>1427.0</ele><time>2026-05-02T11:50:30.991Z</time></trkpt><trkpt lat="46.12902913391316" lon="9.784038174405799"><ele>1427.0</ele><time>2026-05-02T11:50:31.991Z</time></trkpt><trkpt lat="46.12898454074971" lon="9.784153061662579"><ele>1431.0</ele><time>2026-05-02T11:50:32.991Z</time></trkpt><trkpt lat="46.128958846025114" lon="9.784245716835555"><ele>1435.0</ele><time>2026-05-02T11:50:33.991Z</time></trkpt><trkpt lat="46.129006046341836" lon="9.784508774190403"><ele>1439.0</ele><time>2026-05-02T11:50:35.991Z</time></trkpt><trkpt lat="46.12904507525876" lon="9.784637476575416"><ele>1443.0</ele><time>2026-05-02T11:50:36.991Z</time></trkpt><trkpt lat="46.12904614439645" lon="9.784733694992289"><ele>1447.0</ele><time>2026-05-02T11:50:37.991Z</time></trkpt><trkpt lat="46.12897273592027" lon="9.784863395095767"><ele>1447.0</ele><time>2026-05-02T11:50:39.991Z</time></trkpt><trkpt lat="46.12887225647209" lon="9.784872948818856"><ele>1447.0</ele><time>2026-05-02T11:50:40.991Z</time></trkpt><trkpt lat="46.128771995564975" lon="9.784882261685434"><ele>1447.0</ele><time>2026-05-02T11:50:41.991Z</time></trkpt><trkpt lat="46.12864855498536" lon="9.784869708751554"><ele>1447.0</ele><time>2026-05-02T11:50:42.991Z</time></trkpt><trkpt lat="46.12847803716968" lon="9.784833285527608"><ele>1447.0</ele><time>2026-05-02T11:50:43.991Z</time></trkpt><trkpt lat="46.12837306111925" lon="9.784798468418384"><ele>1447.0</ele><time>2026-05-02T11:50:44.991Z</time></trkpt><trkpt lat="46.128269599665124" lon="9.784807686098294"><ele>1447.0</ele><time>2026-05-02T11:50:45.991Z</time></trkpt><trkpt lat="46.128151175856566" lon="9.784845557669518"><ele>1447.0</ele><time>2026-05-02T11:50:46.991Z</time></trkpt><trkpt lat="46.12802065415281" lon="9.78487168129537"><ele>1450.75</ele><time>2026-05-02T11:50:47.991Z</time></trkpt><trkpt lat="46.12790317682138" lon="9.784936110787807"><ele>1454.5</ele><time>2026-05-02T11:50:48.991Z</time></trkpt><trkpt lat="46.127791698437704" lon="9.785014542213576"><ele>1458.25</ele><time>2026-05-02T11:50:49.991Z</time></trkpt><trkpt lat="46.12770236125484" lon="9.78509873812421"><ele>1462.0</ele><time>2026-05-02T11:50:50.991Z</time></trkpt><trkpt lat="46.12762200525101" lon="9.785196480496413"><ele>1462.0</ele><time>2026-05-02T11:50:51.991Z</time></trkpt><trkpt lat="46.127561426065085" lon="9.785273625386898"><ele>1462.0</ele><time>2026-05-02T11:50:52.991Z</time></trkpt><trkpt lat="46.12760701976412" lon="9.785473187685175"><ele>1462.0</ele><time>2026-05-02T11:50:54.991Z</time></trkpt><trkpt lat="46.12768299290932" lon="9.785615233470743"><ele>1462.0</ele><time>2026-05-02T11:50:55.991Z</time></trkpt><trkpt lat="46.1277187614584" lon="9.785731547374027"><ele>1462.0</ele><time>2026-05-02T11:50:56.991Z</time></trkpt><trkpt lat="46.127740804751895" lon="9.785871661195577"><ele>1462.0</ele><time>2026-05-02T11:50:57.991Z</time></trkpt><trkpt lat="46.12778236770571" lon="9.785987395090455"><ele>1462.0</ele><time>2026-05-02T11:50:58.991Z</time></trkpt><trkpt lat="46.12781704732277" lon="9.786106378358198"><ele>1462.0</ele><time>2026-05-02T11:50:59.991Z</time></trkpt><trkpt lat="46.127842464146724" lon="9.786221393553912"><ele>1462.0</ele><time>2026-05-02T11:51:00.991Z</time></trkpt><trkpt lat="46.12775477936549" lon="9.786371401183793"><ele>1462.0</ele><time>2026-05-02T11:51:02.991Z</time></trkpt><trkpt lat="46.1276992196725" lon="9.786444286437945"><ele>1468.5</ele><time>2026-05-02T11:51:03.991Z</time></trkpt><trkpt lat="46.12762572605313" lon="9.78651697555626"><ele>1475.0</ele><time>2026-05-02T11:51:04.991Z</time></trkpt><trkpt lat="46.127545332059505" lon="9.786517470631171"><ele>1481.5</ele><time>2026-05-02T11:51:05.99Z</time></trkpt><trkpt lat="46.1274813307103" lon="9.78644946155745"><ele>1488.0</ele><time>2026-05-02T11:51:06.99Z</time></trkpt><trkpt lat="46.12743808676287" lon="9.786361546643235"><ele>1494.5</ele><time>2026-05-02T11:51:07.99Z</time></trkpt><trkpt lat="46.12736807786773" lon="9.786255412602724"><ele>1501.0</ele><time>2026-05-02T11:51:08.99Z</time></trkpt><trkpt lat="46.12729282636732" lon="9.786193839303076"><ele>1501.0</ele><time>2026-05-02T11:51:09.99Z</time></trkpt><trkpt lat="46.12722755260319" lon="9.786203785906102"><ele>1501.0</ele><time>2026-05-02T11:51:10.99Z</time></trkpt><trkpt lat="46.12714567331026" lon="9.786208703736282"><ele>1501.0</ele><time>2026-05-02T11:51:11.99Z</time></trkpt><trkpt lat="46.12706718226209" lon="9.78626394535352"><ele>1501.0</ele><time>2026-05-02T11:51:12.99Z</time></trkpt><trkpt lat="46.12693114143434" lon="9.786292266194247"><ele>1501.0</ele><time>2026-05-02T11:51:14.99Z</time></trkpt><trkpt lat="46.12683916585858" lon="9.786328209507289"><ele>1501.0</ele><time>2026-05-02T11:51:15.99Z</time></trkpt><trkpt lat="46.126740472901695" lon="9.786431839838706"><ele>1501.0</ele><time>2026-05-02T11:51:16.99Z</time></trkpt><trkpt lat="46.12663635702277" lon="9.786481999457237"><ele>1501.0</ele><time>2026-05-02T11:51:17.99Z</time></trkpt><trkpt lat="46.12654706147072" lon="9.786438436040221"><ele>1501.0</ele><time>2026-05-02T11:51:18.99Z</time></trkpt><trkpt lat="46.12648370646043" lon="9.78637668281963"><ele>1501.0</ele><time>2026-05-02T11:51:19.99Z</time></trkpt><trkpt lat="46.126406384431164" lon="9.78636355477046"><ele>1497.8</ele><time>2026-05-02T11:51:20.99Z</time></trkpt><trkpt lat="46.12634239195567" lon="9.786392751161173"><ele>1494.6</ele><time>2026-05-02T11:51:21.99Z</time></trkpt><trkpt lat="46.12627456825368" lon="9.786430491287515"><ele>1491.4</ele><time>2026-05-02T11:51:22.99Z</time></trkpt><trkpt lat="46.126176718699035" lon="9.786490558075647"><ele>1488.2</ele><time>2026-05-02T11:51:23.99Z</time></trkpt><trkpt lat="46.12605516453135" lon="9.786589946266542"><ele>1485.0</ele><time>2026-05-02T11:51:24.99Z</time></trkpt><trkpt lat="46.12593557110535" lon="9.7866890661355"><ele>1485.0</ele><time>2026-05-02T11:51:25.99Z</time></trkpt><trkpt lat="46.12585042937872" lon="9.786814986770553"><ele>1485.0</ele><time>2026-05-02T11:51:26.99Z</time></trkpt><trkpt lat="46.1257397803729" lon="9.786845512354528"><ele>1485.0</ele><time>2026-05-02T11:51:27.99Z</time></trkpt><trkpt lat="46.12565170931272" lon="9.786896521967746"><ele>1485.0</ele><time>2026-05-02T11:51:28.99Z</time></trkpt><trkpt lat="46.12557741250959" lon="9.786958362903881"><ele>1485.0</ele><time>2026-05-02T11:51:29.99Z</time></trkpt><trkpt lat="46.12550077122364" lon="9.787025530310558"><ele>1491.75</ele><time>2026-05-02T11:51:30.99Z</time></trkpt><trkpt lat="46.12541027932528" lon="9.787109576067243"><ele>1498.5</ele><time>2026-05-02T11:51:31.99Z</time></trkpt><trkpt lat="46.12530701905947" lon="9.787208506112439"><ele>1505.25</ele><time>2026-05-02T11:51:32.99Z</time></trkpt><trkpt lat="46.12520814434965" lon="9.787296571618787"><ele>1512.0</ele><time>2026-05-02T11:51:33.99Z</time></trkpt><trkpt lat="46.12510390304054" lon="9.787370367064122"><ele>1512.0</ele><time>2026-05-02T11:51:34.99Z</time></trkpt><trkpt lat="46.12499668874078" lon="9.787401885986343"><ele>1512.0</ele><time>2026-05-02T11:51:35.99Z</time></trkpt><trkpt lat="46.12488456386369" lon="9.787443744214334"><ele>1512.0</ele><time>2026-05-02T11:51:36.99Z</time></trkpt><trkpt lat="46.12479888348855" lon="9.787496740255172"><ele>1512.0</ele><time>2026-05-02T11:51:37.99Z</time></trkpt><trkpt lat="46.124720378536786" lon="9.787566102631027"><ele>1512.0</ele><time>2026-05-02T11:51:38.99Z</time></trkpt><trkpt lat="46.12463358092916" lon="9.78767477392441"><ele>1519.25</ele><time>2026-05-02T11:51:39.99Z</time></trkpt><trkpt lat="46.124579559988106" lon="9.787809038830636"><ele>1526.5</ele><time>2026-05-02T11:51:40.99Z</time></trkpt><trkpt lat="46.12447101755399" lon="9.78790569879146"><ele>1533.75</ele><time>2026-05-02T11:51:41.99Z</time></trkpt><trkpt lat="46.12435084431855" lon="9.787940068024273"><ele>1541.0</ele><time>2026-05-02T11:51:42.99Z</time></trkpt><trkpt lat="46.124257855657945" lon="9.7880126222149"><ele>1541.0</ele><time>2026-05-02T11:51:43.99Z</time></trkpt><trkpt lat="46.12415514363064" lon="9.788070248288111"><ele>1541.0</ele><time>2026-05-02T11:51:44.99Z</time></trkpt><trkpt lat="46.12405831233827" lon="9.788140270352812"><ele>1541.0</ele><time>2026-05-02T11:51:45.99Z</time></trkpt><trkpt lat="46.12393685611436" lon="9.788215782440947"><ele>1541.0</ele><time>2026-05-02T11:51:46.99Z</time></trkpt><trkpt lat="46.123800361209234" lon="9.788295637967552"><ele>1541.5</ele><time>2026-05-02T11:51:47.99Z</time></trkpt><trkpt lat="46.12368524860606" lon="9.788348088906387"><ele>1542.0</ele><time>2026-05-02T11:51:48.99Z</time></trkpt><trkpt lat="46.12357863887802" lon="9.788387552869962"><ele>1542.5</ele><time>2026-05-02T11:51:49.99Z</time></trkpt><trkpt lat="46.123444391794585" lon="9.788450313182656"><ele>1543.0</ele><time>2026-05-02T11:51:50.99Z</time></trkpt><trkpt lat="46.1233206851371" lon="9.78851003898643"><ele>1542.75</ele><time>2026-05-02T11:51:51.99Z</time></trkpt><trkpt lat="46.12319637861091" lon="9.788525403969517"><ele>1542.5</ele><time>2026-05-02T11:51:52.99Z</time></trkpt><trkpt lat="46.123082685760565" lon="9.788493987468803"><ele>1542.25</ele><time>2026-05-02T11:51:53.99Z</time></trkpt><trkpt lat="46.12296258296789" lon="9.788432709091909"><ele>1542.0</ele><time>2026-05-02T11:51:54.99Z</time></trkpt><trkpt lat="46.12287407073875" lon="9.788403606985627"><ele>1542.0</ele><time>2026-05-02T11:51:55.99Z</time></trkpt><trkpt lat="46.12276218723879" lon="9.788393095672934"><ele>1542.0</ele><time>2026-05-02T11:51:57.99Z</time></trkpt><trkpt lat="46.12269412775188" lon="9.788444513338629"><ele>1542.0</ele><time>2026-05-02T11:51:59.99Z</time></trkpt><trkpt lat="46.12260233143007" lon="9.788444912855795"><ele>1542.0</ele><time>2026-05-02T11:52:02.99Z</time></trkpt><trkpt lat="46.12248017134793" lon="9.78846177637581"><ele>1542.0</ele><time>2026-05-02T11:52:04.99Z</time></trkpt><trkpt lat="46.122390984934796" lon="9.788519746174249"><ele>1551.8</ele><time>2026-05-02T11:52:06.99Z</time></trkpt><trkpt lat="46.12229100178627" lon="9.788555038093811"><ele>1561.6</ele><time>2026-05-02T11:52:09.99Z</time></trkpt><trkpt lat="46.12220187502609" lon="9.788551541625354"><ele>1571.3999999999999</ele><time>2026-05-02T11:52:12.99Z</time></trkpt><trkpt lat="46.12207645345865" lon="9.788583483886308"><ele>1581.1999999999998</ele><time>2026-05-02T11:52:15.99Z</time></trkpt><trkpt lat="46.12200665589944" lon="9.78857554633484"><ele>1591.0</ele><time>2026-05-02T11:52:16.99Z</time></trkpt><trkpt lat="46.12191315820179" lon="9.7885848073532"><ele>1591.0000000000002</ele><time>2026-05-02T11:52:18.99Z</time></trkpt><trkpt lat="46.121842291251305" lon="9.788627599957517"><ele>1591.0</ele><time>2026-05-02T11:52:20.99Z</time></trkpt><trkpt lat="46.121764908575294" lon="9.788617697443248"><ele>1591.0</ele><time>2026-05-02T11:52:22.99Z</time></trkpt><trkpt lat="46.12166731746521" lon="9.78856918032811"><ele>1591.0</ele><time>2026-05-02T11:52:24.99Z</time></trkpt><trkpt lat="46.12160031008432" lon="9.78855803010262"><ele>1591.0000000000002</ele><time>2026-05-02T11:52:25.99Z</time></trkpt><trkpt lat="46.12152738522942" lon="9.788537477036797"><ele>1591.0</ele><time>2026-05-02T11:52:26.99Z</time></trkpt><trkpt lat="46.12144678135882" lon="9.788449902913305"><ele>1586.1666666666667</ele><time>2026-05-02T11:52:27.99Z</time></trkpt><trkpt lat="46.12137688073009" lon="9.788340425525094"><ele>1581.3333333333335</ele><time>2026-05-02T11:52:28.99Z</time></trkpt><trkpt lat="46.121272805162484" lon="9.788293340011043"><ele>1576.5</ele><time>2026-05-02T11:52:30.99Z</time></trkpt><trkpt lat="46.121199181556456" lon="9.788308815425797"><ele>1571.6666666666665</ele><time>2026-05-02T11:52:31.99Z</time></trkpt><trkpt lat="46.12111937731037" lon="9.788335969512671"><ele>1566.8333333333333</ele><time>2026-05-02T11:52:32.99Z</time></trkpt><trkpt lat="46.121051595031446" lon="9.788378202788428"><ele>1562.0</ele><time>2026-05-02T11:52:33.99Z</time></trkpt><trkpt lat="46.120973691878994" lon="9.788339142455392"><ele>1561.9999999999998</ele><time>2026-05-02T11:52:34.99Z</time></trkpt><trkpt lat="46.12090770747595" lon="9.788271276910578"><ele>1562.0</ele><time>2026-05-02T11:52:35.99Z</time></trkpt><trkpt lat="46.12082401931564" lon="9.788240514831319"><ele>1562.0</ele><time>2026-05-02T11:52:36.99Z</time></trkpt><trkpt lat="46.12073824239481" lon="9.788231342252514"><ele>1562.0</ele><time>2026-05-02T11:52:37.99Z</time></trkpt><trkpt lat="46.120673119391206" lon="9.788247537226162"><ele>1561.9999999999998</ele><time>2026-05-02T11:52:38.99Z</time></trkpt><trkpt lat="46.1205692317088" lon="9.788351987046353"><ele>1562.0</ele><time>2026-05-02T11:52:40.99Z</time></trkpt><trkpt lat="46.12049277130048" lon="9.788408088480137"><ele>1562.8333333333333</ele><time>2026-05-02T11:52:41.99Z</time></trkpt><trkpt lat="46.12040645885361" lon="9.788431884731626"><ele>1563.6666666666665</ele><time>2026-05-02T11:52:42.99Z</time></trkpt><trkpt lat="46.12030285280039" lon="9.788487992391097"><ele>1564.5</ele><time>2026-05-02T11:52:44.989Z</time></trkpt><trkpt lat="46.12023904687245" lon="9.788501766708219"><ele>1565.3333333333335</ele><time>2026-05-02T11:52:45.989Z</time></trkpt><trkpt lat="46.120163236121144" lon="9.788507001105662"><ele>1566.1666666666667</ele><time>2026-05-02T11:52:46.989Z</time></trkpt><trkpt lat="46.120093801575536" lon="9.788486314294115"><ele>1567.0</ele><time>2026-05-02T11:52:47.989Z</time></trkpt><trkpt lat="46.120015549773946" lon="9.788469276823703"><ele>1567.0000000000002</ele><time>2026-05-02T11:52:48.989Z</time></trkpt><trkpt lat="46.1199390102332" lon="9.788448918520322"><ele>1567.0</ele><time>2026-05-02T11:52:49.989Z</time></trkpt><trkpt lat="46.119871906389555" lon="9.788379960665518"><ele>1567.0</ele><time>2026-05-02T11:52:50.989Z</time></trkpt><trkpt lat="46.11982399007692" lon="9.788281292990636"><ele>1567.0</ele><time>2026-05-02T11:52:51.989Z</time></trkpt><trkpt lat="46.11975957716949" lon="9.78818043190908"><ele>1567.0000000000002</ele><time>2026-05-02T11:52:52.989Z</time></trkpt><trkpt lat="46.11970538930429" lon="9.78809789822515"><ele>1567.0</ele><time>2026-05-02T11:52:53.989Z</time></trkpt><trkpt lat="46.1196451361403" lon="9.78804353476288"><ele>1566.8333333333335</ele><time>2026-05-02T11:52:54.989Z</time></trkpt><trkpt lat="46.11957001359276" lon="9.788017135359121"><ele>1566.6666666666667</ele><time>2026-05-02T11:52:56.989Z</time></trkpt><trkpt lat="46.1194908662774" lon="9.788029264272268"><ele>1566.5</ele><time>2026-05-02T11:52:57.989Z</time></trkpt><trkpt lat="46.11940214374948" lon="9.78802544259912"><ele>1566.3333333333335</ele><time>2026-05-02T11:52:58.989Z</time></trkpt><trkpt lat="46.1193279508399" lon="9.788013773381229"><ele>1566.1666666666667</ele><time>2026-05-02T11:52:59.989Z</time></trkpt><trkpt lat="46.11924417188421" lon="9.788016182273854"><ele>1566.0</ele><time>2026-05-02T11:53:00.989Z</time></trkpt><trkpt lat="46.11915679881525" lon="9.788041942640483"><ele>1566.0</ele><time>2026-05-02T11:53:01.989Z</time></trkpt><trkpt lat="46.119071973712956" lon="9.78807230052914"><ele>1566.0</ele><time>2026-05-02T11:53:02.989Z</time></trkpt><trkpt lat="46.11900107804089" lon="9.788082304224389"><ele>1566.0</ele><time>2026-05-02T11:53:03.989Z</time></trkpt><trkpt lat="46.11890831424884" lon="9.788159072745993"><ele>1566.0</ele><time>2026-05-02T11:53:05.989Z</time></trkpt><trkpt lat="46.11886199575166" lon="9.78822860439779"><ele>1566.0</ele><time>2026-05-02T11:53:06.989Z</time></trkpt><trkpt lat="46.1188093257976" lon="9.788318135985223"><ele>1566.0</ele><time>2026-05-02T11:53:07.989Z</time></trkpt><trkpt lat="46.1187679074685" lon="9.788435707151159"><ele>1562.4</ele><time>2026-05-02T11:53:08.989Z</time></trkpt><trkpt lat="46.118726779699" lon="9.78859023128032"><ele>1558.8</ele><time>2026-05-02T11:53:09.989Z</time></trkpt><trkpt lat="46.11868594738762" lon="9.788745066461523"><ele>1555.2</ele><time>2026-05-02T11:53:10.989Z</time></trkpt><trkpt lat="46.11864076109801" lon="9.788893070391962"><ele>1551.6000000000001</ele><time>2026-05-02T11:53:11.989Z</time></trkpt><trkpt lat="46.118587778528465" lon="9.7890242985964"><ele>1548.0</ele><time>2026-05-02T11:53:12.989Z</time></trkpt><trkpt lat="46.11854555243627" lon="9.789146982831017"><ele>1548.0</ele><time>2026-05-02T11:53:13.989Z</time></trkpt><trkpt lat="46.11849751471828" lon="9.789259097780972"><ele>1548.0</ele><time>2026-05-02T11:53:14.989Z</time></trkpt><trkpt lat="46.118438405527115" lon="9.789367235182022"><ele>1548.0</ele><time>2026-05-02T11:53:15.989Z</time></trkpt><trkpt lat="46.11837484650681" lon="9.789468337752673"><ele>1548.0</ele><time>2026-05-02T11:53:16.989Z</time></trkpt><trkpt lat="46.11833814336783" lon="9.789600861603178"><ele>1548.0</ele><time>2026-05-02T11:53:17.989Z</time></trkpt><trkpt lat="46.11830249572214" lon="9.78973368133539"><ele>1546.4</ele><time>2026-05-02T11:53:18.989Z</time></trkpt><trkpt lat="46.118261337262595" lon="9.789884887496228"><ele>1544.8000000000002</ele><time>2026-05-02T11:53:19.989Z</time></trkpt><trkpt lat="46.118207917096505" lon="9.790036444027413"><ele>1543.2</ele><time>2026-05-02T11:53:20.989Z</time></trkpt><trkpt lat="46.118164005774375" lon="9.790169255419865"><ele>1541.6</ele><time>2026-05-02T11:53:21.989Z</time></trkpt><trkpt lat="46.11812195816481" lon="9.79027204862828"><ele>1540.0</ele><time>2026-05-02T11:53:22.989Z</time></trkpt><trkpt lat="46.118089607162716" lon="9.790372358236953"><ele>1545.1666666666667</ele><time>2026-05-02T11:53:23.989Z</time></trkpt><trkpt lat="46.11808888313408" lon="9.790491594545243"><ele>1550.3333333333335</ele><time>2026-05-02T11:53:24.989Z</time></trkpt><trkpt lat="46.11810827569785" lon="9.790649199517942"><ele>1555.5</ele><time>2026-05-02T11:53:25.989Z</time></trkpt><trkpt lat="46.11812035680046" lon="9.790778434187178"><ele>1560.6666666666665</ele><time>2026-05-02T11:53:26.989Z</time></trkpt><trkpt lat="46.11809534333482" lon="9.79087552936764"><ele>1565.8333333333333</ele><time>2026-05-02T11:53:27.989Z</time></trkpt><trkpt lat="46.118025513184" lon="9.790961929646976"><ele>1571.0</ele><time>2026-05-02T11:53:28.989Z</time></trkpt><trkpt lat="46.11792912054746" lon="9.791020872243372"><ele>1576.4999999999998</ele><time>2026-05-02T11:53:29.989Z</time></trkpt><trkpt lat="46.11781896101201" lon="9.791022587889584"><ele>1582.0</ele><time>2026-05-02T11:53:30.989Z</time></trkpt><trkpt lat="46.117744695249556" lon="9.791017925159146"><ele>1587.5</ele><time>2026-05-02T11:53:31.989Z</time></trkpt><trkpt lat="46.11764823437824" lon="9.79110083237254"><ele>1593.0</ele><time>2026-05-02T11:53:33.989Z</time></trkpt><trkpt lat="46.11762391035482" lon="9.791220109417921"><ele>1598.4999999999998</ele><time>2026-05-02T11:53:34.989Z</time></trkpt><trkpt lat="46.11756422663357" lon="9.79125408188995"><ele>1604.0</ele><time>2026-05-02T11:53:35.989Z</time></trkpt><trkpt lat="46.11744156498542" lon="9.791169126724844"><ele>1601.2</ele><time>2026-05-02T11:53:37.989Z</time></trkpt><trkpt lat="46.117356291747946" lon="9.791082100350195"><ele>1598.4</ele><time>2026-05-02T11:53:38.989Z</time></trkpt><trkpt lat="46.11726231208252" lon="9.790986146544503"><ele>1595.6</ele><time>2026-05-02T11:53:39.989Z</time></trkpt><trkpt lat="46.11717915286348" lon="9.790924841775972"><ele>1592.8</ele><time>2026-05-02T11:53:40.989Z</time></trkpt><trkpt lat="46.11708442380891" lon="9.790899710964268"><ele>1590.0</ele><time>2026-05-02T11:53:41.989Z</time></trkpt><trkpt lat="46.11698234219593" lon="9.790903384525533"><ele>1590.0</ele><time>2026-05-02T11:53:42.989Z</time></trkpt><trkpt lat="46.11688167259942" lon="9.790929490225603"><ele>1590.0</ele><time>2026-05-02T11:53:43.989Z</time></trkpt><trkpt lat="46.116790176178164" lon="9.79090667137801"><ele>1590.0</ele><time>2026-05-02T11:53:44.989Z</time></trkpt><trkpt lat="46.11669515031582" lon="9.790847609614849"><ele>1590.0</ele><time>2026-05-02T11:53:45.989Z</time></trkpt><trkpt lat="46.116637126122285" lon="9.79079658775895"><ele>1590.0</ele><time>2026-05-02T11:53:46.989Z</time></trkpt><trkpt lat="46.11648696232698" lon="9.790753822058491"><ele>1591.75</ele><time>2026-05-02T11:53:48.989Z</time></trkpt><trkpt lat="46.11636667874373" lon="9.790750997190113"><ele>1593.5</ele><time>2026-05-02T11:53:49.989Z</time></trkpt><trkpt lat="46.11623814104352" lon="9.790716835182074"><ele>1595.25</ele><time>2026-05-02T11:53:50.989Z</time></trkpt><trkpt lat="46.11611212979737" lon="9.790694349865353"><ele>1597.0</ele><time>2026-05-02T11:53:51.989Z</time></trkpt><trkpt lat="46.11603261631998" lon="9.790662925342872"><ele>1597.0</ele><time>2026-05-02T11:53:52.989Z</time></trkpt><trkpt lat="46.115920817634475" lon="9.79066033565309"><ele>1597.0</ele><time>2026-05-02T11:53:53.989Z</time></trkpt><trkpt lat="46.115815614233604" lon="9.790691061368177"><ele>1597.0</ele><time>2026-05-02T11:53:54.989Z</time></trkpt><trkpt lat="46.11570320966011" lon="9.790714700934043"><ele>1597.0</ele><time>2026-05-02T11:53:55.989Z</time></trkpt><trkpt lat="46.11562467602767" lon="9.790669027074157"><ele>1597.0</ele><time>2026-05-02T11:53:56.989Z</time></trkpt><trkpt lat="46.115568968173186" lon="9.790549757948535"><ele>1600.6</ele><time>2026-05-02T11:53:57.989Z</time></trkpt><trkpt lat="46.11552849719849" lon="9.790449539285548"><ele>1604.1999999999998</ele><time>2026-05-02T11:53:58.989Z</time></trkpt><trkpt lat="46.11546948462333" lon="9.790402326373716"><ele>1607.8</ele><time>2026-05-02T11:53:59.989Z</time></trkpt><trkpt lat="46.11537124471486" lon="9.790370985510776"><ele>1611.4</ele><time>2026-05-02T11:54:00.989Z</time></trkpt><trkpt lat="46.115235801337235" lon="9.790356302712388"><ele>1615.0</ele><time>2026-05-02T11:54:01.989Z</time></trkpt><trkpt lat="46.11508365601639" lon="9.790320143936315"><ele>1615.0</ele><time>2026-05-02T11:54:02.989Z</time></trkpt><trkpt lat="46.11493196980303" lon="9.790258830506072"><ele>1615.0</ele><time>2026-05-02T11:54:03.989Z</time></trkpt><trkpt lat="46.114824891282055" lon="9.790212256399938"><ele>1615.0</ele><time>2026-05-02T11:54:04.989Z</time></trkpt><trkpt lat="46.1147054677319" lon="9.790172120950729"><ele>1615.0</ele><time>2026-05-02T11:54:05.989Z</time></trkpt><trkpt lat="46.11457814828146" lon="9.790184216940297"><ele>1615.6</ele><time>2026-05-02T11:54:06.989Z</time></trkpt><trkpt lat="46.11446008448548" lon="9.790223854040526"><ele>1616.2</ele><time>2026-05-02T11:54:07.989Z</time></trkpt><trkpt lat="46.114343904135374" lon="9.790235928559591"><ele>1616.8000000000002</ele><time>2026-05-02T11:54:08.989Z</time></trkpt><trkpt lat="46.11423272810284" lon="9.790249820447759"><ele>1617.4</ele><time>2026-05-02T11:54:09.989Z</time></trkpt><trkpt lat="46.11413939884388" lon="9.790264137407005"><ele>1618.0</ele><time>2026-05-02T11:54:10.989Z</time></trkpt><trkpt lat="46.114033317135785" lon="9.790313903222684"><ele>1613.1666666666667</ele><time>2026-05-02T11:54:11.989Z</time></trkpt><trkpt lat="46.113937119028336" lon="9.790383725908175"><ele>1608.3333333333335</ele><time>2026-05-02T11:54:12.989Z</time></trkpt><trkpt lat="46.11386087778718" lon="9.79046838354419"><ele>1603.5</ele><time>2026-05-02T11:54:13.989Z</time></trkpt><trkpt lat="46.11377168163313" lon="9.790514559956078"><ele>1598.6666666666665</ele><time>2026-05-02T11:54:14.989Z</time></trkpt><trkpt lat="46.113692318711806" lon="9.790488618242728"><ele>1593.8333333333333</ele><time>2026-05-02T11:54:15.989Z</time></trkpt><trkpt lat="46.11363166781237" lon="9.790457373397555"><ele>1589.0</ele><time>2026-05-02T11:54:16.989Z</time></trkpt><trkpt lat="46.11356461500849" lon="9.790444504042242"><ele>1589.0</ele><time>2026-05-02T11:54:17.989Z</time></trkpt><trkpt lat="46.113500166554864" lon="9.790463391004476"><ele>1589.0</ele><time>2026-05-02T11:54:18.989Z</time></trkpt><trkpt lat="46.11344090550558" lon="9.790494070094455"><ele>1589.0</ele><time>2026-05-02T11:54:19.989Z</time></trkpt><trkpt lat="46.11336740354489" lon="9.790569008709344"><ele>1589.0</ele><time>2026-05-02T11:54:20.989Z</time></trkpt><trkpt lat="46.11330114695509" lon="9.790743029297174"><ele>1589.0</ele><time>2026-05-02T11:54:21.988Z</time></trkpt><trkpt lat="46.11320733143453" lon="9.790976032482558"><ele>1595.25</ele><time>2026-05-02T11:54:22.988Z</time></trkpt><trkpt lat="46.1131168509659" lon="9.791103366576289"><ele>1601.5</ele><time>2026-05-02T11:54:23.988Z</time></trkpt><trkpt lat="46.11302811921054" lon="9.791196813584765"><ele>1607.75</ele><time>2026-05-02T11:54:24.988Z</time></trkpt><trkpt lat="46.112903807390104" lon="9.791273595311724"><ele>1614.0</ele><time>2026-05-02T11:54:25.988Z</time></trkpt><trkpt lat="46.112765894942875" lon="9.791311219731606"><ele>1614.0</ele><time>2026-05-02T11:54:26.988Z</time></trkpt><trkpt lat="46.11261392257753" lon="9.79129414106326"><ele>1614.0</ele><time>2026-05-02T11:54:27.988Z</time></trkpt><trkpt lat="46.11248771452619" lon="9.791297479789778"><ele>1614.0</ele><time>2026-05-02T11:54:28.988Z</time></trkpt><trkpt lat="46.11236842787915" lon="9.791281833554645"><ele>1614.0</ele><time>2026-05-02T11:54:29.988Z</time></trkpt><trkpt lat="46.11225177761405" lon="9.791243572543939"><ele>1613.0</ele><time>2026-05-02T11:54:30.988Z</time></trkpt><trkpt lat="46.11210974719544" lon="9.791197094028957"><ele>1612.0</ele><time>2026-05-02T11:54:31.988Z</time></trkpt><trkpt lat="46.111966119425986" lon="9.791195012359893"><ele>1611.0</ele><time>2026-05-02T11:54:32.988Z</time></trkpt><trkpt lat="46.111826629952425" lon="9.791192812389225"><ele>1610.0</ele><time>2026-05-02T11:54:33.988Z</time></trkpt><trkpt lat="46.11170033680482" lon="9.791210798056559"><ele>1610.0</ele><time>2026-05-02T11:54:34.988Z</time></trkpt><trkpt lat="46.11157889821838" lon="9.791239080497398"><ele>1610.0</ele><time>2026-05-02T11:54:35.988Z</time></trkpt><trkpt lat="46.11145582243197" lon="9.791264214730301"><ele>1610.0</ele><time>2026-05-02T11:54:36.988Z</time></trkpt><trkpt lat="46.1113334021695" lon="9.791315879506113"><ele>1610.0</ele><time>2026-05-02T11:54:37.988Z</time></trkpt><trkpt lat="46.11119590067349" lon="9.791352914525836"><ele>1611.6666666666665</ele><time>2026-05-02T11:54:38.988Z</time></trkpt><trkpt lat="46.11102419393711" lon="9.791340241853554"><ele>1613.3333333333335</ele><time>2026-05-02T11:54:39.988Z</time></trkpt><trkpt lat="46.11087662850526" lon="9.79133532458761"><ele>1615.0</ele><time>2026-05-02T11:54:40.988Z</time></trkpt><trkpt lat="46.11074232283554" lon="9.79133307519355"><ele>1614.2</ele><time>2026-05-02T11:54:41.988Z</time></trkpt><trkpt lat="46.110618783234926" lon="9.791324626814571"><ele>1613.4</ele><time>2026-05-02T11:54:42.988Z</time></trkpt><trkpt lat="46.11050735528017" lon="9.791319162564983"><ele>1612.6</ele><time>2026-05-02T11:54:43.988Z</time></trkpt><trkpt lat="46.11040914387031" lon="9.791313230404954"><ele>1611.8</ele><time>2026-05-02T11:54:44.988Z</time></trkpt><trkpt lat="46.11031480742162" lon="9.791330006037525"><ele>1611.0</ele><time>2026-05-02T11:54:45.988Z</time></trkpt><trkpt lat="46.11022045615357" lon="9.791346131473949"><ele>1611.0</ele><time>2026-05-02T11:54:46.988Z</time></trkpt><trkpt lat="46.11013666834899" lon="9.79137177392813"><ele>1611.0</ele><time>2026-05-02T11:54:47.988Z</time></trkpt><trkpt lat="46.11004548748772" lon="9.791398085173197"><ele>1611.0</ele><time>2026-05-02T11:54:48.988Z</time></trkpt><trkpt lat="46.1099264357759" lon="9.791306742775571"><ele>1611.0</ele><time>2026-05-02T11:54:49.988Z</time></trkpt><trkpt lat="46.10982458393875" lon="9.791206615043636"><ele>1611.0</ele><time>2026-05-02T11:54:50.988Z</time></trkpt><trkpt lat="46.10971076878252" lon="9.791148783691733"><ele>1612.25</ele><time>2026-05-02T11:54:51.988Z</time></trkpt><trkpt lat="46.109593303005674" lon="9.791117025753362"><ele>1613.5</ele><time>2026-05-02T11:54:52.988Z</time></trkpt><trkpt lat="46.1094796051745" lon="9.791094070109645"><ele>1614.75</ele><time>2026-05-02T11:54:53.988Z</time></trkpt><trkpt lat="46.109363138973144" lon="9.791091058495288"><ele>1616.0</ele><time>2026-05-02T11:54:54.988Z</time></trkpt><trkpt lat="46.10925643105335" lon="9.79110700958479"><ele>1615.9999999999998</ele><time>2026-05-02T11:54:55.988Z</time></trkpt><trkpt lat="46.10916706626671" lon="9.791114651738278"><ele>1616.0</ele><time>2026-05-02T11:54:56.988Z</time></trkpt><trkpt lat="46.109076530491095" lon="9.79111007899618"><ele>1616.0</ele><time>2026-05-02T11:54:57.988Z</time></trkpt><trkpt lat="46.10900264746838" lon="9.791099454141637"><ele>1616.0</ele><time>2026-05-02T11:54:58.988Z</time></trkpt><trkpt lat="46.108939878201305" lon="9.791050227516301"><ele>1615.9999999999998</ele><time>2026-05-02T11:54:59.988Z</time></trkpt><trkpt lat="46.10889657755298" lon="9.790978552860247"><ele>1616.0</ele><time>2026-05-02T11:55:00.988Z</time></trkpt><trkpt lat="46.10883773600724" lon="9.790904206478976"><ele>1611.6666666666665</ele><time>2026-05-02T11:55:01.988Z</time></trkpt><trkpt lat="46.108770737212545" lon="9.79085041851343"><ele>1607.3333333333333</ele><time>2026-05-02T11:55:02.988Z</time></trkpt><trkpt lat="46.108688608449135" lon="9.79081587572408"><ele>1603.0</ele><time>2026-05-02T11:55:03.988Z</time></trkpt><trkpt lat="46.10859615746949" lon="9.790787314056162"><ele>1598.6666666666665</ele><time>2026-05-02T11:55:04.988Z</time></trkpt><trkpt lat="46.10850942321825" lon="9.790782421284595"><ele>1594.3333333333333</ele><time>2026-05-02T11:55:05.988Z</time></trkpt><trkpt lat="46.10844088921034" lon="9.790802997825065"><ele>1590.0</ele><time>2026-05-02T11:55:06.988Z</time></trkpt><trkpt lat="46.10837578143403" lon="9.790850754066609"><ele>1590.0</ele><time>2026-05-02T11:55:07.988Z</time></trkpt><trkpt lat="46.10830171901745" lon="9.790921966285957"><ele>1590.0</ele><time>2026-05-02T11:55:08.988Z</time></trkpt><trkpt lat="46.10823595486939" lon="9.790990964197247"><ele>1590.0</ele><time>2026-05-02T11:55:09.988Z</time></trkpt><trkpt lat="46.108168815580285" lon="9.791070257259662"><ele>1590.0</ele><time>2026-05-02T11:55:10.988Z</time></trkpt><trkpt lat="46.108101478888" lon="9.791139365470922"><ele>1590.0</ele><time>2026-05-02T11:55:11.988Z</time></trkpt><trkpt lat="46.108031271321316" lon="9.791209571047997"><ele>1590.0</ele><time>2026-05-02T11:55:12.988Z</time></trkpt><trkpt lat="46.10794856557089" lon="9.791277338912764"><ele>1594.3333333333333</ele><time>2026-05-02T11:55:13.988Z</time></trkpt><trkpt lat="46.10788361144275" lon="9.7913412111635"><ele>1598.6666666666665</ele><time>2026-05-02T11:55:14.988Z</time></trkpt><trkpt lat="46.10782306861334" lon="9.791399908834272"><ele>1603.0</ele><time>2026-05-02T11:55:15.988Z</time></trkpt><trkpt lat="46.10776260618174" lon="9.791463861354844"><ele>1607.3333333333333</ele><time>2026-05-02T11:55:16.988Z</time></trkpt><trkpt lat="46.10770205597783" lon="9.791577968897633"><ele>1611.6666666666665</ele><time>2026-05-02T11:55:18.988Z</time></trkpt><trkpt lat="46.10763595919319" lon="9.79160681981558"><ele>1616.0</ele><time>2026-05-02T11:55:20.988Z</time></trkpt><trkpt lat="46.10755715206574" lon="9.791617543634109"><ele>1615.9999999999998</ele><time>2026-05-02T11:55:24.988Z</time></trkpt><trkpt lat="46.10748677392802" lon="9.791692381126344"><ele>1616.0</ele><time>2026-05-02T11:55:26.988Z</time></trkpt><trkpt lat="46.10744691645036" lon="9.791774672734121"><ele>1616.0</ele><time>2026-05-02T11:55:27.988Z</time></trkpt><trkpt lat="46.107418066381165" lon="9.791919624355733"><ele>1616.0</ele><time>2026-05-02T11:55:29.988Z</time></trkpt><trkpt lat="46.10747847539409" lon="9.792007957456086"><ele>1615.9999999999998</ele><time>2026-05-02T11:55:31.988Z</time></trkpt><trkpt lat="46.10756221497226" lon="9.7920406051531"><ele>1616.0</ele><time>2026-05-02T11:55:33.988Z</time></trkpt><trkpt lat="46.10763065103699" lon="9.792066643701665"><ele>1622.6666666666665</ele><time>2026-05-02T11:55:39.998Z</time></trkpt><trkpt lat="46.1076954479077" lon="9.79210987439973"><ele>1629.3333333333333</ele><time>2026-05-02T11:55:41.998Z</time></trkpt><trkpt lat="46.10773394799981" lon="9.79218943099885"><ele>1636.0</ele><time>2026-05-02T11:55:43.998Z</time></trkpt><trkpt lat="46.10780771310689" lon="9.792171920342453"><ele>1642.6666666666665</ele><time>2026-05-02T11:56:17.998Z</time></trkpt><trkpt lat="46.10788458706139" lon="9.792222011122421"><ele>1649.3333333333333</ele><time>2026-05-02T11:56:19.998Z</time></trkpt><trkpt lat="46.107954398609344" lon="9.79228308345649"><ele>1656.0</ele><time>2026-05-02T11:56:21.998Z</time></trkpt><trkpt lat="46.10800993491714" lon="9.792357129326522"><ele>1656.0</ele><time>2026-05-02T11:56:23.998Z</time></trkpt><trkpt lat="46.10807776033209" lon="9.792386103119908"><ele>1656.0</ele><time>2026-05-02T11:56:25.998Z</time></trkpt><trkpt lat="46.108179116431124" lon="9.792389441229021"><ele>1656.0</ele><time>2026-05-02T11:56:27.998Z</time></trkpt><trkpt lat="46.10825975658397" lon="9.792436552671782"><ele>1656.0</ele><time>2026-05-02T11:56:29.998Z</time></trkpt><trkpt lat="46.10837415264306" lon="9.792487161786664"><ele>1656.0</ele><time>2026-05-02T11:56:31.999Z</time></trkpt><trkpt lat="46.10846966656697" lon="9.792556086104637"><ele>1655.8333333333333</ele><time>2026-05-02T11:56:33.999Z</time></trkpt><trkpt lat="46.10855159316302" lon="9.792577653583697"><ele>1655.6666666666665</ele><time>2026-05-02T11:56:35.998Z</time></trkpt><trkpt lat="46.10863021971824" lon="9.792657792995517"><ele>1655.5</ele><time>2026-05-02T11:56:37.998Z</time></trkpt><trkpt lat="46.108547041526215" lon="9.792692820367396"><ele>1655.3333333333333</ele><time>2026-05-02T11:56:41.998Z</time></trkpt><trkpt lat="46.108478733570514" lon="9.792683970296807"><ele>1655.1666666666665</ele><time>2026-05-02T11:56:42.998Z</time></trkpt><trkpt lat="46.10840807080843" lon="9.792695964221013"><ele>1655.0</ele><time>2026-05-02T11:56:43.998Z</time></trkpt><trkpt lat="46.108339830199895" lon="9.79268467470059"><ele>1655.2</ele><time>2026-05-02T11:56:44.998Z</time></trkpt><trkpt lat="46.1082673097265" lon="9.792692476875752"><ele>1655.4</ele><time>2026-05-02T11:56:45.998Z</time></trkpt><trkpt lat="46.10816218499473" lon="9.792681845288383"><ele>1655.6</ele><time>2026-05-02T11:56:46.998Z</time></trkpt><trkpt lat="46.10805128858951" lon="9.79266881488937"><ele>1655.8</ele><time>2026-05-02T11:56:47.998Z</time></trkpt><trkpt lat="46.107962776861235" lon="9.792645089861171"><ele>1656.0</ele><time>2026-05-02T11:56:48.998Z</time></trkpt><trkpt lat="46.107865787123984" lon="9.79263341797427"><ele>1656.0</ele><time>2026-05-02T11:56:49.998Z</time></trkpt><trkpt lat="46.10777124222217" lon="9.792631586195705"><ele>1656.0</ele><time>2026-05-02T11:56:50.998Z</time></trkpt><trkpt lat="46.107688446525266" lon="9.79266364667548"><ele>1656.0</ele><time>2026-05-02T11:56:51.998Z</time></trkpt><trkpt lat="46.10760474528706" lon="9.792718633778879"><ele>1656.0</ele><time>2026-05-02T11:56:52.998Z</time></trkpt><trkpt lat="46.10752320095569" lon="9.792781481876402"><ele>1656.0</ele><time>2026-05-02T11:56:53.998Z</time></trkpt><trkpt lat="46.1074395917021" lon="9.79280447500801"><ele>1662.6</ele><time>2026-05-02T11:56:54.998Z</time></trkpt><trkpt lat="46.10734716611276" lon="9.792802320962517"><ele>1669.1999999999998</ele><time>2026-05-02T11:56:55.998Z</time></trkpt><trkpt lat="46.10723999618909" lon="9.792817064423021"><ele>1675.8000000000002</ele><time>2026-05-02T11:56:56.998Z</time></trkpt><trkpt lat="46.10715901733487" lon="9.792863806793365"><ele>1682.4</ele><time>2026-05-02T11:56:57.998Z</time></trkpt><trkpt lat="46.10709240747862" lon="9.792900739410994"><ele>1689.0</ele><time>2026-05-02T11:56:58.998Z</time></trkpt><trkpt lat="46.10699253331834" lon="9.792866650042528"><ele>1689.0</ele><time>2026-05-02T11:56:59.998Z</time></trkpt><trkpt lat="46.106898607936195" lon="9.79282010701731"><ele>1689.0</ele><time>2026-05-02T11:57:00.998Z</time></trkpt><trkpt lat="46.106829712593985" lon="9.792779962056374"><ele>1689.0</ele><time>2026-05-02T11:57:01.998Z</time></trkpt><trkpt lat="46.106738111800034" lon="9.792785110167674"><ele>1689.0</ele><time>2026-05-02T11:57:03.998Z</time></trkpt><trkpt lat="46.1066788303898" lon="9.792820996426508"><ele>1689.0</ele><time>2026-05-02T11:57:04.998Z</time></trkpt><trkpt lat="46.106565144857946" lon="9.792905116958446"><ele>1686.0</ele><time>2026-05-02T11:57:05.998Z</time></trkpt><trkpt lat="46.106467438456406" lon="9.792934227635238"><ele>1683.0</ele><time>2026-05-02T11:57:06.998Z</time></trkpt><trkpt lat="46.106387497469825" lon="9.792973385961895"><ele>1680.0</ele><time>2026-05-02T11:57:07.998Z</time></trkpt><trkpt lat="46.10631117115527" lon="9.79305740284278"><ele>1677.0</ele><time>2026-05-02T11:57:08.998Z</time></trkpt><trkpt lat="46.106225912669466" lon="9.79314368927619"><ele>1674.0</ele><time>2026-05-02T11:57:09.998Z</time></trkpt><trkpt lat="46.106101535469875" lon="9.79320833132269"><ele>1674.0</ele><time>2026-05-02T11:57:10.998Z</time></trkpt><trkpt lat="46.106019044226656" lon="9.793276772879548"><ele>1674.0</ele><time>2026-05-02T11:57:11.998Z</time></trkpt><trkpt lat="46.105929614228" lon="9.793346949501856"><ele>1674.0</ele><time>2026-05-02T11:57:12.998Z</time></trkpt><trkpt lat="46.105853741606744" lon="9.79342584684429"><ele>1674.0</ele><time>2026-05-02T11:57:13.998Z</time></trkpt><trkpt lat="46.10577092827706" lon="9.793507740184646"><ele>1674.0</ele><time>2026-05-02T11:57:14.998Z</time></trkpt><trkpt lat="46.105689714329905" lon="9.79358325069606"><ele>1676.5</ele><time>2026-05-02T11:57:15.998Z</time></trkpt><trkpt lat="46.10561987731961" lon="9.793665638241304"><ele>1679.0</ele><time>2026-05-02T11:57:16.998Z</time></trkpt><trkpt lat="46.10556301398913" lon="9.79375891180216"><ele>1681.5</ele><time>2026-05-02T11:57:17.998Z</time></trkpt><trkpt lat="46.105530534577255" lon="9.793865358030862"><ele>1684.0</ele><time>2026-05-02T11:57:18.998Z</time></trkpt><trkpt lat="46.10551297590216" lon="9.793981485280453"><ele>1686.5</ele><time>2026-05-02T11:57:19.998Z</time></trkpt><trkpt lat="46.105500486561226" lon="9.794103270599901"><ele>1689.0</ele><time>2026-05-02T11:57:20.998Z</time></trkpt><trkpt lat="46.105480373837146" lon="9.794248359744717"><ele>1696.2</ele><time>2026-05-02T11:57:21.998Z</time></trkpt><trkpt lat="46.1054434948888" lon="9.794344179207782"><ele>1703.4</ele><time>2026-05-02T11:57:22.998Z</time></trkpt><trkpt lat="46.10535623426979" lon="9.79440234033174"><ele>1710.6</ele><time>2026-05-02T11:57:23.998Z</time></trkpt><trkpt lat="46.10525497484886" lon="9.79442994630565"><ele>1717.8</ele><time>2026-05-02T11:57:24.998Z</time></trkpt><trkpt lat="46.105124893227696" lon="9.794452263617943"><ele>1725.0</ele><time>2026-05-02T11:57:25.998Z</time></trkpt><trkpt lat="46.105003286603456" lon="9.794491338188424"><ele>1725.0</ele><time>2026-05-02T11:57:26.998Z</time></trkpt><trkpt lat="46.1049273316743" lon="9.794508131367946"><ele>1725.0</ele><time>2026-05-02T11:57:27.998Z</time></trkpt><trkpt lat="46.10482302617555" lon="9.794511537685755"><ele>1725.0</ele><time>2026-05-02T11:57:28.998Z</time></trkpt><trkpt lat="46.10470076297411" lon="9.794499922088395"><ele>1725.0</ele><time>2026-05-02T11:57:29.998Z</time></trkpt><trkpt lat="46.10458525722579" lon="9.794512267197456"><ele>1725.0</ele><time>2026-05-02T11:57:30.998Z</time></trkpt><trkpt lat="46.104493414878924" lon="9.794522869975346"><ele>1725.0</ele><time>2026-05-02T11:57:31.998Z</time></trkpt><trkpt lat="46.10436607661795" lon="9.794512176229217"><ele>1725.0</ele><time>2026-05-02T11:57:32.998Z</time></trkpt><trkpt lat="46.10427513176815" lon="9.79449641663302"><ele>1725.0</ele><time>2026-05-02T11:57:33.998Z</time></trkpt><trkpt lat="46.104189123666835" lon="9.794497138595997"><ele>1725.0</ele><time>2026-05-02T11:57:34.998Z</time></trkpt><trkpt lat="46.10410504106321" lon="9.794529912821865"><ele>1725.0</ele><time>2026-05-02T11:57:35.998Z</time></trkpt><trkpt lat="46.10404252519118" lon="9.79460916395401"><ele>1724.8</ele><time>2026-05-02T11:57:36.998Z</time></trkpt><trkpt lat="46.10398548502614" lon="9.794712599326528"><ele>1724.6</ele><time>2026-05-02T11:57:37.998Z</time></trkpt><trkpt lat="46.10392789807437" lon="9.794798289954024"><ele>1724.4</ele><time>2026-05-02T11:57:38.998Z</time></trkpt><trkpt lat="46.103853071316045" lon="9.794883013774253"><ele>1724.2</ele><time>2026-05-02T11:57:39.998Z</time></trkpt><trkpt lat="46.10376792518971" lon="9.794991658634604"><ele>1724.0</ele><time>2026-05-02T11:57:40.998Z</time></trkpt><trkpt lat="46.10368992046254" lon="9.795115916457082"><ele>1724.0</ele><time>2026-05-02T11:57:41.998Z</time></trkpt><trkpt lat="46.103615316549536" lon="9.79521648862614"><ele>1724.0</ele><time>2026-05-02T11:57:42.998Z</time></trkpt><trkpt lat="46.10352988260947" lon="9.795261166530512"><ele>1724.0</ele><time>2026-05-02T11:57:43.998Z</time></trkpt><trkpt lat="46.10343989501742" lon="9.795253663349266"><ele>1724.0</ele><time>2026-05-02T11:57:44.998Z</time></trkpt><trkpt lat="46.10333055652148" lon="9.795169630290971"><ele>1724.0</ele><time>2026-05-02T11:57:45.998Z</time></trkpt><trkpt lat="46.1032114048936" lon="9.795117858830476"><ele>1727.5</ele><time>2026-05-02T11:57:46.998Z</time></trkpt><trkpt lat="46.103084078481324" lon="9.795043239899428"><ele>1731.0</ele><time>2026-05-02T11:57:47.998Z</time></trkpt><trkpt lat="46.10295523634368" lon="9.795004560155895"><ele>1734.5</ele><time>2026-05-02T11:57:48.998Z</time></trkpt><trkpt lat="46.10283543818901" lon="9.794979214846723"><ele>1738.0</ele><time>2026-05-02T11:57:49.997Z</time></trkpt><trkpt lat="46.1027137433209" lon="9.794979368858426"><ele>1738.0</ele><time>2026-05-02T11:57:50.997Z</time></trkpt><trkpt lat="46.10259105146581" lon="9.794975851013838"><ele>1738.0000000000002</ele><time>2026-05-02T11:57:51.997Z</time></trkpt><trkpt lat="46.10248776783966" lon="9.794949102445452"><ele>1738.0000000000002</ele><time>2026-05-02T11:57:52.997Z</time></trkpt><trkpt lat="46.10240316481701" lon="9.794892812312407"><ele>1738.0</ele><time>2026-05-02T11:57:53.997Z</time></trkpt><trkpt lat="46.10233650935038" lon="9.794774130257608"><ele>1738.0</ele><time>2026-05-02T11:57:54.997Z</time></trkpt><trkpt lat="46.1022862533641" lon="9.794650566899273"><ele>1735.0</ele><time>2026-05-02T11:57:55.997Z</time></trkpt><trkpt lat="46.1022284747214" lon="9.794576071719346"><ele>1732.0000000000002</ele><time>2026-05-02T11:57:56.997Z</time></trkpt><trkpt lat="46.102096809829796" lon="9.794607152223987"><ele>1729.0000000000002</ele><time>2026-05-02T11:57:58.997Z</time></trkpt><trkpt lat="46.10202028192913" lon="9.794685923802287"><ele>1726.0</ele><time>2026-05-02T11:57:59.997Z</time></trkpt><trkpt lat="46.10195778959671" lon="9.79480779256625"><ele>1723.0</ele><time>2026-05-02T11:58:00.997Z</time></trkpt><trkpt lat="46.101882040958934" lon="9.794906060340645"><ele>1723.0</ele><time>2026-05-02T11:58:01.997Z</time></trkpt><trkpt lat="46.10181510845751" lon="9.795048698352069"><ele>1723.0000000000002</ele><time>2026-05-02T11:58:02.997Z</time></trkpt><trkpt lat="46.10173352788062" lon="9.79518686704628"><ele>1723.0000000000002</ele><time>2026-05-02T11:58:03.997Z</time></trkpt><trkpt lat="46.10167077773255" lon="9.795308614194969"><ele>1723.0</ele><time>2026-05-02T11:58:04.997Z</time></trkpt><trkpt lat="46.10161998430852" lon="9.795424259960832"><ele>1723.0</ele><time>2026-05-02T11:58:05.997Z</time></trkpt><trkpt lat="46.10156703855895" lon="9.795544823408996"><ele>1721.2</ele><time>2026-05-02T11:58:06.997Z</time></trkpt><trkpt lat="46.101520153044454" lon="9.795653405739593"><ele>1719.4</ele><time>2026-05-02T11:58:07.997Z</time></trkpt><trkpt lat="46.101464574035816" lon="9.795782511660706"><ele>1717.6000000000001</ele><time>2026-05-02T11:58:08.997Z</time></trkpt><trkpt lat="46.10142411878166" lon="9.795870617255577"><ele>1715.8000000000002</ele><time>2026-05-02T11:58:09.997Z</time></trkpt><trkpt lat="46.10138397247158" lon="9.795980250594887"><ele>1714.0</ele><time>2026-05-02T11:58:10.997Z</time></trkpt><trkpt lat="46.1013527662466" lon="9.796117579300157"><ele>1718.4</ele><time>2026-05-02T11:58:11.997Z</time></trkpt><trkpt lat="46.10132132420496" lon="9.796273115033877"><ele>1722.8000000000002</ele><time>2026-05-02T11:58:12.997Z</time></trkpt><trkpt lat="46.101304312740254" lon="9.796422887731422"><ele>1727.1999999999998</ele><time>2026-05-02T11:58:13.997Z</time></trkpt><trkpt lat="46.101277523930776" lon="9.79654337920189"><ele>1731.6</ele><time>2026-05-02T11:58:14.997Z</time></trkpt><trkpt lat="46.10123443604229" lon="9.79665022454016"><ele>1736.0</ele><time>2026-05-02T11:58:15.997Z</time></trkpt><trkpt lat="46.10118358064894" lon="9.796755209255352"><ele>1740.1999999999998</ele><time>2026-05-02T11:58:16.997Z</time></trkpt><trkpt lat="46.10112323379398" lon="9.79685228624987"><ele>1744.3999999999999</ele><time>2026-05-02T11:58:17.997Z</time></trkpt><trkpt lat="46.10109805033753" lon="9.796951750732418"><ele>1748.6</ele><time>2026-05-02T11:58:18.997Z</time></trkpt><trkpt lat="46.101075341104746" lon="9.797139323863364"><ele>1752.8</ele><time>2026-05-02T11:58:20.997Z</time></trkpt><trkpt lat="46.10106528459869" lon="9.797234142401557"><ele>1757.0</ele><time>2026-05-02T11:58:21.997Z</time></trkpt><trkpt lat="46.10098766885915" lon="9.797354450151047"><ele>1757.0</ele><time>2026-05-02T11:58:23.997Z</time></trkpt><trkpt lat="46.10092156297193" lon="9.79750198892565"><ele>1756.9999999999998</ele><time>2026-05-02T11:58:25.997Z</time></trkpt><trkpt lat="46.10086583611826" lon="9.797598278495114"><ele>1756.9999999999998</ele><time>2026-05-02T11:58:26.997Z</time></trkpt><trkpt lat="46.100793426956294" lon="9.797675667560979"><ele>1757.0</ele><time>2026-05-02T11:58:27.997Z</time></trkpt><trkpt lat="46.10070639128123" lon="9.797722371842987"><ele>1757.0</ele><time>2026-05-02T11:58:28.998Z</time></trkpt><trkpt lat="46.10061328033249" lon="9.797768410293752"><ele>1760.1666666666665</ele><time>2026-05-02T11:58:29.998Z</time></trkpt><trkpt lat="46.10054237392767" lon="9.79782815873397"><ele>1763.3333333333333</ele><time>2026-05-02T11:58:30.998Z</time></trkpt><trkpt lat="46.100490919283615" lon="9.797916899361772"><ele>1766.5</ele><time>2026-05-02T11:58:31.999Z</time></trkpt><trkpt lat="46.100444307503416" lon="9.79802556701676"><ele>1769.6666666666665</ele><time>2026-05-02T11:58:32.998Z</time></trkpt><trkpt lat="46.10040607180276" lon="9.79813749191536"><ele>1772.8333333333333</ele><time>2026-05-02T11:58:33.998Z</time></trkpt><trkpt lat="46.10032864527073" lon="9.798191042316242"><ele>1776.0</ele><time>2026-05-02T11:58:34.998Z</time></trkpt><trkpt lat="46.10024738427636" lon="9.798189554543738"><ele>1776.0</ele><time>2026-05-02T11:58:35.998Z</time></trkpt><trkpt lat="46.100149391843395" lon="9.798172837510341"><ele>1776.0</ele><time>2026-05-02T11:58:36.998Z</time></trkpt><trkpt lat="46.100051132002854" lon="9.79819447097163"><ele>1776.0</ele><time>2026-05-02T11:58:37.998Z</time></trkpt><trkpt lat="46.09995007104671" lon="9.798245500532538"><ele>1776.0</ele><time>2026-05-02T11:58:38.998Z</time></trkpt><trkpt lat="46.09985280085704" lon="9.798335463304381"><ele>1776.0</ele><time>2026-05-02T11:58:39.998Z</time></trkpt><trkpt lat="46.09975375457377" lon="9.798406264634657"><ele>1777.6</ele><time>2026-05-02T11:58:40.998Z</time></trkpt><trkpt lat="46.09966783208409" lon="9.798440709025643"><ele>1779.1999999999998</ele><time>2026-05-02T11:58:41.998Z</time></trkpt><trkpt lat="46.09958661257478" lon="9.798429279638619"><ele>1780.8000000000002</ele><time>2026-05-02T11:58:42.998Z</time></trkpt><trkpt lat="46.099507237845536" lon="9.798365864275974"><ele>1782.4</ele><time>2026-05-02T11:58:43.998Z</time></trkpt><trkpt lat="46.099405612009356" lon="9.798297967369539"><ele>1784.0</ele><time>2026-05-02T11:58:44.998Z</time></trkpt><trkpt lat="46.09929734650313" lon="9.798245506618947"><ele>1784.0</ele><time>2026-05-02T11:58:45.998Z</time></trkpt><trkpt lat="46.09918692903924" lon="9.798205153839003"><ele>1784.0</ele><time>2026-05-02T11:58:46.998Z</time></trkpt><trkpt lat="46.099090197759296" lon="9.798194131849217"><ele>1784.0</ele><time>2026-05-02T11:58:47.998Z</time></trkpt><trkpt lat="46.09899336059987" lon="9.798227696710315"><ele>1784.0</ele><time>2026-05-02T11:58:48.998Z</time></trkpt><trkpt lat="46.09887641863094" lon="9.798244454879905"><ele>1784.0</ele><time>2026-05-02T11:58:49.998Z</time></trkpt><trkpt lat="46.09877134076424" lon="9.798208860066119"><ele>1786.1666666666665</ele><time>2026-05-02T11:58:50.998Z</time></trkpt><trkpt lat="46.09867811966773" lon="9.798153444681446"><ele>1788.3333333333333</ele><time>2026-05-02T11:58:51.998Z</time></trkpt><trkpt lat="46.09859139888121" lon="9.798110927076838"><ele>1790.5</ele><time>2026-05-02T11:58:52.998Z</time></trkpt><trkpt lat="46.0985117978626" lon="9.798075316683034"><ele>1792.6666666666665</ele><time>2026-05-02T11:58:53.998Z</time></trkpt><trkpt lat="46.09844783926567" lon="9.798060538933655"><ele>1794.8333333333333</ele><time>2026-05-02T11:58:54.998Z</time></trkpt><trkpt lat="46.09837975736546" lon="9.79806109708461"><ele>1797.0</ele><time>2026-05-02T11:58:55.998Z</time></trkpt><trkpt lat="46.09829933359859" lon="9.798069553004325"><ele>1798.1666666666667</ele><time>2026-05-02T11:58:56.998Z</time></trkpt><trkpt lat="46.09821434987967" lon="9.798095401928862"><ele>1799.3333333333335</ele><time>2026-05-02T11:58:57.998Z</time></trkpt><trkpt lat="46.098129158529304" lon="9.798122989816557"><ele>1800.5</ele><time>2026-05-02T11:58:58.998Z</time></trkpt><trkpt lat="46.098040982886026" lon="9.798127447373293"><ele>1801.6666666666667</ele><time>2026-05-02T11:58:59.998Z</time></trkpt><trkpt lat="46.09796537086803" lon="9.79812070367288"><ele>1802.8333333333335</ele><time>2026-05-02T11:59:00.998Z</time></trkpt><trkpt lat="46.09796578747383" lon="9.798226267208415"><ele>1804.0</ele><time>2026-05-02T11:59:03.998Z</time></trkpt><trkpt lat="46.09803422184754" lon="9.79826640833427"><ele>1804.0</ele><time>2026-05-02T11:59:04.998Z</time></trkpt><trkpt lat="46.098109198466496" lon="9.798313584781193"><ele>1804.0</ele><time>2026-05-02T11:59:05.998Z</time></trkpt><trkpt lat="46.09819214289128" lon="9.79839188982049"><ele>1804.0</ele><time>2026-05-02T11:59:06.998Z</time></trkpt><trkpt lat="46.09827760451649" lon="9.798481298088605"><ele>1804.0</ele><time>2026-05-02T11:59:07.998Z</time></trkpt><trkpt lat="46.09835831207845" lon="9.798568023934301"><ele>1804.0</ele><time>2026-05-02T11:59:08.998Z</time></trkpt><trkpt lat="46.09841795045943" lon="9.798650922487429"><ele>1806.0000000000002</ele><time>2026-05-02T11:59:09.998Z</time></trkpt><trkpt lat="46.09846012052625" lon="9.798739489021445"><ele>1808.0</ele><time>2026-05-02T11:59:10.998Z</time></trkpt><trkpt lat="46.09851438768107" lon="9.798839992949045"><ele>1810.0</ele><time>2026-05-02T11:59:11.998Z</time></trkpt><trkpt lat="46.09857792743018" lon="9.79893829437709"><ele>1812.0</ele><time>2026-05-02T11:59:12.998Z</time></trkpt><trkpt lat="46.098637800275384" lon="9.799032996288007"><ele>1814.0000000000002</ele><time>2026-05-02T11:59:13.998Z</time></trkpt><trkpt lat="46.09866817537009" lon="9.799146188287473"><ele>1816.0</ele><time>2026-05-02T11:59:14.998Z</time></trkpt><trkpt lat="46.098684122672815" lon="9.799238320466458"><ele>1819.5000000000002</ele><time>2026-05-02T11:59:15.998Z</time></trkpt><trkpt lat="46.098712818896416" lon="9.7993363984861"><ele>1823.0</ele><time>2026-05-02T11:59:16.998Z</time></trkpt><trkpt lat="46.09876051289295" lon="9.799435760547638"><ele>1826.5</ele><time>2026-05-02T11:59:17.998Z</time></trkpt><trkpt lat="46.09883530166372" lon="9.799540924295389"><ele>1830.0</ele><time>2026-05-02T11:59:18.998Z</time></trkpt><trkpt lat="46.098914660015716" lon="9.799622888341691"><ele>1833.5000000000002</ele><time>2026-05-02T11:59:19.998Z</time></trkpt><trkpt lat="46.09899544218844" lon="9.799673574161329"><ele>1837.0</ele><time>2026-05-02T11:59:20.998Z</time></trkpt><trkpt lat="46.09906677390797" lon="9.79971362258031"><ele>1837.0</ele><time>2026-05-02T11:59:21.998Z</time></trkpt><trkpt lat="46.09911680543618" lon="9.79978176875385"><ele>1837.0000000000002</ele><time>2026-05-02T11:59:22.998Z</time></trkpt><trkpt lat="46.09915045824017" lon="9.799860558663203"><ele>1837.0</ele><time>2026-05-02T11:59:23.997Z</time></trkpt><trkpt lat="46.099127044848906" lon="9.799978943688814"><ele>1837.0</ele><time>2026-05-02T11:59:25.997Z</time></trkpt><trkpt lat="46.099063931335444" lon="9.799965766418158"><ele>1837.0000000000002</ele><time>2026-05-02T11:59:26.997Z</time></trkpt><trkpt lat="46.098996174133696" lon="9.799933682339331"><ele>1837.0</ele><time>2026-05-02T11:59:27.997Z</time></trkpt><trkpt lat="46.09892419623504" lon="9.799927779615079"><ele>1837.0</ele><time>2026-05-02T11:59:28.997Z</time></trkpt><trkpt lat="46.09883094266482" lon="9.799917378765702"><ele>1837.0000000000002</ele><time>2026-05-02T11:59:29.997Z</time></trkpt><trkpt lat="46.0987348766118" lon="9.799877802301939"><ele>1837.0</ele><time>2026-05-02T11:59:30.997Z</time></trkpt><trkpt lat="46.0986663091374" lon="9.799842079028853"><ele>1837.0</ele><time>2026-05-02T11:59:31.997Z</time></trkpt><trkpt lat="46.098589254122224" lon="9.799803617007376"><ele>1837.0</ele><time>2026-05-02T11:59:32.997Z</time></trkpt><trkpt lat="46.098506965823354" lon="9.799810938626134"><ele>1837.0000000000002</ele><time>2026-05-02T11:59:33.997Z</time></trkpt><trkpt lat="46.09842721485997" lon="9.799811009912426"><ele>1837.0</ele><time>2026-05-02T11:59:34.997Z</time></trkpt><trkpt lat="46.09835518665886" lon="9.799815242664833"><ele>1837.0000000000002</ele><time>2026-05-02T11:59:35.997Z</time></trkpt><trkpt lat="46.098287285234996" lon="9.799823144739312"><ele>1837.0</ele><time>2026-05-02T11:59:36.997Z</time></trkpt><trkpt lat="46.09820686203684" lon="9.79983743015836"><ele>1837.0</ele><time>2026-05-02T11:59:37.997Z</time></trkpt><trkpt lat="46.09812329942818" lon="9.799841250041286"><ele>1837.0</ele><time>2026-05-02T11:59:38.997Z</time></trkpt><trkpt lat="46.098023898751904" lon="9.79982548615455"><ele>1837.0000000000002</ele><time>2026-05-02T11:59:39.997Z</time></trkpt><trkpt lat="46.09793059615907" lon="9.799804632126135"><ele>1837.0</ele><time>2026-05-02T11:59:40.997Z</time></trkpt><trkpt lat="46.09784774587446" lon="9.799801385918427"><ele>1839.8333333333335</ele><time>2026-05-02T11:59:41.997Z</time></trkpt><trkpt lat="46.09776522825238" lon="9.799801855900263"><ele>1842.6666666666667</ele><time>2026-05-02T11:59:42.997Z</time></trkpt><trkpt lat="46.09769077384932" lon="9.799778870991794"><ele>1845.5</ele><time>2026-05-02T11:59:43.997Z</time></trkpt><trkpt lat="46.09761623913202" lon="9.79974754976067"><ele>1848.3333333333335</ele><time>2026-05-02T11:59:44.997Z</time></trkpt><trkpt lat="46.097529828833665" lon="9.799741090929842"><ele>1851.1666666666667</ele><time>2026-05-02T11:59:45.997Z</time></trkpt><trkpt lat="46.09744691126046" lon="9.799763318135275"><ele>1854.0</ele><time>2026-05-02T11:59:46.997Z</time></trkpt><trkpt lat="46.09736431845156" lon="9.799787607731837"><ele>1855.6666666666667</ele><time>2026-05-02T11:59:47.997Z</time></trkpt><trkpt lat="46.09728233094909" lon="9.799828780275861"><ele>1857.3333333333335</ele><time>2026-05-02T11:59:48.997Z</time></trkpt><trkpt lat="46.09720168108064" lon="9.799882511363586"><ele>1859.0</ele><time>2026-05-02T11:59:49.997Z</time></trkpt><trkpt lat="46.09712741683994" lon="9.799938810637055"><ele>1860.6666666666667</ele><time>2026-05-02T11:59:50.997Z</time></trkpt><trkpt lat="46.097038650697115" lon="9.799966210639578"><ele>1862.3333333333335</ele><time>2026-05-02T11:59:51.997Z</time></trkpt><trkpt lat="46.09695300163636" lon="9.799988889463688"><ele>1864.0</ele><time>2026-05-02T11:59:52.997Z</time></trkpt><trkpt lat="46.09686331805201" lon="9.80002528724562"><ele>1864.0000000000002</ele><time>2026-05-02T11:59:53.997Z</time></trkpt><trkpt lat="46.096779034767366" lon="9.800065059382092"><ele>1864.0</ele><time>2026-05-02T11:59:54.997Z</time></trkpt><trkpt lat="46.0966914132293" lon="9.800101128730041"><ele>1864.0</ele><time>2026-05-02T11:59:55.997Z</time></trkpt><trkpt lat="46.09660891667074" lon="9.800113297126723"><ele>1864.0</ele><time>2026-05-02T11:59:56.997Z</time></trkpt><trkpt lat="46.09653086156538" lon="9.800127266926534"><ele>1864.0000000000002</ele><time>2026-05-02T11:59:57.997Z</time></trkpt><trkpt lat="46.096456324607644" lon="9.800112970350023"><ele>1864.0</ele><time>2026-05-02T11:59:58.997Z</time></trkpt><trkpt lat="46.09637517632551" lon="9.800090486787829"><ele>1866.1666666666667</ele><time>2026-05-02T11:59:59.997Z</time></trkpt><trkpt lat="46.09631154194766" lon="9.800037980004184"><ele>1868.3333333333335</ele><time>2026-05-02T12:00:00.997Z</time></trkpt><trkpt lat="46.09624584158066" lon="9.799958268137349"><ele>1870.5</ele><time>2026-05-02T12:00:01.997Z</time></trkpt><trkpt lat="46.096212412872724" lon="9.799854572896278"><ele>1872.6666666666665</ele><time>2026-05-02T12:00:02.997Z</time></trkpt><trkpt lat="46.09617882719448" lon="9.799754008324214"><ele>1874.8333333333333</ele><time>2026-05-02T12:00:03.997Z</time></trkpt><trkpt lat="46.09605212954187" lon="9.799750436316115"><ele>1877.0</ele><time>2026-05-02T12:00:05.997Z</time></trkpt><trkpt lat="46.09598144096076" lon="9.799804823300596"><ele>1876.9999999999998</ele><time>2026-05-02T12:00:06.997Z</time></trkpt><trkpt lat="46.095915511545684" lon="9.79986363910323"><ele>1877.0</ele><time>2026-05-02T12:00:07.997Z</time></trkpt><trkpt lat="46.09585814722342" lon="9.79992563507847"><ele>1877.0</ele><time>2026-05-02T12:00:08.997Z</time></trkpt><trkpt lat="46.09577000117497" lon="9.800031913905705"><ele>1877.0</ele><time>2026-05-02T12:00:10.997Z</time></trkpt><trkpt lat="46.095721007232974" lon="9.800101071587443"><ele>1876.9999999999998</ele><time>2026-05-02T12:00:11.997Z</time></trkpt><trkpt lat="46.095681620463566" lon="9.800172287314926"><ele>1877.0</ele><time>2026-05-02T12:00:12.997Z</time></trkpt><trkpt lat="46.095624651121284" lon="9.800276318167226"><ele>1879.8</ele><time>2026-05-02T12:00:14.997Z</time></trkpt><trkpt lat="46.09553619935787" lon="9.800361530836067"><ele>1882.6</ele><time>2026-05-02T12:00:16.997Z</time></trkpt><trkpt lat="46.09542984725573" lon="9.80039495818597"><ele>1885.3999999999999</ele><time>2026-05-02T12:00:18.997Z</time></trkpt><trkpt lat="46.09536247064245" lon="9.800394222337635"><ele>1888.1999999999998</ele><time>2026-05-02T12:00:19.997Z</time></trkpt><trkpt lat="46.09529137971999" lon="9.800367436323173"><ele>1891.0</ele><time>2026-05-02T12:00:20.997Z</time></trkpt><trkpt lat="46.09518784524553" lon="9.800286150129917"><ele>1891.0000000000002</ele><time>2026-05-02T12:00:22.997Z</time></trkpt><trkpt lat="46.09511618605842" lon="9.800279120897686"><ele>1891.0</ele><time>2026-05-02T12:00:24.997Z</time></trkpt><trkpt lat="46.095057881854956" lon="9.800419402947483"><ele>1891.0</ele><time>2026-05-02T12:00:26.997Z</time></trkpt><trkpt lat="46.095036595706596" lon="9.800527690119154"><ele>1891.0</ele><time>2026-05-02T12:00:27.997Z</time></trkpt><trkpt lat="46.09502427087967" lon="9.800633721462464"><ele>1891.0000000000002</ele><time>2026-05-02T12:00:28.997Z</time></trkpt><trkpt lat="46.09501477744013" lon="9.800752603696044"><ele>1891.0</ele><time>2026-05-02T12:00:29.997Z</time></trkpt><trkpt lat="46.09501262826853" lon="9.800886503751785"><ele>1896.0000000000002</ele><time>2026-05-02T12:00:30.997Z</time></trkpt><trkpt lat="46.09500972208482" lon="9.80102099281797"><ele>1901.0</ele><time>2026-05-02T12:00:31.997Z</time></trkpt><trkpt lat="46.094998162067995" lon="9.801145241415988"><ele>1906.0</ele><time>2026-05-02T12:00:32.997Z</time></trkpt><trkpt lat="46.094987557662215" lon="9.80123894110774"><ele>1911.0</ele><time>2026-05-02T12:00:33.998Z</time></trkpt><trkpt lat="46.09494954782" lon="9.801313155924236"><ele>1916.0000000000002</ele><time>2026-05-02T12:00:34.998Z</time></trkpt><trkpt lat="46.094869901888046" lon="9.801358783971542"><ele>1921.0</ele><time>2026-05-02T12:00:35.998Z</time></trkpt><trkpt lat="46.09479888236953" lon="9.801387114205053"><ele>1921.8</ele><time>2026-05-02T12:00:36.998Z</time></trkpt><trkpt lat="46.09471655182697" lon="9.801420070272503"><ele>1922.6</ele><time>2026-05-02T12:00:37.998Z</time></trkpt><trkpt lat="46.09463228975948" lon="9.801456587319468"><ele>1923.4</ele><time>2026-05-02T12:00:38.998Z</time></trkpt><trkpt lat="46.094571376582635" lon="9.80149421697711"><ele>1924.2</ele><time>2026-05-02T12:00:39.998Z</time></trkpt><trkpt lat="46.09449501422675" lon="9.801572274313484"><ele>1925.0</ele><time>2026-05-02T12:00:41.998Z</time></trkpt><trkpt lat="46.09442137120123" lon="9.80143124967353"><ele>1925.0</ele><time>2026-05-02T12:00:43.998Z</time></trkpt><trkpt lat="46.094405052198226" lon="9.801271148835651"><ele>1925.0</ele><time>2026-05-02T12:00:45.998Z</time></trkpt><trkpt lat="46.09435181735875" lon="9.80113071342286"><ele>1925.0</ele><time>2026-05-02T12:00:47.998Z</time></trkpt><trkpt lat="46.09425024519688" lon="9.801082871525216"><ele>1925.0</ele><time>2026-05-02T12:00:49.998Z</time></trkpt><trkpt lat="46.09417192135841" lon="9.801076615974656"><ele>1925.0</ele><time>2026-05-02T12:00:50.998Z</time></trkpt><trkpt lat="46.09408198334313" lon="9.801058629362128"><ele>1923.4</ele><time>2026-05-02T12:00:51.998Z</time></trkpt><trkpt lat="46.09398918064143" lon="9.800990144809314"><ele>1921.8</ele><time>2026-05-02T12:00:52.998Z</time></trkpt><trkpt lat="46.09390036831291" lon="9.800912041831333"><ele>1920.1999999999998</ele><time>2026-05-02T12:00:53.998Z</time></trkpt><trkpt lat="46.09379433557429" lon="9.800833864965822"><ele>1918.6</ele><time>2026-05-02T12:00:54.998Z</time></trkpt><trkpt lat="46.09370581417334" lon="9.800779878911344"><ele>1917.0</ele><time>2026-05-02T12:00:55.998Z</time></trkpt><trkpt lat="46.09360642596196" lon="9.80072201376704"><ele>1917.0</ele><time>2026-05-02T12:00:56.998Z</time></trkpt><trkpt lat="46.093509507739526" lon="9.800666543764319"><ele>1916.9999999999998</ele><time>2026-05-02T12:00:57.998Z</time></trkpt><trkpt lat="46.09342803566411" lon="9.800619864341845"><ele>1916.9999999999998</ele><time>2026-05-02T12:00:58.998Z</time></trkpt><trkpt lat="46.09334050717977" lon="9.800557424803788"><ele>1917.0</ele><time>2026-05-02T12:00:59.998Z</time></trkpt><trkpt lat="46.093263241960386" lon="9.800466410286504"><ele>1917.0</ele><time>2026-05-02T12:01:00.998Z</time></trkpt><trkpt lat="46.09316868056976" lon="9.800392922528705"><ele>1918.6</ele><time>2026-05-02T12:01:01.998Z</time></trkpt><trkpt lat="46.09308435596597" lon="9.800316184906185"><ele>1920.1999999999998</ele><time>2026-05-02T12:01:02.998Z</time></trkpt><trkpt lat="46.09301660468587" lon="9.800236063225908"><ele>1921.8</ele><time>2026-05-02T12:01:03.998Z</time></trkpt><trkpt lat="46.092942566672974" lon="9.800179005890397"><ele>1923.4</ele><time>2026-05-02T12:01:04.998Z</time></trkpt><trkpt lat="46.09282673969259" lon="9.800132457426363"><ele>1925.0</ele><time>2026-05-02T12:01:06.998Z</time></trkpt><trkpt lat="46.092760264429366" lon="9.800129821535768"><ele>1925.0</ele><time>2026-05-02T12:01:07.998Z</time></trkpt><trkpt lat="46.09263890756939" lon="9.800131132784252"><ele>1925.0</ele><time>2026-05-02T12:01:09.997Z</time></trkpt><trkpt lat="46.09254846013748" lon="9.800152856946807"><ele>1925.0</ele><time>2026-05-02T12:01:11.997Z</time></trkpt><trkpt lat="46.09242338601342" lon="9.80019145841727"><ele>1925.0</ele><time>2026-05-02T12:01:13.997Z</time></trkpt><trkpt lat="46.09235710848056" lon="9.800207001047404"><ele>1925.0</ele><time>2026-05-02T12:01:14.997Z</time></trkpt><trkpt lat="46.09229224803252" lon="9.800211181602204"><ele>1924.8333333333333</ele><time>2026-05-02T12:01:15.997Z</time></trkpt><trkpt lat="46.09222180007803" lon="9.800209087340086"><ele>1924.6666666666665</ele><time>2026-05-02T12:01:16.997Z</time></trkpt><trkpt lat="46.09209893624037" lon="9.800221822336136"><ele>1924.5</ele><time>2026-05-02T12:01:18.997Z</time></trkpt><trkpt lat="46.092032710467016" lon="9.800230623627586"><ele>1924.3333333333335</ele><time>2026-05-02T12:01:19.997Z</time></trkpt><trkpt lat="46.09196835340408" lon="9.800256544831852"><ele>1924.1666666666667</ele><time>2026-05-02T12:01:20.997Z</time></trkpt><trkpt lat="46.09190567785876" lon="9.800288684566906"><ele>1924.0</ele><time>2026-05-02T12:01:21.997Z</time></trkpt><trkpt lat="46.09184697127764" lon="9.800323442509749"><ele>1924.0</ele><time>2026-05-02T12:01:22.997Z</time></trkpt><trkpt lat="46.09172561348799" lon="9.800296731863806"><ele>1924.0</ele><time>2026-05-02T12:01:24.997Z</time></trkpt><trkpt lat="46.091663820564854" lon="9.800253982946705"><ele>1924.0</ele><time>2026-05-02T12:01:25.997Z</time></trkpt><trkpt lat="46.091541956503754" lon="9.800217707989816"><ele>1924.0</ele><time>2026-05-02T12:01:27.997Z</time></trkpt><trkpt lat="46.0914207100689" lon="9.800215573641006"><ele>1924.0</ele><time>2026-05-02T12:01:29.997Z</time></trkpt><trkpt lat="46.0913273498445" lon="9.800205889612704"><ele>1924.1666666666667</ele><time>2026-05-02T12:01:31.997Z</time></trkpt><trkpt lat="46.091247238143985" lon="9.800181947954073"><ele>1924.3333333333335</ele><time>2026-05-02T12:01:33.997Z</time></trkpt><trkpt lat="46.09117086545985" lon="9.800158830955846"><ele>1924.5</ele><time>2026-05-02T12:01:35.997Z</time></trkpt><trkpt lat="46.09110010238973" lon="9.800176475902687"><ele>1924.6666666666665</ele><time>2026-05-02T12:02:22.997Z</time></trkpt><trkpt lat="46.0910120173023" lon="9.800186465546428"><ele>1924.8333333333333</ele><time>2026-05-02T12:02:24.997Z</time></trkpt><trkpt lat="46.09091207030944" lon="9.800188801487131"><ele>1925.0</ele><time>2026-05-02T12:02:26.997Z</time></trkpt><trkpt lat="46.09082319424362" lon="9.80022165135905"><ele>1926.4999999999998</ele><time>2026-05-02T12:02:28.997Z</time></trkpt><trkpt lat="46.09074235004239" lon="9.80018764862943"><ele>1928.0</ele><time>2026-05-02T12:02:30.997Z</time></trkpt><trkpt lat="46.09068369580245" lon="9.800137699407665"><ele>1929.5</ele><time>2026-05-02T12:02:32.997Z</time></trkpt><trkpt lat="46.0906127908281" lon="9.800124943142889"><ele>1931.0</ele><time>2026-05-02T12:02:34.997Z</time></trkpt><trkpt lat="46.0905269797417" lon="9.800112021403391"><ele>1932.4999999999998</ele><time>2026-05-02T12:02:37.997Z</time></trkpt><trkpt lat="46.09044681813848" lon="9.800091207401676"><ele>1934.0</ele><time>2026-05-02T12:02:47.998Z</time></trkpt><trkpt lat="46.090409151316784" lon="9.800014654211841"><ele>1928.6666666666665</ele><time>2026-05-02T12:02:50.998Z</time></trkpt><trkpt lat="46.09037477986795" lon="9.799908726225294"><ele>1923.3333333333333</ele><time>2026-05-02T12:02:58.997Z</time></trkpt><trkpt lat="46.090403227846394" lon="9.799803187603537"><ele>1918.0</ele><time>2026-05-02T12:03:01.997Z</time></trkpt><trkpt lat="46.09041528227116" lon="9.799692741777566"><ele>1912.6666666666665</ele><time>2026-05-02T12:03:05.997Z</time></trkpt><trkpt lat="46.090362627168666" lon="9.799620250163159"><ele>1907.3333333333333</ele><time>2026-05-02T12:03:08.997Z</time></trkpt><trkpt lat="46.09029621565518" lon="9.799585035306844"><ele>1902.0</ele><time>2026-05-02T12:03:10.997Z</time></trkpt><trkpt lat="46.090215094232555" lon="9.799526554151944"><ele>1902.0</ele><time>2026-05-02T12:03:13.997Z</time></trkpt><trkpt lat="46.090156465646366" lon="9.79948081001604"><ele>1902.0</ele><time>2026-05-02T12:03:16.997Z</time></trkpt><trkpt lat="46.09009082355646" lon="9.7994468395949"><ele>1902.0</ele><time>2026-05-02T12:03:19.997Z</time></trkpt><trkpt lat="46.090018135379324" lon="9.799399612326223"><ele>1902.0</ele><time>2026-05-02T12:03:23.997Z</time></trkpt><trkpt lat="46.08994262331969" lon="9.79937859126851"><ele>1902.0</ele><time>2026-05-02T12:03:26.997Z</time></trkpt><trkpt lat="46.08988029544346" lon="9.799332683639848"><ele>1902.0</ele><time>2026-05-02T12:03:29.997Z</time></trkpt><trkpt lat="46.08981991689563" lon="9.799257370160127"><ele>1902.0</ele><time>2026-05-02T12:03:31.997Z</time></trkpt><trkpt lat="46.08974875334496" lon="9.799234117593857"><ele>1896.4285714285713</ele><time>2026-05-02T12:03:34.997Z</time></trkpt><trkpt lat="46.08969442833931" lon="9.799187026619252"><ele>1890.8571428571431</ele><time>2026-05-02T12:03:36.997Z</time></trkpt><trkpt lat="46.089636313879225" lon="9.799145374660982"><ele>1885.2857142857144</ele><time>2026-05-02T12:03:39.997Z</time></trkpt><trkpt lat="46.08959600838408" lon="9.799073014160266"><ele>1879.7142857142858</ele><time>2026-05-02T12:03:42.997Z</time></trkpt><trkpt lat="46.089626222974296" lon="9.79897227891058"><ele>1874.1428571428573</ele><time>2026-05-02T12:03:46.997Z</time></trkpt><trkpt lat="46.08968505642885" lon="9.798907071886244"><ele>1868.571428571429</ele><time>2026-05-02T12:03:49.997Z</time></trkpt><trkpt lat="46.08974553277325" lon="9.79884021062831"><ele>1863.0000000000002</ele><time>2026-05-02T12:03:52.997Z</time></trkpt><trkpt lat="46.08973817416141" lon="9.798735352183714"><ele>1863.0</ele><time>2026-05-02T12:03:57.997Z</time></trkpt><trkpt lat="46.089679779755436" lon="9.79868611575074"><ele>1863.0</ele><time>2026-05-02T12:04:00.997Z</time></trkpt><trkpt lat="46.08960878358607" lon="9.798635939685521"><ele>1863.0</ele><time>2026-05-02T12:04:04.997Z</time></trkpt><trkpt lat="46.08952708443055" lon="9.798652898115066"><ele>1863.0</ele><time>2026-05-02T12:04:07.997Z</time></trkpt><trkpt lat="46.0894381253512" lon="9.798658042409976"><ele>1863.0</ele><time>2026-05-02T12:04:10.997Z</time></trkpt><trkpt lat="46.08935968265971" lon="9.798659835646871"><ele>1863.0</ele><time>2026-05-02T12:04:13.997Z</time></trkpt><trkpt lat="46.08929515368256" lon="9.798677410525757"><ele>1863.0000000000002</ele><time>2026-05-02T12:04:16.997Z</time></trkpt><trkpt lat="46.08923912576638" lon="9.79872744847817"><ele>1863.0</ele><time>2026-05-02T12:04:20.996Z</time></trkpt><trkpt lat="46.0891745866336" lon="9.798765636627175"><ele>1863.0000000000002</ele><time>2026-05-02T12:04:28.996Z</time></trkpt><trkpt lat="46.08910957750937" lon="9.798792796615778"><ele>1863.0000000000002</ele><time>2026-05-02T12:04:44.996Z</time></trkpt><trkpt lat="46.089066311205585" lon="9.79885944061476"><ele>1863.0</ele><time>2026-05-02T12:04:55.998Z</time></trkpt><trkpt lat="46.08900323965158" lon="9.798864008665758"><ele>1863.0000000000002</ele><time>2026-05-02T12:05:10.997Z</time></trkpt><trkpt lat="46.088941347116034" lon="9.798897572962058"><ele>1863.0000000000002</ele><time>2026-05-02T12:05:21.997Z</time></trkpt><trkpt lat="46.08889997706127" lon="9.798823489154701"><ele>1863.2857142857147</ele><time>2026-05-02T12:06:09.997Z</time></trkpt><trkpt lat="46.088833554844925" lon="9.798808455079914"><ele>1863.5714285714287</ele><time>2026-05-02T12:06:17.997Z</time></trkpt><trkpt lat="46.08877010312005" lon="9.798791555987156"><ele>1863.8571428571431</ele><time>2026-05-02T12:06:40.997Z</time></trkpt><trkpt lat="46.08870390411228" lon="9.798799392793637"><ele>1864.1428571428573</ele><time>2026-05-02T12:07:20.997Z</time></trkpt><trkpt lat="46.08864273440982" lon="9.798769705096985"><ele>1864.4285714285716</ele><time>2026-05-02T12:07:34.997Z</time></trkpt><trkpt lat="46.08858063296683" lon="9.79873669380051"><ele>1864.7142857142858</ele><time>2026-05-02T12:07:52.997Z</time></trkpt><trkpt lat="46.08851705819586" lon="9.79868726595274"><ele>1865.0</ele><time>2026-05-02T12:07:59.997Z</time></trkpt><trkpt lat="46.088453489968195" lon="9.798651688747405"><ele>1865.0</ele><time>2026-05-02T12:08:05.997Z</time></trkpt><trkpt lat="46.08838062190824" lon="9.798691682927505"><ele>1865.0000000000002</ele><time>2026-05-02T12:08:19.997Z</time></trkpt><trkpt lat="46.08832199867966" lon="9.798655292607624"><ele>1865.0</ele><time>2026-05-02T12:08:25.997Z</time></trkpt><trkpt lat="46.088267381000165" lon="9.798607442431253"><ele>1865.0</ele><time>2026-05-02T12:08:31.997Z</time></trkpt><trkpt lat="46.08819357133868" lon="9.798603929680487"><ele>1865.0000000000002</ele><time>2026-05-02T12:08:39.996Z</time></trkpt><trkpt lat="46.08813033154336" lon="9.79858736802301"><ele>1865.0</ele><time>2026-05-02T12:08:44.996Z</time></trkpt><trkpt lat="46.08806025377241" lon="9.798593776239786"><ele>1865.0</ele><time>2026-05-02T12:08:51.996Z</time></trkpt><trkpt lat="46.087993302984586" lon="9.798533810322498"><ele>1860.0</ele><time>2026-05-02T12:08:56.996Z</time></trkpt><trkpt lat="46.08793878964302" lon="9.798478279796095"><ele>1855.0000000000002</ele><time>2026-05-02T12:09:02.997Z</time></trkpt><trkpt lat="46.08790027404821" lon="9.798399839822634"><ele>1850.0</ele><time>2026-05-02T12:09:17.997Z</time></trkpt><trkpt lat="46.087882361530276" lon="9.798310571116355"><ele>1845.0</ele><time>2026-05-02T12:09:32.997Z</time></trkpt><trkpt lat="46.08783434463383" lon="9.79824938401396"><ele>1840.0000000000002</ele><time>2026-05-02T12:09:56.997Z</time></trkpt><trkpt lat="46.087772086105765" lon="9.798202921094052"><ele>1835.0</ele><time>2026-05-02T12:10:05.997Z</time></trkpt><trkpt lat="46.087732512437945" lon="9.798124402188702"><ele>1830.0</ele><time>2026-05-02T12:10:18.997Z</time></trkpt><trkpt lat="46.08766468517548" lon="9.798135500584573"><ele>1830.0</ele><time>2026-05-02T12:10:27.996Z</time></trkpt><trkpt lat="46.08760196104355" lon="9.798109092716263"><ele>1830.0000000000002</ele><time>2026-05-02T12:10:44.996Z</time></trkpt><trkpt lat="46.087553774738694" lon="9.798034834899655"><ele>1830.0</ele><time>2026-05-02T12:10:59.996Z</time></trkpt><trkpt lat="46.08749688740254" lon="9.797992829707376"><ele>1830.0</ele><time>2026-05-02T12:11:09.996Z</time></trkpt><trkpt lat="46.087440152888604" lon="9.797948041241128"><ele>1830.0000000000002</ele><time>2026-05-02T12:11:14.997Z</time></trkpt><trkpt lat="46.08738554724137" lon="9.797879781617128"><ele>1830.0</ele><time>2026-05-02T12:11:23.996Z</time></trkpt><trkpt lat="46.08733010242046" lon="9.797817806594626"><ele>1830.0</ele><time>2026-05-02T12:11:31.996Z</time></trkpt><trkpt lat="46.087271770891654" lon="9.797774598709323"><ele>1828.8333333333333</ele><time>2026-05-02T12:11:39.996Z</time></trkpt><trkpt lat="46.08720506721011" lon="9.797730909041256"><ele>1827.6666666666665</ele><time>2026-05-02T12:11:48.996Z</time></trkpt><trkpt lat="46.08710170178062" lon="9.797716928474127"><ele>1826.5</ele><time>2026-05-02T12:12:19.995Z</time></trkpt><trkpt lat="46.08701564201468" lon="9.797721771765126"><ele>1825.3333333333333</ele><time>2026-05-02T12:12:33.995Z</time></trkpt><trkpt lat="46.0869483744244" lon="9.797695911878025"><ele>1824.1666666666665</ele><time>2026-05-02T12:12:40.995Z</time></trkpt><trkpt lat="46.08688401639265" lon="9.797684702386597"><ele>1823.0</ele><time>2026-05-02T12:12:46.995Z</time></trkpt><trkpt lat="46.08681660706345" lon="9.797683223387475"><ele>1822.9999999999998</ele><time>2026-05-02T12:13:05.995Z</time></trkpt><trkpt lat="46.08674673687169" lon="9.79767501944932"><ele>1823.0</ele><time>2026-05-02T12:13:11.997Z</time></trkpt><trkpt lat="46.08668035693282" lon="9.797693624025708"><ele>1823.0</ele><time>2026-05-02T12:13:53.995Z</time></trkpt><trkpt lat="46.08660221539393" lon="9.797682088137107"><ele>1823.0</ele><time>2026-05-02T12:14:02.995Z</time></trkpt><trkpt lat="46.086515744398184" lon="9.797664345801401"><ele>1822.9999999999998</ele><time>2026-05-02T12:14:10.995Z</time></trkpt><trkpt lat="46.086444422556234" lon="9.797642439964957"><ele>1823.0</ele><time>2026-05-02T12:14:20.995Z</time></trkpt><trkpt lat="46.08636480247544" lon="9.797620044318021"><ele>1820.1428571428573</ele><time>2026-05-02T12:14:26.995Z</time></trkpt><trkpt lat="46.08630536018329" lon="9.797664328066773"><ele>1817.2857142857144</ele><time>2026-05-02T12:14:35.995Z</time></trkpt><trkpt lat="46.08623436498979" lon="9.79765765912444"><ele>1814.4285714285716</ele><time>2026-05-02T12:14:43.995Z</time></trkpt><trkpt lat="46.08615991291955" lon="9.797660086399166"><ele>1811.5714285714284</ele><time>2026-05-02T12:14:49.995Z</time></trkpt><trkpt lat="46.086095592872965" lon="9.797670584100835"><ele>1808.7142857142856</ele><time>2026-05-02T12:15:00.995Z</time></trkpt><trkpt lat="46.08616088449883" lon="9.79767453200959"><ele>1805.8571428571427</ele><time>2026-05-02T12:15:24.995Z</time></trkpt><trkpt lat="46.086093616326714" lon="9.797687177467198"><ele>1803.0</ele><time>2026-05-02T12:16:04.996Z</time></trkpt><trkpt lat="46.086021818142406" lon="9.797618176576009"><ele>1796.0</ele><time>2026-05-02T12:16:23.995Z</time></trkpt><trkpt lat="46.08596814621236" lon="9.797560005255246"><ele>1788.9999999999998</ele><time>2026-05-02T12:16:30.995Z</time></trkpt><trkpt lat="46.08604263825464" lon="9.797463030164106"><ele>1782.0</ele><time>2026-05-02T12:17:26.996Z</time></trkpt><trkpt lat="46.08597130505593" lon="9.797456256379961"><ele>1775.0</ele><time>2026-05-02T12:18:00.995Z</time></trkpt><trkpt lat="46.08590215551876" lon="9.797424102718347"><ele>1768.0</ele><time>2026-05-02T12:18:20.995Z</time></trkpt><trkpt lat="46.085843908833525" lon="9.79738087842386"><ele>1761.0</ele><time>2026-05-02T12:18:55.995Z</time></trkpt><trkpt lat="46.08578272535843" lon="9.797349408322347"><ele>1754.0</ele><time>2026-05-02T12:20:07.994Z</time></trkpt><trkpt lat="46.08571897354362" lon="9.797335304244369"><ele>1752.1428571428573</ele><time>2026-05-02T12:21:32.993Z</time></trkpt><trkpt lat="46.08564855278268" lon="9.797316425883908"><ele>1750.2857142857142</ele><time>2026-05-02T12:22:10.994Z</time></trkpt><trkpt lat="46.0856312954525" lon="9.797226567681374"><ele>1748.4285714285716</ele><time>2026-05-02T12:23:21.993Z</time></trkpt><trkpt lat="46.08554842069832" lon="9.797193781520704"><ele>1746.5714285714287</ele><time>2026-05-02T12:24:21.993Z</time></trkpt><trkpt lat="46.08559679538035" lon="9.797114316969658"><ele>1744.7142857142858</ele><time>2026-05-02T12:24:38.993Z</time></trkpt><trkpt lat="46.08566665131544" lon="9.797100787548944"><ele>1742.857142857143</ele><time>2026-05-02T12:24:43.993Z</time></trkpt><trkpt lat="46.085597300443" lon="9.797056322881087"><ele>1741.0</ele><time>2026-05-02T12:25:19.993Z</time></trkpt><trkpt lat="46.08548844721401" lon="9.797039606907402"><ele>1741.0</ele><time>2026-05-02T12:26:54.992Z</time></trkpt><trkpt lat="46.08543526764035" lon="9.797099507436043"><ele>1741.0</ele><time>2026-05-02T12:27:46.992Z</time></trkpt><trkpt lat="46.085373080073374" lon="9.797126325719171"><ele>1741.0</ele><time>2026-05-02T12:31:16.99Z</time></trkpt><trkpt lat="46.085297081935245" lon="9.797102374541927"><ele>1741.0</ele><time>2026-05-02T12:33:45.989Z</time></trkpt><trkpt lat="46.08535721956877" lon="9.797066491820404"><ele>1741.0</ele><time>2026-05-02T12:35:19.989Z</time></trkpt><trkpt lat="46.085398248928755" lon="9.796956225287976"><ele>1741.0</ele><time>2026-05-02T12:37:12.988Z</time></trkpt><trkpt lat="46.085344954410914" lon="9.79704618595521"><ele>1741.0</ele><time>2026-05-02T12:37:27.988Z</time></trkpt><trkpt lat="46.0852805681597" lon="9.797088692332547"><ele>1741.0</ele><time>2026-05-02T12:37:45.988Z</time></trkpt><trkpt lat="46.08535421308177" lon="9.797078331166004"><ele>1741.0</ele><time>2026-05-02T12:38:37.989Z</time></trkpt><trkpt lat="46.08534669645446" lon="9.797173368355766"><ele>1741.0</ele><time>2026-05-02T12:40:38.988Z</time></trkpt><trkpt lat="46.08541803902002" lon="9.79708711317697"><ele>1741.0</ele><time>2026-05-02T12:41:21.988Z</time></trkpt><trkpt lat="46.085340437646884" lon="9.797039648334332"><ele>1741.0</ele><time>2026-05-02T12:41:43.988Z</time></trkpt><trkpt lat="46.08528926198616" lon="9.797095893779751"><ele>1741.0</ele><time>2026-05-02T12:41:51.988Z</time></trkpt><trkpt lat="46.08522490877061" lon="9.797098788100936"><ele>1741.0</ele><time>2026-05-02T12:43:04.999Z</time></trkpt><trkpt lat="46.08515537456353" lon="9.797090979491964"><ele>1741.0000000000002</ele><time>2026-05-02T12:44:22Z</time></trkpt><trkpt lat="46.08518781423546" lon="9.796996472027626"><ele>1741.0</ele><time>2026-05-02T12:45:09Z</time></trkpt><trkpt lat="46.085231189368685" lon="9.796923338036974"><ele>1741.0</ele><time>2026-05-02T12:51:17Z</time></trkpt><trkpt lat="46.08529486094708" lon="9.796818147867976"><ele>1741.0</ele><time>2026-05-02T12:56:59Z</time></trkpt><trkpt lat="46.08521932059295" lon="9.796826963914878"><ele>1741.0000000000002</ele><time>2026-05-02T12:57:38Z</time></trkpt><trkpt lat="46.0852004137076" lon="9.796921500579893"><ele>1741.0</ele><time>2026-05-02T12:59:14Z</time></trkpt><trkpt lat="46.08520972647832" lon="9.79704632010539"><ele>1741.0000000000002</ele><time>2026-05-02T13:00:25Z</time></trkpt><trkpt lat="46.085266861870615" lon="9.797086834863384"><ele>1741.0</ele><time>2026-05-02T13:00:42Z</time></trkpt><trkpt lat="46.085345094487195" lon="9.797077894998779"><ele>1741.0</ele><time>2026-05-02T13:00:52Z</time></trkpt><trkpt lat="46.085421479535384" lon="9.797055905128717"><ele>1741.0</ele><time>2026-05-02T13:05:09Z</time></trkpt><trkpt lat="46.08549459045819" lon="9.796986251966075"><ele>1741.0000000000002</ele><time>2026-05-02T13:05:21Z</time></trkpt><trkpt lat="46.0855702568976" lon="9.796964370706071"><ele>1741.0</ele><time>2026-05-02T13:05:30Z</time></trkpt><trkpt lat="46.08562930948203" lon="9.797007210573693"><ele>1741.0</ele><time>2026-05-02T13:05:41.001Z</time></trkpt><trkpt lat="46.08568970061832" lon="9.797039311322566"><ele>1741.0</ele><time>2026-05-02T13:06:02Z</time></trkpt><trkpt lat="46.085639090898994" lon="9.797113173466663"><ele>1741.0</ele><time>2026-05-02T13:06:21Z</time></trkpt><trkpt lat="46.08556975087684" lon="9.797138031486096"><ele>1741.0</ele><time>2026-05-02T13:06:27Z</time></trkpt><trkpt lat="46.085626823440144" lon="9.797189244554929"><ele>1741.0</ele><time>2026-05-02T13:06:43Z</time></trkpt><trkpt lat="46.085570898679904" lon="9.79723648522871"><ele>1741.0</ele><time>2026-05-02T13:07:17Z</time></trkpt><trkpt lat="46.08562914127001" lon="9.797284793717017"><ele>1741.0</ele><time>2026-05-02T13:07:41Z</time></trkpt><trkpt lat="46.085700795135295" lon="9.79729305939686"><ele>1742.857142857143</ele><time>2026-05-02T13:07:49.001Z</time></trkpt><trkpt lat="46.08577202986343" lon="9.797317293977695"><ele>1744.7142857142858</ele><time>2026-05-02T13:08:38Z</time></trkpt><trkpt lat="46.08583606336467" lon="9.79733920158958"><ele>1746.5714285714287</ele><time>2026-05-02T13:08:46Z</time></trkpt><trkpt lat="46.08587547199547" lon="9.797419054426193"><ele>1748.4285714285716</ele><time>2026-05-02T13:09:14Z</time></trkpt><trkpt lat="46.085939249314244" lon="9.79741155818049"><ele>1750.2857142857142</ele><time>2026-05-02T13:09:21Z</time></trkpt><trkpt lat="46.086003734341" lon="9.797436167861834"><ele>1752.1428571428573</ele><time>2026-05-02T13:09:28Z</time></trkpt><trkpt lat="46.08596625241963" lon="9.797514116562317"><ele>1754.0</ele><time>2026-05-02T13:09:56Z</time></trkpt><trkpt lat="46.085906960333595" lon="9.797550997263091"><ele>1754.0000000000002</ele><time>2026-05-02T13:10:05Z</time></trkpt><trkpt lat="46.085845629913074" lon="9.797579990128101"><ele>1754.0</ele><time>2026-05-02T13:10:10Z</time></trkpt><trkpt lat="46.08577136445225" lon="9.797560378479513"><ele>1754.0</ele><time>2026-05-02T13:10:17Z</time></trkpt><trkpt lat="46.08569398106677" lon="9.797589824424138"><ele>1754.0</ele><time>2026-05-02T13:10:27Z</time></trkpt><trkpt lat="46.08567521493811" lon="9.797679725184697"><ele>1754.0</ele><time>2026-05-02T13:10:59Z</time></trkpt><trkpt lat="46.08560936518634" lon="9.797677734324369"><ele>1754.0000000000002</ele><time>2026-05-02T13:11:07Z</time></trkpt><trkpt lat="46.085539445549465" lon="9.797697803674685"><ele>1754.0</ele><time>2026-05-02T13:11:15Z</time></trkpt><trkpt lat="46.08547148832595" lon="9.797704349780048"><ele>1754.0000000000002</ele><time>2026-05-02T13:11:25Z</time></trkpt><trkpt lat="46.085537027532375" lon="9.797692078445163"><ele>1754.0</ele><time>2026-05-02T13:11:43.999Z</time></trkpt><trkpt lat="46.08560457332106" lon="9.797677628697597"><ele>1754.0</ele><time>2026-05-02T13:11:49.999Z</time></trkpt><trkpt lat="46.085678380109464" lon="9.79767599711156"><ele>1754.0</ele><time>2026-05-02T13:11:58.001Z</time></trkpt><trkpt lat="46.08576389314229" lon="9.79765922472257"><ele>1754.0</ele><time>2026-05-02T13:12:07.001Z</time></trkpt><trkpt lat="46.08583294900461" lon="9.797694033838393"><ele>1754.0000000000002</ele><time>2026-05-02T13:12:25Z</time></trkpt><trkpt lat="46.08589763294643" lon="9.79767300099105"><ele>1754.0</ele><time>2026-05-02T13:12:30Z</time></trkpt><trkpt lat="46.085961833888426" lon="9.797685503202182"><ele>1753.9999999999998</ele><time>2026-05-02T13:12:39Z</time></trkpt><trkpt lat="46.08603165570942" lon="9.79764944324677"><ele>1754.0</ele><time>2026-05-02T13:12:49Z</time></trkpt><trkpt lat="46.08609514797161" lon="9.797662947349938"><ele>1754.0</ele><time>2026-05-02T13:12:59Z</time></trkpt><trkpt lat="46.08616634527486" lon="9.797651654348943"><ele>1754.0</ele><time>2026-05-02T13:13:06Z</time></trkpt><trkpt lat="46.086241060047726" lon="9.797660489447663"><ele>1753.9999999999998</ele><time>2026-05-02T13:13:13Z</time></trkpt><trkpt lat="46.086325887196196" lon="9.797601290132212"><ele>1754.0</ele><time>2026-05-02T13:13:20Z</time></trkpt><trkpt lat="46.08639436266453" lon="9.7976334971151"><ele>1754.0000000000002</ele><time>2026-05-02T13:13:30Z</time></trkpt><trkpt lat="46.08646169935945" lon="9.797607657132572"><ele>1754.0</ele><time>2026-05-02T13:13:36Z</time></trkpt><trkpt lat="46.086525539163055" lon="9.797629976198735"><ele>1754.0</ele><time>2026-05-02T13:13:45Z</time></trkpt><trkpt lat="46.08658638289961" lon="9.797598644259596"><ele>1754.0</ele><time>2026-05-02T13:13:53.999Z</time></trkpt><trkpt lat="46.08668842471599" lon="9.797608325426273"><ele>1754.0</ele><time>2026-05-02T13:14:52Z</time></trkpt><trkpt lat="46.086755806182836" lon="9.79762533674577"><ele>1754.0000000000002</ele><time>2026-05-02T13:15:02Z</time></trkpt><trkpt lat="46.08682046204496" lon="9.797603534069832"><ele>1754.0</ele><time>2026-05-02T13:15:06Z</time></trkpt><trkpt lat="46.08688504283337" lon="9.797609481112886"><ele>1755.7142857142858</ele><time>2026-05-02T13:15:16Z</time></trkpt><trkpt lat="46.08693793414346" lon="9.797659088850628"><ele>1757.4285714285716</ele><time>2026-05-02T13:15:29Z</time></trkpt><trkpt lat="46.08700116626399" lon="9.797650825789544"><ele>1759.1428571428573</ele><time>2026-05-02T13:15:38Z</time></trkpt><trkpt lat="46.08706503007269" lon="9.797666831978137"><ele>1760.857142857143</ele><time>2026-05-02T13:16:01.999Z</time></trkpt><trkpt lat="46.087131838827986" lon="9.797667333166185"><ele>1762.5714285714284</ele><time>2026-05-02T13:16:25Z</time></trkpt><trkpt lat="46.087193030820956" lon="9.797693260722896"><ele>1764.2857142857144</ele><time>2026-05-02T13:16:36Z</time></trkpt><trkpt lat="46.087248519034794" lon="9.797745676449946"><ele>1766.0</ele><time>2026-05-02T13:16:44Z</time></trkpt><trkpt lat="46.08732159085293" lon="9.79773701468982"><ele>1774.1428571428573</ele><time>2026-05-02T13:16:53Z</time></trkpt><trkpt lat="46.087369996239396" lon="9.797812144250646"><ele>1782.2857142857142</ele><time>2026-05-02T13:17:00Z</time></trkpt><trkpt lat="46.08742511788156" lon="9.79788110149883"><ele>1790.4285714285716</ele><time>2026-05-02T13:17:07Z</time></trkpt><trkpt lat="46.08747322080064" lon="9.797951664850107"><ele>1798.5714285714287</ele><time>2026-05-02T13:17:13Z</time></trkpt><trkpt lat="46.08754269059045" lon="9.797965310268097"><ele>1806.7142857142858</ele><time>2026-05-02T13:17:22Z</time></trkpt><trkpt lat="46.08759392386699" lon="9.798035899210907"><ele>1814.857142857143</ele><time>2026-05-02T13:17:31Z</time></trkpt><trkpt lat="46.08764046341451" lon="9.798106066020692"><ele>1823.0</ele><time>2026-05-02T13:17:42Z</time></trkpt><trkpt lat="46.087704366911616" lon="9.798133072241258"><ele>1824.0</ele><time>2026-05-02T13:18:02Z</time></trkpt><trkpt lat="46.08779543398474" lon="9.798133709499648"><ele>1825.0000000000002</ele><time>2026-05-02T13:18:34Z</time></trkpt><trkpt lat="46.08784379665053" lon="9.798197949374844"><ele>1826.0</ele><time>2026-05-02T13:18:44Z</time></trkpt><trkpt lat="46.08790751764815" lon="9.798226624410956"><ele>1827.0</ele><time>2026-05-02T13:18:55Z</time></trkpt><trkpt lat="46.087957252498065" lon="9.798297799882551"><ele>1828.0000000000002</ele><time>2026-05-02T13:19:01Z</time></trkpt><trkpt lat="46.0879344633355" lon="9.798382423030636"><ele>1829.0</ele><time>2026-05-02T13:19:15Z</time></trkpt><trkpt lat="46.087962668197065" lon="9.7984768948352"><ele>1830.0</ele><time>2026-05-02T13:19:24Z</time></trkpt><trkpt lat="46.088015857529996" lon="9.798551328630673"><ele>1835.0</ele><time>2026-05-02T13:19:32Z</time></trkpt><trkpt lat="46.08808148909019" lon="9.798571115449057"><ele>1840.0000000000002</ele><time>2026-05-02T13:19:38Z</time></trkpt><trkpt lat="46.088151153307315" lon="9.798584780225717"><ele>1845.0</ele><time>2026-05-02T13:19:44Z</time></trkpt><trkpt lat="46.08822346432833" lon="9.798549940240402"><ele>1850.0</ele><time>2026-05-02T13:19:50Z</time></trkpt><trkpt lat="46.0882944752144" lon="9.798570213341142"><ele>1855.0000000000002</ele><time>2026-05-02T13:19:55Z</time></trkpt><trkpt lat="46.088364025601145" lon="9.798560046493137"><ele>1860.0</ele><time>2026-05-02T13:20:36Z</time></trkpt><trkpt lat="46.088424105456895" lon="9.798630398719506"><ele>1865.0</ele><time>2026-05-02T13:20:43Z</time></trkpt><trkpt lat="46.08849235086981" lon="9.798653009835347"><ele>1865.0</ele><time>2026-05-02T13:20:49Z</time></trkpt><trkpt lat="46.08856031813151" lon="9.798664402586487"><ele>1865.0000000000002</ele><time>2026-05-02T13:20:55Z</time></trkpt><trkpt lat="46.0886239682483" lon="9.798721250592655"><ele>1865.0</ele><time>2026-05-02T13:21:02Z</time></trkpt><trkpt lat="46.08868720071528" lon="9.798734255279198"><ele>1865.0</ele><time>2026-05-02T13:21:08Z</time></trkpt><trkpt lat="46.088745331233724" lon="9.798776407749653"><ele>1865.0000000000002</ele><time>2026-05-02T13:21:16Z</time></trkpt><trkpt lat="46.08881732350338" lon="9.79876009421226"><ele>1865.0</ele><time>2026-05-02T13:21:26Z</time></trkpt><trkpt lat="46.088895141015065" lon="9.79877005748948"><ele>1865.0</ele><time>2026-05-02T13:23:36Z</time></trkpt><trkpt lat="46.08895379060546" lon="9.798831410091708"><ele>1864.9999999999998</ele><time>2026-05-02T13:23:40Z</time></trkpt><trkpt lat="46.0890480134884" lon="9.798818295851737"><ele>1865.0</ele><time>2026-05-02T13:24:08.999Z</time></trkpt><trkpt lat="46.08910105759897" lon="9.798765344399506"><ele>1865.0</ele><time>2026-05-02T13:24:42Z</time></trkpt><trkpt lat="46.089166182939" lon="9.798773805520135"><ele>1865.0</ele><time>2026-05-02T13:25:04Z</time></trkpt><trkpt lat="46.08923788541384" lon="9.798718676360815"><ele>1864.9999999999998</ele><time>2026-05-02T13:25:08Z</time></trkpt><trkpt lat="46.08930226229781" lon="9.798651292869247"><ele>1865.0</ele><time>2026-05-02T13:25:12Z</time></trkpt><trkpt lat="46.08938713756527" lon="9.7986552164755"><ele>1864.6666666666665</ele><time>2026-05-02T13:25:15Z</time></trkpt><trkpt lat="46.08945626803802" lon="9.798630194095653"><ele>1864.3333333333333</ele><time>2026-05-02T13:25:18Z</time></trkpt><trkpt lat="46.08952294278057" lon="9.798614783967624"><ele>1864.0</ele><time>2026-05-02T13:25:20Z</time></trkpt><trkpt lat="46.089600424610765" lon="9.79864396635683"><ele>1863.6666666666665</ele><time>2026-05-02T13:25:23Z</time></trkpt><trkpt lat="46.08967598422765" lon="9.798658070093833"><ele>1863.3333333333333</ele><time>2026-05-02T13:25:26Z</time></trkpt><trkpt lat="46.089759907957244" lon="9.798640974815749"><ele>1863.0</ele><time>2026-05-02T13:25:29Z</time></trkpt><trkpt lat="46.089835723090964" lon="9.798640474356317"><ele>1863.0</ele><time>2026-05-02T13:25:38Z</time></trkpt><trkpt lat="46.08991642729249" lon="9.798670425646788"><ele>1863.0</ele><time>2026-05-02T13:25:41Z</time></trkpt><trkpt lat="46.08999692540208" lon="9.798667134849133"><ele>1863.0</ele><time>2026-05-02T13:25:44Z</time></trkpt><trkpt lat="46.09006036301952" lon="9.7986329940317"><ele>1863.0</ele><time>2026-05-02T13:25:46Z</time></trkpt><trkpt lat="46.09013570970426" lon="9.798650407844965"><ele>1863.0</ele><time>2026-05-02T13:25:51Z</time></trkpt><trkpt lat="46.09020202684678" lon="9.798618729256551"><ele>1863.0</ele><time>2026-05-02T13:25:55Z</time></trkpt><trkpt lat="46.09027375036531" lon="9.798633474804115"><ele>1862.8333333333333</ele><time>2026-05-02T13:25:59Z</time></trkpt><trkpt lat="46.0903419666158" lon="9.79863740783939"><ele>1862.6666666666665</ele><time>2026-05-02T13:26:02Z</time></trkpt><trkpt lat="46.090420123053775" lon="9.798627154658025"><ele>1862.5</ele><time>2026-05-02T13:26:04Z</time></trkpt><trkpt lat="46.090501038596734" lon="9.798612343322112"><ele>1862.3333333333333</ele><time>2026-05-02T13:26:07Z</time></trkpt><trkpt lat="46.09058102146232" lon="9.798598767837424"><ele>1862.1666666666665</ele><time>2026-05-02T13:26:10Z</time></trkpt><trkpt lat="46.09066029791063" lon="9.79859761233625"><ele>1862.0</ele><time>2026-05-02T13:26:13Z</time></trkpt><trkpt lat="46.09073336808601" lon="9.798608711906265"><ele>1862.8333333333333</ele><time>2026-05-02T13:26:24.999Z</time></trkpt><trkpt lat="46.09081399550508" lon="9.798643069816116"><ele>1863.6666666666665</ele><time>2026-05-02T13:26:27.999Z</time></trkpt><trkpt lat="46.09090315992441" lon="9.798660791023353"><ele>1864.5</ele><time>2026-05-02T13:26:29.999Z</time></trkpt><trkpt lat="46.090995209465696" lon="9.798655445615902"><ele>1865.3333333333335</ele><time>2026-05-02T13:26:31.999Z</time></trkpt><trkpt lat="46.09108057913878" lon="9.798623870572497"><ele>1866.1666666666667</ele><time>2026-05-02T13:26:34.999Z</time></trkpt><trkpt lat="46.09113996492188" lon="9.798540242426117"><ele>1867.0</ele><time>2026-05-02T13:26:37.999Z</time></trkpt><trkpt lat="46.09120102172104" lon="9.798498630022156"><ele>1862.5000000000002</ele><time>2026-05-02T13:26:42Z</time></trkpt><trkpt lat="46.09127093118978" lon="9.798481523940005"><ele>1858.0</ele><time>2026-05-02T13:26:46.001Z</time></trkpt><trkpt lat="46.09135469504622" lon="9.798467938994419"><ele>1853.5</ele><time>2026-05-02T13:26:50Z</time></trkpt><trkpt lat="46.09143906484785" lon="9.798480414796247"><ele>1849.0</ele><time>2026-05-02T13:26:54Z</time></trkpt><trkpt lat="46.091522237033125" lon="9.798475282081732"><ele>1844.5000000000002</ele><time>2026-05-02T13:26:58Z</time></trkpt><trkpt lat="46.09159652569709" lon="9.79848166483109"><ele>1840.0</ele><time>2026-05-02T13:27:00Z</time></trkpt><trkpt lat="46.09166808558291" lon="9.798491259151405"><ele>1843.7142857142853</ele><time>2026-05-02T13:27:02Z</time></trkpt><trkpt lat="46.091738801410784" lon="9.798501769720481"><ele>1847.4285714285713</ele><time>2026-05-02T13:27:11Z</time></trkpt><trkpt lat="46.091803012842945" lon="9.798516313643658"><ele>1851.1428571428569</ele><time>2026-05-02T13:27:13Z</time></trkpt><trkpt lat="46.091864645038385" lon="9.798558962482193"><ele>1854.8571428571427</ele><time>2026-05-02T13:27:15Z</time></trkpt><trkpt lat="46.091926237000735" lon="9.798614131652686"><ele>1858.5714285714284</ele><time>2026-05-02T13:27:17Z</time></trkpt><trkpt lat="46.092013564708914" lon="9.798592838612414"><ele>1862.2857142857142</ele><time>2026-05-02T13:27:20Z</time></trkpt><trkpt lat="46.09208104502075" lon="9.798561998364416"><ele>1866.0</ele><time>2026-05-02T13:27:22Z</time></trkpt><trkpt lat="46.0921440882244" lon="9.79855836820292"><ele>1866.0</ele><time>2026-05-02T13:27:24Z</time></trkpt><trkpt lat="46.092217386440424" lon="9.79856361354216"><ele>1865.9999999999998</ele><time>2026-05-02T13:27:27Z</time></trkpt><trkpt lat="46.09229892741073" lon="9.798580656249523"><ele>1866.0</ele><time>2026-05-02T13:27:30Z</time></trkpt><trkpt lat="46.09237582394861" lon="9.798596420122447"><ele>1866.0</ele><time>2026-05-02T13:27:33Z</time></trkpt><trkpt lat="46.09244160520741" lon="9.798597354132959"><ele>1865.9999999999998</ele><time>2026-05-02T13:27:48Z</time></trkpt><trkpt lat="46.09250777380008" lon="9.798605790786905"><ele>1866.0</ele><time>2026-05-02T13:27:51Z</time></trkpt><trkpt lat="46.092573782938786" lon="9.79860591318959"><ele>1866.0</ele><time>2026-05-02T13:27:54Z</time></trkpt><trkpt lat="46.09264961579745" lon="9.798613474312445"><ele>1866.0</ele><time>2026-05-02T13:28:09Z</time></trkpt><trkpt lat="46.09260677325895" lon="9.798730051531425"><ele>1866.0</ele><time>2026-05-02T13:28:15.999Z</time></trkpt><trkpt lat="46.092553687083935" lon="9.798813588546324"><ele>1866.0</ele><time>2026-05-02T13:28:17.999Z</time></trkpt><trkpt lat="46.09249524008335" lon="9.798892141640442"><ele>1866.0</ele><time>2026-05-02T13:28:20.999Z</time></trkpt><trkpt lat="46.0924435120629" lon="9.798959323341904"><ele>1866.0</ele><time>2026-05-02T13:28:24.999Z</time></trkpt><trkpt lat="46.09236989488497" lon="9.79893439101909"><ele>1866.0</ele><time>2026-05-02T13:28:36.999Z</time></trkpt><trkpt lat="46.092302748682776" lon="9.798929737727736"><ele>1866.0</ele><time>2026-05-02T13:28:39.999Z</time></trkpt><trkpt lat="46.09225039307816" lon="9.799002165131203"><ele>1865.9999999999998</ele><time>2026-05-02T13:28:43.999Z</time></trkpt><trkpt lat="46.0922808817795" lon="9.799084562590744"><ele>1866.0</ele><time>2026-05-02T13:28:47Z</time></trkpt><trkpt lat="46.092346267522394" lon="9.79909977418015"><ele>1866.0</ele><time>2026-05-02T13:29:02Z</time></trkpt><trkpt lat="46.09241791820815" lon="9.79914692547969"><ele>1865.9999999999998</ele><time>2026-05-02T13:29:05Z</time></trkpt><trkpt lat="46.09248204786625" lon="9.79921380389675"><ele>1866.0</ele><time>2026-05-02T13:29:08Z</time></trkpt><trkpt lat="46.09248717993776" lon="9.799304783544216"><ele>1866.0</ele><time>2026-05-02T13:29:27Z</time></trkpt><trkpt lat="46.09240905092461" lon="9.799379918102987"><ele>1870.5</ele><time>2026-05-02T13:29:30Z</time></trkpt><trkpt lat="46.092325307415074" lon="9.799438642282789"><ele>1875.0</ele><time>2026-05-02T13:29:33Z</time></trkpt><trkpt lat="46.092363146325546" lon="9.799535046099615"><ele>1879.5</ele><time>2026-05-02T13:29:38Z</time></trkpt><trkpt lat="46.09241792355425" lon="9.799606157858431"><ele>1884.0</ele><time>2026-05-02T13:29:40Z</time></trkpt><trkpt lat="46.092468852059845" lon="9.79967234444606"><ele>1888.5</ele><time>2026-05-02T13:29:45Z</time></trkpt><trkpt lat="46.092524498889425" lon="9.799736894418853"><ele>1893.0</ele><time>2026-05-02T13:29:51Z</time></trkpt><trkpt lat="46.09256898152264" lon="9.799819680258118"><ele>1893.0</ele><time>2026-05-02T13:29:56Z</time></trkpt><trkpt lat="46.092621171208826" lon="9.799874363031442"><ele>1893.0</ele><time>2026-05-02T13:30:00Z</time></trkpt><trkpt lat="46.092676354659744" lon="9.799964659456403"><ele>1893.0</ele><time>2026-05-02T13:30:04Z</time></trkpt><trkpt lat="46.092732536844224" lon="9.800029143984974"><ele>1893.0</ele><time>2026-05-02T13:30:08Z</time></trkpt><trkpt lat="46.0926541802789" lon="9.800057588500504"><ele>1893.0</ele><time>2026-05-02T13:30:12Z</time></trkpt><trkpt lat="46.092566248503076" lon="9.800067425790058"><ele>1893.0</ele><time>2026-05-02T13:30:16Z</time></trkpt><trkpt lat="46.09250303345675" lon="9.800091262473357"><ele>1894.1666666666667</ele><time>2026-05-02T13:30:18Z</time></trkpt><trkpt lat="46.09237471458169" lon="9.800110329101932"><ele>1895.3333333333335</ele><time>2026-05-02T13:30:19.999Z</time></trkpt><trkpt lat="46.0922851324664" lon="9.800128321186108"><ele>1896.5</ele><time>2026-05-02T13:30:20.999Z</time></trkpt><trkpt lat="46.09221297680024" lon="9.800141632515702"><ele>1897.6666666666667</ele><time>2026-05-02T13:30:21.999Z</time></trkpt><trkpt lat="46.092139694200995" lon="9.800173842951448"><ele>1898.8333333333335</ele><time>2026-05-02T13:30:22.999Z</time></trkpt><trkpt lat="46.09207169002364" lon="9.800211841288712"><ele>1900.0</ele><time>2026-05-02T13:30:23.999Z</time></trkpt><trkpt lat="46.09199945400494" lon="9.800241358323738"><ele>1904.0000000000002</ele><time>2026-05-02T13:30:24.999Z</time></trkpt><trkpt lat="46.09193430621989" lon="9.800257830095363"><ele>1908.0</ele><time>2026-05-02T13:30:25.999Z</time></trkpt><trkpt lat="46.09184528135507" lon="9.800244315012858"><ele>1912.0</ele><time>2026-05-02T13:30:26.999Z</time></trkpt><trkpt lat="46.091767532342026" lon="9.800231203523838"><ele>1916.0</ele><time>2026-05-02T13:30:27.999Z</time></trkpt><trkpt lat="46.09168842183223" lon="9.800219055339193"><ele>1920.0000000000002</ele><time>2026-05-02T13:30:28.999Z</time></trkpt><trkpt lat="46.09161138350716" lon="9.800200602787218"><ele>1924.0</ele><time>2026-05-02T13:30:29.999Z</time></trkpt><trkpt lat="46.09152451165164" lon="9.800212282182368"><ele>1924.2</ele><time>2026-05-02T13:30:30.999Z</time></trkpt><trkpt lat="46.09143038598184" lon="9.800247332227451"><ele>1924.4</ele><time>2026-05-02T13:30:31.999Z</time></trkpt><trkpt lat="46.09132096139944" lon="9.800288766370679"><ele>1924.6</ele><time>2026-05-02T13:30:32.999Z</time></trkpt><trkpt lat="46.09122709624336" lon="9.800350942829535"><ele>1924.8</ele><time>2026-05-02T13:30:33.999Z</time></trkpt><trkpt lat="46.09116188146592" lon="9.800407255736241"><ele>1925.0</ele><time>2026-05-02T13:30:34.999Z</time></trkpt><trkpt lat="46.09115083870893" lon="9.800526192820675"><ele>1924.9999999999998</ele><time>2026-05-02T13:30:36.999Z</time></trkpt><trkpt lat="46.09118139134221" lon="9.800607270848454"><ele>1925.0</ele><time>2026-05-02T13:30:37.999Z</time></trkpt><trkpt lat="46.09125154209931" lon="9.800729985096782"><ele>1925.0</ele><time>2026-05-02T13:30:39.999Z</time></trkpt><trkpt lat="46.0913136896842" lon="9.800792232941685"><ele>1925.0</ele><time>2026-05-02T13:30:40.999Z</time></trkpt><trkpt lat="46.091378862151" lon="9.800830663702795"><ele>1924.9999999999998</ele><time>2026-05-02T13:30:41.999Z</time></trkpt><trkpt lat="46.091455710788686" lon="9.800825241622702"><ele>1925.0</ele><time>2026-05-02T13:30:42.999Z</time></trkpt><trkpt lat="46.0915387078117" lon="9.800807651518424"><ele>1924.8333333333333</ele><time>2026-05-02T13:30:43.999Z</time></trkpt><trkpt lat="46.091627031331925" lon="9.800817637160954"><ele>1924.6666666666665</ele><time>2026-05-02T13:30:44.999Z</time></trkpt><trkpt lat="46.09171431716688" lon="9.800833812793986"><ele>1924.5</ele><time>2026-05-02T13:30:45.999Z</time></trkpt><trkpt lat="46.09180183204351" lon="9.80084823200382"><ele>1924.3333333333335</ele><time>2026-05-02T13:30:46.999Z</time></trkpt><trkpt lat="46.09187569665909" lon="9.800844227952156"><ele>1924.1666666666667</ele><time>2026-05-02T13:30:47.999Z</time></trkpt><trkpt lat="46.09195613188204" lon="9.800853920744402"><ele>1924.0</ele><time>2026-05-02T13:30:48.999Z</time></trkpt><trkpt lat="46.09203196067403" lon="9.800888903171632"><ele>1924.0000000000002</ele><time>2026-05-02T13:30:49.999Z</time></trkpt><trkpt lat="46.092114662646914" lon="9.800952077458453"><ele>1924.0</ele><time>2026-05-02T13:30:50.999Z</time></trkpt><trkpt lat="46.092195982666915" lon="9.80101953693863"><ele>1924.0</ele><time>2026-05-02T13:30:52.001Z</time></trkpt><trkpt lat="46.09226885179876" lon="9.801077375094915"><ele>1924.0</ele><time>2026-05-02T13:30:53Z</time></trkpt><trkpt lat="46.09234063040536" lon="9.80111839038378"><ele>1924.0000000000002</ele><time>2026-05-02T13:30:54Z</time></trkpt><trkpt lat="46.092420101936554" lon="9.801146974132864"><ele>1924.0</ele><time>2026-05-02T13:30:55.001Z</time></trkpt><trkpt lat="46.0925005320488" lon="9.801159990762164"><ele>1932.6</ele><time>2026-05-02T13:30:56Z</time></trkpt><trkpt lat="46.0926446517065" lon="9.801273929345857"><ele>1941.2</ele><time>2026-05-02T13:31:25Z</time></trkpt><trkpt lat="46.09270531781034" lon="9.80131825437536"><ele>1949.7999999999997</ele><time>2026-05-02T13:31:26Z</time></trkpt><trkpt lat="46.09279391346803" lon="9.801388267042395"><ele>1958.3999999999999</ele><time>2026-05-02T13:31:27Z</time></trkpt><trkpt lat="46.09288350370009" lon="9.80145366519564"><ele>1967.0</ele><time>2026-05-02T13:31:28Z</time></trkpt><trkpt lat="46.09296763205194" lon="9.801524351164273"><ele>1967.0</ele><time>2026-05-02T13:31:29Z</time></trkpt><trkpt lat="46.09305722420828" lon="9.801588899266509"><ele>1966.9999999999998</ele><time>2026-05-02T13:31:30Z</time></trkpt><trkpt lat="46.093134343470574" lon="9.801689204609982"><ele>1966.9999999999998</ele><time>2026-05-02T13:31:31Z</time></trkpt><trkpt lat="46.093214026556126" lon="9.801748058671189"><ele>1967.0</ele><time>2026-05-02T13:31:32Z</time></trkpt><trkpt lat="46.09327130154803" lon="9.801825206569507"><ele>1967.0</ele><time>2026-05-02T13:31:33Z</time></trkpt><trkpt lat="46.093301984959574" lon="9.801942256830745"><ele>1969.3333333333333</ele><time>2026-05-02T13:31:34Z</time></trkpt><trkpt lat="46.09332180903528" lon="9.80209134434773"><ele>1971.6666666666665</ele><time>2026-05-02T13:31:35Z</time></trkpt><trkpt lat="46.093347772057136" lon="9.80222940622481"><ele>1974.0</ele><time>2026-05-02T13:31:36Z</time></trkpt><trkpt lat="46.09338333110748" lon="9.80234273808896"><ele>1976.3333333333335</ele><time>2026-05-02T13:31:37Z</time></trkpt><trkpt lat="46.093434885146316" lon="9.80241870472077"><ele>1978.6666666666667</ele><time>2026-05-02T13:31:38Z</time></trkpt><trkpt lat="46.093508554122884" lon="9.802463964848705"><ele>1981.0</ele><time>2026-05-02T13:31:39Z</time></trkpt><trkpt lat="46.093600938912424" lon="9.80249234974846"><ele>1981.0000000000002</ele><time>2026-05-02T13:31:40Z</time></trkpt><trkpt lat="46.09367121269949" lon="9.80252056188499"><ele>1981.0</ele><time>2026-05-02T13:31:41Z</time></trkpt><trkpt lat="46.09368344583214" lon="9.802618311638778"><ele>1981.0</ele><time>2026-05-02T13:31:43Z</time></trkpt><trkpt lat="46.09358685582582" lon="9.802668148340265"><ele>1981.0</ele><time>2026-05-02T13:31:45Z</time></trkpt><trkpt lat="46.093478438709894" lon="9.802616771772215"><ele>1981.0000000000002</ele><time>2026-05-02T13:31:47Z</time></trkpt><trkpt lat="46.09339616924017" lon="9.802584962561573"><ele>1981.0</ele><time>2026-05-02T13:31:48Z</time></trkpt><trkpt lat="46.09329590315355" lon="9.80254903096933"><ele>1985.4</ele><time>2026-05-02T13:31:49Z</time></trkpt><trkpt lat="46.093194135240665" lon="9.802517652476208"><ele>1989.8</ele><time>2026-05-02T13:31:50Z</time></trkpt><trkpt lat="46.093119500714174" lon="9.802474302361402"><ele>1994.2000000000003</ele><time>2026-05-02T13:31:51Z</time></trkpt><trkpt lat="46.09303139270276" lon="9.802422679094153"><ele>1998.6000000000001</ele><time>2026-05-02T13:31:53Z</time></trkpt><trkpt lat="46.09300724418276" lon="9.80253063679446"><ele>2003.0</ele><time>2026-05-02T13:31:56Z</time></trkpt><trkpt lat="46.09306613904649" lon="9.802641522416087"><ele>2003.25</ele><time>2026-05-02T13:31:57Z</time></trkpt><trkpt lat="46.09315044483749" lon="9.802770103768037"><ele>2003.5</ele><time>2026-05-02T13:31:58Z</time></trkpt><trkpt lat="46.09324202447898" lon="9.802900003027773"><ele>2003.75</ele><time>2026-05-02T13:31:59Z</time></trkpt><trkpt lat="46.093335247247786" lon="9.80301691465433"><ele>2004.0</ele><time>2026-05-02T13:32:00Z</time></trkpt><trkpt lat="46.09344354649647" lon="9.803116541775326"><ele>2004.0</ele><time>2026-05-02T13:32:01Z</time></trkpt><trkpt lat="46.093564660493826" lon="9.803180403590334"><ele>2004.0</ele><time>2026-05-02T13:32:02Z</time></trkpt><trkpt lat="46.09368240605343" lon="9.803266817396562"><ele>2004.0</ele><time>2026-05-02T13:32:03Z</time></trkpt><trkpt lat="46.093775558782916" lon="9.803353663711802"><ele>2004.0</ele><time>2026-05-02T13:32:04Z</time></trkpt><trkpt lat="46.093865678842484" lon="9.803449118153468"><ele>2007.0</ele><time>2026-05-02T13:32:05Z</time></trkpt><trkpt lat="46.093936452000314" lon="9.803524912858899"><ele>2010.0</ele><time>2026-05-02T13:32:06Z</time></trkpt><trkpt lat="46.09399555206335" lon="9.803568735386694"><ele>2013.0</ele><time>2026-05-02T13:32:07Z</time></trkpt><trkpt lat="46.09395473017832" lon="9.803652372622928"><ele>2016.0</ele><time>2026-05-02T13:32:10Z</time></trkpt><trkpt lat="46.09388243081359" lon="9.803615385468861"><ele>2019.0</ele><time>2026-05-02T13:32:11Z</time></trkpt><trkpt lat="46.09378762629127" lon="9.803596019759135"><ele>2022.0</ele><time>2026-05-02T13:32:12Z</time></trkpt><trkpt lat="46.09366232921504" lon="9.803572096282243"><ele>2022.0</ele><time>2026-05-02T13:32:13Z</time></trkpt><trkpt lat="46.09351820588562" lon="9.803578345163247"><ele>2022.0</ele><time>2026-05-02T13:32:14Z</time></trkpt><trkpt lat="46.093379986173325" lon="9.803579344333855"><ele>2022.0</ele><time>2026-05-02T13:32:15Z</time></trkpt><trkpt lat="46.093259184033165" lon="9.803569229191542"><ele>2022.0</ele><time>2026-05-02T13:32:16Z</time></trkpt><trkpt lat="46.09316796197451" lon="9.803556960123004"><ele>2022.0</ele><time>2026-05-02T13:32:17Z</time></trkpt><trkpt lat="46.09309619581292" lon="9.80352971668077"><ele>2021.9999999999998</ele><time>2026-05-02T13:32:18Z</time></trkpt><trkpt lat="46.09302126333587" lon="9.803587128272074"><ele>2021.9999999999998</ele><time>2026-05-02T13:32:20Z</time></trkpt><trkpt lat="46.09309964113573" lon="9.803699824802838"><ele>2022.0</ele><time>2026-05-02T13:32:21.999Z</time></trkpt><trkpt lat="46.09317594589083" lon="9.803731106543182"><ele>2022.0</ele><time>2026-05-02T13:32:22.999Z</time></trkpt><trkpt lat="46.09328418033986" lon="9.803787476056682"><ele>2022.0</ele><time>2026-05-02T13:32:23.999Z</time></trkpt><trkpt lat="46.09338708095339" lon="9.803862451760722"><ele>2022.0</ele><time>2026-05-02T13:32:24.999Z</time></trkpt><trkpt lat="46.093503103258534" lon="9.803938945499763"><ele>2022.0</ele><time>2026-05-02T13:32:25.999Z</time></trkpt><trkpt lat="46.093633023508715" lon="9.804017979218875"><ele>2022.0</ele><time>2026-05-02T13:32:26.999Z</time></trkpt><trkpt lat="46.09374240147076" lon="9.80409779293923"><ele>2022.0</ele><time>2026-05-02T13:32:27.999Z</time></trkpt><trkpt lat="46.09383262453406" lon="9.8041677271875"><ele>2021.9999999999998</ele><time>2026-05-02T13:32:28.999Z</time></trkpt><trkpt lat="46.09392765444073" lon="9.804199533720038"><ele>2021.9999999999998</ele><time>2026-05-02T13:32:29.999Z</time></trkpt><trkpt lat="46.09399007135939" lon="9.804237686463603"><ele>2022.0</ele><time>2026-05-02T13:32:30.999Z</time></trkpt><trkpt lat="46.094109514543554" lon="9.804300494363792"><ele>2022.0</ele><time>2026-05-02T13:32:32.999Z</time></trkpt><trkpt lat="46.09421185657603" lon="9.804343416582213"><ele>2025.1999999999998</ele><time>2026-05-02T13:32:34.999Z</time></trkpt><trkpt lat="46.0943236190803" lon="9.804418527810135"><ele>2028.3999999999999</ele><time>2026-05-02T13:32:36.999Z</time></trkpt><trkpt lat="46.094380122310135" lon="9.804537954608127"><ele>2031.6000000000001</ele><time>2026-05-02T13:32:38.999Z</time></trkpt><trkpt lat="46.09447069407286" lon="9.804574361924983"><ele>2034.8000000000002</ele><time>2026-05-02T13:32:41.999Z</time></trkpt><trkpt lat="46.09453596353086" lon="9.804590801172274"><ele>2038.0</ele><time>2026-05-02T13:32:43.999Z</time></trkpt><trkpt lat="46.09464314844599" lon="9.80463667085958"><ele>2038.0</ele><time>2026-05-02T13:32:45.999Z</time></trkpt><trkpt lat="46.09471125557578" lon="9.804675821905072"><ele>2038.0000000000002</ele><time>2026-05-02T13:32:46.999Z</time></trkpt><trkpt lat="46.0948149594963" lon="9.804788924644708"><ele>2038.0000000000002</ele><time>2026-05-02T13:32:48.999Z</time></trkpt><trkpt lat="46.094917274885574" lon="9.804859596038714"><ele>2038.0</ele><time>2026-05-02T13:32:50.999Z</time></trkpt><trkpt lat="46.09494435114224" lon="9.804989083372032"><ele>2038.0</ele><time>2026-05-02T13:32:52.999Z</time></trkpt><trkpt lat="46.09494633411693" lon="9.805139485143279"><ele>2043.8000000000002</ele><time>2026-05-02T13:32:54.999Z</time></trkpt><trkpt lat="46.09497034968457" lon="9.805289802131552"><ele>2049.6000000000004</ele><time>2026-05-02T13:32:56.999Z</time></trkpt><trkpt lat="46.094997412564204" lon="9.805418027797122"><ele>2055.3999999999996</ele><time>2026-05-02T13:32:59Z</time></trkpt><trkpt lat="46.09500582863617" lon="9.805562612066757"><ele>2061.2</ele><time>2026-05-02T13:33:01Z</time></trkpt><trkpt lat="46.095015457978135" lon="9.805701072196019"><ele>2067.0</ele><time>2026-05-02T13:33:03Z</time></trkpt><trkpt lat="46.09501397974205" lon="9.805838743720605"><ele>2067.0</ele><time>2026-05-02T13:33:05Z</time></trkpt><trkpt lat="46.09495998921602" lon="9.805958028378951"><ele>2067.0</ele><time>2026-05-02T13:33:07Z</time></trkpt><trkpt lat="46.0949169076743" lon="9.806053831998938"><ele>2067.0</ele><time>2026-05-02T13:33:09Z</time></trkpt><trkpt lat="46.094873349305956" lon="9.806178533813727"><ele>2067.0</ele><time>2026-05-02T13:33:12Z</time></trkpt><trkpt lat="46.09486508525253" lon="9.806295262186786"><ele>2067.0</ele><time>2026-05-02T13:33:14Z</time></trkpt><trkpt lat="46.094880532163636" lon="9.806405833160381"><ele>2067.0</ele><time>2026-05-02T13:33:16Z</time></trkpt><trkpt lat="46.09488428645683" lon="9.806556561084953"><ele>2069.2</ele><time>2026-05-02T13:33:19Z</time></trkpt><trkpt lat="46.09488395803314" lon="9.806666283479533"><ele>2071.3999999999996</ele><time>2026-05-02T13:33:21Z</time></trkpt><trkpt lat="46.094921766649506" lon="9.80677390230713"><ele>2073.6000000000004</ele><time>2026-05-02T13:33:23Z</time></trkpt><trkpt lat="46.094961607355636" lon="9.80688226532283"><ele>2075.8</ele><time>2026-05-02T13:33:25Z</time></trkpt><trkpt lat="46.095000831760096" lon="9.806971038214938"><ele>2078.0</ele><time>2026-05-02T13:33:27Z</time></trkpt><trkpt lat="46.095137119052524" lon="9.807002268261778"><ele>2079.6666666666665</ele><time>2026-05-02T13:33:46Z</time></trkpt><trkpt lat="46.09522575284888" lon="9.806961687747155"><ele>2081.333333333333</ele><time>2026-05-02T13:33:49Z</time></trkpt><trkpt lat="46.095309524007305" lon="9.806925619089563"><ele>2083.0</ele><time>2026-05-02T13:33:52Z</time></trkpt><trkpt lat="46.09538209238672" lon="9.806866063642884"><ele>2084.6666666666665</ele><time>2026-05-02T13:33:55Z</time></trkpt><trkpt lat="46.09546235782813" lon="9.806836238303784"><ele>2086.3333333333335</ele><time>2026-05-02T13:33:57Z</time></trkpt><trkpt lat="46.095533991783626" lon="9.80680997985948"><ele>2088.0</ele><time>2026-05-02T13:33:59Z</time></trkpt><trkpt lat="46.09561342394806" lon="9.806856409399654"><ele>2091.6666666666665</ele><time>2026-05-02T13:34:28Z</time></trkpt><trkpt lat="46.095675517459924" lon="9.806934420847785"><ele>2095.3333333333335</ele><time>2026-05-02T13:34:30Z</time></trkpt><trkpt lat="46.09566120927302" lon="9.807069610753981"><ele>2099.0</ele><time>2026-05-02T13:34:33Z</time></trkpt><trkpt lat="46.095643160011115" lon="9.80717635830118"><ele>2102.666666666667</ele><time>2026-05-02T13:34:36Z</time></trkpt><trkpt lat="46.095635746625355" lon="9.807283637702511"><ele>2106.3333333333335</ele><time>2026-05-02T13:34:39.999Z</time></trkpt><trkpt lat="46.09561833807256" lon="9.807374903106664"><ele>2110.0</ele><time>2026-05-02T13:34:41.999Z</time></trkpt><trkpt lat="46.095595995294815" lon="9.80750669643834"><ele>2110.0</ele><time>2026-05-02T13:34:43.999Z</time></trkpt><trkpt lat="46.095576413969255" lon="9.80765481256996"><ele>2110.0</ele><time>2026-05-02T13:34:45.999Z</time></trkpt><trkpt lat="46.095536495996846" lon="9.807774420300529"><ele>2110.0</ele><time>2026-05-02T13:34:47.999Z</time></trkpt><trkpt lat="46.09549742614096" lon="9.807883316957504"><ele>2110.0</ele><time>2026-05-02T13:34:49.999Z</time></trkpt><trkpt lat="46.09545782384462" lon="9.807973302526367"><ele>2110.0</ele><time>2026-05-02T13:35:49Z</time></trkpt><trkpt lat="46.095388855434315" lon="9.807981206472162"><ele>2110.0</ele><time>2026-05-02T13:35:51Z</time></trkpt><trkpt lat="46.09533306831564" lon="9.807932459714046"><ele>2110.0</ele><time>2026-05-02T13:35:55Z</time></trkpt><trkpt lat="46.095310669964626" lon="9.807810531138278"><ele>2110.0</ele><time>2026-05-02T13:35:58Z</time></trkpt><trkpt lat="46.09531664014947" lon="9.807719549444677"><ele>2110.0</ele><time>2026-05-02T13:36:01Z</time></trkpt><trkpt lat="46.09533575512245" lon="9.807593770337151"><ele>2110.0</ele><time>2026-05-02T13:36:04Z</time></trkpt><trkpt lat="46.0953426522437" lon="9.807503062702947"><ele>2110.0</ele><time>2026-05-02T13:36:06Z</time></trkpt><trkpt lat="46.09537388279824" lon="9.807418754478086"><ele>2110.0</ele><time>2026-05-02T13:36:08Z</time></trkpt><trkpt lat="46.095414700081335" lon="9.807301443937547"><ele>2110.0</ele><time>2026-05-02T13:36:11Z</time></trkpt><trkpt lat="46.095449446041826" lon="9.807216956449073"><ele>2110.0</ele><time>2026-05-02T13:36:13Z</time></trkpt><trkpt lat="46.095488338237665" lon="9.807119516895414"><ele>2110.0</ele><time>2026-05-02T13:36:16Z</time></trkpt><trkpt lat="46.09551147012305" lon="9.807030848490944"><ele>2110.0</ele><time>2026-05-02T13:36:18Z</time></trkpt><trkpt lat="46.09553730488147" lon="9.806910795845726"><ele>2110.0</ele><time>2026-05-02T13:36:21Z</time></trkpt><trkpt lat="46.095534640742116" lon="9.806801155644068"><ele>2110.0</ele><time>2026-05-02T13:36:24Z</time></trkpt><trkpt lat="46.095449135780775" lon="9.806825376362374"><ele>2110.0</ele><time>2026-05-02T13:36:28Z</time></trkpt><trkpt lat="46.09537875239971" lon="9.806856650677242"><ele>2110.0</ele><time>2026-05-02T13:36:30Z</time></trkpt><trkpt lat="46.09532272923371" lon="9.806911916019343"><ele>2110.0</ele><time>2026-05-02T13:36:32Z</time></trkpt><trkpt lat="46.09525864911837" lon="9.806932583389678"><ele>2110.0</ele><time>2026-05-02T13:36:36Z</time></trkpt><trkpt lat="46.09518570917588" lon="9.806960055232821"><ele>2110.0</ele><time>2026-05-02T13:36:39Z</time></trkpt><trkpt lat="46.09510426029862" lon="9.806955870245828"><ele>2110.0</ele><time>2026-05-02T13:36:42Z</time></trkpt><trkpt lat="46.095041048423596" lon="9.806904587858693"><ele>2110.0</ele><time>2026-05-02T13:36:45Z</time></trkpt><trkpt lat="46.09499863311724" lon="9.806812549153706"><ele>2106.3333333333335</ele><time>2026-05-02T13:36:47.999Z</time></trkpt><trkpt lat="46.094961617735876" lon="9.806716742219203"><ele>2102.666666666667</ele><time>2026-05-02T13:36:49.999Z</time></trkpt><trkpt lat="46.09492787157893" lon="9.80662206807048"><ele>2099.0</ele><time>2026-05-02T13:36:51.999Z</time></trkpt><trkpt lat="46.094946120072734" lon="9.806525961087747"><ele>2095.3333333333335</ele><time>2026-05-02T13:36:53.999Z</time></trkpt><trkpt lat="46.094935780919634" lon="9.80636698012218"><ele>2091.6666666666665</ele><time>2026-05-02T13:36:55.999Z</time></trkpt><trkpt lat="46.09492831776343" lon="9.806200577047147"><ele>2088.0</ele><time>2026-05-02T13:36:57.999Z</time></trkpt><trkpt lat="46.094950777326154" lon="9.806069323299434"><ele>2083.8</ele><time>2026-05-02T13:36:59.999Z</time></trkpt><trkpt lat="46.095014582130084" lon="9.80591084066239"><ele>2079.6000000000004</ele><time>2026-05-02T13:37:01.999Z</time></trkpt><trkpt lat="46.09505088592523" lon="9.805815797193336"><ele>2075.3999999999996</ele><time>2026-05-02T13:37:02.999Z</time></trkpt><trkpt lat="46.09507104165499" lon="9.805717461147923"><ele>2071.2</ele><time>2026-05-02T13:37:03.999Z</time></trkpt><trkpt lat="46.095106174762414" lon="9.80553475041977"><ele>2067.0</ele><time>2026-05-02T13:37:05.999Z</time></trkpt><trkpt lat="46.09511944220431" lon="9.805433587160724"><ele>2067.0</ele><time>2026-05-02T13:37:06.999Z</time></trkpt><trkpt lat="46.095142946159164" lon="9.805282397223438"><ele>2067.0</ele><time>2026-05-02T13:37:08.999Z</time></trkpt><trkpt lat="46.09518705266244" lon="9.805171619156846"><ele>2067.0</ele><time>2026-05-02T13:37:10.999Z</time></trkpt><trkpt lat="46.09522861914764" lon="9.80509184716601"><ele>2067.0</ele><time>2026-05-02T13:37:12.999Z</time></trkpt><trkpt lat="46.095243250005765" lon="9.804992977356369"><ele>2067.0</ele><time>2026-05-02T13:37:14.999Z</time></trkpt><trkpt lat="46.09522860867102" lon="9.804892862990293"><ele>2067.0</ele><time>2026-05-02T13:37:17.999Z</time></trkpt><trkpt lat="46.09516654326284" lon="9.804795594468525"><ele>2063.8333333333335</ele><time>2026-05-02T13:37:20.999Z</time></trkpt><trkpt lat="46.095150946503175" lon="9.804694457142302"><ele>2060.6666666666665</ele><time>2026-05-02T13:37:22.999Z</time></trkpt><trkpt lat="46.09513155509099" lon="9.804605058862519"><ele>2057.5</ele><time>2026-05-02T13:37:26.999Z</time></trkpt><trkpt lat="46.09516539915316" lon="9.804496902393186"><ele>2054.333333333333</ele><time>2026-05-02T13:37:30.999Z</time></trkpt><trkpt lat="46.095172131561895" lon="9.80437280532888"><ele>2051.1666666666665</ele><time>2026-05-02T13:37:33.999Z</time></trkpt><trkpt lat="46.09515548519223" lon="9.804258786342102"><ele>2048.0</ele><time>2026-05-02T13:37:36.999Z</time></trkpt><trkpt lat="46.09522169348756" lon="9.804148597965618"><ele>2044.3333333333333</ele><time>2026-05-02T13:37:39.999Z</time></trkpt><trkpt lat="46.095257095650055" lon="9.804051738559108"><ele>2040.6666666666665</ele><time>2026-05-02T13:37:42.999Z</time></trkpt><trkpt lat="46.09528754406477" lon="9.803971967709371"><ele>2037.0</ele><time>2026-05-02T13:37:44.999Z</time></trkpt><trkpt lat="46.095352778419425" lon="9.803892653308315"><ele>2033.3333333333335</ele><time>2026-05-02T13:37:47.999Z</time></trkpt><trkpt lat="46.095401833877325" lon="9.80382676319797"><ele>2029.6666666666667</ele><time>2026-05-02T13:37:50.999Z</time></trkpt><trkpt lat="46.09546137612139" lon="9.803738401649632"><ele>2026.0</ele><time>2026-05-02T13:37:53.999Z</time></trkpt><trkpt lat="46.09551398184394" lon="9.803659662528599"><ele>2026.0000000000002</ele><time>2026-05-02T13:37:56.999Z</time></trkpt><trkpt lat="46.09556941335677" lon="9.80360070550993"><ele>2026.0</ele><time>2026-05-02T13:37:59.999Z</time></trkpt><trkpt lat="46.095614425302145" lon="9.803481068076277"><ele>2026.0</ele><time>2026-05-02T13:38:02.999Z</time></trkpt><trkpt lat="46.09568511760883" lon="9.803398881429064"><ele>2026.0</ele><time>2026-05-02T13:38:05.999Z</time></trkpt><trkpt lat="46.09572991247506" lon="9.803315048061545"><ele>2026.0000000000002</ele><time>2026-05-02T13:38:09.999Z</time></trkpt><trkpt lat="46.09577680247323" lon="9.803229382175711"><ele>2026.0</ele><time>2026-05-02T13:38:15.999Z</time></trkpt><trkpt lat="46.095828179918335" lon="9.803158364578644"><ele>2022.6666666666667</ele><time>2026-05-02T13:38:18.998Z</time></trkpt><trkpt lat="46.0959002222362" lon="9.803096276303455"><ele>2019.3333333333335</ele><time>2026-05-02T13:38:22.998Z</time></trkpt><trkpt lat="46.095963448899106" lon="9.803105897066759"><ele>2016.0</ele><time>2026-05-02T13:38:26.998Z</time></trkpt><trkpt lat="46.09598078730372" lon="9.803009898095652"><ele>2012.6666666666665</ele><time>2026-05-02T13:38:31.998Z</time></trkpt><trkpt lat="46.09596499994651" lon="9.802901669732293"><ele>2009.3333333333333</ele><time>2026-05-02T13:38:34.997Z</time></trkpt><trkpt lat="46.09598958931411" lon="9.802776797182355"><ele>2006.0</ele><time>2026-05-02T13:38:38.997Z</time></trkpt><trkpt lat="46.09594591209844" lon="9.802680827672654"><ele>2001.2857142857142</ele><time>2026-05-02T13:38:42.997Z</time></trkpt><trkpt lat="46.0959924585898" lon="9.802605129060993"><ele>1996.5714285714284</ele><time>2026-05-02T13:38:45.997Z</time></trkpt><trkpt lat="46.09603082883288" lon="9.802508187636066"><ele>1991.8571428571427</ele><time>2026-05-02T13:38:48.997Z</time></trkpt><trkpt lat="46.096032524219936" lon="9.802412969792426"><ele>1987.1428571428569</ele><time>2026-05-02T13:38:56.997Z</time></trkpt><trkpt lat="46.095952892151566" lon="9.802396859700666"><ele>1982.4285714285713</ele><time>2026-05-02T13:39:01.997Z</time></trkpt><trkpt lat="46.09588031758428" lon="9.802409379071673"><ele>1977.7142857142853</ele><time>2026-05-02T13:39:04.997Z</time></trkpt><trkpt lat="46.095813924262835" lon="9.802417162715054"><ele>1972.9999999999998</ele><time>2026-05-02T13:39:07.997Z</time></trkpt><trkpt lat="46.09574673283702" lon="9.802383012739016"><ele>1970.4999999999998</ele><time>2026-05-02T13:39:10.997Z</time></trkpt><trkpt lat="46.095680395060555" lon="9.80239440924716"><ele>1968.0</ele><time>2026-05-02T13:39:14.997Z</time></trkpt><trkpt lat="46.09563392920556" lon="9.802250570579329"><ele>1965.5</ele><time>2026-05-02T13:39:27.997Z</time></trkpt><trkpt lat="46.0955798798992" lon="9.802202421104592"><ele>1963.0</ele><time>2026-05-02T13:39:32.997Z</time></trkpt><trkpt lat="46.09559415555126" lon="9.802108174935677"><ele>1960.4999999999998</ele><time>2026-05-02T13:39:43.997Z</time></trkpt><trkpt lat="46.095559800593854" lon="9.802025002426822"><ele>1958.0</ele><time>2026-05-02T13:39:47.997Z</time></trkpt><trkpt lat="46.0955012679179" lon="9.801953669502122"><ele>1958.0</ele><time>2026-05-02T13:39:53.997Z</time></trkpt><trkpt lat="46.09553136111173" lon="9.801855749939609"><ele>1958.0</ele><time>2026-05-02T13:39:59.997Z</time></trkpt><trkpt lat="46.095508350408956" lon="9.801752249959664"><ele>1958.0</ele><time>2026-05-02T13:40:02.997Z</time></trkpt><trkpt lat="46.095564217522295" lon="9.801686468545912"><ele>1958.0</ele><time>2026-05-02T13:40:08.997Z</time></trkpt><trkpt lat="46.095555622706335" lon="9.801588589522424"><ele>1958.0</ele><time>2026-05-02T13:40:12.997Z</time></trkpt><trkpt lat="46.09552987384035" lon="9.801498919708594"><ele>1958.0</ele><time>2026-05-02T13:40:17.997Z</time></trkpt><trkpt lat="46.095578903504446" lon="9.801430392595814"><ele>1958.0</ele><time>2026-05-02T13:40:20.997Z</time></trkpt><trkpt lat="46.09562942380016" lon="9.801342923020487"><ele>1955.2857142857142</ele><time>2026-05-02T13:40:24.996Z</time></trkpt><trkpt lat="46.0956753183468" lon="9.801273196499345"><ele>1952.5714285714287</ele><time>2026-05-02T13:40:27.996Z</time></trkpt><trkpt lat="46.095744946837264" lon="9.801199999717882"><ele>1949.857142857143</ele><time>2026-05-02T13:40:34.996Z</time></trkpt><trkpt lat="46.095721043796246" lon="9.801096658722903"><ele>1947.142857142857</ele><time>2026-05-02T13:40:37.996Z</time></trkpt><trkpt lat="46.095765957579786" lon="9.801028519585815"><ele>1944.4285714285716</ele><time>2026-05-02T13:40:41.996Z</time></trkpt><trkpt lat="46.095771600731005" lon="9.800908903950004"><ele>1941.7142857142858</ele><time>2026-05-02T13:40:44.996Z</time></trkpt><trkpt lat="46.09581840768283" lon="9.800841942259757"><ele>1939.0</ele><time>2026-05-02T13:40:47.996Z</time></trkpt><trkpt lat="46.09585507190924" lon="9.800710405791888"><ele>1933.1666666666667</ele><time>2026-05-02T13:40:49.996Z</time></trkpt><trkpt lat="46.09588376903164" lon="9.800619379010447"><ele>1927.3333333333335</ele><time>2026-05-02T13:40:51.996Z</time></trkpt><trkpt lat="46.09590621202401" lon="9.800500867559041"><ele>1921.5</ele><time>2026-05-02T13:40:54.996Z</time></trkpt><trkpt lat="46.09593391597025" lon="9.800395375019596"><ele>1915.6666666666665</ele><time>2026-05-02T13:40:56.996Z</time></trkpt><trkpt lat="46.095949074882405" lon="9.800292874474849"><ele>1909.8333333333333</ele><time>2026-05-02T13:40:59.996Z</time></trkpt><trkpt lat="46.09600750002798" lon="9.800253042275719"><ele>1904.0</ele><time>2026-05-02T13:41:03.996Z</time></trkpt><trkpt lat="46.09603455984553" lon="9.80013571718677"><ele>1897.25</ele><time>2026-05-02T13:41:06.996Z</time></trkpt><trkpt lat="46.096094682784454" lon="9.800023877559541"><ele>1890.5</ele><time>2026-05-02T13:41:10.996Z</time></trkpt><trkpt lat="46.09610637776482" lon="9.79993131711243"><ele>1883.75</ele><time>2026-05-02T13:41:12.996Z</time></trkpt><trkpt lat="46.09618020292507" lon="9.799861047267909"><ele>1877.0</ele><time>2026-05-02T13:41:14.996Z</time></trkpt><trkpt lat="46.09639117628443" lon="9.799948404106722"><ele>1877.0</ele><time>2026-05-02T13:41:22.996Z</time></trkpt><trkpt lat="46.09655495178343" lon="9.799778190740943"><ele>1877.0</ele><time>2026-05-02T13:41:27.996Z</time></trkpt><trkpt lat="46.096647325128345" lon="9.799749387357119"><ele>1877.0</ele><time>2026-05-02T13:41:28.996Z</time></trkpt><trkpt lat="46.09673478700133" lon="9.799742698244646"><ele>1877.0</ele><time>2026-05-02T13:41:29.996Z</time></trkpt><trkpt lat="46.0969266042007" lon="9.799715501344545"><ele>1874.3999999999999</ele><time>2026-05-02T13:41:31.996Z</time></trkpt><trkpt lat="46.09700974023074" lon="9.799672448265607"><ele>1871.7999999999997</ele><time>2026-05-02T13:41:32.996Z</time></trkpt><trkpt lat="46.09708959177594" lon="9.799634688703938"><ele>1869.2</ele><time>2026-05-02T13:41:33.996Z</time></trkpt><trkpt lat="46.09716971139439" lon="9.799609067358263"><ele>1866.6</ele><time>2026-05-02T13:41:34.996Z</time></trkpt><trkpt lat="46.09724798694179" lon="9.799593699270224"><ele>1864.0</ele><time>2026-05-02T13:41:35.996Z</time></trkpt><trkpt lat="46.097372611112" lon="9.799628992022539"><ele>1861.5</ele><time>2026-05-02T13:41:36.996Z</time></trkpt><trkpt lat="46.09758766833638" lon="9.799691677951126"><ele>1859.0</ele><time>2026-05-02T13:41:38.996Z</time></trkpt><trkpt lat="46.0976920727112" lon="9.799734497279283"><ele>1856.5</ele><time>2026-05-02T13:41:39.996Z</time></trkpt><trkpt lat="46.09777379382332" lon="9.79976822119447"><ele>1854.0</ele><time>2026-05-02T13:41:40.996Z</time></trkpt><trkpt lat="46.097860602377665" lon="9.799785553843675"><ele>1854.0</ele><time>2026-05-02T13:41:41.996Z</time></trkpt><trkpt lat="46.09795195885568" lon="9.79978603972904"><ele>1854.0</ele><time>2026-05-02T13:41:42.996Z</time></trkpt><trkpt lat="46.098039951071556" lon="9.799791096177524"><ele>1854.0</ele><time>2026-05-02T13:41:43.996Z</time></trkpt><trkpt lat="46.09812542728135" lon="9.799805028031399"><ele>1854.0</ele><time>2026-05-02T13:41:44.996Z</time></trkpt><trkpt lat="46.09820677402068" lon="9.799812591135144"><ele>1854.0</ele><time>2026-05-02T13:41:45.996Z</time></trkpt><trkpt lat="46.09827844021022" lon="9.79979781115278"><ele>1854.0</ele><time>2026-05-02T13:41:46.996Z</time></trkpt><trkpt lat="46.09835380808918" lon="9.799789800400937"><ele>1851.1666666666667</ele><time>2026-05-02T13:41:47.996Z</time></trkpt><trkpt lat="46.09842826664406" lon="9.799788560644112"><ele>1848.3333333333335</ele><time>2026-05-02T13:41:48.996Z</time></trkpt><trkpt lat="46.09850078276527" lon="9.799791365218274"><ele>1845.5</ele><time>2026-05-02T13:41:49.996Z</time></trkpt><trkpt lat="46.098565029798394" lon="9.79980080961853"><ele>1842.6666666666667</ele><time>2026-05-02T13:41:50.996Z</time></trkpt><trkpt lat="46.09864401024409" lon="9.799814186287728"><ele>1839.8333333333335</ele><time>2026-05-02T13:41:51.996Z</time></trkpt><trkpt lat="46.098728188351764" lon="9.799849861181324"><ele>1837.0</ele><time>2026-05-02T13:41:52.996Z</time></trkpt><trkpt lat="46.09880552309974" lon="9.79988529484657"><ele>1837.0000000000002</ele><time>2026-05-02T13:41:53.996Z</time></trkpt><trkpt lat="46.098874116587346" lon="9.799914211850519"><ele>1837.0</ele><time>2026-05-02T13:41:54.996Z</time></trkpt><trkpt lat="46.09894139637821" lon="9.799926538510617"><ele>1837.0</ele><time>2026-05-02T13:41:55.996Z</time></trkpt><trkpt lat="46.09900911633419" lon="9.799936069206252"><ele>1837.0</ele><time>2026-05-02T13:41:56.996Z</time></trkpt><trkpt lat="46.09911337184098" lon="9.799920980864007"><ele>1837.0000000000002</ele><time>2026-05-02T13:41:58.996Z</time></trkpt><trkpt lat="46.09913719063557" lon="9.799800794763053"><ele>1837.0</ele><time>2026-05-02T13:42:00.996Z</time></trkpt><trkpt lat="46.09907472487472" lon="9.799728065578137"><ele>1837.0000000000002</ele><time>2026-05-02T13:42:01.996Z</time></trkpt><trkpt lat="46.09900184828143" lon="9.799661459434079"><ele>1837.0</ele><time>2026-05-02T13:42:02.996Z</time></trkpt><trkpt lat="46.098919416029815" lon="9.799596292624573"><ele>1837.0</ele><time>2026-05-02T13:42:03.996Z</time></trkpt><trkpt lat="46.09883161411151" lon="9.799524193430292"><ele>1837.0</ele><time>2026-05-02T13:42:04.996Z</time></trkpt><trkpt lat="46.09876616835616" lon="9.799446268800194"><ele>1837.0000000000002</ele><time>2026-05-02T13:42:05.996Z</time></trkpt><trkpt lat="46.09872555019182" lon="9.799361151515704"><ele>1837.0</ele><time>2026-05-02T13:42:06.996Z</time></trkpt><trkpt lat="46.09869575923636" lon="9.799279464227286"><ele>1834.0</ele><time>2026-05-02T13:42:07.996Z</time></trkpt><trkpt lat="46.09866691186249" lon="9.79917742677733"><ele>1831.0000000000002</ele><time>2026-05-02T13:42:08.995Z</time></trkpt><trkpt lat="46.09863777002263" lon="9.799092931321997"><ele>1828.0</ele><time>2026-05-02T13:42:09.995Z</time></trkpt><trkpt lat="46.09862023849242" lon="9.798994913735894"><ele>1825.0</ele><time>2026-05-02T13:42:10.995Z</time></trkpt><trkpt lat="46.09859342624269" lon="9.798895337594125"><ele>1822.0000000000002</ele><time>2026-05-02T13:42:11.995Z</time></trkpt><trkpt lat="46.09854038379025" lon="9.798828637012205"><ele>1819.0</ele><time>2026-05-02T13:42:12.995Z</time></trkpt><trkpt lat="46.09847940467712" lon="9.798753725331643"><ele>1816.0</ele><time>2026-05-02T13:42:13.995Z</time></trkpt><trkpt lat="46.098431958223394" lon="9.7986658699094"><ele>1816.0000000000002</ele><time>2026-05-02T13:42:14.995Z</time></trkpt><trkpt lat="46.09838373206528" lon="9.798577353859189"><ele>1816.0</ele><time>2026-05-02T13:42:15.995Z</time></trkpt><trkpt lat="46.0983270798327" lon="9.798488779851976"><ele>1816.0</ele><time>2026-05-02T13:42:16.995Z</time></trkpt><trkpt lat="46.09825639395814" lon="9.798408743137546"><ele>1816.0</ele><time>2026-05-02T13:42:17.995Z</time></trkpt><trkpt lat="46.0981681784096" lon="9.798329704473943"><ele>1816.0000000000002</ele><time>2026-05-02T13:42:18.995Z</time></trkpt><trkpt lat="46.098095686709804" lon="9.798261244506344"><ele>1816.0</ele><time>2026-05-02T13:42:19.995Z</time></trkpt><trkpt lat="46.09803275552392" lon="9.798227183598332"><ele>1813.6</ele><time>2026-05-02T13:42:20.995Z</time></trkpt><trkpt lat="46.09795231593476" lon="9.798140641660979"><ele>1811.1999999999998</ele><time>2026-05-02T13:42:22.995Z</time></trkpt><trkpt lat="46.09801896899128" lon="9.798065823563624"><ele>1808.8000000000002</ele><time>2026-05-02T13:42:24.995Z</time></trkpt><trkpt lat="46.098111839378" lon="9.798101132122465"><ele>1806.4</ele><time>2026-05-02T13:42:25.995Z</time></trkpt><trkpt lat="46.09819911178991" lon="9.798112983668757"><ele>1804.0</ele><time>2026-05-02T13:42:26.995Z</time></trkpt><trkpt lat="46.098280946780434" lon="9.798095104488585"><ele>1802.8333333333335</ele><time>2026-05-02T13:42:27.995Z</time></trkpt><trkpt lat="46.09836825793838" lon="9.798066610151487"><ele>1801.6666666666667</ele><time>2026-05-02T13:42:28.995Z</time></trkpt><trkpt lat="46.09845411696771" lon="9.798056186667617"><ele>1800.5</ele><time>2026-05-02T13:42:29.995Z</time></trkpt><trkpt lat="46.098532142114784" lon="9.798057070831604"><ele>1799.3333333333335</ele><time>2026-05-02T13:42:30.995Z</time></trkpt><trkpt lat="46.098610600422255" lon="9.798083020643075"><ele>1798.1666666666667</ele><time>2026-05-02T13:42:31.995Z</time></trkpt><trkpt lat="46.09869328746911" lon="9.798129964518996"><ele>1797.0</ele><time>2026-05-02T13:42:32.995Z</time></trkpt><trkpt lat="46.09877227322236" lon="9.798172553156405"><ele>1797.0</ele><time>2026-05-02T13:42:33.995Z</time></trkpt><trkpt lat="46.098856691869514" lon="9.798198648962817"><ele>1797.0</ele><time>2026-05-02T13:42:34.995Z</time></trkpt><trkpt lat="46.09893175845864" lon="9.798229098490314"><ele>1797.0</ele><time>2026-05-02T13:42:35.995Z</time></trkpt><trkpt lat="46.09901666464864" lon="9.798244063324573"><ele>1797.0</ele><time>2026-05-02T13:42:36.995Z</time></trkpt><trkpt lat="46.09911198400263" lon="9.798229817181051"><ele>1797.0</ele><time>2026-05-02T13:42:37.995Z</time></trkpt><trkpt lat="46.09920491966352" lon="9.798205366903582"><ele>1797.0</ele><time>2026-05-02T13:42:38.995Z</time></trkpt><trkpt lat="46.09929796809508" lon="9.798204311122326"><ele>1794.8333333333333</ele><time>2026-05-02T13:42:39.995Z</time></trkpt><trkpt lat="46.099389204718435" lon="9.79825480111831"><ele>1792.6666666666665</ele><time>2026-05-02T13:42:40.995Z</time></trkpt><trkpt lat="46.0994710891652" lon="9.79830985431927"><ele>1790.5</ele><time>2026-05-02T13:42:41.995Z</time></trkpt><trkpt lat="46.09954637867626" lon="9.798348464115625"><ele>1788.3333333333333</ele><time>2026-05-02T13:42:42.995Z</time></trkpt><trkpt lat="46.099619561789844" lon="9.798373222270216"><ele>1786.1666666666665</ele><time>2026-05-02T13:42:43.995Z</time></trkpt><trkpt lat="46.09969096456036" lon="9.798399375296867"><ele>1784.0</ele><time>2026-05-02T13:42:44.995Z</time></trkpt><trkpt lat="46.09975681926472" lon="9.798411000456293"><ele>1783.9999999999998</ele><time>2026-05-02T13:42:45.995Z</time></trkpt><trkpt lat="46.099821936194914" lon="9.798405114311976"><ele>1784.0</ele><time>2026-05-02T13:42:46.995Z</time></trkpt><trkpt lat="46.09988486303403" lon="9.798366019941502"><ele>1784.0</ele><time>2026-05-02T13:42:47.995Z</time></trkpt><trkpt lat="46.09994716544287" lon="9.798288483011566"><ele>1784.0</ele><time>2026-05-02T13:42:48.995Z</time></trkpt><trkpt lat="46.10000931717583" lon="9.798225351789384"><ele>1783.9999999999998</ele><time>2026-05-02T13:42:49.995Z</time></trkpt><trkpt lat="46.100079464756334" lon="9.798178777074328"><ele>1784.0</ele><time>2026-05-02T13:42:50.995Z</time></trkpt><trkpt lat="46.100158990379505" lon="9.798135547385886"><ele>1782.857142857143</ele><time>2026-05-02T13:42:51.995Z</time></trkpt><trkpt lat="46.100240239389905" lon="9.798124115102793"><ele>1781.7142857142858</ele><time>2026-05-02T13:42:52.995Z</time></trkpt><trkpt lat="46.100319658302794" lon="9.798112296078578"><ele>1780.5714285714284</ele><time>2026-05-02T13:42:53.995Z</time></trkpt><trkpt lat="46.10038857142656" lon="9.798099495291714"><ele>1779.4285714285716</ele><time>2026-05-02T13:42:54.995Z</time></trkpt><trkpt lat="46.100461852806916" lon="9.798078954091935"><ele>1778.2857142857144</ele><time>2026-05-02T13:42:55.995Z</time></trkpt><trkpt lat="46.10052065361552" lon="9.798045002867255"><ele>1777.142857142857</ele><time>2026-05-02T13:42:56.995Z</time></trkpt><trkpt lat="46.100543654915825" lon="9.797945472679379"><ele>1776.0</ele><time>2026-05-02T13:42:57.995Z</time></trkpt><trkpt lat="46.10057726029237" lon="9.797862836291124"><ele>1776.0</ele><time>2026-05-02T13:42:58.995Z</time></trkpt><trkpt lat="46.10061989835144" lon="9.797771972596852"><ele>1776.0</ele><time>2026-05-02T13:42:59.995Z</time></trkpt><trkpt lat="46.10067779838169" lon="9.797721259675855"><ele>1776.0</ele><time>2026-05-02T13:43:00.995Z</time></trkpt><trkpt lat="46.10077121600668" lon="9.797673329529248"><ele>1776.0</ele><time>2026-05-02T13:43:02.995Z</time></trkpt><trkpt lat="46.1008342417185" lon="9.797611685198673"><ele>1776.0</ele><time>2026-05-02T13:45:04.994Z</time></trkpt><trkpt lat="46.100896689332124" lon="9.797546897061107"><ele>1776.0</ele><time>2026-05-02T13:45:20.994Z</time></trkpt><trkpt lat="46.10093459974969" lon="9.797469648023178"><ele>1772.1999999999998</ele><time>2026-05-02T13:56:24Z</time></trkpt><trkpt lat="46.100833331071655" lon="9.79750257082881"><ele>1768.3999999999999</ele><time>2026-05-02T13:56:31Z</time></trkpt><trkpt lat="46.10074029212201" lon="9.797478318402398"><ele>1764.6</ele><time>2026-05-02T13:56:32Z</time></trkpt><trkpt lat="46.1006496089222" lon="9.79739287403502"><ele>1760.8</ele><time>2026-05-02T13:56:33Z</time></trkpt><trkpt lat="46.10056998164754" lon="9.79730250274526"><ele>1757.0</ele><time>2026-05-02T13:56:34Z</time></trkpt><trkpt lat="46.1005047469111" lon="9.7972661621302"><ele>1755.2857142857142</ele><time>2026-05-02T13:56:35Z</time></trkpt><trkpt lat="46.10043458025503" lon="9.797255563574241"><ele>1753.5714285714284</ele><time>2026-05-02T13:56:36Z</time></trkpt><trkpt lat="46.10037053119014" lon="9.797266777462369"><ele>1751.857142857143</ele><time>2026-05-02T13:56:37Z</time></trkpt><trkpt lat="46.10030241511442" lon="9.79728854348951"><ele>1750.142857142857</ele><time>2026-05-02T13:56:38Z</time></trkpt><trkpt lat="46.10023348083952" lon="9.797310151654607"><ele>1748.4285714285713</ele><time>2026-05-02T13:56:39Z</time></trkpt><trkpt lat="46.10014588620329" lon="9.797282569776625"><ele>1746.7142857142858</ele><time>2026-05-02T13:56:41Z</time></trkpt><trkpt lat="46.100080862021244" lon="9.797246484526354"><ele>1745.0</ele><time>2026-05-02T13:56:43Z</time></trkpt><trkpt lat="46.09999659132748" lon="9.797297297941649"><ele>1749.5</ele><time>2026-05-02T13:56:46Z</time></trkpt><trkpt lat="46.099909739282644" lon="9.797299587568208"><ele>1754.0</ele><time>2026-05-02T13:56:48Z</time></trkpt><trkpt lat="46.09977780479412" lon="9.797202650291812"><ele>1758.5</ele><time>2026-05-02T13:56:50Z</time></trkpt><trkpt lat="46.09967860662841" lon="9.797122602582514"><ele>1763.0</ele><time>2026-05-02T13:56:51Z</time></trkpt><trkpt lat="46.099576758152324" lon="9.797059895168712"><ele>1763.0</ele><time>2026-05-02T13:56:52Z</time></trkpt><trkpt lat="46.099460922844926" lon="9.797045707912934"><ele>1763.0000000000002</ele><time>2026-05-02T13:56:53Z</time></trkpt><trkpt lat="46.09936573747223" lon="9.797056537144009"><ele>1763.0000000000002</ele><time>2026-05-02T13:56:54Z</time></trkpt><trkpt lat="46.09927215356702" lon="9.797028414025537"><ele>1763.0</ele><time>2026-05-02T13:56:55Z</time></trkpt><trkpt lat="46.099198640895224" lon="9.79696287628927"><ele>1763.0</ele><time>2026-05-02T13:56:56Z</time></trkpt><trkpt lat="46.09915398476955" lon="9.79687954878167"><ele>1759.0</ele><time>2026-05-02T13:56:57Z</time></trkpt><trkpt lat="46.099127542610596" lon="9.796736854743756"><ele>1755.0000000000002</ele><time>2026-05-02T13:56:58Z</time></trkpt><trkpt lat="46.0990824296217" lon="9.796607139173544"><ele>1751.0000000000002</ele><time>2026-05-02T13:56:59Z</time></trkpt><trkpt lat="46.09896859251276" lon="9.796514343467777"><ele>1747.0</ele><time>2026-05-02T13:57:01Z</time></trkpt><trkpt lat="46.098894302833756" lon="9.796468395829084"><ele>1743.0</ele><time>2026-05-02T13:57:02Z</time></trkpt><trkpt lat="46.09879799904357" lon="9.796418195085852"><ele>1743.0</ele><time>2026-05-02T13:57:04Z</time></trkpt><trkpt lat="46.09873377532733" lon="9.79635590360372"><ele>1743.0</ele><time>2026-05-02T13:57:06Z</time></trkpt><trkpt lat="46.09866992203281" lon="9.79623033987489"><ele>1743.0</ele><time>2026-05-02T13:57:09Z</time></trkpt><trkpt lat="46.098596347550234" lon="9.796141445430676"><ele>1743.0</ele><time>2026-05-02T13:57:11Z</time></trkpt><trkpt lat="46.09855970034015" lon="9.796063642968328"><ele>1743.0</ele><time>2026-05-02T13:57:13Z</time></trkpt><trkpt lat="46.09849729946867" lon="9.795994236409786"><ele>1743.0</ele><time>2026-05-02T13:57:16Z</time></trkpt><trkpt lat="46.09842920715165" lon="9.79597817754393"><ele>1743.0</ele><time>2026-05-02T13:57:18Z</time></trkpt><trkpt lat="46.09836359834188" lon="9.796027360353392"><ele>1743.0</ele><time>2026-05-02T13:57:20Z</time></trkpt><trkpt lat="46.09831573491566" lon="9.796102257782271"><ele>1743.0</ele><time>2026-05-02T13:57:22Z</time></trkpt><trkpt lat="46.098209530391934" lon="9.796124074060888"><ele>1743.0</ele><time>2026-05-02T13:57:24Z</time></trkpt><trkpt lat="46.09812710959212" lon="9.796082506238218"><ele>1743.0</ele><time>2026-05-02T13:57:27Z</time></trkpt><trkpt lat="46.09804504602183" lon="9.796068447788764"><ele>1743.0</ele><time>2026-05-02T13:57:30Z</time></trkpt><trkpt lat="46.09798035618512" lon="9.796101926042004"><ele>1741.8333333333333</ele><time>2026-05-02T13:57:33Z</time></trkpt><trkpt lat="46.09791115760788" lon="9.796137799330198"><ele>1740.6666666666665</ele><time>2026-05-02T13:57:37.999Z</time></trkpt><trkpt lat="46.09781237453086" lon="9.796191471200402"><ele>1739.5</ele><time>2026-05-02T13:57:43.999Z</time></trkpt><trkpt lat="46.09771418169942" lon="9.796220885718382"><ele>1738.3333333333333</ele><time>2026-05-02T13:57:45.999Z</time></trkpt><trkpt lat="46.0976458293309" lon="9.796218157539808"><ele>1737.1666666666665</ele><time>2026-05-02T13:57:47.999Z</time></trkpt><trkpt lat="46.09757114503633" lon="9.79623796781996"><ele>1736.0</ele><time>2026-05-02T13:57:50.999Z</time></trkpt><trkpt lat="46.09750076248633" lon="9.796238952626114"><ele>1735.9999999999998</ele><time>2026-05-02T13:57:52.999Z</time></trkpt><trkpt lat="46.097424658279614" lon="9.796240103235437"><ele>1736.0</ele><time>2026-05-02T13:57:55.999Z</time></trkpt><trkpt lat="46.097396230033745" lon="9.796145470365689"><ele>1736.0</ele><time>2026-05-02T13:58:00.999Z</time></trkpt><trkpt lat="46.097424249171794" lon="9.796060002642529"><ele>1736.0</ele><time>2026-05-02T13:58:03.999Z</time></trkpt><trkpt lat="46.097457836800544" lon="9.795926339920397"><ele>1735.9999999999998</ele><time>2026-05-02T13:58:10.999Z</time></trkpt><trkpt lat="46.09746909456135" lon="9.795817163881011"><ele>1736.0</ele><time>2026-05-02T13:58:16Z</time></trkpt><trkpt lat="46.09751363444824" lon="9.79575104717333"><ele>1730.8333333333333</ele><time>2026-05-02T13:58:20Z</time></trkpt><trkpt lat="46.097586844833515" lon="9.795680267419579"><ele>1725.6666666666665</ele><time>2026-05-02T13:58:24Z</time></trkpt><trkpt lat="46.09765302372756" lon="9.795616965171684"><ele>1720.5</ele><time>2026-05-02T13:58:28.999Z</time></trkpt><trkpt lat="46.09769107526928" lon="9.795511779105736"><ele>1715.3333333333335</ele><time>2026-05-02T13:58:32.999Z</time></trkpt><trkpt lat="46.09767987145397" lon="9.79538407680765"><ele>1710.1666666666667</ele><time>2026-05-02T13:58:36.999Z</time></trkpt><trkpt lat="46.09772803365658" lon="9.795312596700052"><ele>1705.0</ele><time>2026-05-02T13:58:39.999Z</time></trkpt><trkpt lat="46.097775454894716" lon="9.795215735150917"><ele>1701.4285714285716</ele><time>2026-05-02T13:58:42.999Z</time></trkpt><trkpt lat="46.09780265188303" lon="9.79512828503429"><ele>1697.857142857143</ele><time>2026-05-02T13:58:45.999Z</time></trkpt><trkpt lat="46.09783693231092" lon="9.79503928348293"><ele>1694.2857142857142</ele><time>2026-05-02T13:58:48.999Z</time></trkpt><trkpt lat="46.097853088041795" lon="9.79495034569277"><ele>1690.7142857142858</ele><time>2026-05-02T13:58:50.999Z</time></trkpt><trkpt lat="46.097861169933765" lon="9.7948462577208"><ele>1687.142857142857</ele><time>2026-05-02T13:58:53.999Z</time></trkpt><trkpt lat="46.09787490599805" lon="9.794731464107155"><ele>1683.5714285714287</ele><time>2026-05-02T13:58:57.999Z</time></trkpt><trkpt lat="46.09782865796972" lon="9.794615479740559"><ele>1680.0</ele><time>2026-05-02T13:58:59.999Z</time></trkpt><trkpt lat="46.097783497659364" lon="9.794499223646994"><ele>1680.0</ele><time>2026-05-02T13:59:02.999Z</time></trkpt><trkpt lat="46.097716073144205" lon="9.7944417287596"><ele>1680.0</ele><time>2026-05-02T13:59:05.999Z</time></trkpt><trkpt lat="46.09764257298006" lon="9.794520584045546"><ele>1680.0</ele><time>2026-05-02T13:59:09.999Z</time></trkpt><trkpt lat="46.0976088837414" lon="9.794602675217314"><ele>1680.0</ele><time>2026-05-02T13:59:14.999Z</time></trkpt><trkpt lat="46.097573243159616" lon="9.794695965630902"><ele>1680.0</ele><time>2026-05-02T13:59:18.999Z</time></trkpt><trkpt lat="46.09751876662746" lon="9.794824963894136"><ele>1680.0</ele><time>2026-05-02T13:59:21.999Z</time></trkpt><trkpt lat="46.097477908896295" lon="9.794898293117335"><ele>1680.0</ele><time>2026-05-02T13:59:24.999Z</time></trkpt><trkpt lat="46.097457124703794" lon="9.795032246149024"><ele>1680.0</ele><time>2026-05-02T13:59:26.999Z</time></trkpt><trkpt lat="46.097411263424675" lon="9.795101631484794"><ele>1680.0</ele><time>2026-05-02T13:59:29.999Z</time></trkpt><trkpt lat="46.0973382787503" lon="9.795110369626032"><ele>1680.0</ele><time>2026-05-02T13:59:33.999Z</time></trkpt><trkpt lat="46.09727569793114" lon="9.795133334481235"><ele>1680.0</ele><time>2026-05-02T13:59:36.999Z</time></trkpt><trkpt lat="46.09719481045071" lon="9.79516666262099"><ele>1680.0</ele><time>2026-05-02T13:59:38.999Z</time></trkpt><trkpt lat="46.09712048614269" lon="9.795198435464856"><ele>1684.6666666666667</ele><time>2026-05-02T13:59:40.999Z</time></trkpt><trkpt lat="46.0970657934808" lon="9.795273351328028"><ele>1689.3333333333335</ele><time>2026-05-02T13:59:42.999Z</time></trkpt><trkpt lat="46.09703340481949" lon="9.7953680423956"><ele>1694.0</ele><time>2026-05-02T13:59:44.999Z</time></trkpt><trkpt lat="46.09695040360682" lon="9.795387092029111"><ele>1698.6666666666667</ele><time>2026-05-02T13:59:48.999Z</time></trkpt><trkpt lat="46.09688718932387" lon="9.795318950989008"><ele>1703.3333333333335</ele><time>2026-05-02T13:59:54.999Z</time></trkpt><trkpt lat="46.09682335751097" lon="9.795309675794998"><ele>1708.0</ele><time>2026-05-02T13:59:58.999Z</time></trkpt><trkpt lat="46.09674800555992" lon="9.795252846500295"><ele>1708.0000000000002</ele><time>2026-05-02T14:00:01.999Z</time></trkpt><trkpt lat="46.09666800036213" lon="9.795229017624195"><ele>1708.0</ele><time>2026-05-02T14:00:05.999Z</time></trkpt><trkpt lat="46.096599724245785" lon="9.795242156330861"><ele>1708.0</ele><time>2026-05-02T14:00:07.999Z</time></trkpt><trkpt lat="46.09653178580915" lon="9.795271709245371"><ele>1708.0</ele><time>2026-05-02T14:00:08.999Z</time></trkpt><trkpt lat="46.09645894129794" lon="9.795251542210131"><ele>1708.0000000000002</ele><time>2026-05-02T14:00:10.999Z</time></trkpt><trkpt lat="46.09638621575499" lon="9.795212356022567"><ele>1708.0</ele><time>2026-05-02T14:00:12.998Z</time></trkpt><trkpt lat="46.09628333303935" lon="9.795187783554269"><ele>1703.8333333333335</ele><time>2026-05-02T14:00:14.998Z</time></trkpt><trkpt lat="46.096201367486735" lon="9.795156508694655"><ele>1699.6666666666667</ele><time>2026-05-02T14:00:17Z</time></trkpt><trkpt lat="46.0961168931028" lon="9.79512085267166"><ele>1695.5</ele><time>2026-05-02T14:00:18.999Z</time></trkpt><trkpt lat="46.096060979390934" lon="9.795067248443965"><ele>1691.3333333333335</ele><time>2026-05-02T14:00:21Z</time></trkpt><trkpt lat="46.095992144041716" lon="9.794961640491154"><ele>1687.1666666666667</ele><time>2026-05-02T14:00:24Z</time></trkpt><trkpt lat="46.09592768645987" lon="9.79492341655342"><ele>1683.0</ele><time>2026-05-02T14:00:26Z</time></trkpt><trkpt lat="46.09584303387379" lon="9.794879055927758"><ele>1683.2</ele><time>2026-05-02T14:00:28Z</time></trkpt><trkpt lat="46.09574455534832" lon="9.794840190212332"><ele>1683.4</ele><time>2026-05-02T14:00:30Z</time></trkpt><trkpt lat="46.09566885830123" lon="9.794796911446543"><ele>1683.6000000000001</ele><time>2026-05-02T14:00:32Z</time></trkpt><trkpt lat="46.09558676289137" lon="9.794770662554631"><ele>1683.8000000000002</ele><time>2026-05-02T14:00:35Z</time></trkpt><trkpt lat="46.09550607469535" lon="9.794729160793363"><ele>1684.0</ele><time>2026-05-02T14:00:37Z</time></trkpt><trkpt lat="46.09541812031372" lon="9.79466893658952"><ele>1684.0000000000002</ele><time>2026-05-02T14:00:41Z</time></trkpt><trkpt lat="46.09535645514523" lon="9.794616942765243"><ele>1684.0</ele><time>2026-05-02T14:00:52Z</time></trkpt><trkpt lat="46.09528842605042" lon="9.794555591696689"><ele>1684.0</ele><time>2026-05-02T14:00:55Z</time></trkpt><trkpt lat="46.0952117433044" lon="9.79450229298407"><ele>1684.0</ele><time>2026-05-02T14:00:58Z</time></trkpt><trkpt lat="46.09513099821701" lon="9.794432175539704"><ele>1684.0000000000002</ele><time>2026-05-02T14:01:00Z</time></trkpt><trkpt lat="46.095048966775444" lon="9.794419563110798"><ele>1684.0</ele><time>2026-05-02T14:01:02Z</time></trkpt><trkpt lat="46.09498008424484" lon="9.794402886872271"><ele>1675.2</ele><time>2026-05-02T14:01:04Z</time></trkpt><trkpt lat="46.09489441061634" lon="9.794299026898953"><ele>1666.4</ele><time>2026-05-02T14:01:07Z</time></trkpt><trkpt lat="46.09483454094442" lon="9.794261366753787"><ele>1657.6</ele><time>2026-05-02T14:01:08Z</time></trkpt><trkpt lat="46.09473409628613" lon="9.794214177529657"><ele>1648.8</ele><time>2026-05-02T14:01:10Z</time></trkpt><trkpt lat="46.09465165452196" lon="9.794153486192636"><ele>1640.0</ele><time>2026-05-02T14:01:12Z</time></trkpt><trkpt lat="46.094582786468784" lon="9.794108061423492"><ele>1639.9999999999998</ele><time>2026-05-02T14:01:14Z</time></trkpt><trkpt lat="46.09451727996802" lon="9.794043611911313"><ele>1640.0</ele><time>2026-05-02T14:01:16Z</time></trkpt><trkpt lat="46.094468217902225" lon="9.793950719933537"><ele>1640.0</ele><time>2026-05-02T14:01:19Z</time></trkpt><trkpt lat="46.0944062997879" lon="9.793909377834982"><ele>1640.0</ele><time>2026-05-02T14:01:21Z</time></trkpt><trkpt lat="46.094318075516284" lon="9.793940452550505"><ele>1639.9999999999998</ele><time>2026-05-02T14:01:24Z</time></trkpt><trkpt lat="46.094239535637314" lon="9.79389071364576"><ele>1640.0</ele><time>2026-05-02T14:01:27Z</time></trkpt><trkpt lat="46.09418944061957" lon="9.79382442324531"><ele>1639.9999999999998</ele><time>2026-05-02T14:01:29Z</time></trkpt><trkpt lat="46.09409292558048" lon="9.793789673306817"><ele>1640.0</ele><time>2026-05-02T14:01:31.999Z</time></trkpt><trkpt lat="46.09401671566667" lon="9.793761738880107"><ele>1640.0</ele><time>2026-05-02T14:01:33.999Z</time></trkpt><trkpt lat="46.093957596271196" lon="9.793692379686236"><ele>1640.0</ele><time>2026-05-02T14:01:35.999Z</time></trkpt><trkpt lat="46.093864956239685" lon="9.79370325279388"><ele>1639.9999999999998</ele><time>2026-05-02T14:01:39.999Z</time></trkpt><trkpt lat="46.09387007297331" lon="9.793606294107532"><ele>1640.0</ele><time>2026-05-02T14:01:48.999Z</time></trkpt><trkpt lat="46.09382271589659" lon="9.793514066330317"><ele>1633.4999999999998</ele><time>2026-05-02T14:01:50.999Z</time></trkpt><trkpt lat="46.09377011695877" lon="9.793435919921794"><ele>1627.0</ele><time>2026-05-02T14:01:51.999Z</time></trkpt><trkpt lat="46.0936803589329" lon="9.793414378749846"><ele>1620.5</ele><time>2026-05-02T14:01:53.999Z</time></trkpt><trkpt lat="46.0936054096005" lon="9.793360968198904"><ele>1614.0</ele><time>2026-05-02T14:01:55.999Z</time></trkpt><trkpt lat="46.093538946769286" lon="9.793269087776707"><ele>1607.4999999999998</ele><time>2026-05-02T14:01:57.999Z</time></trkpt><trkpt lat="46.09355460152338" lon="9.793116455627185"><ele>1601.0</ele><time>2026-05-02T14:02:00.999Z</time></trkpt><trkpt lat="46.0935668743203" lon="9.792997082488728"><ele>1600.9999999999998</ele><time>2026-05-02T14:02:02.999Z</time></trkpt><trkpt lat="46.09357315683564" lon="9.79290599243939"><ele>1601.0</ele><time>2026-05-02T14:02:04.999Z</time></trkpt><trkpt lat="46.093594588250795" lon="9.79277786807369"><ele>1601.0</ele><time>2026-05-02T14:02:07.999Z</time></trkpt><trkpt lat="46.093614299874176" lon="9.79266162342606"><ele>1601.0</ele><time>2026-05-02T14:02:11.999Z</time></trkpt><trkpt lat="46.09365068065974" lon="9.792557082355067"><ele>1600.9999999999998</ele><time>2026-05-02T14:02:14.999Z</time></trkpt><trkpt lat="46.093635372406006" lon="9.792431333581547"><ele>1601.0</ele><time>2026-05-02T14:02:16.999Z</time></trkpt><trkpt lat="46.093603025236405" lon="9.792352609459694"><ele>1595.6</ele><time>2026-05-02T14:02:18.999Z</time></trkpt><trkpt lat="46.09356619221731" lon="9.792237843018041"><ele>1590.1999999999998</ele><time>2026-05-02T14:02:22Z</time></trkpt><trkpt lat="46.09359228819601" lon="9.792139474771028"><ele>1584.8000000000002</ele><time>2026-05-02T14:02:25Z</time></trkpt><trkpt lat="46.0936815712864" lon="9.792145793843233"><ele>1579.4</ele><time>2026-05-02T14:02:27Z</time></trkpt><trkpt lat="46.09376782210054" lon="9.792141271101674"><ele>1574.0</ele><time>2026-05-02T14:02:28Z</time></trkpt><trkpt lat="46.09389570917463" lon="9.792139665174384"><ele>1574.0</ele><time>2026-05-02T14:02:29.999Z</time></trkpt><trkpt lat="46.09399692005194" lon="9.792272137005472"><ele>1574.0</ele><time>2026-05-02T14:02:31.999Z</time></trkpt><trkpt lat="46.094074285987816" lon="9.792344348290653"><ele>1574.0</ele><time>2026-05-02T14:02:34Z</time></trkpt><trkpt lat="46.09419013547081" lon="9.792385969031082"><ele>1574.0</ele><time>2026-05-02T14:02:36Z</time></trkpt><trkpt lat="46.0943522655979" lon="9.792369459868466"><ele>1573.4</ele><time>2026-05-02T14:02:38Z</time></trkpt><trkpt lat="46.09447254575605" lon="9.79239265985897"><ele>1572.8000000000002</ele><time>2026-05-02T14:02:40Z</time></trkpt><trkpt lat="46.0946070109075" lon="9.79239571106262"><ele>1572.1999999999998</ele><time>2026-05-02T14:02:42Z</time></trkpt><trkpt lat="46.09469033375775" lon="9.792368665023773"><ele>1571.6</ele><time>2026-05-02T14:02:43Z</time></trkpt><trkpt lat="46.09478091123227" lon="9.79234520156643"><ele>1571.0</ele><time>2026-05-02T14:02:44Z</time></trkpt><trkpt lat="46.09490886933101" lon="9.79232337001194"><ele>1569.5</ele><time>2026-05-02T14:02:45Z</time></trkpt><trkpt lat="46.09505040092069" lon="9.792247076232938"><ele>1568.0</ele><time>2026-05-02T14:02:46Z</time></trkpt><trkpt lat="46.09519325924494" lon="9.792188428906385"><ele>1566.5</ele><time>2026-05-02T14:02:47Z</time></trkpt><trkpt lat="46.095310410417696" lon="9.79214814651401"><ele>1565.0</ele><time>2026-05-02T14:02:48Z</time></trkpt><trkpt lat="46.0954251825835" lon="9.792134187340103"><ele>1565.0</ele><time>2026-05-02T14:02:49Z</time></trkpt><trkpt lat="46.095533960580674" lon="9.792121477483464"><ele>1565.0</ele><time>2026-05-02T14:02:50Z</time></trkpt><trkpt lat="46.09564786858307" lon="9.792089110442056"><ele>1565.0</ele><time>2026-05-02T14:02:51Z</time></trkpt><trkpt lat="46.09574997072155" lon="9.792054242397661"><ele>1565.0</ele><time>2026-05-02T14:02:52Z</time></trkpt><trkpt lat="46.095867645759085" lon="9.792019260734332"><ele>1564.4</ele><time>2026-05-02T14:02:53Z</time></trkpt><trkpt lat="46.09598600156317" lon="9.791972485600455"><ele>1563.8</ele><time>2026-05-02T14:02:54Z</time></trkpt><trkpt lat="46.09607063169997" lon="9.791913613500867"><ele>1563.1999999999998</ele><time>2026-05-02T14:02:55Z</time></trkpt><trkpt lat="46.09614101656128" lon="9.791843086802606"><ele>1562.6</ele><time>2026-05-02T14:02:56Z</time></trkpt><trkpt lat="46.09619214775838" lon="9.791711919540077"><ele>1562.0</ele><time>2026-05-02T14:02:57Z</time></trkpt><trkpt lat="46.09628433803565" lon="9.791582396300296"><ele>1556.5</ele><time>2026-05-02T14:02:58Z</time></trkpt><trkpt lat="46.09640133425827" lon="9.79144771769061"><ele>1551.0</ele><time>2026-05-02T14:02:59Z</time></trkpt><trkpt lat="46.09650134524134" lon="9.791348221033317"><ele>1545.5</ele><time>2026-05-02T14:03:00Z</time></trkpt><trkpt lat="46.09657826637686" lon="9.791207796936591"><ele>1540.0</ele><time>2026-05-02T14:03:01Z</time></trkpt><trkpt lat="46.096656223599474" lon="9.79109261639076"><ele>1539.2</ele><time>2026-05-02T14:03:02Z</time></trkpt><trkpt lat="46.09674737446267" lon="9.79100375148547"><ele>1538.4</ele><time>2026-05-02T14:03:03Z</time></trkpt><trkpt lat="46.096824975524704" lon="9.790937549228168"><ele>1537.6</ele><time>2026-05-02T14:03:04Z</time></trkpt><trkpt lat="46.09691135463292" lon="9.790887309309303"><ele>1536.8</ele><time>2026-05-02T14:03:05Z</time></trkpt><trkpt lat="46.09699982381597" lon="9.790908858110367"><ele>1536.0</ele><time>2026-05-02T14:03:06Z</time></trkpt><trkpt lat="46.097094390938956" lon="9.790961842929448"><ele>1537.0</ele><time>2026-05-02T14:03:07Z</time></trkpt><trkpt lat="46.09719427854905" lon="9.791026840949108"><ele>1538.0</ele><time>2026-05-02T14:03:08Z</time></trkpt><trkpt lat="46.09731233146581" lon="9.791077584403624"><ele>1539.0</ele><time>2026-05-02T14:03:09Z</time></trkpt><trkpt lat="46.097418206011895" lon="9.791111472604314"><ele>1540.0</ele><time>2026-05-02T14:03:10Z</time></trkpt><trkpt lat="46.097547482428624" lon="9.791103226775862"><ele>1540.8</ele><time>2026-05-02T14:03:11Z</time></trkpt><trkpt lat="46.097654216257816" lon="9.791092820750363"><ele>1541.6</ele><time>2026-05-02T14:03:12Z</time></trkpt><trkpt lat="46.09775329414224" lon="9.791106620194565"><ele>1542.4</ele><time>2026-05-02T14:03:13Z</time></trkpt><trkpt lat="46.09786710285417" lon="9.79113775243641"><ele>1543.2</ele><time>2026-05-02T14:03:14Z</time></trkpt><trkpt lat="46.09797414766104" lon="9.79117420919747"><ele>1544.0</ele><time>2026-05-02T14:03:15Z</time></trkpt><trkpt lat="46.09806335995721" lon="9.791208476612507"><ele>1544.0</ele><time>2026-05-02T14:03:16Z</time></trkpt><trkpt lat="46.09815997179481" lon="9.791202203634004"><ele>1544.0</ele><time>2026-05-02T14:03:17Z</time></trkpt><trkpt lat="46.098258554649384" lon="9.791127535327144"><ele>1544.0</ele><time>2026-05-02T14:03:18Z</time></trkpt><trkpt lat="46.0983269684345" lon="9.791059147201185"><ele>1544.0</ele><time>2026-05-02T14:03:19Z</time></trkpt><trkpt lat="46.09842094442955" lon="9.790966790142976"><ele>1544.0</ele><time>2026-05-02T14:03:20Z</time></trkpt><trkpt lat="46.098510262578955" lon="9.790872759137796"><ele>1538.8000000000002</ele><time>2026-05-02T14:03:21Z</time></trkpt><trkpt lat="46.098591103441905" lon="9.79083451090224"><ele>1533.6000000000001</ele><time>2026-05-02T14:03:22Z</time></trkpt><trkpt lat="46.09869149805323" lon="9.790843720596667"><ele>1528.4</ele><time>2026-05-02T14:03:23Z</time></trkpt><trkpt lat="46.098789624086294" lon="9.790885180346944"><ele>1523.2</ele><time>2026-05-02T14:03:24Z</time></trkpt><trkpt lat="46.098885707719134" lon="9.790938631758532"><ele>1518.0</ele><time>2026-05-02T14:03:25Z</time></trkpt><trkpt lat="46.09898940655989" lon="9.790966763798608"><ele>1518.0</ele><time>2026-05-02T14:03:26Z</time></trkpt><trkpt lat="46.099083152042056" lon="9.790945195012883"><ele>1518.0</ele><time>2026-05-02T14:03:27Z</time></trkpt><trkpt lat="46.09920182885881" lon="9.790903419496958"><ele>1518.0</ele><time>2026-05-02T14:03:28Z</time></trkpt><trkpt lat="46.09932953123409" lon="9.790868697506985"><ele>1518.0</ele><time>2026-05-02T14:03:29Z</time></trkpt><trkpt lat="46.099450644151695" lon="9.790823867886209"><ele>1518.6666666666667</ele><time>2026-05-02T14:03:30Z</time></trkpt><trkpt lat="46.099537673092996" lon="9.790763621152788"><ele>1519.3333333333333</ele><time>2026-05-02T14:03:31Z</time></trkpt><trkpt lat="46.09961817055546" lon="9.790735787354311"><ele>1520.0</ele><time>2026-05-02T14:03:32Z</time></trkpt><trkpt lat="46.0996891911412" lon="9.790700802864931"><ele>1520.6666666666665</ele><time>2026-05-02T14:03:33Z</time></trkpt><trkpt lat="46.09975872177763" lon="9.790668969297437"><ele>1521.3333333333333</ele><time>2026-05-02T14:03:34Z</time></trkpt><trkpt lat="46.0998465719315" lon="9.790625199620315"><ele>1522.0</ele><time>2026-05-02T14:03:35Z</time></trkpt><trkpt lat="46.09994560464278" lon="9.790603993211418"><ele>1524.0</ele><time>2026-05-02T14:03:36Z</time></trkpt><trkpt lat="46.10005409752939" lon="9.790583052950412"><ele>1526.0</ele><time>2026-05-02T14:03:37Z</time></trkpt><trkpt lat="46.10017423920689" lon="9.790555146472954"><ele>1528.0</ele><time>2026-05-02T14:03:38Z</time></trkpt><trkpt lat="46.10029585252195" lon="9.790535917360426"><ele>1530.0</ele><time>2026-05-02T14:03:39Z</time></trkpt><trkpt lat="46.10040481029705" lon="9.790544947896429"><ele>1530.0</ele><time>2026-05-02T14:03:40Z</time></trkpt><trkpt lat="46.10052915059715" lon="9.790551551778368"><ele>1530.0</ele><time>2026-05-02T14:03:40.999Z</time></trkpt><trkpt lat="46.100665652192646" lon="9.790555406987272"><ele>1530.0</ele><time>2026-05-02T14:03:41.999Z</time></trkpt><trkpt lat="46.10080048703285" lon="9.790564578400092"><ele>1530.0</ele><time>2026-05-02T14:03:42.999Z</time></trkpt><trkpt lat="46.100919734213626" lon="9.790557328196368"><ele>1529.4</ele><time>2026-05-02T14:03:43.999Z</time></trkpt><trkpt lat="46.10105385523836" lon="9.790559711837233"><ele>1528.8</ele><time>2026-05-02T14:03:44.999Z</time></trkpt><trkpt lat="46.101163206129364" lon="9.790541464625782"><ele>1528.1999999999998</ele><time>2026-05-02T14:03:45.999Z</time></trkpt><trkpt lat="46.10126419093192" lon="9.79047862109754"><ele>1527.6</ele><time>2026-05-02T14:03:46.999Z</time></trkpt><trkpt lat="46.10133036975731" lon="9.79039783764029"><ele>1527.0</ele><time>2026-05-02T14:03:47.999Z</time></trkpt><trkpt lat="46.10143127865141" lon="9.790330497766048"><ele>1527.0</ele><time>2026-05-02T14:03:48.999Z</time></trkpt><trkpt lat="46.10153269029043" lon="9.790316264864101"><ele>1527.0</ele><time>2026-05-02T14:03:49.999Z</time></trkpt><trkpt lat="46.101653404835915" lon="9.79035179711275"><ele>1527.0</ele><time>2026-05-02T14:03:50.999Z</time></trkpt><trkpt lat="46.1017759072851" lon="9.790384093755684"><ele>1527.0</ele><time>2026-05-02T14:03:51.999Z</time></trkpt><trkpt lat="46.101877404624915" lon="9.79040771280746"><ele>1524.1999999999998</ele><time>2026-05-02T14:03:52.999Z</time></trkpt><trkpt lat="46.10196861273795" lon="9.790476220043915"><ele>1521.4</ele><time>2026-05-02T14:03:53.999Z</time></trkpt><trkpt lat="46.102058353604484" lon="9.790575536639539"><ele>1518.6</ele><time>2026-05-02T14:03:54.999Z</time></trkpt><trkpt lat="46.102142818855015" lon="9.79068182948728"><ele>1515.8000000000002</ele><time>2026-05-02T14:03:55.999Z</time></trkpt><trkpt lat="46.10223360604629" lon="9.790780508183124"><ele>1513.0</ele><time>2026-05-02T14:03:56.999Z</time></trkpt><trkpt lat="46.10235229849613" lon="9.790817850283096"><ele>1512.3333333333333</ele><time>2026-05-02T14:03:57.999Z</time></trkpt><trkpt lat="46.102458081137165" lon="9.790857990179093"><ele>1511.6666666666665</ele><time>2026-05-02T14:03:58.999Z</time></trkpt><trkpt lat="46.102549762044106" lon="9.790905109181397"><ele>1511.0</ele><time>2026-05-02T14:03:59.999Z</time></trkpt><trkpt lat="46.10262052095485" lon="9.790955967515432"><ele>1510.3333333333333</ele><time>2026-05-02T14:04:00.999Z</time></trkpt><trkpt lat="46.10267817526921" lon="9.790998637522403"><ele>1509.6666666666667</ele><time>2026-05-02T14:04:01.999Z</time></trkpt><trkpt lat="46.10276338996556" lon="9.791001614849971"><ele>1509.0</ele><time>2026-05-02T14:04:02.999Z</time></trkpt><trkpt lat="46.10284241924668" lon="9.790947389278688"><ele>1509.0</ele><time>2026-05-02T14:04:03.999Z</time></trkpt><trkpt lat="46.102943389823054" lon="9.790874455884738"><ele>1509.0</ele><time>2026-05-02T14:04:04.999Z</time></trkpt><trkpt lat="46.10304407336048" lon="9.79076527595266"><ele>1509.0</ele><time>2026-05-02T14:04:05.999Z</time></trkpt><trkpt lat="46.10311691969073" lon="9.790605712402373"><ele>1509.0</ele><time>2026-05-02T14:04:06.999Z</time></trkpt><trkpt lat="46.103193854505236" lon="9.790453939109852"><ele>1506.25</ele><time>2026-05-02T14:04:07.999Z</time></trkpt><trkpt lat="46.10327877310693" lon="9.79030900674723"><ele>1503.5</ele><time>2026-05-02T14:04:08.999Z</time></trkpt><trkpt lat="46.103364310900254" lon="9.790149996017114"><ele>1500.75</ele><time>2026-05-02T14:04:09.999Z</time></trkpt><trkpt lat="46.10347788006331" lon="9.790037190431304"><ele>1498.0</ele><time>2026-05-02T14:04:10.999Z</time></trkpt><trkpt lat="46.10356743519361" lon="9.78991378460857"><ele>1498.0</ele><time>2026-05-02T14:04:11.999Z</time></trkpt><trkpt lat="46.10363794915807" lon="9.789787255426173"><ele>1498.0</ele><time>2026-05-02T14:04:12.999Z</time></trkpt><trkpt lat="46.103723703099284" lon="9.789680263232032"><ele>1498.0</ele><time>2026-05-02T14:04:13.999Z</time></trkpt><trkpt lat="46.10382628941246" lon="9.789592904009641"><ele>1498.0</ele><time>2026-05-02T14:04:14.999Z</time></trkpt><trkpt lat="46.10394699141202" lon="9.789517986285922"><ele>1498.0</ele><time>2026-05-02T14:04:15.999Z</time></trkpt><trkpt lat="46.1040761351744" lon="9.789487067480444"><ele>1498.0</ele><time>2026-05-02T14:04:16.999Z</time></trkpt><trkpt lat="46.10419962447627" lon="9.789461197249901"><ele>1498.0</ele><time>2026-05-02T14:04:17.999Z</time></trkpt><trkpt lat="46.10430537753089" lon="9.789388265821765"><ele>1498.0</ele><time>2026-05-02T14:04:18.999Z</time></trkpt><trkpt lat="46.10440562736149" lon="9.78934653452776"><ele>1496.4</ele><time>2026-05-02T14:04:19.999Z</time></trkpt><trkpt lat="46.10450227556873" lon="9.789309189249416"><ele>1494.8000000000002</ele><time>2026-05-02T14:04:20.999Z</time></trkpt><trkpt lat="46.10460893963081" lon="9.789250409363532"><ele>1493.2</ele><time>2026-05-02T14:04:21.999Z</time></trkpt><trkpt lat="46.104716823054616" lon="9.789185882920039"><ele>1491.6</ele><time>2026-05-02T14:04:22.999Z</time></trkpt><trkpt lat="46.10481541988811" lon="9.789105918307031"><ele>1490.0</ele><time>2026-05-02T14:04:23.999Z</time></trkpt><trkpt lat="46.10491800591366" lon="9.789064595815"><ele>1495.6</ele><time>2026-05-02T14:04:24.999Z</time></trkpt><trkpt lat="46.105012282767646" lon="9.788983027911206"><ele>1501.2</ele><time>2026-05-02T14:04:25.999Z</time></trkpt><trkpt lat="46.105086056915646" lon="9.788913035371719"><ele>1506.8000000000002</ele><time>2026-05-02T14:04:26.999Z</time></trkpt><trkpt lat="46.105175411553404" lon="9.788828688938235"><ele>1512.4</ele><time>2026-05-02T14:04:28Z</time></trkpt><trkpt lat="46.105261166557504" lon="9.788761690650276"><ele>1518.0</ele><time>2026-05-02T14:04:29Z</time></trkpt><trkpt lat="46.10532733644704" lon="9.788715303330045"><ele>1518.0</ele><time>2026-05-02T14:04:30Z</time></trkpt><trkpt lat="46.1054724489651" lon="9.788679963773227"><ele>1518.0</ele><time>2026-05-02T14:04:31.999Z</time></trkpt><trkpt lat="46.105568975587005" lon="9.78869551604738"><ele>1518.0</ele><time>2026-05-02T14:04:32.999Z</time></trkpt><trkpt lat="46.105670848686415" lon="9.788719322063644"><ele>1518.0</ele><time>2026-05-02T14:04:34Z</time></trkpt><trkpt lat="46.10577208978075" lon="9.788756156890894"><ele>1520.2</ele><time>2026-05-02T14:04:35Z</time></trkpt><trkpt lat="46.10587486265992" lon="9.788819700204998"><ele>1522.4</ele><time>2026-05-02T14:04:36Z</time></trkpt><trkpt lat="46.10598229851125" lon="9.788882069033233"><ele>1524.6000000000001</ele><time>2026-05-02T14:04:37Z</time></trkpt><trkpt lat="46.10608912607205" lon="9.788947857007999"><ele>1526.8000000000002</ele><time>2026-05-02T14:04:38Z</time></trkpt><trkpt lat="46.1061788377324" lon="9.789009327030051"><ele>1529.0</ele><time>2026-05-02T14:04:39Z</time></trkpt><trkpt lat="46.10626493141133" lon="9.789084194058612"><ele>1529.0</ele><time>2026-05-02T14:04:39.999Z</time></trkpt><trkpt lat="46.106344501882205" lon="9.789153124601047"><ele>1529.0</ele><time>2026-05-02T14:04:41Z</time></trkpt><trkpt lat="46.106286417217824" lon="9.789281087287895"><ele>1529.0</ele><time>2026-05-02T14:04:44Z</time></trkpt><trkpt lat="46.10619180590034" lon="9.789280344457001"><ele>1529.0</ele><time>2026-05-02T14:04:45Z</time></trkpt><trkpt lat="46.106110542221195" lon="9.789302723530378"><ele>1529.0</ele><time>2026-05-02T14:04:46Z</time></trkpt><trkpt lat="46.106008250226566" lon="9.78935625248866"><ele>1533.6</ele><time>2026-05-02T14:04:47Z</time></trkpt><trkpt lat="46.105915109621826" lon="9.789387614658027"><ele>1538.2</ele><time>2026-05-02T14:04:48Z</time></trkpt><trkpt lat="46.10580716981349" lon="9.789448541811906"><ele>1542.8</ele><time>2026-05-02T14:04:49Z</time></trkpt><trkpt lat="46.10573470921393" lon="9.789493943304842"><ele>1547.3999999999999</ele><time>2026-05-02T14:04:50Z</time></trkpt><trkpt lat="46.10573535607252" lon="9.789606344935287"><ele>1552.0</ele><time>2026-05-02T14:04:52Z</time></trkpt><trkpt lat="46.105841536105224" lon="9.789646764762418"><ele>1554.75</ele><time>2026-05-02T14:04:54Z</time></trkpt><trkpt lat="46.10596167860309" lon="9.789669497356293"><ele>1557.5</ele><time>2026-05-02T14:04:55Z</time></trkpt><trkpt lat="46.10612547462646" lon="9.789734666491723"><ele>1560.25</ele><time>2026-05-02T14:04:56Z</time></trkpt><trkpt lat="46.10626788856887" lon="9.789781580368565"><ele>1563.0</ele><time>2026-05-02T14:04:57Z</time></trkpt><trkpt lat="46.106387728924965" lon="9.78979196346807"><ele>1563.0</ele><time>2026-05-02T14:04:58Z</time></trkpt><trkpt lat="46.10648425171668" lon="9.789805474070135"><ele>1563.0</ele><time>2026-05-02T14:04:59Z</time></trkpt><trkpt lat="46.10658962526736" lon="9.789769737458675"><ele>1563.0</ele><time>2026-05-02T14:05:00Z</time></trkpt><trkpt lat="46.1066914492436" lon="9.789708929749002"><ele>1563.0</ele><time>2026-05-02T14:05:01Z</time></trkpt><trkpt lat="46.106758647082955" lon="9.78967862119501"><ele>1563.0</ele><time>2026-05-02T14:05:02Z</time></trkpt><trkpt lat="46.10685341659623" lon="9.789668144401034"><ele>1563.5</ele><time>2026-05-02T14:05:04Z</time></trkpt><trkpt lat="46.10698873392653" lon="9.789721300423265"><ele>1564.0</ele><time>2026-05-02T14:05:05Z</time></trkpt><trkpt lat="46.10711613608116" lon="9.7897845089548"><ele>1564.5</ele><time>2026-05-02T14:05:06Z</time></trkpt><trkpt lat="46.10721331917916" lon="9.789829456978152"><ele>1565.0</ele><time>2026-05-02T14:05:07Z</time></trkpt><trkpt lat="46.10729504670919" lon="9.789884336794907"><ele>1565.0</ele><time>2026-05-02T14:05:08Z</time></trkpt><trkpt lat="46.107393197560505" lon="9.789973061155264"><ele>1565.0</ele><time>2026-05-02T14:05:09Z</time></trkpt><trkpt lat="46.10748784534017" lon="9.79009297532102"><ele>1565.0</ele><time>2026-05-02T14:05:10Z</time></trkpt><trkpt lat="46.10759317652023" lon="9.790213171406249"><ele>1565.0</ele><time>2026-05-02T14:05:11Z</time></trkpt><trkpt lat="46.10767119287017" lon="9.790284196173493"><ele>1569.6</ele><time>2026-05-02T14:05:12Z</time></trkpt><trkpt lat="46.107750535003596" lon="9.7903243794365"><ele>1574.2</ele><time>2026-05-02T14:05:13Z</time></trkpt><trkpt lat="46.10784954683109" lon="9.7903282186686"><ele>1578.8000000000002</ele><time>2026-05-02T14:05:14Z</time></trkpt><trkpt lat="46.10795182716413" lon="9.790318050122552"><ele>1583.4</ele><time>2026-05-02T14:05:15Z</time></trkpt><trkpt lat="46.108026861519015" lon="9.790279376729345"><ele>1588.0</ele><time>2026-05-02T14:05:16Z</time></trkpt><trkpt lat="46.10809658657606" lon="9.790201899751525"><ele>1588.4</ele><time>2026-05-02T14:05:17Z</time></trkpt><trkpt lat="46.10817551312311" lon="9.790145451896002"><ele>1588.8000000000002</ele><time>2026-05-02T14:05:18Z</time></trkpt><trkpt lat="46.10825453484746" lon="9.790108303018908"><ele>1589.2</ele><time>2026-05-02T14:05:19Z</time></trkpt><trkpt lat="46.10833628621154" lon="9.790144693428957"><ele>1589.6</ele><time>2026-05-02T14:05:20Z</time></trkpt><trkpt lat="46.10843296522407" lon="9.790216737772582"><ele>1590.0</ele><time>2026-05-02T14:05:21Z</time></trkpt><trkpt lat="46.10854765201327" lon="9.790251970230965"><ele>1590.0</ele><time>2026-05-02T14:05:22Z</time></trkpt><trkpt lat="46.10862803584054" lon="9.7903045731512"><ele>1590.0</ele><time>2026-05-02T14:05:23Z</time></trkpt><trkpt lat="46.10869640933679" lon="9.790405133321837"><ele>1590.0</ele><time>2026-05-02T14:05:24Z</time></trkpt><trkpt lat="46.108790478731066" lon="9.790545118134363"><ele>1590.0</ele><time>2026-05-02T14:05:25Z</time></trkpt><trkpt lat="46.10887812372206" lon="9.790686134414315"><ele>1590.0</ele><time>2026-05-02T14:05:26Z</time></trkpt><trkpt lat="46.10894802700148" lon="9.790808987461547"><ele>1590.0</ele><time>2026-05-02T14:05:27Z</time></trkpt><trkpt lat="46.109011810819815" lon="9.790906930513705"><ele>1590.0</ele><time>2026-05-02T14:05:28Z</time></trkpt><trkpt lat="46.10908188008836" lon="9.791008241347631"><ele>1590.0</ele><time>2026-05-02T14:05:29Z</time></trkpt><trkpt lat="46.109178010550565" lon="9.791075293622013"><ele>1590.0</ele><time>2026-05-02T14:05:30Z</time></trkpt><trkpt lat="46.10928423537844" lon="9.79109982562456"><ele>1596.5</ele><time>2026-05-02T14:05:31Z</time></trkpt><trkpt lat="46.10941064777727" lon="9.791121483395091"><ele>1603.0</ele><time>2026-05-02T14:05:32Z</time></trkpt><trkpt lat="46.10956708900409" lon="9.791117451290102"><ele>1609.5</ele><time>2026-05-02T14:05:33Z</time></trkpt><trkpt lat="46.10971220210048" lon="9.791136483877896"><ele>1616.0</ele><time>2026-05-02T14:05:34Z</time></trkpt><trkpt lat="46.10983499946542" lon="9.791181419616455"><ele>1614.75</ele><time>2026-05-02T14:05:35Z</time></trkpt><trkpt lat="46.10993343108592" lon="9.791265743687829"><ele>1613.5</ele><time>2026-05-02T14:05:36Z</time></trkpt><trkpt lat="46.11003900910454" lon="9.791359043413612"><ele>1612.25</ele><time>2026-05-02T14:05:37Z</time></trkpt><trkpt lat="46.110156505010934" lon="9.791417917593625"><ele>1611.0</ele><time>2026-05-02T14:05:38Z</time></trkpt><trkpt lat="46.11025928914372" lon="9.791404297672893"><ele>1611.0</ele><time>2026-05-02T14:05:39Z</time></trkpt><trkpt lat="46.11036833697597" lon="9.791348376399847"><ele>1611.0</ele><time>2026-05-02T14:05:40Z</time></trkpt><trkpt lat="46.11049813486201" lon="9.791305337290902"><ele>1611.0</ele><time>2026-05-02T14:05:41Z</time></trkpt><trkpt lat="46.110669678925944" lon="9.791302300055738"><ele>1611.0</ele><time>2026-05-02T14:05:42Z</time></trkpt><trkpt lat="46.110874197050094" lon="9.791328120059966"><ele>1612.3333333333335</ele><time>2026-05-02T14:05:43Z</time></trkpt><trkpt lat="46.11107270556701" lon="9.791327497592553"><ele>1613.6666666666667</ele><time>2026-05-02T14:05:44Z</time></trkpt><trkpt lat="46.111250567590005" lon="9.791328107872665"><ele>1615.0</ele><time>2026-05-02T14:05:45Z</time></trkpt><trkpt lat="46.11140645421506" lon="9.791301775220028"><ele>1615.0</ele><time>2026-05-02T14:05:46Z</time></trkpt><trkpt lat="46.111543851074224" lon="9.791287706554124"><ele>1615.0</ele><time>2026-05-02T14:05:47Z</time></trkpt><trkpt lat="46.11166553861805" lon="9.791267701564857"><ele>1615.0</ele><time>2026-05-02T14:05:48Z</time></trkpt><trkpt lat="46.11181190769689" lon="9.791223795902456"><ele>1615.0</ele><time>2026-05-02T14:05:49Z</time></trkpt><trkpt lat="46.111954995125735" lon="9.791194035312682"><ele>1614.75</ele><time>2026-05-02T14:05:50Z</time></trkpt><trkpt lat="46.11207581953319" lon="9.791189304375205"><ele>1614.5</ele><time>2026-05-02T14:05:51Z</time></trkpt><trkpt lat="46.11219982541779" lon="9.791207312519555"><ele>1614.25</ele><time>2026-05-02T14:05:52Z</time></trkpt><trkpt lat="46.11232968336871" lon="9.791261389607953"><ele>1614.0</ele><time>2026-05-02T14:05:53Z</time></trkpt><trkpt lat="46.112463233086046" lon="9.791316303330596"><ele>1614.0</ele><time>2026-05-02T14:05:54Z</time></trkpt><trkpt lat="46.112593328094185" lon="9.791350176055811"><ele>1614.0</ele><time>2026-05-02T14:05:55Z</time></trkpt><trkpt lat="46.11272454902812" lon="9.791316769521853"><ele>1614.0</ele><time>2026-05-02T14:05:56Z</time></trkpt><trkpt lat="46.11287602659292" lon="9.791313770174416"><ele>1614.0</ele><time>2026-05-02T14:05:57Z</time></trkpt><trkpt lat="46.11301747543587" lon="9.791241533073086"><ele>1614.0</ele><time>2026-05-02T14:05:58Z</time></trkpt><trkpt lat="46.113115780949094" lon="9.791164849947569"><ele>1614.0</ele><time>2026-05-02T14:05:59Z</time></trkpt><trkpt lat="46.113181206062556" lon="9.791050717997937"><ele>1614.0</ele><time>2026-05-02T14:06:00Z</time></trkpt><trkpt lat="46.113266319194175" lon="9.790914338660398"><ele>1614.0</ele><time>2026-05-02T14:06:01Z</time></trkpt><trkpt lat="46.11335960206737" lon="9.790780508413757"><ele>1609.8333333333333</ele><time>2026-05-02T14:06:02Z</time></trkpt><trkpt lat="46.113429343581714" lon="9.790656456407506"><ele>1605.6666666666665</ele><time>2026-05-02T14:06:03Z</time></trkpt><trkpt lat="46.11346846609853" lon="9.790558258737011"><ele>1601.5</ele><time>2026-05-02T14:06:04Z</time></trkpt><trkpt lat="46.11351664811687" lon="9.790487582456688"><ele>1597.3333333333333</ele><time>2026-05-02T14:06:05Z</time></trkpt><trkpt lat="46.11359928551433" lon="9.790477597553986"><ele>1593.1666666666665</ele><time>2026-05-02T14:06:06Z</time></trkpt><trkpt lat="46.11366568768605" lon="9.790485652151482"><ele>1589.0</ele><time>2026-05-02T14:06:06.999Z</time></trkpt><trkpt lat="46.1137707726182" lon="9.790597066402018"><ele>1589.0</ele><time>2026-05-02T14:06:07.999Z</time></trkpt><trkpt lat="46.11386764719954" lon="9.790611399627661"><ele>1589.0</ele><time>2026-05-02T14:06:08.999Z</time></trkpt><trkpt lat="46.11396678737578" lon="9.790552771582911"><ele>1589.0</ele><time>2026-05-02T14:06:09.999Z</time></trkpt><trkpt lat="46.11411133387467" lon="9.790494027132928"><ele>1589.0</ele><time>2026-05-02T14:06:10.999Z</time></trkpt><trkpt lat="46.11421875533589" lon="9.790441052008985"><ele>1596.25</ele><time>2026-05-02T14:06:11.999Z</time></trkpt><trkpt lat="46.11434355564031" lon="9.790366821035683"><ele>1603.5</ele><time>2026-05-02T14:06:12.999Z</time></trkpt><trkpt lat="46.11448789577186" lon="9.790321433510607"><ele>1610.75</ele><time>2026-05-02T14:06:13.999Z</time></trkpt><trkpt lat="46.11465278934206" lon="9.790329401066197"><ele>1618.0</ele><time>2026-05-02T14:06:14.999Z</time></trkpt><trkpt lat="46.1148286608353" lon="9.790365387848352"><ele>1617.0</ele><time>2026-05-02T14:06:15.999Z</time></trkpt><trkpt lat="46.11496683601075" lon="9.79038427416947"><ele>1616.0</ele><time>2026-05-02T14:06:16.999Z</time></trkpt><trkpt lat="46.11511448035912" lon="9.790438849467284"><ele>1615.0</ele><time>2026-05-02T14:06:17.999Z</time></trkpt><trkpt lat="46.11527494949666" lon="9.790489511374938"><ele>1615.0</ele><time>2026-05-02T14:06:18.999Z</time></trkpt><trkpt lat="46.11539719386865" lon="9.790522434091914"><ele>1615.0</ele><time>2026-05-02T14:06:19.999Z</time></trkpt><trkpt lat="46.11549572325018" lon="9.790541202696302"><ele>1615.0</ele><time>2026-05-02T14:06:20.999Z</time></trkpt><trkpt lat="46.11560533470908" lon="9.79068754152912"><ele>1615.0</ele><time>2026-05-02T14:06:22.999Z</time></trkpt><trkpt lat="46.11565352313273" lon="9.790794821100235"><ele>1611.4</ele><time>2026-05-02T14:06:23.999Z</time></trkpt><trkpt lat="46.11573723936626" lon="9.790813250222984"><ele>1607.8</ele><time>2026-05-02T14:06:24.999Z</time></trkpt><trkpt lat="46.11582334788033" lon="9.790768614425552"><ele>1604.1999999999998</ele><time>2026-05-02T14:06:25.999Z</time></trkpt><trkpt lat="46.11593008309919" lon="9.790741385871954"><ele>1600.6</ele><time>2026-05-02T14:06:26.999Z</time></trkpt><trkpt lat="46.1160529933507" lon="9.790726685145868"><ele>1597.0</ele><time>2026-05-02T14:06:27.999Z</time></trkpt><trkpt lat="46.11618620294608" lon="9.790762147267781"><ele>1597.0</ele><time>2026-05-02T14:06:28.999Z</time></trkpt><trkpt lat="46.1163328480776" lon="9.790837417983578"><ele>1597.0</ele><time>2026-05-02T14:06:29.999Z</time></trkpt><trkpt lat="46.116471134069485" lon="9.790894125793073"><ele>1597.0</ele><time>2026-05-02T14:06:30.999Z</time></trkpt><trkpt lat="46.116593014472784" lon="9.790929482670855"><ele>1597.0</ele><time>2026-05-02T14:06:31.999Z</time></trkpt><trkpt lat="46.11668857351742" lon="9.790993810677694"><ele>1603.25</ele><time>2026-05-02T14:06:32.999Z</time></trkpt><trkpt lat="46.116787451994576" lon="9.79103901601057"><ele>1609.5</ele><time>2026-05-02T14:06:34Z</time></trkpt><trkpt lat="46.116885683328256" lon="9.791108234821158"><ele>1615.75</ele><time>2026-05-02T14:06:35Z</time></trkpt><trkpt lat="46.11700204753421" lon="9.791143826418844"><ele>1622.0</ele><time>2026-05-02T14:06:36Z</time></trkpt><trkpt lat="46.11713122330796" lon="9.791156297499489"><ele>1622.0</ele><time>2026-05-02T14:06:37Z</time></trkpt><trkpt lat="46.117231800172355" lon="9.79120415315488"><ele>1622.0</ele><time>2026-05-02T14:06:38Z</time></trkpt><trkpt lat="46.11730179345975" lon="9.791296661858487"><ele>1622.0</ele><time>2026-05-02T14:06:39Z</time></trkpt><trkpt lat="46.117392385155306" lon="9.791429991444256"><ele>1622.0</ele><time>2026-05-02T14:06:40Z</time></trkpt><trkpt lat="46.11749193016107" lon="9.791518341270177"><ele>1622.0</ele><time>2026-05-02T14:06:41Z</time></trkpt><trkpt lat="46.11758792943558" lon="9.791551351195299"><ele>1618.3999999999999</ele><time>2026-05-02T14:06:42Z</time></trkpt><trkpt lat="46.117689050981994" lon="9.791542675849245"><ele>1614.8</ele><time>2026-05-02T14:06:43Z</time></trkpt><trkpt lat="46.1177792150034" lon="9.79149522015958"><ele>1611.2</ele><time>2026-05-02T14:06:43.999Z</time></trkpt><trkpt lat="46.117871236780076" lon="9.791458101609683"><ele>1607.6</ele><time>2026-05-02T14:06:44.999Z</time></trkpt><trkpt lat="46.1179710663695" lon="9.791476990269443"><ele>1604.0</ele><time>2026-05-02T14:06:46Z</time></trkpt><trkpt lat="46.11807419098224" lon="9.79151843022127"><ele>1604.0</ele><time>2026-05-02T14:06:47Z</time></trkpt><trkpt lat="46.11817440354126" lon="9.791551373774098"><ele>1604.0</ele><time>2026-05-02T14:06:48Z</time></trkpt><trkpt lat="46.11824647369999" lon="9.79156525593181"><ele>1604.0</ele><time>2026-05-02T14:06:49Z</time></trkpt><trkpt lat="46.11832138086621" lon="9.791552369235655"><ele>1604.0</ele><time>2026-05-02T14:06:50Z</time></trkpt><trkpt lat="46.11838986508266" lon="9.791432221352249"><ele>1604.0</ele><time>2026-05-02T14:06:51Z</time></trkpt><trkpt lat="46.118450171119854" lon="9.791290783868007"><ele>1601.9999999999998</ele><time>2026-05-02T14:06:52Z</time></trkpt><trkpt lat="46.11847790360173" lon="9.791169938387998"><ele>1600.0</ele><time>2026-05-02T14:06:53Z</time></trkpt><trkpt lat="46.11851388572296" lon="9.79103724105775"><ele>1598.0</ele><time>2026-05-02T14:06:54Z</time></trkpt><trkpt lat="46.118548829168034" lon="9.790912656456142"><ele>1596.0</ele><time>2026-05-02T14:06:55Z</time></trkpt><trkpt lat="46.118573437176394" lon="9.790807134764062"><ele>1593.9999999999998</ele><time>2026-05-02T14:06:56Z</time></trkpt><trkpt lat="46.118632531016026" lon="9.790715859249925"><ele>1592.0</ele><time>2026-05-02T14:06:57Z</time></trkpt><trkpt lat="46.11872231867323" lon="9.79062797040002"><ele>1592.0</ele><time>2026-05-02T14:06:58Z</time></trkpt><trkpt lat="46.118819182651556" lon="9.790544475064896"><ele>1592.0</ele><time>2026-05-02T14:06:59Z</time></trkpt><trkpt lat="46.118916951994294" lon="9.790471587801454"><ele>1592.0</ele><time>2026-05-02T14:07:00Z</time></trkpt><trkpt lat="46.11900055693254" lon="9.790403649187635"><ele>1592.0</ele><time>2026-05-02T14:07:01Z</time></trkpt><trkpt lat="46.11907104417011" lon="9.790308542607228"><ele>1592.0</ele><time>2026-05-02T14:07:02Z</time></trkpt><trkpt lat="46.119144684752925" lon="9.790235151372162"><ele>1594.6666666666665</ele><time>2026-05-02T14:07:03Z</time></trkpt><trkpt lat="46.119208780003746" lon="9.790183491180207"><ele>1597.3333333333333</ele><time>2026-05-02T14:07:04Z</time></trkpt><trkpt lat="46.11927927187921" lon="9.79014209858824"><ele>1600.0</ele><time>2026-05-02T14:07:06Z</time></trkpt><trkpt lat="46.11924458198032" lon="9.790226811849642"><ele>1602.6666666666665</ele><time>2026-05-02T14:07:10Z</time></trkpt><trkpt lat="46.11932867295478" lon="9.790272024296346"><ele>1605.3333333333333</ele><time>2026-05-02T14:07:16Z</time></trkpt><trkpt lat="46.11939894241371" lon="9.790334847491618"><ele>1608.0</ele><time>2026-05-02T14:07:19Z</time></trkpt><trkpt lat="46.119439820087436" lon="9.790484614072547"><ele>1612.5</ele><time>2026-05-02T14:07:21Z</time></trkpt><trkpt lat="46.11947296728677" lon="9.790606010496852"><ele>1617.0</ele><time>2026-05-02T14:07:23Z</time></trkpt><trkpt lat="46.119506871822956" lon="9.790705907726046"><ele>1621.5</ele><time>2026-05-02T14:07:25Z</time></trkpt><trkpt lat="46.11946346726929" lon="9.790805195572096"><ele>1626.0</ele><time>2026-05-02T14:07:29Z</time></trkpt><trkpt lat="46.11939540960882" lon="9.790831531705276"><ele>1630.5</ele><time>2026-05-02T14:07:31Z</time></trkpt><trkpt lat="46.11932565319584" lon="9.790835630012841"><ele>1635.0</ele><time>2026-05-02T14:07:34Z</time></trkpt><trkpt lat="46.11933991418748" lon="9.790925865630914"><ele>1638.1428571428573</ele><time>2026-05-02T14:07:36Z</time></trkpt><trkpt lat="46.11932876485191" lon="9.791021536315407"><ele>1641.2857142857142</ele><time>2026-05-02T14:07:37.999Z</time></trkpt><trkpt lat="46.119334786499635" lon="9.79113196851527"><ele>1644.4285714285716</ele><time>2026-05-02T14:07:39.999Z</time></trkpt><trkpt lat="46.119362067297935" lon="9.791220905996445"><ele>1647.5714285714287</ele><time>2026-05-02T14:07:41.999Z</time></trkpt><trkpt lat="46.11934514839608" lon="9.791320588653043"><ele>1650.7142857142858</ele><time>2026-05-02T14:07:45.999Z</time></trkpt><trkpt lat="46.119394926589344" lon="9.79141607912981"><ele>1653.857142857143</ele><time>2026-05-02T14:07:47.999Z</time></trkpt><trkpt lat="46.11940793998318" lon="9.791516573922237"><ele>1657.0</ele><time>2026-05-02T14:07:50.999Z</time></trkpt><trkpt lat="46.11941303649146" lon="9.791630311915997"><ele>1657.0000000000002</ele><time>2026-05-02T14:07:53.999Z</time></trkpt><trkpt lat="46.11946033282361" lon="9.791704549455158"><ele>1657.0</ele><time>2026-05-02T14:07:56.999Z</time></trkpt><trkpt lat="46.11943340951798" lon="9.791806229938045"><ele>1657.0</ele><time>2026-05-02T14:07:59.999Z</time></trkpt><trkpt lat="46.119396999587615" lon="9.791912596197305"><ele>1657.0</ele><time>2026-05-02T14:08:02.999Z</time></trkpt><trkpt lat="46.11938705065044" lon="9.79204064043782"><ele>1657.0000000000002</ele><time>2026-05-02T14:08:06.999Z</time></trkpt><trkpt lat="46.119372482746705" lon="9.792145899187217"><ele>1657.0</ele><time>2026-05-02T14:08:08.999Z</time></trkpt><trkpt lat="46.11939256367472" lon="9.79223760454418"><ele>1660.142857142857</ele><time>2026-05-02T14:08:11.999Z</time></trkpt><trkpt lat="46.11943454622524" lon="9.792305807327091"><ele>1663.2857142857144</ele><time>2026-05-02T14:08:16.999Z</time></trkpt><trkpt lat="46.119465614008064" lon="9.792392120099207"><ele>1666.4285714285716</ele><time>2026-05-02T14:08:19.999Z</time></trkpt><trkpt lat="46.11944575992696" lon="9.79248345898557"><ele>1669.5714285714284</ele><time>2026-05-02T14:08:22.999Z</time></trkpt><trkpt lat="46.11943114222486" lon="9.792573493348787"><ele>1672.7142857142858</ele><time>2026-05-02T14:08:24.999Z</time></trkpt><trkpt lat="46.119431094662396" lon="9.792675471108574"><ele>1675.857142857143</ele><time>2026-05-02T14:08:27.999Z</time></trkpt><trkpt lat="46.119436736153375" lon="9.792799127167457"><ele>1679.0</ele><time>2026-05-02T14:08:30.999Z</time></trkpt><trkpt lat="46.11947037845287" lon="9.792910435174276"><ele>1682.9999999999998</ele><time>2026-05-02T14:08:33.999Z</time></trkpt><trkpt lat="46.119442403051615" lon="9.793031579113686"><ele>1687.0</ele><time>2026-05-02T14:08:36.999Z</time></trkpt><trkpt lat="46.11945478717452" lon="9.793131936250784"><ele>1691.0</ele><time>2026-05-02T14:08:38.999Z</time></trkpt><trkpt lat="46.11946465156783" lon="9.793259581754791"><ele>1695.0</ele><time>2026-05-02T14:08:43Z</time></trkpt><trkpt lat="46.119468857218294" lon="9.793362038070486"><ele>1698.9999999999998</ele><time>2026-05-02T14:08:45Z</time></trkpt><trkpt lat="46.119506564765004" lon="9.793489470579008"><ele>1703.0</ele><time>2026-05-02T14:08:47.001Z</time></trkpt><trkpt lat="46.11952625084167" lon="9.793630972425255"><ele>1707.4</ele><time>2026-05-02T14:08:49Z</time></trkpt><trkpt lat="46.119527811077454" lon="9.79379856209703"><ele>1711.8000000000002</ele><time>2026-05-02T14:08:51Z</time></trkpt><trkpt lat="46.119523592117645" lon="9.793952594598732"><ele>1716.2</ele><time>2026-05-02T14:08:52.999Z</time></trkpt><trkpt lat="46.119512291601836" lon="9.794088749027654"><ele>1720.6</ele><time>2026-05-02T14:08:54.999Z</time></trkpt><trkpt lat="46.11952161878364" lon="9.794181878441618"><ele>1725.0</ele><time>2026-05-02T14:08:58.999Z</time></trkpt><trkpt lat="46.11950478157691" lon="9.794284360512755"><ele>1730.5</ele><time>2026-05-02T14:09:01.999Z</time></trkpt><trkpt lat="46.1194684600076" lon="9.794388907686734"><ele>1736.0</ele><time>2026-05-02T14:09:09.999Z</time></trkpt><trkpt lat="46.11945640156331" lon="9.79450625347956"><ele>1741.5</ele><time>2026-05-02T14:09:12.999Z</time></trkpt><trkpt lat="46.1195037784847" lon="9.794600204336135"><ele>1747.0</ele><time>2026-05-02T14:09:15.999Z</time></trkpt><trkpt lat="46.11954782951287" lon="9.79468176185166"><ele>1752.5</ele><time>2026-05-02T14:09:17.999Z</time></trkpt><trkpt lat="46.11962375659579" lon="9.794670915454944"><ele>1758.0</ele><time>2026-05-02T14:09:20.999Z</time></trkpt><trkpt lat="46.119715742990564" lon="9.794723245319146"><ele>1758.0</ele><time>2026-05-02T14:09:23.999Z</time></trkpt><trkpt lat="46.11978150597502" lon="9.794739446956708"><ele>1758.0</ele><time>2026-05-02T14:09:25.999Z</time></trkpt><trkpt lat="46.119859253793756" lon="9.794773915199858"><ele>1758.0</ele><time>2026-05-02T14:09:27.999Z</time></trkpt><trkpt lat="46.11994852481036" lon="9.794851663602781"><ele>1758.0</ele><time>2026-05-02T14:09:29.999Z</time></trkpt><trkpt lat="46.119995940184786" lon="9.794916882177159"><ele>1758.0</ele><time>2026-05-02T14:09:30.999Z</time></trkpt><trkpt lat="46.120036112961344" lon="9.795002167672674"><ele>1758.0</ele><time>2026-05-02T14:09:31.999Z</time></trkpt><trkpt lat="46.12010854955067" lon="9.795111458158637"><ele>1762.6666666666667</ele><time>2026-05-02T14:09:33.999Z</time></trkpt><trkpt lat="46.120156387305784" lon="9.795185664921611"><ele>1767.3333333333335</ele><time>2026-05-02T14:09:34.999Z</time></trkpt><trkpt lat="46.120200880142335" lon="9.795268066039073"><ele>1772.0</ele><time>2026-05-02T14:09:35.999Z</time></trkpt><trkpt lat="46.1202331663324" lon="9.795375004939471"><ele>1776.6666666666667</ele><time>2026-05-02T14:09:36.999Z</time></trkpt><trkpt lat="46.12025759670151" lon="9.795461287650241"><ele>1781.3333333333335</ele><time>2026-05-02T14:09:37.999Z</time></trkpt><trkpt lat="46.12028588319584" lon="9.795616751384"><ele>1786.0</ele><time>2026-05-02T14:09:39.999Z</time></trkpt><trkpt lat="46.12030365896263" lon="9.795753693875307"><ele>1786.0000000000002</ele><time>2026-05-02T14:09:41.999Z</time></trkpt><trkpt lat="46.120307696703975" lon="9.795882539292442"><ele>1786.0</ele><time>2026-05-02T14:09:43.999Z</time></trkpt><trkpt lat="46.12029926535566" lon="9.79600461682904"><ele>1786.0</ele><time>2026-05-02T14:09:45.999Z</time></trkpt><trkpt lat="46.12031806795847" lon="9.796114909016458"><ele>1786.0</ele><time>2026-05-02T14:09:47.999Z</time></trkpt><trkpt lat="46.12027628085935" lon="9.796236493029298"><ele>1786.0000000000002</ele><time>2026-05-02T14:09:49.999Z</time></trkpt><trkpt lat="46.12023416522087" lon="9.796312814595435"><ele>1786.0</ele><time>2026-05-02T14:09:51.999Z</time></trkpt><trkpt lat="46.12016669996889" lon="9.796326246356166"><ele>1790.7142857142858</ele><time>2026-05-02T14:09:53.999Z</time></trkpt><trkpt lat="46.12009437486446" lon="9.796333384388646"><ele>1795.4285714285716</ele><time>2026-05-02T14:09:56.999Z</time></trkpt><trkpt lat="46.120015076487825" lon="9.796374224103989"><ele>1800.1428571428569</ele><time>2026-05-02T14:09:58.999Z</time></trkpt><trkpt lat="46.119949500801056" lon="9.796397145625427"><ele>1804.8571428571427</ele><time>2026-05-02T14:10:00.999Z</time></trkpt><trkpt lat="46.11989113644792" lon="9.796450339389846"><ele>1809.5714285714284</ele><time>2026-05-02T14:10:02.999Z</time></trkpt><trkpt lat="46.119849475888614" lon="9.796518444907628"><ele>1814.285714285714</ele><time>2026-05-02T14:10:05.999Z</time></trkpt><trkpt lat="46.119923335894406" lon="9.796540154781564"><ele>1818.9999999999998</ele><time>2026-05-02T14:10:16.999Z</time></trkpt><trkpt lat="46.119987936553464" lon="9.796552869184413"><ele>1819.0000000000002</ele><time>2026-05-02T14:10:19.998Z</time></trkpt><trkpt lat="46.1200757405841" lon="9.796562063022524"><ele>1819.0</ele><time>2026-05-02T14:10:21.998Z</time></trkpt><trkpt lat="46.120128407293365" lon="9.796616181017722"><ele>1819.0</ele><time>2026-05-02T14:10:23.998Z</time></trkpt><trkpt lat="46.12022752996691" lon="9.796645435412897"><ele>1819.0</ele><time>2026-05-02T14:10:26.998Z</time></trkpt><trkpt lat="46.120285912011994" lon="9.796720608976704"><ele>1819.0000000000002</ele><time>2026-05-02T14:10:29.998Z</time></trkpt><trkpt lat="46.12034864212488" lon="9.796795416970122"><ele>1819.0</ele><time>2026-05-02T14:10:32.998Z</time></trkpt><trkpt lat="46.12040632221488" lon="9.7968916279931"><ele>1825.1666666666667</ele><time>2026-05-02T14:10:34.998Z</time></trkpt><trkpt lat="46.120482531199826" lon="9.796972011904955"><ele>1831.3333333333335</ele><time>2026-05-02T14:10:36.998Z</time></trkpt><trkpt lat="46.12052923077389" lon="9.797033089193839"><ele>1837.5</ele><time>2026-05-02T14:10:37.998Z</time></trkpt><trkpt lat="46.12058737384781" lon="9.797098929307648"><ele>1843.6666666666665</ele><time>2026-05-02T14:10:39.998Z</time></trkpt><trkpt lat="46.12066691232623" lon="9.797125375019437"><ele>1849.8333333333333</ele><time>2026-05-02T14:10:41.998Z</time></trkpt><trkpt lat="46.120736911504174" lon="9.79712756042085"><ele>1856.0</ele><time>2026-05-02T14:10:43.998Z</time></trkpt><trkpt lat="46.12082123317819" lon="9.797134133855742"><ele>1855.9999999999998</ele><time>2026-05-02T14:10:46Z</time></trkpt><trkpt lat="46.120906291534205" lon="9.797143492869342"><ele>1856.0</ele><time>2026-05-02T14:10:48Z</time></trkpt><trkpt lat="46.12099599494491" lon="9.797136424548418"><ele>1856.0</ele><time>2026-05-02T14:10:49.999Z</time></trkpt><trkpt lat="46.12108280677946" lon="9.797128800043101"><ele>1856.0</ele><time>2026-05-02T14:10:51.999Z</time></trkpt><trkpt lat="46.12115798083009" lon="9.797120129453756"><ele>1855.9999999999998</ele><time>2026-05-02T14:10:53.999Z</time></trkpt><trkpt lat="46.121233311705915" lon="9.79717372095424"><ele>1856.0</ele><time>2026-05-02T14:10:56.999Z</time></trkpt><trkpt lat="46.12131232092647" lon="9.797228379861558"><ele>1855.9999999999998</ele><time>2026-05-02T14:11:00.999Z</time></trkpt><trkpt lat="46.121386574892405" lon="9.797255818800684"><ele>1856.0</ele><time>2026-05-02T14:11:04.999Z</time></trkpt><trkpt lat="46.1214292990554" lon="9.79732467105819"><ele>1856.0</ele><time>2026-05-02T14:11:07.999Z</time></trkpt><trkpt lat="46.121403234064395" lon="9.79744169322575"><ele>1856.0</ele><time>2026-05-02T14:11:09.999Z</time></trkpt><trkpt lat="46.12148323349946" lon="9.797493006985002"><ele>1855.9999999999998</ele><time>2026-05-02T14:11:12.999Z</time></trkpt><trkpt lat="46.121554739110564" lon="9.797487570008943"><ele>1856.0</ele><time>2026-05-02T14:11:22.999Z</time></trkpt><trkpt lat="46.12148472875478" lon="9.797562446838485"><ele>1856.0000000000002</ele><time>2026-05-02T14:11:32.999Z</time></trkpt><trkpt lat="46.12152732513355" lon="9.797646485098712"><ele>1856.0</ele><time>2026-05-02T14:11:52.998Z</time></trkpt><trkpt lat="46.12154466838962" lon="9.797744082913335"><ele>1856.0000000000002</ele><time>2026-05-02T14:11:55.998Z</time></trkpt><trkpt lat="46.12161142121996" lon="9.797741299324274"><ele>1856.0000000000002</ele><time>2026-05-02T14:12:02.998Z</time></trkpt><trkpt lat="46.12167486426628" lon="9.797763349083526"><ele>1856.0</ele><time>2026-05-02T14:12:04.998Z</time></trkpt><trkpt lat="46.12176589268898" lon="9.797740136752772"><ele>1856.0000000000002</ele><time>2026-05-02T14:12:08.998Z</time></trkpt><trkpt lat="46.12184674660433" lon="9.797761049767132"><ele>1856.0000000000002</ele><time>2026-05-02T14:12:10.998Z</time></trkpt><trkpt lat="46.12193370404331" lon="9.797693124296577"><ele>1854.3333333333333</ele><time>2026-05-02T14:12:13.998Z</time></trkpt><trkpt lat="46.12202249315643" lon="9.797675368379824"><ele>1852.6666666666665</ele><time>2026-05-02T14:12:15.998Z</time></trkpt><trkpt lat="46.122117880361756" lon="9.797644044750031"><ele>1851.0</ele><time>2026-05-02T14:12:17.998Z</time></trkpt><trkpt lat="46.122207296039136" lon="9.797577207471896"><ele>1849.3333333333335</ele><time>2026-05-02T14:12:19.998Z</time></trkpt><trkpt lat="46.12228212460616" lon="9.797617301050089"><ele>1847.6666666666667</ele><time>2026-05-02T14:12:23.998Z</time></trkpt><trkpt lat="46.122350096294774" lon="9.797651160747995"><ele>1846.0</ele><time>2026-05-02T14:12:26.998Z</time></trkpt><trkpt lat="46.12241849883837" lon="9.797662939122073"><ele>1840.0000000000002</ele><time>2026-05-02T14:12:28.998Z</time></trkpt><trkpt lat="46.1225092183908" lon="9.797648517604436"><ele>1834.0</ele><time>2026-05-02T14:12:30.998Z</time></trkpt><trkpt lat="46.122576991181916" lon="9.797622539624799"><ele>1828.0</ele><time>2026-05-02T14:12:31.998Z</time></trkpt><trkpt lat="46.122651174366794" lon="9.797594056049178"><ele>1822.0</ele><time>2026-05-02T14:12:33.998Z</time></trkpt><trkpt lat="46.122708880639884" lon="9.797550403808117"><ele>1816.0000000000002</ele><time>2026-05-02T14:12:38.998Z</time></trkpt><trkpt lat="46.12281339003269" lon="9.79750334187089"><ele>1810.0</ele><time>2026-05-02T14:12:43.998Z</time></trkpt><trkpt lat="46.12289289319215" lon="9.797458647489451"><ele>1810.0</ele><time>2026-05-02T14:12:46.998Z</time></trkpt><trkpt lat="46.12298046704808" lon="9.797365547158876"><ele>1810.0</ele><time>2026-05-02T14:12:48.998Z</time></trkpt><trkpt lat="46.12309902967908" lon="9.797302251703567"><ele>1810.0</ele><time>2026-05-02T14:12:50.999Z</time></trkpt><trkpt lat="46.12321537705974" lon="9.797222364871171"><ele>1810.0</ele><time>2026-05-02T14:12:52.999Z</time></trkpt><trkpt lat="46.123273932380286" lon="9.797176379416518"><ele>1810.0</ele><time>2026-05-02T14:12:53.999Z</time></trkpt><trkpt lat="46.12335440518537" lon="9.797142998343746"><ele>1805.5000000000002</ele><time>2026-05-02T14:12:55.999Z</time></trkpt><trkpt lat="46.123402056711285" lon="9.79705951565058"><ele>1801.0</ele><time>2026-05-02T14:12:57.999Z</time></trkpt><trkpt lat="46.12347438793862" lon="9.79705039306493"><ele>1796.5</ele><time>2026-05-02T14:12:59.999Z</time></trkpt><trkpt lat="46.123536650864864" lon="9.797010462937184"><ele>1792.0</ele><time>2026-05-02T14:13:02.999Z</time></trkpt><trkpt lat="46.12362025572565" lon="9.796961345328752"><ele>1787.5000000000002</ele><time>2026-05-02T14:13:05.999Z</time></trkpt><trkpt lat="46.12370684470285" lon="9.796931226505484"><ele>1783.0</ele><time>2026-05-02T14:13:07.999Z</time></trkpt><trkpt lat="46.12378453902353" lon="9.796858312674859"><ele>1783.8333333333335</ele><time>2026-05-02T14:13:10.999Z</time></trkpt><trkpt lat="46.12383771953852" lon="9.796787659622973"><ele>1784.6666666666667</ele><time>2026-05-02T14:13:13.999Z</time></trkpt><trkpt lat="46.12385711369192" lon="9.79667594847919"><ele>1785.5</ele><time>2026-05-02T14:13:21.999Z</time></trkpt><trkpt lat="46.12385596820424" lon="9.796584939535384"><ele>1786.3333333333335</ele><time>2026-05-02T14:13:27.999Z</time></trkpt><trkpt lat="46.12390976578181" lon="9.796520809124587"><ele>1787.1666666666667</ele><time>2026-05-02T14:13:29.999Z</time></trkpt><trkpt lat="46.12393357265465" lon="9.79636380095949"><ele>1788.0</ele><time>2026-05-02T14:13:32.999Z</time></trkpt><trkpt lat="46.12397064415535" lon="9.796254009810573"><ele>1787.9999999999998</ele><time>2026-05-02T14:13:34.999Z</time></trkpt><trkpt lat="46.12397402209423" lon="9.79616007051735"><ele>1788.0</ele><time>2026-05-02T14:13:39.999Z</time></trkpt><trkpt lat="46.12399021939876" lon="9.796063644997892"><ele>1788.0</ele><time>2026-05-02T14:13:42.999Z</time></trkpt><trkpt lat="46.12404484162246" lon="9.795995807121786"><ele>1788.0</ele><time>2026-05-02T14:13:44.999Z</time></trkpt><trkpt lat="46.12411817921568" lon="9.795946122849111"><ele>1788.0</ele><time>2026-05-02T14:13:47.998Z</time></trkpt><trkpt lat="46.1241450861377" lon="9.79584053936261"><ele>1787.9999999999998</ele><time>2026-05-02T14:13:50.998Z</time></trkpt><trkpt lat="46.12420976636876" lon="9.795768664076268"><ele>1788.0</ele><time>2026-05-02T14:13:53.998Z</time></trkpt><trkpt lat="46.12426869183623" lon="9.795653275406957"><ele>1788.0</ele><time>2026-05-02T14:13:56.998Z</time></trkpt><trkpt lat="46.124346927870455" lon="9.795589428039184"><ele>1788.0000000000002</ele><time>2026-05-02T14:13:58.998Z</time></trkpt><trkpt lat="46.12443283371954" lon="9.795479582128234"><ele>1788.0000000000002</ele><time>2026-05-02T14:14:00.998Z</time></trkpt><trkpt lat="46.12448717300253" lon="9.795391395941923"><ele>1788.0</ele><time>2026-05-02T14:14:02.998Z</time></trkpt><trkpt lat="46.12456790755251" lon="9.795302781111099"><ele>1788.0</ele><time>2026-05-02T14:14:05.998Z</time></trkpt><trkpt lat="46.12456986313539" lon="9.79517903485174"><ele>1785.3333333333333</ele><time>2026-05-02T14:14:09.998Z</time></trkpt><trkpt lat="46.12460102584724" lon="9.795077336273215"><ele>1782.6666666666665</ele><time>2026-05-02T14:14:11.998Z</time></trkpt><trkpt lat="46.124633514296505" lon="9.794958363777738"><ele>1780.0</ele><time>2026-05-02T14:14:14.998Z</time></trkpt><trkpt lat="46.12468626845882" lon="9.794894601910002"><ele>1777.3333333333333</ele><time>2026-05-02T14:14:16.998Z</time></trkpt><trkpt lat="46.12471994314453" lon="9.79480408663007"><ele>1774.6666666666665</ele><time>2026-05-02T14:14:18.998Z</time></trkpt><trkpt lat="46.12476582399356" lon="9.794704994926441"><ele>1772.0</ele><time>2026-05-02T14:14:20.998Z</time></trkpt><trkpt lat="46.12480116476404" lon="9.794629386800086"><ele>1771.9999999999998</ele><time>2026-05-02T14:14:22.998Z</time></trkpt><trkpt lat="46.124843820034684" lon="9.794540994129848"><ele>1772.0</ele><time>2026-05-02T14:14:24.998Z</time></trkpt><trkpt lat="46.12486037237443" lon="9.794447023791307"><ele>1772.0</ele><time>2026-05-02T14:14:25.998Z</time></trkpt><trkpt lat="46.124911019440844" lon="9.794370591470072"><ele>1772.0</ele><time>2026-05-02T14:14:27.998Z</time></trkpt><trkpt lat="46.124977976814854" lon="9.794225156237122"><ele>1771.9999999999998</ele><time>2026-05-02T14:14:30.998Z</time></trkpt><trkpt lat="46.125050390866846" lon="9.794113090131585"><ele>1772.0</ele><time>2026-05-02T14:14:32.998Z</time></trkpt><trkpt lat="46.12512153026071" lon="9.793984920328572"><ele>1771.6666666666665</ele><time>2026-05-02T14:14:34.998Z</time></trkpt><trkpt lat="46.12515271979042" lon="9.793851179854324"><ele>1771.3333333333333</ele><time>2026-05-02T14:14:36.998Z</time></trkpt><trkpt lat="46.1251609895788" lon="9.793715678863162"><ele>1771.0</ele><time>2026-05-02T14:14:38.998Z</time></trkpt><trkpt lat="46.12518104749873" lon="9.793619870135155"><ele>1770.6666666666665</ele><time>2026-05-02T14:14:39.998Z</time></trkpt><trkpt lat="46.125230376049174" lon="9.793501332406631"><ele>1770.3333333333333</ele><time>2026-05-02T14:14:41.998Z</time></trkpt><trkpt lat="46.12527320515285" lon="9.793410841999568"><ele>1770.0</ele><time>2026-05-02T14:14:43.998Z</time></trkpt><trkpt lat="46.12534461573292" lon="9.793403402684351"><ele>1770.0</ele><time>2026-05-02T14:14:45.998Z</time></trkpt><trkpt lat="46.12540360022222" lon="9.79336900168573"><ele>1770.0</ele><time>2026-05-02T14:14:53.998Z</time></trkpt><trkpt lat="46.125462592202645" lon="9.79331873822229"><ele>1770.0</ele><time>2026-05-02T14:14:55.998Z</time></trkpt><trkpt lat="46.12554881292017" lon="9.793300400956742"><ele>1770.0</ele><time>2026-05-02T14:14:59.999Z</time></trkpt><trkpt lat="46.125619494282624" lon="9.793276192974936"><ele>1770.0</ele><time>2026-05-02T14:15:01.999Z</time></trkpt><trkpt lat="46.12570803465173" lon="9.793228693222693"><ele>1770.0</ele><time>2026-05-02T14:15:03.999Z</time></trkpt><trkpt lat="46.12571097569528" lon="9.793092457881858"><ele>1769.6</ele><time>2026-05-02T14:15:07.999Z</time></trkpt><trkpt lat="46.12576279512833" lon="9.792975017114658"><ele>1769.2</ele><time>2026-05-02T14:15:09.999Z</time></trkpt><trkpt lat="46.12578583148448" lon="9.792869495594843"><ele>1768.8000000000002</ele><time>2026-05-02T14:15:11.999Z</time></trkpt><trkpt lat="46.125792809179984" lon="9.792734629077096"><ele>1768.4</ele><time>2026-05-02T14:15:13.998Z</time></trkpt><trkpt lat="46.12580364089579" lon="9.792597431169026"><ele>1768.0</ele><time>2026-05-02T14:15:16.998Z</time></trkpt><trkpt lat="46.12586040732719" lon="9.79249838772043"><ele>1768.0</ele><time>2026-05-02T14:15:18.998Z</time></trkpt><trkpt lat="46.1259334591854" lon="9.792455351295287"><ele>1768.0000000000002</ele><time>2026-05-02T14:15:20.998Z</time></trkpt><trkpt lat="46.12603143154375" lon="9.79238739121687"><ele>1768.0000000000002</ele><time>2026-05-02T14:15:23.998Z</time></trkpt><trkpt lat="46.12607870330611" lon="9.792296435763673"><ele>1768.0</ele><time>2026-05-02T14:15:24.998Z</time></trkpt><trkpt lat="46.12612719077693" lon="9.792177659568873"><ele>1768.0</ele><time>2026-05-02T14:15:26.998Z</time></trkpt><trkpt lat="46.126209987032034" lon="9.792126949700306"><ele>1768.0000000000002</ele><time>2026-05-02T14:15:28.998Z</time></trkpt><trkpt lat="46.12626851192627" lon="9.792024644415152"><ele>1768.0</ele><time>2026-05-02T14:15:30.998Z</time></trkpt><trkpt lat="46.126326076151706" lon="9.79193904834023"><ele>1768.0</ele><time>2026-05-02T14:15:32.998Z</time></trkpt><trkpt lat="46.12637532177421" lon="9.791818222411719"><ele>1768.0</ele><time>2026-05-02T14:15:34.998Z</time></trkpt><trkpt lat="46.12642293573159" lon="9.791726104292712"><ele>1768.0000000000002</ele><time>2026-05-02T14:15:36.998Z</time></trkpt><trkpt lat="46.12648694096015" lon="9.791669321098222"><ele>1768.0</ele><time>2026-05-02T14:15:38.998Z</time></trkpt><trkpt lat="46.12656702577423" lon="9.791609619981207"><ele>1764.1666666666667</ele><time>2026-05-02T14:15:41.998Z</time></trkpt><trkpt lat="46.126630431304484" lon="9.791562079810213"><ele>1760.3333333333335</ele><time>2026-05-02T14:15:43.998Z</time></trkpt><trkpt lat="46.126685580195705" lon="9.791477680351315"><ele>1756.5</ele><time>2026-05-02T14:15:45.998Z</time></trkpt><trkpt lat="46.12673524771575" lon="9.79133858777845"><ele>1752.6666666666665</ele><time>2026-05-02T14:15:47.998Z</time></trkpt><trkpt lat="46.126827692125566" lon="9.791289359484194"><ele>1748.8333333333333</ele><time>2026-05-02T14:15:50.998Z</time></trkpt><trkpt lat="46.1269003180934" lon="9.791246455267212"><ele>1745.0</ele><time>2026-05-02T14:15:52.998Z</time></trkpt><trkpt lat="46.12696392858269" lon="9.791188010186113"><ele>1744.9999999999998</ele><time>2026-05-02T14:15:54.998Z</time></trkpt><trkpt lat="46.12702536033179" lon="9.791100972315459"><ele>1745.0</ele><time>2026-05-02T14:15:56.998Z</time></trkpt><trkpt lat="46.12709107230856" lon="9.791045819430948"><ele>1745.0</ele><time>2026-05-02T14:15:57.998Z</time></trkpt><trkpt lat="46.12718785268459" lon="9.790980730239404"><ele>1745.0</ele><time>2026-05-02T14:15:59.998Z</time></trkpt><trkpt lat="46.127246321599664" lon="9.790896326457029"><ele>1744.9999999999998</ele><time>2026-05-02T14:16:01.998Z</time></trkpt><trkpt lat="46.127305757896686" lon="9.790851615533724"><ele>1745.0</ele><time>2026-05-02T14:16:03.998Z</time></trkpt><trkpt lat="46.12736771066979" lon="9.790770623462128"><ele>1739.8333333333333</ele><time>2026-05-02T14:16:05.998Z</time></trkpt><trkpt lat="46.127487816588356" lon="9.790753825387098"><ele>1734.6666666666665</ele><time>2026-05-02T14:16:07.998Z</time></trkpt><trkpt lat="46.127560593617375" lon="9.790793578325788"><ele>1729.5</ele><time>2026-05-02T14:16:08.998Z</time></trkpt><trkpt lat="46.1276207101097" lon="9.79083897473669"><ele>1724.3333333333335</ele><time>2026-05-02T14:16:09.998Z</time></trkpt><trkpt lat="46.12768084534926" lon="9.790887062820142"><ele>1719.1666666666667</ele><time>2026-05-02T14:16:11.998Z</time></trkpt><trkpt lat="46.12776141944203" lon="9.790929769529438"><ele>1714.0</ele><time>2026-05-02T14:16:13.998Z</time></trkpt><trkpt lat="46.12781195040601" lon="9.791005362293765"><ele>1712.75</ele><time>2026-05-02T14:16:15.998Z</time></trkpt><trkpt lat="46.12791557467054" lon="9.79113102076965"><ele>1711.5</ele><time>2026-05-02T14:16:17.998Z</time></trkpt><trkpt lat="46.127941289907426" lon="9.791329277851505"><ele>1710.25</ele><time>2026-05-02T14:16:19.998Z</time></trkpt><trkpt lat="46.12793769418442" lon="9.79144982995841"><ele>1709.0</ele><time>2026-05-02T14:16:20.998Z</time></trkpt><trkpt lat="46.127904287150045" lon="9.791629720182724"><ele>1708.9999999999998</ele><time>2026-05-02T14:16:22.998Z</time></trkpt><trkpt lat="46.12786420239237" lon="9.791739367026159"><ele>1709.0</ele><time>2026-05-02T14:16:24.998Z</time></trkpt><trkpt lat="46.12782081173383" lon="9.791829696683696"><ele>1709.0</ele><time>2026-05-02T14:16:26.998Z</time></trkpt><trkpt lat="46.12777702094162" lon="9.791951251493968"><ele>1709.0</ele><time>2026-05-02T14:16:28.998Z</time></trkpt><trkpt lat="46.12773972101795" lon="9.792039800270958"><ele>1708.9999999999998</ele><time>2026-05-02T14:16:30.998Z</time></trkpt><trkpt lat="46.12770547655647" lon="9.792139264756448"><ele>1709.0</ele><time>2026-05-02T14:16:32.998Z</time></trkpt><trkpt lat="46.127677855287715" lon="9.792233130822469"><ele>1706.8333333333333</ele><time>2026-05-02T14:16:34.998Z</time></trkpt><trkpt lat="46.12761673302618" lon="9.79231030775533"><ele>1704.6666666666665</ele><time>2026-05-02T14:16:37.998Z</time></trkpt><trkpt lat="46.127586775865346" lon="9.792401686963018"><ele>1702.5</ele><time>2026-05-02T14:16:40.998Z</time></trkpt><trkpt lat="46.12752994142481" lon="9.792458884578664"><ele>1700.3333333333335</ele><time>2026-05-02T14:16:47.998Z</time></trkpt><trkpt lat="46.12746699289901" lon="9.79246591684069"><ele>1698.1666666666667</ele><time>2026-05-02T14:16:51.998Z</time></trkpt><trkpt lat="46.12747770320472" lon="9.79256863252327"><ele>1696.0</ele><time>2026-05-02T14:16:54.997Z</time></trkpt><trkpt lat="46.12747401393078" lon="9.792722118369435"><ele>1693.4</ele><time>2026-05-02T14:16:56.997Z</time></trkpt><trkpt lat="46.127474702792284" lon="9.792817194361636"><ele>1690.8</ele><time>2026-05-02T14:16:58.997Z</time></trkpt><trkpt lat="46.12743256529589" lon="9.792957632520158"><ele>1688.2</ele><time>2026-05-02T14:17:00.997Z</time></trkpt><trkpt lat="46.12736364873445" lon="9.793060988019409"><ele>1685.6000000000001</ele><time>2026-05-02T14:17:02.999Z</time></trkpt><trkpt lat="46.127324298834516" lon="9.793142154031827"><ele>1683.0</ele><time>2026-05-02T14:17:04.999Z</time></trkpt><trkpt lat="46.12729224867683" lon="9.793302588583606"><ele>1687.5</ele><time>2026-05-02T14:17:06.999Z</time></trkpt><trkpt lat="46.12726212336114" lon="9.793386894352931"><ele>1692.0</ele><time>2026-05-02T14:17:07.999Z</time></trkpt><trkpt lat="46.12722505821483" lon="9.793493150433441"><ele>1696.5</ele><time>2026-05-02T14:17:09.999Z</time></trkpt><trkpt lat="46.12718890616196" lon="9.793571934634059"><ele>1701.0</ele><time>2026-05-02T14:17:11.999Z</time></trkpt><trkpt lat="46.127166151913826" lon="9.793732284921933"><ele>1705.5</ele><time>2026-05-02T14:17:13.999Z</time></trkpt><trkpt lat="46.12715254320326" lon="9.793829342341551"><ele>1710.0</ele><time>2026-05-02T14:17:14.999Z</time></trkpt><trkpt lat="46.12714295269731" lon="9.793991249827243"><ele>1710.0</ele><time>2026-05-02T14:17:16.999Z</time></trkpt><trkpt lat="46.12715654166013" lon="9.794091523615508"><ele>1710.0</ele><time>2026-05-02T14:17:18.999Z</time></trkpt><trkpt lat="46.1271809971969" lon="9.794185134338685"><ele>1710.0</ele><time>2026-05-02T14:17:21.998Z</time></trkpt><trkpt lat="46.12719172307005" lon="9.794281966111118"><ele>1710.0</ele><time>2026-05-02T14:17:23.998Z</time></trkpt><trkpt lat="46.12717106295369" lon="9.794399254420542"><ele>1710.0</ele><time>2026-05-02T14:17:26.998Z</time></trkpt><trkpt lat="46.12714628151704" lon="9.794559071495135"><ele>1710.0</ele><time>2026-05-02T14:17:29.998Z</time></trkpt><trkpt lat="46.127110578922704" lon="9.794637250393004"><ele>1706.0</ele><time>2026-05-02T14:17:31.998Z</time></trkpt><trkpt lat="46.1270684563961" lon="9.794731666146061"><ele>1702.0</ele><time>2026-05-02T14:17:35.998Z</time></trkpt><trkpt lat="46.12700784322608" lon="9.794832005231159"><ele>1698.0</ele><time>2026-05-02T14:17:38.998Z</time></trkpt><trkpt lat="46.12697189703023" lon="9.794915336672746"><ele>1694.0</ele><time>2026-05-02T14:17:40.998Z</time></trkpt><trkpt lat="46.126949266254066" lon="9.795049411713634"><ele>1690.0</ele><time>2026-05-02T14:17:42.998Z</time></trkpt><trkpt lat="46.12693278325249" lon="9.795187357943437"><ele>1686.0</ele><time>2026-05-02T14:17:44.998Z</time></trkpt><trkpt lat="46.126896198874356" lon="9.795277140799115"><ele>1682.6666666666667</ele><time>2026-05-02T14:17:46.998Z</time></trkpt><trkpt lat="46.12687334436978" lon="9.795369783390447"><ele>1679.3333333333335</ele><time>2026-05-02T14:17:48.998Z</time></trkpt><trkpt lat="46.1268664919729" lon="9.795485874853032"><ele>1676.0</ele><time>2026-05-02T14:17:50.998Z</time></trkpt><trkpt lat="46.12685472137346" lon="9.795595569871884"><ele>1672.6666666666667</ele><time>2026-05-02T14:17:52.998Z</time></trkpt><trkpt lat="46.12684734939376" lon="9.795701669324446"><ele>1669.3333333333335</ele><time>2026-05-02T14:17:54.998Z</time></trkpt><trkpt lat="46.12687838934205" lon="9.795816675068597"><ele>1666.0</ele><time>2026-05-02T14:17:56.998Z</time></trkpt><trkpt lat="46.12688353028483" lon="9.795937801067922"><ele>1662.857142857143</ele><time>2026-05-02T14:17:58.998Z</time></trkpt><trkpt lat="46.12681809612757" lon="9.796033128842444"><ele>1659.7142857142858</ele><time>2026-05-02T14:18:00.998Z</time></trkpt><trkpt lat="46.12676954836792" lon="9.796098041598295"><ele>1656.5714285714284</ele><time>2026-05-02T14:18:02.998Z</time></trkpt><trkpt lat="46.12672854003733" lon="9.796176110497052"><ele>1653.4285714285716</ele><time>2026-05-02T14:18:05.998Z</time></trkpt><trkpt lat="46.12673423149571" lon="9.796267762729446"><ele>1650.2857142857142</ele><time>2026-05-02T14:18:09.998Z</time></trkpt><trkpt lat="46.126715990354775" lon="9.796355788940394"><ele>1647.142857142857</ele><time>2026-05-02T14:18:15.998Z</time></trkpt><trkpt lat="46.12666380527803" lon="9.796407717236242"><ele>1644.0</ele><time>2026-05-02T14:18:22.998Z</time></trkpt><trkpt lat="46.126711185481064" lon="9.796468976078433"><ele>1644.0</ele><time>2026-05-02T14:18:27.998Z</time></trkpt><trkpt lat="46.126700278274356" lon="9.796584738499087"><ele>1644.0</ele><time>2026-05-02T14:18:45.998Z</time></trkpt><trkpt lat="46.126647157360004" lon="9.796637464059758"><ele>1644.0</ele><time>2026-05-02T14:19:09.998Z</time></trkpt><trkpt lat="46.12663903390977" lon="9.796739050094306"><ele>1644.0</ele><time>2026-05-02T14:19:13.998Z</time></trkpt><trkpt lat="46.126716476315146" lon="9.79678405978735"><ele>1644.0</ele><time>2026-05-02T14:19:20.998Z</time></trkpt><trkpt lat="46.12679984909329" lon="9.796784383294431"><ele>1644.0</ele><time>2026-05-02T14:19:22.998Z</time></trkpt><trkpt lat="46.12687233224279" lon="9.796828225565163"><ele>1638.8333333333333</ele><time>2026-05-02T14:19:24.998Z</time></trkpt><trkpt lat="46.126936528952406" lon="9.796878264042327"><ele>1633.6666666666665</ele><time>2026-05-02T14:19:26.998Z</time></trkpt><trkpt lat="46.12701802683597" lon="9.796968421442132"><ele>1628.5</ele><time>2026-05-02T14:19:28.998Z</time></trkpt><trkpt lat="46.1270930783949" lon="9.7969483126193"><ele>1623.3333333333333</ele><time>2026-05-02T14:19:31.998Z</time></trkpt><trkpt lat="46.127151985631734" lon="9.797031172846687"><ele>1618.1666666666665</ele><time>2026-05-02T14:19:36.998Z</time></trkpt><trkpt lat="46.127188229897385" lon="9.797108115612541"><ele>1613.0</ele><time>2026-05-02T14:19:38.998Z</time></trkpt><trkpt lat="46.127170901240106" lon="9.797221768461508"><ele>1612.9999999999998</ele><time>2026-05-02T14:19:41.998Z</time></trkpt><trkpt lat="46.12715473498739" lon="9.797312338807846"><ele>1613.0</ele><time>2026-05-02T14:19:43.998Z</time></trkpt><trkpt lat="46.12714183347334" lon="9.797432847535392"><ele>1613.0</ele><time>2026-05-02T14:19:45.998Z</time></trkpt><trkpt lat="46.12716624325487" lon="9.797531911015518"><ele>1613.0</ele><time>2026-05-02T14:19:47.998Z</time></trkpt><trkpt lat="46.12723259208335" lon="9.79755144962059"><ele>1612.9999999999998</ele><time>2026-05-02T14:19:50.998Z</time></trkpt><trkpt lat="46.127308183957474" lon="9.797612684182889"><ele>1613.0</ele><time>2026-05-02T14:19:55.998Z</time></trkpt><trkpt lat="46.1273758330064" lon="9.797664987483552"><ele>1606.9999999999998</ele><time>2026-05-02T14:19:57.998Z</time></trkpt><trkpt lat="46.12737542065011" lon="9.79778056720464"><ele>1601.0</ele><time>2026-05-02T14:19:59.998Z</time></trkpt><trkpt lat="46.12740855775555" lon="9.79787041889044"><ele>1595.0</ele><time>2026-05-02T14:20:01.998Z</time></trkpt><trkpt lat="46.1273833198425" lon="9.797968676021162"><ele>1589.0</ele><time>2026-05-02T14:20:03.998Z</time></trkpt><trkpt lat="46.12730953760058" lon="9.798052481928707"><ele>1582.9999999999998</ele><time>2026-05-02T14:20:07.998Z</time></trkpt><trkpt lat="46.127271892621266" lon="9.79812806714212"><ele>1577.0</ele><time>2026-05-02T14:20:09.998Z</time></trkpt><trkpt lat="46.12719315339205" lon="9.798106741833815"><ele>1576.3333333333333</ele><time>2026-05-02T14:20:13.998Z</time></trkpt><trkpt lat="46.127123658583386" lon="9.798104658291857"><ele>1575.6666666666665</ele><time>2026-05-02T14:20:15.998Z</time></trkpt><trkpt lat="46.1270443792751" lon="9.79813168672685"><ele>1575.0</ele><time>2026-05-02T14:20:18.998Z</time></trkpt><trkpt lat="46.12696056901871" lon="9.798214751723993"><ele>1574.3333333333335</ele><time>2026-05-02T14:20:20.998Z</time></trkpt><trkpt lat="46.126883629271944" lon="9.798220104644743"><ele>1573.6666666666667</ele><time>2026-05-02T14:20:22.998Z</time></trkpt><trkpt lat="46.12679296511891" lon="9.79819276704423"><ele>1573.0</ele><time>2026-05-02T14:20:26.998Z</time></trkpt><trkpt lat="46.12674298214709" lon="9.798260558836814"><ele>1573.0000000000002</ele><time>2026-05-02T14:20:32.997Z</time></trkpt><trkpt lat="46.126795676703715" lon="9.798369426846325"><ele>1573.0</ele><time>2026-05-02T14:20:34.997Z</time></trkpt><trkpt lat="46.12681879787976" lon="9.798458557421545"><ele>1573.0</ele><time>2026-05-02T14:20:37.997Z</time></trkpt><trkpt lat="46.12682585754525" lon="9.798574228660769"><ele>1573.0</ele><time>2026-05-02T14:20:39.997Z</time></trkpt><trkpt lat="46.12687531611457" lon="9.798649062108806"><ele>1573.0000000000002</ele><time>2026-05-02T14:20:41.997Z</time></trkpt><trkpt lat="46.126978989682875" lon="9.798720418054563"><ele>1573.0</ele><time>2026-05-02T14:20:44.997Z</time></trkpt><trkpt lat="46.12703701060954" lon="9.798827425462797"><ele>1567.6666666666667</ele><time>2026-05-02T14:20:46.997Z</time></trkpt><trkpt lat="46.127080231582035" lon="9.798912572986128"><ele>1562.3333333333335</ele><time>2026-05-02T14:20:47.997Z</time></trkpt><trkpt lat="46.127146752211985" lon="9.798977092590018"><ele>1557.0</ele><time>2026-05-02T14:20:49.997Z</time></trkpt><trkpt lat="46.127160321130226" lon="9.799131695874186"><ele>1551.6666666666665</ele><time>2026-05-02T14:20:51.997Z</time></trkpt><trkpt lat="46.127158210835084" lon="9.799254996674875"><ele>1546.3333333333333</ele><time>2026-05-02T14:20:53.997Z</time></trkpt><trkpt lat="46.12718131562618" lon="9.799369981301767"><ele>1541.0</ele><time>2026-05-02T14:20:55.997Z</time></trkpt><trkpt lat="46.127240839729346" lon="9.79949488595947"><ele>1536.6666666666665</ele><time>2026-05-02T14:20:57.997Z</time></trkpt><trkpt lat="46.12730276064254" lon="9.79952815913167"><ele>1532.3333333333333</ele><time>2026-05-02T14:20:59.997Z</time></trkpt><trkpt lat="46.12736088439227" lon="9.799620635753145"><ele>1528.0</ele><time>2026-05-02T14:21:01.997Z</time></trkpt><trkpt lat="46.12739681323368" lon="9.799735315592361"><ele>1523.6666666666665</ele><time>2026-05-02T14:21:02.997Z</time></trkpt><trkpt lat="46.12744533030142" lon="9.799803580874292"><ele>1519.3333333333333</ele><time>2026-05-02T14:21:05.997Z</time></trkpt><trkpt lat="46.12743772227534" lon="9.799910109798699"><ele>1515.0</ele><time>2026-05-02T14:21:07.997Z</time></trkpt><trkpt lat="46.12742130081511" lon="9.80000954419497"><ele>1514.5</ele><time>2026-05-02T14:21:09.997Z</time></trkpt><trkpt lat="46.1273797724227" lon="9.80008057947971"><ele>1514.0</ele><time>2026-05-02T14:21:14.999Z</time></trkpt><trkpt lat="46.12742725840823" lon="9.800176352782636"><ele>1513.5</ele><time>2026-05-02T14:21:18.998Z</time></trkpt><trkpt lat="46.12748878330336" lon="9.800220092680954"><ele>1513.0</ele><time>2026-05-02T14:21:21.999Z</time></trkpt><trkpt lat="46.12755872563528" lon="9.80029354352629"><ele>1512.5</ele><time>2026-05-02T14:21:27.999Z</time></trkpt><trkpt lat="46.127555605176134" lon="9.80041698778206"><ele>1512.0</ele><time>2026-05-02T14:21:33.999Z</time></trkpt><trkpt lat="46.127571957241635" lon="9.800523456034451"><ele>1505.1666666666667</ele><time>2026-05-02T14:21:36.998Z</time></trkpt><trkpt lat="46.127633408770016" lon="9.800482560177475"><ele>1498.3333333333333</ele><time>2026-05-02T14:21:39.998Z</time></trkpt><trkpt lat="46.12772492439242" lon="9.800409232237588"><ele>1491.5</ele><time>2026-05-02T14:21:52.998Z</time></trkpt><trkpt lat="46.127785626860245" lon="9.800336247013977"><ele>1484.6666666666665</ele><time>2026-05-02T14:21:57.998Z</time></trkpt><trkpt lat="46.127839186213706" lon="9.800266973072308"><ele>1477.8333333333333</ele><time>2026-05-02T14:22:04.998Z</time></trkpt><trkpt lat="46.127826034371616" lon="9.800357984756324"><ele>1471.0</ele><time>2026-05-02T14:22:32.998Z</time></trkpt><trkpt lat="46.1277630243521" lon="9.800399641721857"><ele>1471.0</ele><time>2026-05-02T14:22:40.998Z</time></trkpt><trkpt lat="46.12777678752181" lon="9.800306006459456"><ele>1471.0</ele><time>2026-05-02T14:22:53.998Z</time></trkpt><trkpt lat="46.12783440277204" lon="9.800264670357127"><ele>1471.0</ele><time>2026-05-02T14:22:56.998Z</time></trkpt><trkpt lat="46.12791482047245" lon="9.80029991311302"><ele>1471.0</ele><time>2026-05-02T14:23:05.998Z</time></trkpt><trkpt lat="46.12797486532442" lon="9.800217991954291"><ele>1471.0</ele><time>2026-05-02T14:23:13.998Z</time></trkpt><trkpt lat="46.128042229718254" lon="9.80014332958946"><ele>1471.0</ele><time>2026-05-02T14:23:16.998Z</time></trkpt><trkpt lat="46.128125895856044" lon="9.800077026142244"><ele>1473.3333333333333</ele><time>2026-05-02T14:23:19.997Z</time></trkpt><trkpt lat="46.12819572995089" lon="9.800068268685854"><ele>1475.6666666666665</ele><time>2026-05-02T14:23:21.998Z</time></trkpt><trkpt lat="46.12826714299773" lon="9.800011371879718"><ele>1478.0</ele><time>2026-05-02T14:23:24.999Z</time></trkpt><trkpt lat="46.12834463500757" lon="9.800001336046076"><ele>1480.3333333333333</ele><time>2026-05-02T14:23:28.998Z</time></trkpt><trkpt lat="46.12840760370982" lon="9.800014947564595"><ele>1482.6666666666667</ele><time>2026-05-02T14:23:29.999Z</time></trkpt><trkpt lat="46.12848086507375" lon="9.799954412222597"><ele>1485.0</ele><time>2026-05-02T14:23:31.998Z</time></trkpt><trkpt lat="46.128558835582204" lon="9.799948923982058"><ele>1485.0</ele><time>2026-05-02T14:23:33.998Z</time></trkpt><trkpt lat="46.128630719971596" lon="9.799947567009609"><ele>1485.0</ele><time>2026-05-02T14:23:35.998Z</time></trkpt><trkpt lat="46.12869768039055" lon="9.799946533168587"><ele>1485.0</ele><time>2026-05-02T14:23:38.998Z</time></trkpt><trkpt lat="46.12878082415837" lon="9.799947797577737"><ele>1485.0</ele><time>2026-05-02T14:23:40.998Z</time></trkpt><trkpt lat="46.128843331239665" lon="9.800032392960064"><ele>1485.0</ele><time>2026-05-02T14:23:41.998Z</time></trkpt><trkpt lat="46.12891487101272" lon="9.800129470071113"><ele>1485.0</ele><time>2026-05-02T14:23:42.998Z</time></trkpt><trkpt lat="46.12897370131399" lon="9.800174883401592"><ele>1477.6</ele><time>2026-05-02T14:23:43.998Z</time></trkpt><trkpt lat="46.12903529500436" lon="9.80023742386112"><ele>1470.2</ele><time>2026-05-02T14:23:45.998Z</time></trkpt><trkpt lat="46.129105590484265" lon="9.80032270061776"><ele>1462.8000000000002</ele><time>2026-05-02T14:23:47.998Z</time></trkpt><trkpt lat="46.12919646954241" lon="9.800405583217811"><ele>1455.4</ele><time>2026-05-02T14:23:49.998Z</time></trkpt><trkpt lat="46.12931470004686" lon="9.800443340284478"><ele>1448.0</ele><time>2026-05-02T14:23:51.998Z</time></trkpt><trkpt lat="46.12938982736638" lon="9.8004422939765"><ele>1445.0</ele><time>2026-05-02T14:23:52.998Z</time></trkpt><trkpt lat="46.12945548332662" lon="9.800412616058885"><ele>1442.0</ele><time>2026-05-02T14:23:53.998Z</time></trkpt><trkpt lat="46.12952428065623" lon="9.80040990091563"><ele>1439.0</ele><time>2026-05-02T14:23:54.998Z</time></trkpt><trkpt lat="46.129585396221714" lon="9.800513391685882"><ele>1436.0</ele><time>2026-05-02T14:23:56.998Z</time></trkpt><trkpt lat="46.129637586852475" lon="9.800581461377757"><ele>1433.0</ele><time>2026-05-02T14:23:57.998Z</time></trkpt><trkpt lat="46.12970431703047" lon="9.800658588068075"><ele>1430.0</ele><time>2026-05-02T14:23:58.998Z</time></trkpt><trkpt lat="46.12976936982688" lon="9.800683157307084"><ele>1430.0</ele><time>2026-05-02T14:23:59.998Z</time></trkpt><trkpt lat="46.1298407037512" lon="9.800796370033337"><ele>1430.0</ele><time>2026-05-02T14:24:02.998Z</time></trkpt><trkpt lat="46.129916352455815" lon="9.800849410429544"><ele>1430.0</ele><time>2026-05-02T14:24:04.998Z</time></trkpt><trkpt lat="46.12997916719866" lon="9.80091239798661"><ele>1430.0</ele><time>2026-05-02T14:24:06.998Z</time></trkpt><trkpt lat="46.13006949065675" lon="9.80100754023914"><ele>1430.0</ele><time>2026-05-02T14:24:09.998Z</time></trkpt><trkpt lat="46.13017345980758" lon="9.801057132730824"><ele>1423.1666666666667</ele><time>2026-05-02T14:24:11.998Z</time></trkpt><trkpt lat="46.13027092718701" lon="9.801106527242242"><ele>1416.3333333333335</ele><time>2026-05-02T14:24:13.998Z</time></trkpt><trkpt lat="46.13031617618095" lon="9.80118072240445"><ele>1409.5</ele><time>2026-05-02T14:24:15.998Z</time></trkpt><trkpt lat="46.13036736643832" lon="9.801246119253955"><ele>1402.6666666666667</ele><time>2026-05-02T14:24:17.998Z</time></trkpt><trkpt lat="46.130452550752345" lon="9.801320187559861"><ele>1395.8333333333333</ele><time>2026-05-02T14:24:19.998Z</time></trkpt><trkpt lat="46.130513257352675" lon="9.801376546892397"><ele>1389.0</ele><time>2026-05-02T14:24:21.998Z</time></trkpt><trkpt lat="46.130615793752106" lon="9.80143346779696"><ele>1389.0</ele><time>2026-05-02T14:24:23.998Z</time></trkpt><trkpt lat="46.13070730067497" lon="9.801471817662081"><ele>1389.0</ele><time>2026-05-02T14:24:25.997Z</time></trkpt><trkpt lat="46.13077105304989" lon="9.80150070332246"><ele>1389.0</ele><time>2026-05-02T14:24:26.997Z</time></trkpt><trkpt lat="46.13076737528235" lon="9.801626562450123"><ele>1389.0</ele><time>2026-05-02T14:24:29.997Z</time></trkpt><trkpt lat="46.130789635865504" lon="9.801752847617985"><ele>1389.0</ele><time>2026-05-02T14:24:31.997Z</time></trkpt><trkpt lat="46.1307765289586" lon="9.801852088017277"><ele>1389.0</ele><time>2026-05-02T14:24:32.997Z</time></trkpt><trkpt lat="46.13073370469785" lon="9.801975669519184"><ele>1382.5</ele><time>2026-05-02T14:24:34.997Z</time></trkpt><trkpt lat="46.13074573152746" lon="9.80210073954448"><ele>1376.0</ele><time>2026-05-02T14:24:37.997Z</time></trkpt><trkpt lat="46.1308208224842" lon="9.802122110667414"><ele>1369.5</ele><time>2026-05-02T14:24:40.997Z</time></trkpt><trkpt lat="46.13090503132621" lon="9.80212497882299"><ele>1363.0</ele><time>2026-05-02T14:24:42.997Z</time></trkpt><trkpt lat="46.13089398550705" lon="9.802237002581064"><ele>1356.5</ele><time>2026-05-02T14:24:46.997Z</time></trkpt><trkpt lat="46.13094734876195" lon="9.802329304009552"><ele>1350.0</ele><time>2026-05-02T14:24:48.997Z</time></trkpt><trkpt lat="46.13101199374185" lon="9.80237720311768"><ele>1350.0</ele><time>2026-05-02T14:24:50.997Z</time></trkpt><trkpt lat="46.131083946061025" lon="9.802482092073387"><ele>1350.0</ele><time>2026-05-02T14:24:52.997Z</time></trkpt><trkpt lat="46.13102726606743" lon="9.802585220997221"><ele>1350.0</ele><time>2026-05-02T14:24:54.997Z</time></trkpt><trkpt lat="46.13100483739918" lon="9.802709616446945"><ele>1350.0</ele><time>2026-05-02T14:24:56.997Z</time></trkpt><trkpt lat="46.13098912652673" lon="9.802823104517516"><ele>1350.0</ele><time>2026-05-02T14:24:59.997Z</time></trkpt><trkpt lat="46.13103697189729" lon="9.802897811354352"><ele>1350.0</ele><time>2026-05-02T14:25:01.997Z</time></trkpt><trkpt lat="46.131136169667" lon="9.802909870278354"><ele>1345.3333333333333</ele><time>2026-05-02T14:25:04.997Z</time></trkpt><trkpt lat="46.13121506024775" lon="9.802853450090657"><ele>1340.6666666666667</ele><time>2026-05-02T14:25:07.997Z</time></trkpt><trkpt lat="46.13128564422492" lon="9.802819708467911"><ele>1336.0</ele><time>2026-05-02T14:25:09.997Z</time></trkpt><trkpt lat="46.13136196924171" lon="9.802754085283153"><ele>1331.3333333333335</ele><time>2026-05-02T14:25:11.997Z</time></trkpt><trkpt lat="46.13146296623666" lon="9.80271692176066"><ele>1326.6666666666667</ele><time>2026-05-02T14:25:13.997Z</time></trkpt><trkpt lat="46.13155152870767" lon="9.802750035811002"><ele>1322.0</ele><time>2026-05-02T14:25:15.997Z</time></trkpt><trkpt lat="46.13161784351708" lon="9.802872619744166"><ele>1319.0</ele><time>2026-05-02T14:25:17.997Z</time></trkpt><trkpt lat="46.13167789536299" lon="9.802920259695195"><ele>1316.0</ele><time>2026-05-02T14:25:18.997Z</time></trkpt><trkpt lat="46.13175789034883" lon="9.8029591517596"><ele>1313.0</ele><time>2026-05-02T14:25:21.997Z</time></trkpt><trkpt lat="46.13185988396609" lon="9.802918111949026"><ele>1310.0</ele><time>2026-05-02T14:25:23.997Z</time></trkpt><trkpt lat="46.131946694440636" lon="9.802917675997225"><ele>1307.0</ele><time>2026-05-02T14:25:25.997Z</time></trkpt><trkpt lat="46.132012693317144" lon="9.80291493352511"><ele>1304.0</ele><time>2026-05-02T14:25:27.998Z</time></trkpt><trkpt lat="46.13207373976531" lon="9.802872998133902"><ele>1304.0</ele><time>2026-05-02T14:25:30.998Z</time></trkpt><trkpt lat="46.132174220216235" lon="9.802846861965014"><ele>1304.0</ele><time>2026-05-02T14:25:33.998Z</time></trkpt><trkpt lat="46.13224714955167" lon="9.80292542028143"><ele>1304.0</ele><time>2026-05-02T14:25:36.998Z</time></trkpt><trkpt lat="46.132281686698335" lon="9.803010700624254"><ele>1304.0</ele><time>2026-05-02T14:25:38.998Z</time></trkpt><trkpt lat="46.1323060194354" lon="9.80310996440965"><ele>1304.0</ele><time>2026-05-02T14:25:40.998Z</time></trkpt><trkpt lat="46.13241966539065" lon="9.803144915222964"><ele>1298.8333333333335</ele><time>2026-05-02T14:25:43.998Z</time></trkpt><trkpt lat="46.13253614256579" lon="9.803183935862462"><ele>1293.6666666666667</ele><time>2026-05-02T14:25:45.998Z</time></trkpt><trkpt lat="46.132581365924516" lon="9.803256752383215"><ele>1288.5</ele><time>2026-05-02T14:25:47.998Z</time></trkpt><trkpt lat="46.132642195389536" lon="9.803294980829135"><ele>1283.3333333333333</ele><time>2026-05-02T14:25:48.998Z</time></trkpt><trkpt lat="46.132678143101536" lon="9.80338601029441"><ele>1278.1666666666665</ele><time>2026-05-02T14:25:50.998Z</time></trkpt><trkpt lat="46.13270130874155" lon="9.803520917023832"><ele>1273.0</ele><time>2026-05-02T14:25:53.998Z</time></trkpt><trkpt lat="46.13273827537417" lon="9.803607479281055"><ele>1270.0</ele><time>2026-05-02T14:25:55.998Z</time></trkpt><trkpt lat="46.132757393350744" lon="9.8037098806784"><ele>1267.0</ele><time>2026-05-02T14:25:57.998Z</time></trkpt><trkpt lat="46.13275557936678" lon="9.803824716526613"><ele>1264.0</ele><time>2026-05-02T14:26:00.998Z</time></trkpt><trkpt lat="46.132766420559825" lon="9.803925148817562"><ele>1261.0</ele><time>2026-05-02T14:26:02.998Z</time></trkpt><trkpt lat="46.13278924767394" lon="9.80403039466756"><ele>1258.0</ele><time>2026-05-02T14:26:04.998Z</time></trkpt><trkpt lat="46.13282114888509" lon="9.804111796415915"><ele>1255.0</ele><time>2026-05-02T14:26:06.998Z</time></trkpt><trkpt lat="46.132883596426524" lon="9.804168627814684"><ele>1252.0</ele><time>2026-05-02T14:26:08.998Z</time></trkpt><trkpt lat="46.1329102329735" lon="9.804300967822352"><ele>1245.0</ele><time>2026-05-02T14:26:11.998Z</time></trkpt><trkpt lat="46.132895425389044" lon="9.804417032314905"><ele>1238.0</ele><time>2026-05-02T14:26:14.998Z</time></trkpt><trkpt lat="46.13293206704299" lon="9.804506059374578"><ele>1231.0</ele><time>2026-05-02T14:26:18.998Z</time></trkpt><trkpt lat="46.133010214338654" lon="9.804494845014418"><ele>1224.0</ele><time>2026-05-02T14:26:21.998Z</time></trkpt><trkpt lat="46.13310466565287" lon="9.80448893152694"><ele>1217.0</ele><time>2026-05-02T14:26:23.998Z</time></trkpt><trkpt lat="46.13323205509059" lon="9.804448434260953"><ele>1216.5</ele><time>2026-05-02T14:26:26.998Z</time></trkpt><trkpt lat="46.13330833020001" lon="9.804411154127173"><ele>1216.0</ele><time>2026-05-02T14:26:27.998Z</time></trkpt><trkpt lat="46.13340060639233" lon="9.804403506662611"><ele>1215.5</ele><time>2026-05-02T14:26:28.998Z</time></trkpt><trkpt lat="46.13347567610557" lon="9.804390736391682"><ele>1215.0</ele><time>2026-05-02T14:26:29.998Z</time></trkpt><trkpt lat="46.13356788869072" lon="9.804288008118444"><ele>1214.5</ele><time>2026-05-02T14:26:31.998Z</time></trkpt><trkpt lat="46.133595902569255" lon="9.804203073905995"><ele>1214.0</ele><time>2026-05-02T14:26:32.998Z</time></trkpt><trkpt lat="46.13364043604347" lon="9.80413192694836"><ele>1214.0</ele><time>2026-05-02T14:26:33.998Z</time></trkpt><trkpt lat="46.13369941560486" lon="9.8040554445751"><ele>1214.0</ele><time>2026-05-02T14:26:34.998Z</time></trkpt><trkpt lat="46.1337551563283" lon="9.803970738762377"><ele>1214.0</ele><time>2026-05-02T14:26:35.998Z</time></trkpt><trkpt lat="46.133806026970134" lon="9.803882990440844"><ele>1214.0</ele><time>2026-05-02T14:26:36.998Z</time></trkpt><trkpt lat="46.13383927141978" lon="9.804017269823817"><ele>1214.0</ele><time>2026-05-02T14:26:41.998Z</time></trkpt><trkpt lat="46.133890468692215" lon="9.804143386382538"><ele>1214.0</ele><time>2026-05-02T14:26:43.998Z</time></trkpt><trkpt lat="46.13393117010924" lon="9.804225406444779"><ele>1213.9999999999998</ele><time>2026-05-02T14:26:44.998Z</time></trkpt><trkpt lat="46.13397145962627" lon="9.804314725902783"><ele>1214.0</ele><time>2026-05-02T14:26:45.998Z</time></trkpt><trkpt lat="46.134032704549774" lon="9.804433559571061"><ele>1214.0</ele><time>2026-05-02T14:26:47.997Z</time></trkpt><trkpt lat="46.13408710806832" lon="9.804485769582001"><ele>1214.0</ele><time>2026-05-02T14:26:48.997Z</time></trkpt><trkpt lat="46.13414657796763" lon="9.804531163230427"><ele>1214.0</ele><time>2026-05-02T14:26:49.997Z</time></trkpt><trkpt lat="46.134209210948605" lon="9.80456686073043"><ele>1213.9999999999998</ele><time>2026-05-02T14:26:54.997Z</time></trkpt><trkpt lat="46.134249125554874" lon="9.80465401753048"><ele>1214.0</ele><time>2026-05-02T14:27:41.999Z</time></trkpt><trkpt lat="46.13426934390071" lon="9.804758538661618"><ele>1205.0</ele><time>2026-05-02T14:28:09.998Z</time></trkpt><trkpt lat="46.13430950999242" lon="9.804911322907808"><ele>1196.0</ele><time>2026-05-02T14:28:11.998Z</time></trkpt><trkpt lat="46.134332521220614" lon="9.805001436250192"><ele>1187.0</ele><time>2026-05-02T14:28:12.998Z</time></trkpt><trkpt lat="46.134365468933666" lon="9.80510173661334"><ele>1178.0</ele><time>2026-05-02T14:28:13.998Z</time></trkpt><trkpt lat="46.13443255019952" lon="9.80519180507211"><ele>1169.0</ele><time>2026-05-02T14:28:14.998Z</time></trkpt><trkpt lat="46.13449239957627" lon="9.805298152530792"><ele>1160.0</ele><time>2026-05-02T14:28:15.998Z</time></trkpt><trkpt lat="46.13454693517172" lon="9.805428643017743"><ele>1156.8333333333335</ele><time>2026-05-02T14:28:16.998Z</time></trkpt><trkpt lat="46.13456535963533" lon="9.8055374137"><ele>1153.6666666666667</ele><time>2026-05-02T14:28:17.998Z</time></trkpt><trkpt lat="46.134555507674754" lon="9.805648941284703"><ele>1150.5</ele><time>2026-05-02T14:28:18.998Z</time></trkpt><trkpt lat="46.134521792605376" lon="9.80575500661317"><ele>1147.3333333333333</ele><time>2026-05-02T14:28:19.998Z</time></trkpt><trkpt lat="46.13449741233624" lon="9.805869978140723"><ele>1144.1666666666665</ele><time>2026-05-02T14:28:20.998Z</time></trkpt><trkpt lat="46.13445732846983" lon="9.80599187532205"><ele>1141.0</ele><time>2026-05-02T14:28:21.998Z</time></trkpt><trkpt lat="46.134401563656255" lon="9.806095839124815"><ele>1136.6666666666665</ele><time>2026-05-02T14:28:22.998Z</time></trkpt><trkpt lat="46.134344233950316" lon="9.806202375881139"><ele>1132.3333333333333</ele><time>2026-05-02T14:28:23.998Z</time></trkpt><trkpt lat="46.134305594127184" lon="9.806276731761322"><ele>1128.0</ele><time>2026-05-02T14:28:24.998Z</time></trkpt><trkpt lat="46.13433694995542" lon="9.806458711739149"><ele>1123.6666666666667</ele><time>2026-05-02T14:28:26.998Z</time></trkpt><trkpt lat="46.13437609051012" lon="9.806544008464378"><ele>1119.3333333333335</ele><time>2026-05-02T14:28:27.998Z</time></trkpt><trkpt lat="46.13434015028649" lon="9.806660085871636"><ele>1115.0</ele><time>2026-05-02T14:28:29.998Z</time></trkpt><trkpt lat="46.13427349285336" lon="9.806669850126353"><ele>1115.0</ele><time>2026-05-02T14:28:30.998Z</time></trkpt><trkpt lat="46.13420946654971" lon="9.806691332548217"><ele>1115.0</ele><time>2026-05-02T14:28:31.998Z</time></trkpt><trkpt lat="46.134077849403205" lon="9.80670648285973"><ele>1115.0</ele><time>2026-05-02T14:28:33.998Z</time></trkpt><trkpt lat="46.13400151605387" lon="9.806691345548208"><ele>1115.0</ele><time>2026-05-02T14:28:34.998Z</time></trkpt><trkpt lat="46.133918646752214" lon="9.806658087732224"><ele>1115.0</ele><time>2026-05-02T14:28:35.998Z</time></trkpt><trkpt lat="46.13385154596996" lon="9.806608428774352"><ele>1115.0</ele><time>2026-05-02T14:28:36.998Z</time></trkpt><trkpt lat="46.133777935467364" lon="9.80660924264312"><ele>1116.3333333333335</ele><time>2026-05-02T14:28:37.998Z</time></trkpt><trkpt lat="46.133698356597755" lon="9.806658110385134"><ele>1117.6666666666667</ele><time>2026-05-02T14:28:39.998Z</time></trkpt><trkpt lat="46.13373120409635" lon="9.806770202091613"><ele>1119.0</ele><time>2026-05-02T14:28:41.998Z</time></trkpt><trkpt lat="46.133817478799074" lon="9.806856274249238"><ele>1120.3333333333333</ele><time>2026-05-02T14:28:43.998Z</time></trkpt><trkpt lat="46.1338699927202" lon="9.806918799793188"><ele>1121.6666666666665</ele><time>2026-05-02T14:28:44.998Z</time></trkpt><trkpt lat="46.13395128570914" lon="9.80700186867104"><ele>1123.0</ele><time>2026-05-02T14:28:45.998Z</time></trkpt><trkpt lat="46.13404097521096" lon="9.807097544325401"><ele>1114.25</ele><time>2026-05-02T14:28:46.998Z</time></trkpt><trkpt lat="46.13413930887998" lon="9.807201605247368"><ele>1105.5</ele><time>2026-05-02T14:28:47.998Z</time></trkpt><trkpt lat="46.13426029565575" lon="9.807295279542911"><ele>1096.75</ele><time>2026-05-02T14:28:48.998Z</time></trkpt><trkpt lat="46.13436775358797" lon="9.807366644699771"><ele>1088.0</ele><time>2026-05-02T14:28:49.998Z</time></trkpt><trkpt lat="46.13443821433681" lon="9.807435266436112"><ele>1088.0</ele><time>2026-05-02T14:28:50.998Z</time></trkpt><trkpt lat="46.13454894132727" lon="9.807522204359008"><ele>1088.0</ele><time>2026-05-02T14:28:52.998Z</time></trkpt><trkpt lat="46.134621039480564" lon="9.807575288941313"><ele>1088.0</ele><time>2026-05-02T14:28:53.998Z</time></trkpt><trkpt lat="46.13470511280792" lon="9.807597031066376"><ele>1088.0</ele><time>2026-05-02T14:28:54.998Z</time></trkpt><trkpt lat="46.13479852550565" lon="9.807568917700234"><ele>1088.0</ele><time>2026-05-02T14:28:55.998Z</time></trkpt><trkpt lat="46.13489741088104" lon="9.807530557271136"><ele>1085.2</ele><time>2026-05-02T14:28:56.998Z</time></trkpt><trkpt lat="46.13498880111168" lon="9.80747814958656"><ele>1082.4</ele><time>2026-05-02T14:28:57.998Z</time></trkpt><trkpt lat="46.135094699886764" lon="9.807421596700088"><ele>1079.6000000000001</ele><time>2026-05-02T14:28:58.998Z</time></trkpt><trkpt lat="46.13519737120754" lon="9.807353085201616"><ele>1076.8</ele><time>2026-05-02T14:28:59.998Z</time></trkpt><trkpt lat="46.135302770415294" lon="9.807255857126508"><ele>1074.0</ele><time>2026-05-02T14:29:00.997Z</time></trkpt><trkpt lat="46.13539317810342" lon="9.807162843466715"><ele>1074.0</ele><time>2026-05-02T14:29:01.997Z</time></trkpt><trkpt lat="46.13543630818137" lon="9.80706478806254"><ele>1074.0</ele><time>2026-05-02T14:29:02.997Z</time></trkpt><trkpt lat="46.13548254414841" lon="9.806919673315907"><ele>1074.0</ele><time>2026-05-02T14:29:03.997Z</time></trkpt><trkpt lat="46.13554380484132" lon="9.806767359894614"><ele>1074.0</ele><time>2026-05-02T14:29:04.997Z</time></trkpt><trkpt lat="46.13557670566257" lon="9.806612125285255"><ele>1074.0</ele><time>2026-05-02T14:29:05.997Z</time></trkpt><trkpt lat="46.13562136706037" lon="9.806438169903481"><ele>1070.25</ele><time>2026-05-02T14:29:06.997Z</time></trkpt><trkpt lat="46.135647124459815" lon="9.806270385931956"><ele>1066.5</ele><time>2026-05-02T14:29:07.997Z</time></trkpt><trkpt lat="46.135695932022564" lon="9.806110311472121"><ele>1062.75</ele><time>2026-05-02T14:29:08.997Z</time></trkpt><trkpt lat="46.13572593282359" lon="9.805946327388039"><ele>1059.0</ele><time>2026-05-02T14:29:09.997Z</time></trkpt><trkpt lat="46.13576684613497" lon="9.805774922145659"><ele>1059.0</ele><time>2026-05-02T14:29:10.997Z</time></trkpt><trkpt lat="46.13580572046543" lon="9.805629087621185"><ele>1059.0</ele><time>2026-05-02T14:29:11.997Z</time></trkpt><trkpt lat="46.13584156481855" lon="9.805497336494371"><ele>1059.0</ele><time>2026-05-02T14:29:12.997Z</time></trkpt><trkpt lat="46.135862310041006" lon="9.805390727183767"><ele>1059.0</ele><time>2026-05-02T14:29:13.997Z</time></trkpt><trkpt lat="46.135916811794054" lon="9.805245097346967"><ele>1059.0</ele><time>2026-05-02T14:29:15.997Z</time></trkpt><trkpt lat="46.135974974129084" lon="9.805282137331274"><ele>1059.0</ele><time>2026-05-02T14:29:17.997Z</time></trkpt><trkpt lat="46.13594985712314" lon="9.805432825358945"><ele>1059.0</ele><time>2026-05-02T14:29:19.997Z</time></trkpt><trkpt lat="46.135940280705086" lon="9.80568250628128"><ele>1059.0</ele><time>2026-05-02T14:29:21.997Z</time></trkpt><trkpt lat="46.13593556775519" lon="9.805825639270061"><ele>1059.0</ele><time>2026-05-02T14:29:22.997Z</time></trkpt><trkpt lat="46.135959532070515" lon="9.805961933505763"><ele>1057.2</ele><time>2026-05-02T14:29:23.997Z</time></trkpt><trkpt lat="46.136024930410976" lon="9.806088654510148"><ele>1055.4</ele><time>2026-05-02T14:29:24.997Z</time></trkpt><trkpt lat="46.1360659301119" lon="9.806225765572442"><ele>1053.6</ele><time>2026-05-02T14:29:25.997Z</time></trkpt><trkpt lat="46.136112173308874" lon="9.806364444751683"><ele>1051.8</ele><time>2026-05-02T14:29:26.997Z</time></trkpt><trkpt lat="46.13615238801716" lon="9.806475651968489"><ele>1050.0</ele><time>2026-05-02T14:29:27.997Z</time></trkpt><trkpt lat="46.13616422909583" lon="9.806572948358854"><ele>1050.0</ele><time>2026-05-02T14:29:28.997Z</time></trkpt><trkpt lat="46.13616022095942" lon="9.80671004094735"><ele>1050.0</ele><time>2026-05-02T14:29:29.997Z</time></trkpt><trkpt lat="46.13612765955312" lon="9.806868847850192"><ele>1050.0</ele><time>2026-05-02T14:29:30.997Z</time></trkpt><trkpt lat="46.13609824478971" lon="9.806966141743425"><ele>1050.0</ele><time>2026-05-02T14:29:31.997Z</time></trkpt><trkpt lat="46.13604872811046" lon="9.807068885893834"><ele>1050.0</ele><time>2026-05-02T14:29:32.997Z</time></trkpt><trkpt lat="46.136020334803746" lon="9.80717887083134"><ele>1047.4</ele><time>2026-05-02T14:29:33.997Z</time></trkpt><trkpt lat="46.136018763299745" lon="9.807311971981283"><ele>1044.8</ele><time>2026-05-02T14:29:34.997Z</time></trkpt><trkpt lat="46.13603610432915" lon="9.80743644496165"><ele>1042.2</ele><time>2026-05-02T14:29:35.997Z</time></trkpt><trkpt lat="46.1360451607066" lon="9.807624483473257"><ele>1039.6</ele><time>2026-05-02T14:29:36.997Z</time></trkpt><trkpt lat="46.13604530519292" lon="9.80776310881844"><ele>1037.0</ele><time>2026-05-02T14:29:37.997Z</time></trkpt><trkpt lat="46.136050741767676" lon="9.807883225039802"><ele>1037.0</ele><time>2026-05-02T14:29:38.999Z</time></trkpt><trkpt lat="46.13609016569602" lon="9.807997334476495"><ele>1037.0</ele><time>2026-05-02T14:29:40.999Z</time></trkpt><trkpt lat="46.13616903895873" lon="9.807916354187556"><ele>1037.0</ele><time>2026-05-02T14:29:42.998Z</time></trkpt><trkpt lat="46.13617854251922" lon="9.807806140806866"><ele>1037.0</ele><time>2026-05-02T14:29:43.998Z</time></trkpt><trkpt lat="46.13619837462965" lon="9.807659807741786"><ele>1037.0</ele><time>2026-05-02T14:29:44.998Z</time></trkpt><trkpt lat="46.136219965872385" lon="9.807516176838865"><ele>1037.0</ele><time>2026-05-02T14:29:45.999Z</time></trkpt><trkpt lat="46.1362215214716" lon="9.807367822400732"><ele>1037.0</ele><time>2026-05-02T14:29:46.999Z</time></trkpt><trkpt lat="46.1362253758099" lon="9.807241590618002"><ele>1037.0</ele><time>2026-05-02T14:29:47.998Z</time></trkpt><trkpt lat="46.13624969030971" lon="9.807136659745485"><ele>1037.0</ele><time>2026-05-02T14:29:48.998Z</time></trkpt><trkpt lat="46.136323646285554" lon="9.807052514983543"><ele>1037.0</ele><time>2026-05-02T14:29:49.998Z</time></trkpt><trkpt lat="46.13638313013078" lon="9.806957180893276"><ele>1037.0</ele><time>2026-05-02T14:29:50.999Z</time></trkpt><trkpt lat="46.13644833420074" lon="9.806845595003505"><ele>1037.0</ele><time>2026-05-02T14:29:51.999Z</time></trkpt><trkpt lat="46.136503512146135" lon="9.806721654411405"><ele>1037.0</ele><time>2026-05-02T14:29:52.999Z</time></trkpt><trkpt lat="46.13656339655567" lon="9.806582820017672"><ele>1037.0</ele><time>2026-05-02T14:29:53.999Z</time></trkpt><trkpt lat="46.13659381331992" lon="9.806442523251883"><ele>1037.0</ele><time>2026-05-02T14:29:54.999Z</time></trkpt><trkpt lat="46.13661196551987" lon="9.806299911981556"><ele>1040.6666666666667</ele><time>2026-05-02T14:29:55.999Z</time></trkpt><trkpt lat="46.13662650586752" lon="9.806180749669267"><ele>1044.3333333333335</ele><time>2026-05-02T14:29:56.999Z</time></trkpt><trkpt lat="46.13664661784468" lon="9.806084399973203"><ele>1048.0</ele><time>2026-05-02T14:29:57.999Z</time></trkpt><trkpt lat="46.13663555312839" lon="9.805959053463242"><ele>1051.6666666666667</ele><time>2026-05-02T14:29:58.999Z</time></trkpt><trkpt lat="46.13659114572445" lon="9.805831513609553"><ele>1055.3333333333333</ele><time>2026-05-02T14:29:59.999Z</time></trkpt><trkpt lat="46.136550204795526" lon="9.80569670896963"><ele>1059.0</ele><time>2026-05-02T14:30:00.999Z</time></trkpt><trkpt lat="46.13655893711638" lon="9.805568050987777"><ele>1045.25</ele><time>2026-05-02T14:30:01.999Z</time></trkpt><trkpt lat="46.13658773611114" lon="9.80540081633013"><ele>1031.5</ele><time>2026-05-02T14:30:02.998Z</time></trkpt><trkpt lat="46.136605859601154" lon="9.805232959829883"><ele>1017.75</ele><time>2026-05-02T14:30:03.998Z</time></trkpt><trkpt lat="46.136669301279845" lon="9.805080137713885"><ele>1004.0</ele><time>2026-05-02T14:30:04.998Z</time></trkpt><trkpt lat="46.1367502119365" lon="9.804926792167558"><ele>1004.0</ele><time>2026-05-02T14:30:05.998Z</time></trkpt><trkpt lat="46.13681584734536" lon="9.804752451580192"><ele>1004.0</ele><time>2026-05-02T14:30:06.998Z</time></trkpt><trkpt lat="46.13686355468273" lon="9.804567009873189"><ele>1004.0</ele><time>2026-05-02T14:30:07.998Z</time></trkpt><trkpt lat="46.13690688899532" lon="9.80440550007535"><ele>1004.0</ele><time>2026-05-02T14:30:08.998Z</time></trkpt><trkpt lat="46.13696314718864" lon="9.804268924636927"><ele>1003.8333333333334</ele><time>2026-05-02T14:30:09.998Z</time></trkpt><trkpt lat="46.13699960817245" lon="9.804129829358537"><ele>1003.6666666666667</ele><time>2026-05-02T14:30:10.998Z</time></trkpt><trkpt lat="46.13700899334964" lon="9.804027788500369"><ele>1003.5</ele><time>2026-05-02T14:30:11.998Z</time></trkpt><trkpt lat="46.13701864187239" lon="9.80391706167208"><ele>1003.3333333333333</ele><time>2026-05-02T14:30:12.998Z</time></trkpt><trkpt lat="46.13702853588084" lon="9.80380606765873"><ele>1003.1666666666666</ele><time>2026-05-02T14:30:13.998Z</time></trkpt><trkpt lat="46.13709782256554" lon="9.803732731296039"><ele>1003.0</ele><time>2026-05-02T14:30:15.998Z</time></trkpt><trkpt lat="46.13714119948526" lon="9.803811640024934"><ele>1003.0</ele><time>2026-05-02T14:30:16.998Z</time></trkpt><trkpt lat="46.137151669073795" lon="9.803953772422677"><ele>1003.0</ele><time>2026-05-02T14:30:18.998Z</time></trkpt><trkpt lat="46.137169613268604" lon="9.804062747487547"><ele>1003.0</ele><time>2026-05-02T14:30:19.998Z</time></trkpt><trkpt lat="46.13720236219101" lon="9.804198476942764"><ele>1003.0</ele><time>2026-05-02T14:30:20.998Z</time></trkpt><trkpt lat="46.137211074130086" lon="9.804379376900973"><ele>1003.0</ele><time>2026-05-02T14:30:21.998Z</time></trkpt><trkpt lat="46.13721724663833" lon="9.804543311861035"><ele>1003.2</ele><time>2026-05-02T14:30:22.998Z</time></trkpt><trkpt lat="46.13721926851737" lon="9.804686161859552"><ele>1003.4</ele><time>2026-05-02T14:30:23.998Z</time></trkpt><trkpt lat="46.137202084136725" lon="9.80483461282799"><ele>1003.6000000000001</ele><time>2026-05-02T14:30:24.998Z</time></trkpt><trkpt lat="46.13718864463903" lon="9.804972524959204"><ele>1003.8000000000001</ele><time>2026-05-02T14:30:25.998Z</time></trkpt><trkpt lat="46.137171395754116" lon="9.805100905545133"><ele>1004.0</ele><time>2026-05-02T14:30:26.998Z</time></trkpt><trkpt lat="46.137168778581554" lon="9.805253981310988"><ele>1004.0</ele><time>2026-05-02T14:30:27.998Z</time></trkpt><trkpt lat="46.13717833403504" lon="9.805382826704392"><ele>1004.0000000000001</ele><time>2026-05-02T14:30:28.998Z</time></trkpt><trkpt lat="46.13717280348895" lon="9.805518133269961"><ele>1004.0000000000001</ele><time>2026-05-02T14:30:29.998Z</time></trkpt><trkpt lat="46.137195462718836" lon="9.805672546270142"><ele>1004.0</ele><time>2026-05-02T14:30:30.998Z</time></trkpt><trkpt lat="46.13722811497649" lon="9.805821289382836"><ele>1004.0</ele><time>2026-05-02T14:30:31.998Z</time></trkpt><trkpt lat="46.13727746136687" lon="9.805911536929889"><ele>1003.0</ele><time>2026-05-02T14:30:32.998Z</time></trkpt><trkpt lat="46.137318022662626" lon="9.806081238920333"><ele>1002.0</ele><time>2026-05-02T14:30:33.998Z</time></trkpt><trkpt lat="46.137344234479" lon="9.80624400031605"><ele>1001.0</ele><time>2026-05-02T14:30:34.998Z</time></trkpt><trkpt lat="46.13735584588345" lon="9.806412688648736"><ele>1000.0</ele><time>2026-05-02T14:30:35.998Z</time></trkpt><trkpt lat="46.13740129638707" lon="9.80660494032538"><ele>987.8</ele><time>2026-05-02T14:30:36.998Z</time></trkpt><trkpt lat="46.1374564744205" lon="9.80677279967895"><ele>975.6</ele><time>2026-05-02T14:30:37.998Z</time></trkpt><trkpt lat="46.13749242960037" lon="9.806930419047541"><ele>963.4000000000001</ele><time>2026-05-02T14:30:38.998Z</time></trkpt><trkpt lat="46.137527941725224" lon="9.807051446320301"><ele>951.2</ele><time>2026-05-02T14:30:39.998Z</time></trkpt><trkpt lat="46.137589755625775" lon="9.807151074303034"><ele>939.0</ele><time>2026-05-02T14:30:40.998Z</time></trkpt><trkpt lat="46.137669936419584" lon="9.807289906045208"><ele>938.1666666666666</ele><time>2026-05-02T14:30:42.998Z</time></trkpt><trkpt lat="46.137688167067694" lon="9.807379003149954"><ele>937.3333333333333</ele><time>2026-05-02T14:30:43.998Z</time></trkpt><trkpt lat="46.13770958513734" lon="9.807471838531782"><ele>936.5</ele><time>2026-05-02T14:30:44.998Z</time></trkpt><trkpt lat="46.137771411486646" lon="9.807585075573485"><ele>935.6666666666666</ele><time>2026-05-02T14:30:45.998Z</time></trkpt><trkpt lat="46.137800421974184" lon="9.807700834243212"><ele>934.8333333333333</ele><time>2026-05-02T14:30:46.998Z</time></trkpt><trkpt lat="46.13780230792761" lon="9.807815896518878"><ele>934.0</ele><time>2026-05-02T14:30:47.998Z</time></trkpt><trkpt lat="46.13778549830927" lon="9.80799801480226"><ele>932.1666666666666</ele><time>2026-05-02T14:30:49.998Z</time></trkpt><trkpt lat="46.13777795854474" lon="9.808090796415616"><ele>930.3333333333333</ele><time>2026-05-02T14:30:51.998Z</time></trkpt><trkpt lat="46.13783729673918" lon="9.808186597414455"><ele>928.5</ele><time>2026-05-02T14:30:54.998Z</time></trkpt><trkpt lat="46.137839349575074" lon="9.808307404367962"><ele>926.6666666666667</ele><time>2026-05-02T14:30:57.998Z</time></trkpt><trkpt lat="46.137882019337084" lon="9.80839719999622"><ele>924.8333333333334</ele><time>2026-05-02T14:30:59.998Z</time></trkpt><trkpt lat="46.13792710350153" lon="9.808538514514499"><ele>923.0</ele><time>2026-05-02T14:31:01.998Z</time></trkpt><trkpt lat="46.137988990189044" lon="9.808615267224576"><ele>921.3333333333334</ele><time>2026-05-02T14:31:03.998Z</time></trkpt><trkpt lat="46.13807367402948" lon="9.80855510610237"><ele>919.6666666666667</ele><time>2026-05-02T14:31:06.998Z</time></trkpt><trkpt lat="46.13813130065778" lon="9.80851196291042"><ele>918.0</ele><time>2026-05-02T14:31:07.998Z</time></trkpt><trkpt lat="46.13822611852551" lon="9.808492412575367"><ele>916.3333333333333</ele><time>2026-05-02T14:31:08.998Z</time></trkpt><trkpt lat="46.13828870498537" lon="9.808460633112945"><ele>914.6666666666666</ele><time>2026-05-02T14:31:09.998Z</time></trkpt><trkpt lat="46.138342768875894" lon="9.808536167600982"><ele>913.0</ele><time>2026-05-02T14:31:11.998Z</time></trkpt><trkpt lat="46.13833266693342" lon="9.808640115400152"><ele>906.2</ele><time>2026-05-02T14:31:12.998Z</time></trkpt><trkpt lat="46.138316273996445" lon="9.808734733431544"><ele>899.4</ele><time>2026-05-02T14:31:13.998Z</time></trkpt><trkpt lat="46.13837998793261" lon="9.808745073356073"><ele>892.6000000000001</ele><time>2026-05-02T14:31:16.998Z</time></trkpt><trkpt lat="46.1384547169267" lon="9.808586973860873"><ele>885.8000000000001</ele><time>2026-05-02T14:31:18.998Z</time></trkpt><trkpt lat="46.138511520294635" lon="9.808459109754766"><ele>879.0</ele><time>2026-05-02T14:31:19.998Z</time></trkpt><trkpt lat="46.138572021822455" lon="9.80830324027028"><ele>879.0</ele><time>2026-05-02T14:31:20.998Z</time></trkpt><trkpt lat="46.1386141847498" lon="9.808116686252692"><ele>879.0000000000001</ele><time>2026-05-02T14:31:21.998Z</time></trkpt><trkpt lat="46.138647907160816" lon="9.807960142566513"><ele>879.0000000000001</ele><time>2026-05-02T14:31:22.998Z</time></trkpt><trkpt lat="46.13867907753778" lon="9.807830553055672"><ele>879.0</ele><time>2026-05-02T14:31:23.998Z</time></trkpt><trkpt lat="46.13870353620401" lon="9.807732755913607"><ele>879.0</ele><time>2026-05-02T14:31:24.998Z</time></trkpt><trkpt lat="46.138715341465456" lon="9.807632228624806"><ele>879.0</ele><time>2026-05-02T14:31:26.998Z</time></trkpt><trkpt lat="46.13879307331918" lon="9.807704709562877"><ele>879.0000000000001</ele><time>2026-05-02T14:31:28.998Z</time></trkpt><trkpt lat="46.13876845228536" lon="9.807872556626148"><ele>879.0000000000001</ele><time>2026-05-02T14:31:30.998Z</time></trkpt><trkpt lat="46.138732203445855" lon="9.808002326369984"><ele>879.0</ele><time>2026-05-02T14:31:31.998Z</time></trkpt><trkpt lat="46.138724690033854" lon="9.808198609100032"><ele>879.0</ele><time>2026-05-02T14:31:32.998Z</time></trkpt><trkpt lat="46.13872357979994" lon="9.808351046974314"><ele>877.8333333333334</ele><time>2026-05-02T14:31:33.998Z</time></trkpt><trkpt lat="46.13873182838974" lon="9.808493195513707"><ele>876.6666666666667</ele><time>2026-05-02T14:31:34.998Z</time></trkpt><trkpt lat="46.13876185340711" lon="9.808633030030874"><ele>875.5</ele><time>2026-05-02T14:31:35.998Z</time></trkpt><trkpt lat="46.13875318956633" lon="9.808735399226256"><ele>874.3333333333334</ele><time>2026-05-02T14:31:36.998Z</time></trkpt><trkpt lat="46.138728134514245" lon="9.808850050756933"><ele>873.1666666666667</ele><time>2026-05-02T14:31:37.998Z</time></trkpt><trkpt lat="46.1387052948731" lon="9.808936359186793"><ele>872.0</ele><time>2026-05-02T14:31:38.998Z</time></trkpt><trkpt lat="46.13877670277772" lon="9.809015132557338"><ele>872.0</ele><time>2026-05-02T14:31:40.998Z</time></trkpt><trkpt lat="46.138815409358266" lon="9.808900144416404"><ele>872.0</ele><time>2026-05-02T14:31:42.998Z</time></trkpt><trkpt lat="46.13887148613598" lon="9.80878901580057"><ele>872.0</ele><time>2026-05-02T14:31:43.999Z</time></trkpt><trkpt lat="46.138924692776165" lon="9.808653849412321"><ele>872.0</ele><time>2026-05-02T14:31:44.998Z</time></trkpt><trkpt lat="46.13897645436179" lon="9.808487592346664"><ele>872.0</ele><time>2026-05-02T14:31:45.998Z</time></trkpt><trkpt lat="46.13903810419047" lon="9.808338181565423"><ele>866.0</ele><time>2026-05-02T14:31:46.999Z</time></trkpt><trkpt lat="46.13909863069408" lon="9.808231188388568"><ele>860.0</ele><time>2026-05-02T14:31:47.999Z</time></trkpt><trkpt lat="46.1391437112947" lon="9.808159843459519"><ele>854.0</ele><time>2026-05-02T14:31:48.999Z</time></trkpt><trkpt lat="46.139142008837794" lon="9.807993601389102"><ele>848.0</ele><time>2026-05-02T14:31:50.999Z</time></trkpt><trkpt lat="46.13912015422348" lon="9.807895999397624"><ele>842.0</ele><time>2026-05-02T14:31:51.999Z</time></trkpt><trkpt lat="46.13922505202579" lon="9.807905468487984"><ele>842.0</ele><time>2026-05-02T14:31:54.998Z</time></trkpt><trkpt lat="46.13933027463212" lon="9.807947819645909"><ele>842.0</ele><time>2026-05-02T14:31:56.998Z</time></trkpt><trkpt lat="46.139496697945184" lon="9.80786733310415"><ele>842.0</ele><time>2026-05-02T14:31:58.998Z</time></trkpt><trkpt lat="46.13958890909765" lon="9.807833783217115"><ele>842.0</ele><time>2026-05-02T14:31:59.998Z</time></trkpt><trkpt lat="46.13966651300396" lon="9.807807316947317"><ele>842.0</ele><time>2026-05-02T14:32:00.998Z</time></trkpt><trkpt lat="46.13973497598098" lon="9.807810175925997"><ele>842.0</ele><time>2026-05-02T14:32:01.998Z</time></trkpt><trkpt lat="46.13980556579121" lon="9.807830905468524"><ele>842.0</ele><time>2026-05-02T14:32:02.998Z</time></trkpt><trkpt lat="46.13993817323844" lon="9.807884863182492"><ele>842.0</ele><time>2026-05-02T14:32:04.998Z</time></trkpt><trkpt lat="46.14000964998832" lon="9.808008982337842"><ele>842.0</ele><time>2026-05-02T14:32:06.998Z</time></trkpt><trkpt lat="46.140052686991574" lon="9.808075573915907"><ele>837.6</ele><time>2026-05-02T14:32:08.998Z</time></trkpt><trkpt lat="46.1400810700471" lon="9.807991744971835"><ele>833.2</ele><time>2026-05-02T14:32:10.998Z</time></trkpt><trkpt lat="46.140093442978014" lon="9.807802022234112"><ele>828.8</ele><time>2026-05-02T14:32:12.998Z</time></trkpt><trkpt lat="46.14015191651552" lon="9.807650672360825"><ele>824.4</ele><time>2026-05-02T14:32:13.998Z</time></trkpt><trkpt lat="46.140173524730265" lon="9.807526430853997"><ele>820.0</ele><time>2026-05-02T14:32:14.998Z</time></trkpt><trkpt lat="46.14017233839778" lon="9.807411992682185"><ele>818.8333333333333</ele><time>2026-05-02T14:32:15.998Z</time></trkpt><trkpt lat="46.14014732981965" lon="9.80731016807824"><ele>817.6666666666666</ele><time>2026-05-02T14:32:16.998Z</time></trkpt><trkpt lat="46.140122202401066" lon="9.807215327476603"><ele>816.5</ele><time>2026-05-02T14:32:17.998Z</time></trkpt><trkpt lat="46.14009192082367" lon="9.807131195280872"><ele>815.3333333333333</ele><time>2026-05-02T14:32:18.998Z</time></trkpt><trkpt lat="46.14010857521185" lon="9.807013905300199"><ele>814.1666666666666</ele><time>2026-05-02T14:32:20.998Z</time></trkpt><trkpt lat="46.14018068944264" lon="9.806997387903271"><ele>813.0</ele><time>2026-05-02T14:32:21.998Z</time></trkpt><trkpt lat="46.14025779954539" lon="9.807102484109503"><ele>813.0</ele><time>2026-05-02T14:32:23.998Z</time></trkpt><trkpt lat="46.140294629898364" lon="9.807216342302375"><ele>813.0</ele><time>2026-05-02T14:32:24.998Z</time></trkpt><trkpt lat="46.14036472875879" lon="9.80737254134452"><ele>813.0</ele><time>2026-05-02T14:32:25.998Z</time></trkpt><trkpt lat="46.140443131953006" lon="9.80754883304099"><ele>813.0</ele><time>2026-05-02T14:32:26.998Z</time></trkpt><trkpt lat="46.140505862149325" lon="9.80772566209469"><ele>814.75</ele><time>2026-05-02T14:32:27.998Z</time></trkpt><trkpt lat="46.14055346968611" lon="9.807883356539515"><ele>816.5</ele><time>2026-05-02T14:32:28.998Z</time></trkpt><trkpt lat="46.140602159275076" lon="9.808031952697336"><ele>818.25</ele><time>2026-05-02T14:32:29.998Z</time></trkpt><trkpt lat="46.14059146967602" lon="9.80821042845093"><ele>820.0</ele><time>2026-05-02T14:32:31.998Z</time></trkpt><trkpt lat="46.14064137930717" lon="9.808096561496322"><ele>820.0</ele><time>2026-05-02T14:32:35.998Z</time></trkpt><trkpt lat="46.1406432152016" lon="9.807968725481842"><ele>820.0</ele><time>2026-05-02T14:32:36.997Z</time></trkpt><trkpt lat="46.1406382208046" lon="9.807795040050522"><ele>820.0</ele><time>2026-05-02T14:32:37.997Z</time></trkpt><trkpt lat="46.14065072696514" lon="9.807611346940174"><ele>820.0</ele><time>2026-05-02T14:32:38.997Z</time></trkpt><trkpt lat="46.140665821941624" lon="9.807423765868043"><ele>818.6</ele><time>2026-05-02T14:32:39.997Z</time></trkpt><trkpt lat="46.14066670057344" lon="9.807250944691594"><ele>817.2</ele><time>2026-05-02T14:32:40.997Z</time></trkpt><trkpt lat="46.1406749215892" lon="9.807103368420135"><ele>815.8</ele><time>2026-05-02T14:32:41.997Z</time></trkpt><trkpt lat="46.14068647595075" lon="9.806956338728215"><ele>814.4</ele><time>2026-05-02T14:32:42.997Z</time></trkpt><trkpt lat="46.14067191476394" lon="9.80684888860091"><ele>813.0</ele><time>2026-05-02T14:32:43.997Z</time></trkpt><trkpt lat="46.14064597161182" lon="9.80676533212375"><ele>811.5</ele><time>2026-05-02T14:32:44.997Z</time></trkpt><trkpt lat="46.14061246647932" lon="9.806687785998127"><ele>810.0</ele><time>2026-05-02T14:32:45.997Z</time></trkpt><trkpt lat="46.14058503483985" lon="9.806602130285162"><ele>808.5</ele><time>2026-05-02T14:32:46.997Z</time></trkpt><trkpt lat="46.14061515727438" lon="9.806497540909756"><ele>807.0</ele><time>2026-05-02T14:32:47.997Z</time></trkpt><trkpt lat="46.140674163249045" lon="9.80639115858391"><ele>805.5</ele><time>2026-05-02T14:32:48.997Z</time></trkpt><trkpt lat="46.14074978440397" lon="9.806325625347197"><ele>804.0</ele><time>2026-05-02T14:32:49.997Z</time></trkpt><trkpt lat="46.14078560269654" lon="9.806224659557934"><ele>797.8000000000001</ele><time>2026-05-02T14:32:50.997Z</time></trkpt><trkpt lat="46.14082097402416" lon="9.806096209741748"><ele>791.6</ele><time>2026-05-02T14:32:51.997Z</time></trkpt><trkpt lat="46.14084155330978" lon="9.805995509603152"><ele>785.4</ele><time>2026-05-02T14:32:52.997Z</time></trkpt><trkpt lat="46.14084991984247" lon="9.80585885359734"><ele>779.2</ele><time>2026-05-02T14:32:53.997Z</time></trkpt><trkpt lat="46.140851306644976" lon="9.805719265295172"><ele>773.0</ele><time>2026-05-02T14:32:54.997Z</time></trkpt><trkpt lat="46.14086114335248" lon="9.805579789961842"><ele>772.5</ele><time>2026-05-02T14:32:55.997Z</time></trkpt><trkpt lat="46.14087282418994" lon="9.805419343679539"><ele>772.0</ele><time>2026-05-02T14:32:56.997Z</time></trkpt><trkpt lat="46.14087435280924" lon="9.805226272777082"><ele>771.5</ele><time>2026-05-02T14:32:57.997Z</time></trkpt><trkpt lat="46.14090924390186" lon="9.805031220698146"><ele>771.0</ele><time>2026-05-02T14:32:58.997Z</time></trkpt><trkpt lat="46.14099572112611" lon="9.804823663754568"><ele>770.0</ele><time>2026-05-02T14:32:59.997Z</time></trkpt><trkpt lat="46.14102604698637" lon="9.804642581241485"><ele>769.0</ele><time>2026-05-02T14:33:00.997Z</time></trkpt><trkpt lat="46.141045690313994" lon="9.80445355004441"><ele>768.0</ele><time>2026-05-02T14:33:01.997Z</time></trkpt><trkpt lat="46.14107902607839" lon="9.8043032540207"><ele>767.0</ele><time>2026-05-02T14:33:02.997Z</time></trkpt><trkpt lat="46.14110084948556" lon="9.804173726307786"><ele>766.8</ele><time>2026-05-02T14:33:03.997Z</time></trkpt><trkpt lat="46.141129611083564" lon="9.804075767451113"><ele>766.6</ele><time>2026-05-02T14:33:04.997Z</time></trkpt><trkpt lat="46.141119356182934" lon="9.8038877744874"><ele>766.4</ele><time>2026-05-02T14:33:06.997Z</time></trkpt><trkpt lat="46.1411109518166" lon="9.80370864480468"><ele>766.1999999999999</ele><time>2026-05-02T14:33:07.997Z</time></trkpt><trkpt lat="46.14114259957781" lon="9.803602579081545"><ele>766.0</ele><time>2026-05-02T14:33:08.997Z</time></trkpt><trkpt lat="46.141201180096246" lon="9.803530240483276"><ele>766.1666666666667</ele><time>2026-05-02T14:33:09.997Z</time></trkpt><trkpt lat="46.14122583690354" lon="9.803393776432385"><ele>766.3333333333334</ele><time>2026-05-02T14:33:11.997Z</time></trkpt><trkpt lat="46.14118266604979" lon="9.803278736363556"><ele>766.5</ele><time>2026-05-02T14:33:12.997Z</time></trkpt><trkpt lat="46.14114310845103" lon="9.803171448370405"><ele>766.6666666666666</ele><time>2026-05-02T14:33:13.997Z</time></trkpt><trkpt lat="46.14115927552956" lon="9.803072601867271"><ele>766.8333333333333</ele><time>2026-05-02T14:33:14.997Z</time></trkpt><trkpt lat="46.141235571790716" lon="9.802981946058253"><ele>767.0</ele><time>2026-05-02T14:33:15.997Z</time></trkpt><trkpt lat="46.14131988717806" lon="9.802907179286622"><ele>767.0</ele><time>2026-05-02T14:33:16.997Z</time></trkpt><trkpt lat="46.141379840883914" lon="9.802835608562495"><ele>767.0</ele><time>2026-05-02T14:33:17.997Z</time></trkpt><trkpt lat="46.14143277969131" lon="9.802721488870368"><ele>767.0</ele><time>2026-05-02T14:33:18.997Z</time></trkpt><trkpt lat="46.14144535729516" lon="9.80258155451274"><ele>767.0</ele><time>2026-05-02T14:33:19.997Z</time></trkpt><trkpt lat="46.14145188138117" lon="9.80245977293037"><ele>767.0</ele><time>2026-05-02T14:33:20.997Z</time></trkpt><trkpt lat="46.141385674946804" lon="9.802362345461137"><ele>764.25</ele><time>2026-05-02T14:33:21.997Z</time></trkpt><trkpt lat="46.14131245820253" lon="9.802285936905696"><ele>761.5</ele><time>2026-05-02T14:33:22.997Z</time></trkpt><trkpt lat="46.14119194642402" lon="9.802156368293469"><ele>758.75</ele><time>2026-05-02T14:33:23.997Z</time></trkpt><trkpt lat="46.14107002028309" lon="9.80201066854957"><ele>756.0</ele><time>2026-05-02T14:33:24.997Z</time></trkpt><trkpt lat="46.14099748929249" lon="9.801836755442555"><ele>751.8</ele><time>2026-05-02T14:33:25.997Z</time></trkpt><trkpt lat="46.140938426340085" lon="9.8016920459125"><ele>747.5999999999999</ele><time>2026-05-02T14:33:26.997Z</time></trkpt><trkpt lat="46.14086632431619" lon="9.801570700986863"><ele>743.4</ele><time>2026-05-02T14:33:27.997Z</time></trkpt><trkpt lat="46.140790859388986" lon="9.801477558405827"><ele>739.2</ele><time>2026-05-02T14:33:28.997Z</time></trkpt><trkpt lat="46.140747351236804" lon="9.80137994227731"><ele>735.0</ele><time>2026-05-02T14:33:29.997Z</time></trkpt><trkpt lat="46.140720055399115" lon="9.801225473749364"><ele>735.0</ele><time>2026-05-02T14:33:31.997Z</time></trkpt><trkpt lat="46.140833556762324" lon="9.801196740218161"><ele>735.0</ele><time>2026-05-02T14:33:33.997Z</time></trkpt><trkpt lat="46.14094069046144" lon="9.801173550636014"><ele>735.0</ele><time>2026-05-02T14:33:34.997Z</time></trkpt><trkpt lat="46.14106901434674" lon="9.801149301191328"><ele>735.0</ele><time>2026-05-02T14:33:35.997Z</time></trkpt><trkpt lat="46.14121149740373" lon="9.801150666663842"><ele>735.0</ele><time>2026-05-02T14:33:36.997Z</time></trkpt><trkpt lat="46.1413341024029" lon="9.801123648258164"><ele>735.0</ele><time>2026-05-02T14:33:37.997Z</time></trkpt><trkpt lat="46.14145716495044" lon="9.801043776417904"><ele>735.0</ele><time>2026-05-02T14:33:38.997Z</time></trkpt><trkpt lat="46.14159379394714" lon="9.800957005943673"><ele>735.0</ele><time>2026-05-02T14:33:39.997Z</time></trkpt><trkpt lat="46.14171402557046" lon="9.800874880846468"><ele>732.4</ele><time>2026-05-02T14:33:40.997Z</time></trkpt><trkpt lat="46.141834018340276" lon="9.80082265102506"><ele>729.8</ele><time>2026-05-02T14:33:41.997Z</time></trkpt><trkpt lat="46.141934785265164" lon="9.800800768916222"><ele>727.2</ele><time>2026-05-02T14:33:42.997Z</time></trkpt><trkpt lat="46.14201649717421" lon="9.800850691913483"><ele>724.6</ele><time>2026-05-02T14:33:43.997Z</time></trkpt><trkpt lat="46.14211260939099" lon="9.80089149743751"><ele>722.0</ele><time>2026-05-02T14:33:44.997Z</time></trkpt><trkpt lat="46.14219866129934" lon="9.800905548877456"><ele>722.0</ele><time>2026-05-02T14:33:45.997Z</time></trkpt><trkpt lat="46.14228189772421" lon="9.800874017531076"><ele>722.0</ele><time>2026-05-02T14:33:46.997Z</time></trkpt><trkpt lat="46.14236844798651" lon="9.800821881992533"><ele>722.0</ele><time>2026-05-02T14:33:47.997Z</time></trkpt><trkpt lat="46.14246856336652" lon="9.80075063311565"><ele>722.0</ele><time>2026-05-02T14:33:48.997Z</time></trkpt><trkpt lat="46.14254934226282" lon="9.800669309588276"><ele>722.0</ele><time>2026-05-02T14:33:49.999Z</time></trkpt><trkpt lat="46.14260773287989" lon="9.800549484659978"><ele>724.0</ele><time>2026-05-02T14:33:50.998Z</time></trkpt><trkpt lat="46.14268112785393" lon="9.800429413778943"><ele>726.0</ele><time>2026-05-02T14:33:51.998Z</time></trkpt><trkpt lat="46.14277394016192" lon="9.800338609695146"><ele>728.0</ele><time>2026-05-02T14:33:52.998Z</time></trkpt><trkpt lat="46.14288422140682" lon="9.800237864379811"><ele>730.0</ele><time>2026-05-02T14:33:53.999Z</time></trkpt><trkpt lat="46.14298517046301" lon="9.800154121238599"><ele>730.0</ele><time>2026-05-02T14:33:54.999Z</time></trkpt><trkpt lat="46.143099374094746" lon="9.80008502015576"><ele>730.0</ele><time>2026-05-02T14:33:55.999Z</time></trkpt><trkpt lat="46.14321768188908" lon="9.800020183953178"><ele>730.0</ele><time>2026-05-02T14:33:56.999Z</time></trkpt><trkpt lat="46.14331727046565" lon="9.799975215056723"><ele>730.0</ele><time>2026-05-02T14:33:57.999Z</time></trkpt><trkpt lat="46.14339403725503" lon="9.799965916947665"><ele>730.0</ele><time>2026-05-02T14:33:58.999Z</time></trkpt><trkpt lat="46.14345572926924" lon="9.799927879577247"><ele>725.6</ele><time>2026-05-02T14:33:59.998Z</time></trkpt><trkpt lat="46.14348410482623" lon="9.799789671916836"><ele>721.2</ele><time>2026-05-02T14:34:00.998Z</time></trkpt><trkpt lat="46.14352934532049" lon="9.799675576924166"><ele>716.8</ele><time>2026-05-02T14:34:01.998Z</time></trkpt><trkpt lat="46.143551102374886" lon="9.799563858064923"><ele>712.4</ele><time>2026-05-02T14:34:02.998Z</time></trkpt><trkpt lat="46.14363793759365" lon="9.79949153743807"><ele>708.0</ele><time>2026-05-02T14:34:03.998Z</time></trkpt><trkpt lat="46.143714187731106" lon="9.799406846060702"><ele>708.0</ele><time>2026-05-02T14:34:04.998Z</time></trkpt><trkpt lat="46.14377943394308" lon="9.799292661956379"><ele>708.0</ele><time>2026-05-02T14:34:05.998Z</time></trkpt><trkpt lat="46.143842924836754" lon="9.799186575469863"><ele>708.0</ele><time>2026-05-02T14:34:06.998Z</time></trkpt><trkpt lat="46.1439022193938" lon="9.799119361937851"><ele>708.0</ele><time>2026-05-02T14:34:07.998Z</time></trkpt><trkpt lat="46.14386919349946" lon="9.799020325751368"><ele>708.0</ele><time>2026-05-02T14:34:10.998Z</time></trkpt><trkpt lat="46.143795104464964" lon="9.798976221404633"><ele>708.0</ele><time>2026-05-02T14:34:11.998Z</time></trkpt><trkpt lat="46.14371810034589" lon="9.798920428521559"><ele>708.0</ele><time>2026-05-02T14:34:12.998Z</time></trkpt><trkpt lat="46.143642622533505" lon="9.798859702603194"><ele>708.0</ele><time>2026-05-02T14:34:13.998Z</time></trkpt><trkpt lat="46.143550870059784" lon="9.798777429285336"><ele>708.0</ele><time>2026-05-02T14:34:14.998Z</time></trkpt><trkpt lat="46.14346744923257" lon="9.798699190093702"><ele>708.0</ele><time>2026-05-02T14:34:15.998Z</time></trkpt><trkpt lat="46.14340664074539" lon="9.798603568615167"><ele>708.0</ele><time>2026-05-02T14:34:16.998Z</time></trkpt><trkpt lat="46.143350120207955" lon="9.798492843517367"><ele>708.0</ele><time>2026-05-02T14:34:17.998Z</time></trkpt><trkpt lat="46.143307046999794" lon="9.798380209819708"><ele>708.0</ele><time>2026-05-02T14:34:18.998Z</time></trkpt><trkpt lat="46.14326604745334" lon="9.7982639660848"><ele>708.0</ele><time>2026-05-02T14:34:19.998Z</time></trkpt><trkpt lat="46.14324532118378" lon="9.798146377568617"><ele>708.0</ele><time>2026-05-02T14:34:20.998Z</time></trkpt><trkpt lat="46.143234709855875" lon="9.79802757075088"><ele>708.0</ele><time>2026-05-02T14:34:21.998Z</time></trkpt><trkpt lat="46.14322701286607" lon="9.797902090317208"><ele>708.0</ele><time>2026-05-02T14:34:22.998Z</time></trkpt><trkpt lat="46.14321865555322" lon="9.797808461947835"><ele>715.8</ele><time>2026-05-02T14:34:23.998Z</time></trkpt><trkpt lat="46.14320348003274" lon="9.797713679191459"><ele>723.5999999999999</ele><time>2026-05-02T14:34:24.998Z</time></trkpt><trkpt lat="46.14313394555649" lon="9.797542684192686"><ele>731.4000000000001</ele><time>2026-05-02T14:34:26.998Z</time></trkpt><trkpt lat="46.14307716628527" lon="9.797461752856236"><ele>739.2</ele><time>2026-05-02T14:34:27.998Z</time></trkpt><trkpt lat="46.14301215468225" lon="9.797375715018111"><ele>747.0</ele><time>2026-05-02T14:34:28.998Z</time></trkpt><trkpt lat="46.14295082646536" lon="9.797274056004772"><ele>747.1666666666666</ele><time>2026-05-02T14:34:29.998Z</time></trkpt><trkpt lat="46.14291192447956" lon="9.797172325546146"><ele>747.3333333333334</ele><time>2026-05-02T14:34:30.998Z</time></trkpt><trkpt lat="46.14292080877757" lon="9.79705535686354"><ele>747.5</ele><time>2026-05-02T14:34:31.998Z</time></trkpt><trkpt lat="46.1429272166569" lon="9.796959616032305"><ele>747.6666666666667</ele><time>2026-05-02T14:34:32.998Z</time></trkpt><trkpt lat="46.14294643261466" lon="9.796852945120751"><ele>747.8333333333334</ele><time>2026-05-02T14:34:33.998Z</time></trkpt><trkpt lat="46.14295195252306" lon="9.796731779833237"><ele>748.0</ele><time>2026-05-02T14:34:34.998Z</time></trkpt><trkpt lat="46.14293758625599" lon="9.796605163738974"><ele>747.1666666666667</ele><time>2026-05-02T14:34:35.998Z</time></trkpt><trkpt lat="46.14293750848235" lon="9.796484560800327"><ele>746.3333333333334</ele><time>2026-05-02T14:34:36.998Z</time></trkpt><trkpt lat="46.1429486199252" lon="9.796356809586246"><ele>745.5</ele><time>2026-05-02T14:34:37.998Z</time></trkpt><trkpt lat="46.142973753942044" lon="9.79621635544761"><ele>744.6666666666666</ele><time>2026-05-02T14:34:38.998Z</time></trkpt><trkpt lat="46.14299590961177" lon="9.796115887669771"><ele>743.8333333333333</ele><time>2026-05-02T14:34:39.998Z</time></trkpt><trkpt lat="46.14300820238635" lon="9.795991762880274"><ele>743.0</ele><time>2026-05-02T14:34:42.998Z</time></trkpt><trkpt lat="46.14309008369688" lon="9.795851387814974"><ele>743.0</ele><time>2026-05-02T14:34:44.998Z</time></trkpt><trkpt lat="46.14317582814422" lon="9.79579930706704"><ele>743.0</ele><time>2026-05-02T14:34:46.998Z</time></trkpt><trkpt lat="46.14325073608365" lon="9.795795802038445"><ele>743.0</ele><time>2026-05-02T14:34:48.998Z</time></trkpt><trkpt lat="46.1433269349731" lon="9.795827434530702"><ele>743.0</ele><time>2026-05-02T14:34:50.998Z</time></trkpt><trkpt lat="46.14343328291031" lon="9.7958454514259"><ele>743.0</ele><time>2026-05-02T14:34:52.998Z</time></trkpt><trkpt lat="46.1435273496566" lon="9.795811066750485"><ele>738.4</ele><time>2026-05-02T14:34:54.998Z</time></trkpt><trkpt lat="46.143641190504155" lon="9.79575267514458"><ele>733.8</ele><time>2026-05-02T14:34:56.997Z</time></trkpt><trkpt lat="46.14372640227501" lon="9.79574390001782"><ele>729.2</ele><time>2026-05-02T14:34:58.997Z</time></trkpt><trkpt lat="46.143805694631105" lon="9.795660471808485"><ele>724.6</ele><time>2026-05-02T14:35:00.997Z</time></trkpt><trkpt lat="46.14385737016736" lon="9.795576552916213"><ele>720.0</ele><time>2026-05-02T14:35:02.997Z</time></trkpt><trkpt lat="46.14391423912795" lon="9.795676510872083"><ele>720.0</ele><time>2026-05-02T14:35:05.997Z</time></trkpt><trkpt lat="46.14397624819441" lon="9.795613569339661"><ele>720.0</ele><time>2026-05-02T14:35:08.997Z</time></trkpt><trkpt lat="46.14400221652576" lon="9.795488233396556"><ele>720.0</ele><time>2026-05-02T14:35:11.997Z</time></trkpt><trkpt lat="46.14404669126006" lon="9.795376291706496"><ele>720.0</ele><time>2026-05-02T14:35:13.997Z</time></trkpt><trkpt lat="46.144058984666415" lon="9.795270533149472"><ele>720.0</ele><time>2026-05-02T14:35:15.997Z</time></trkpt><trkpt lat="46.14412129062984" lon="9.795242415058073"><ele>720.0</ele><time>2026-05-02T14:35:19.997Z</time></trkpt><trkpt lat="46.14420627944251" lon="9.795253986531593"><ele>716.0</ele><time>2026-05-02T14:35:23.997Z</time></trkpt><trkpt lat="46.14427556448753" lon="9.795227467808402"><ele>712.0</ele><time>2026-05-02T14:35:26.997Z</time></trkpt><trkpt lat="46.14433984103315" lon="9.79514730810019"><ele>708.0</ele><time>2026-05-02T14:35:28.997Z</time></trkpt><trkpt lat="46.144372407724134" lon="9.795055045196413"><ele>704.0</ele><time>2026-05-02T14:35:30.997Z</time></trkpt><trkpt lat="46.14444407177089" lon="9.79498206309866"><ele>700.0</ele><time>2026-05-02T14:35:32.997Z</time></trkpt><trkpt lat="46.14451826596651" lon="9.794921831868013"><ele>696.0</ele><time>2026-05-02T14:35:34.997Z</time></trkpt><trkpt lat="46.14460985559962" lon="9.794840025837905"><ele>696.0</ele><time>2026-05-02T14:35:38.997Z</time></trkpt><trkpt lat="46.14469714317538" lon="9.794762426894358"><ele>696.0</ele><time>2026-05-02T14:35:40.997Z</time></trkpt><trkpt lat="46.14476587261375" lon="9.794727633092167"><ele>696.0</ele><time>2026-05-02T14:35:41.997Z</time></trkpt><trkpt lat="46.1448221033609" lon="9.794658008751647"><ele>696.0</ele><time>2026-05-02T14:35:43.997Z</time></trkpt><trkpt lat="46.14487201457594" lon="9.794525658304453"><ele>696.0</ele><time>2026-05-02T14:35:45.997Z</time></trkpt><trkpt lat="46.144936289194646" lon="9.79439241006814"><ele>689.4</ele><time>2026-05-02T14:35:47.997Z</time></trkpt><trkpt lat="46.14494371774426" lon="9.79428325950797"><ele>682.8</ele><time>2026-05-02T14:35:49.997Z</time></trkpt><trkpt lat="46.14495530011597" lon="9.794153314842195"><ele>676.1999999999999</ele><time>2026-05-02T14:35:51.997Z</time></trkpt><trkpt lat="46.14499693597843" lon="9.794024055227636"><ele>669.5999999999999</ele><time>2026-05-02T14:35:53.997Z</time></trkpt><trkpt lat="46.14502656657663" lon="9.793889461053455"><ele>663.0</ele><time>2026-05-02T14:35:55.999Z</time></trkpt><trkpt lat="46.145058982473394" lon="9.793763338106453"><ele>663.0</ele><time>2026-05-02T14:35:57.998Z</time></trkpt><trkpt lat="46.14509609416834" lon="9.793590964228201"><ele>663.0</ele><time>2026-05-02T14:35:59.999Z</time></trkpt><trkpt lat="46.145126530453204" lon="9.793433760972508"><ele>663.0</ele><time>2026-05-02T14:36:01.998Z</time></trkpt><trkpt lat="46.14514505700569" lon="9.793274182348815"><ele>663.0</ele><time>2026-05-02T14:36:03.998Z</time></trkpt><trkpt lat="46.145203361616694" lon="9.79320858608527"><ele>663.0</ele><time>2026-05-02T14:36:05.999Z</time></trkpt><trkpt lat="46.14526343585506" lon="9.79317372066812"><ele>663.0</ele><time>2026-05-02T14:36:07.999Z</time></trkpt><trkpt lat="46.14532904680026" lon="9.793203798049255"><ele>663.0</ele><time>2026-05-02T14:36:09.999Z</time></trkpt><trkpt lat="46.14537457644545" lon="9.793267238522981"><ele>663.0</ele><time>2026-05-02T14:36:11.999Z</time></trkpt><trkpt lat="46.14543486234438" lon="9.793334230189595"><ele>663.0</ele><time>2026-05-02T14:36:14.999Z</time></trkpt><trkpt lat="46.14551912784494" lon="9.793387343927408"><ele>663.0</ele><time>2026-05-02T14:36:16.999Z</time></trkpt><trkpt lat="46.1455732400046" lon="9.793457963079726"><ele>663.0</ele><time>2026-05-02T14:36:18.999Z</time></trkpt><trkpt lat="46.14561304471308" lon="9.793576594050485"><ele>663.0</ele><time>2026-05-02T14:36:20.999Z</time></trkpt><trkpt lat="46.14566152189569" lon="9.793643572709644"><ele>663.0</ele><time>2026-05-02T14:36:22.999Z</time></trkpt><trkpt lat="46.14571556098306" lon="9.79371402486888"><ele>663.0</ele><time>2026-05-02T14:36:25.999Z</time></trkpt><trkpt lat="46.14578727075374" lon="9.793775956197669"><ele>663.0</ele><time>2026-05-02T14:36:27.999Z</time></trkpt><trkpt lat="46.145857241244876" lon="9.793872317687951"><ele>663.0</ele><time>2026-05-02T14:36:29.999Z</time></trkpt><trkpt lat="46.14594528223354" lon="9.793911693908491"><ele>663.0</ele><time>2026-05-02T14:36:31.999Z</time></trkpt><trkpt lat="46.14601296974847" lon="9.793962824989594"><ele>654.3333333333334</ele><time>2026-05-02T14:36:34.999Z</time></trkpt><trkpt lat="46.14607671933566" lon="9.79398442431306"><ele>645.6666666666666</ele><time>2026-05-02T14:36:35.998Z</time></trkpt><trkpt lat="46.146149163165525" lon="9.794020007432964"><ele>637.0</ele><time>2026-05-02T14:36:37.998Z</time></trkpt><trkpt lat="46.14620764651249" lon="9.79409303029536"><ele>628.3333333333333</ele><time>2026-05-02T14:36:39.998Z</time></trkpt><trkpt lat="46.14626908711304" lon="9.794225219953065"><ele>619.6666666666666</ele><time>2026-05-02T14:36:41.998Z</time></trkpt><trkpt lat="46.146336189053194" lon="9.794293194508292"><ele>611.0</ele><time>2026-05-02T14:36:43.998Z</time></trkpt><trkpt lat="46.14640447260944" lon="9.794397372840697"><ele>610.8333333333333</ele><time>2026-05-02T14:36:46.998Z</time></trkpt><trkpt lat="46.14647720297768" lon="9.794450159330426"><ele>610.6666666666666</ele><time>2026-05-02T14:36:48.998Z</time></trkpt><trkpt lat="46.14654562793768" lon="9.79454019799223"><ele>610.5</ele><time>2026-05-02T14:36:50.998Z</time></trkpt><trkpt lat="46.14659210725111" lon="9.794650539642127"><ele>610.3333333333334</ele><time>2026-05-02T14:36:52.998Z</time></trkpt><trkpt lat="46.14664480283058" lon="9.794774717664161"><ele>610.1666666666667</ele><time>2026-05-02T14:36:54.998Z</time></trkpt><trkpt lat="46.14669504700504" lon="9.794848635790043"><ele>610.0</ele><time>2026-05-02T14:36:55.998Z</time></trkpt><trkpt lat="46.146787156767864" lon="9.794950547541564"><ele>600.4</ele><time>2026-05-02T14:36:57.998Z</time></trkpt><trkpt lat="46.14686672729796" lon="9.795052707807393"><ele>590.8</ele><time>2026-05-02T14:36:59.998Z</time></trkpt><trkpt lat="46.14689393062787" lon="9.795155993826093"><ele>581.2</ele><time>2026-05-02T14:37:01.998Z</time></trkpt><trkpt lat="46.14695272954788" lon="9.795285697197636"><ele>571.6</ele><time>2026-05-02T14:37:03.998Z</time></trkpt><trkpt lat="46.147039369351184" lon="9.795347864106466"><ele>562.0</ele><time>2026-05-02T14:37:05.998Z</time></trkpt><trkpt lat="46.14710275962714" lon="9.795376312437446"><ele>560.5</ele><time>2026-05-02T14:37:06.998Z</time></trkpt><trkpt lat="46.14717785158308" lon="9.795411077552172"><ele>559.0</ele><time>2026-05-02T14:37:08.998Z</time></trkpt><trkpt lat="46.147240178043766" lon="9.795426463580597"><ele>557.5</ele><time>2026-05-02T14:37:10.998Z</time></trkpt><trkpt lat="46.14731921329449" lon="9.795439455381821"><ele>556.0</ele><time>2026-05-02T14:37:12.998Z</time></trkpt><trkpt lat="46.14738315399659" lon="9.79536657021893"><ele>554.5</ele><time>2026-05-02T14:37:14.998Z</time></trkpt><trkpt lat="46.14743042929146" lon="9.79525548598482"><ele>553.0</ele><time>2026-05-02T14:37:16.998Z</time></trkpt><trkpt lat="46.14746190549245" lon="9.79513832248216"><ele>546.0</ele><time>2026-05-02T14:37:18.998Z</time></trkpt><trkpt lat="46.14751665836207" lon="9.795087964915915"><ele>539.0</ele><time>2026-05-02T14:37:21.998Z</time></trkpt><trkpt lat="46.147586791496245" lon="9.795023153885234"><ele>532.0</ele><time>2026-05-02T14:37:23.998Z</time></trkpt><trkpt lat="46.147665892507206" lon="9.794916804244433"><ele>525.0</ele><time>2026-05-02T14:37:25.998Z</time></trkpt><trkpt lat="46.147697716318646" lon="9.794746759262441"><ele>518.0</ele><time>2026-05-02T14:37:27.998Z</time></trkpt><trkpt lat="46.14769798552072" lon="9.794579381744235"><ele>518.0</ele><time>2026-05-02T14:37:28.998Z</time></trkpt><trkpt lat="46.147728976873196" lon="9.794364009616785"><ele>518.0</ele><time>2026-05-02T14:37:29.998Z</time></trkpt><trkpt lat="46.14776768090202" lon="9.79414598692374"><ele>518.0</ele><time>2026-05-02T14:37:30.998Z</time></trkpt><trkpt lat="46.14780145044095" lon="9.793945164182341"><ele>518.75</ele><time>2026-05-02T14:37:31.998Z</time></trkpt><trkpt lat="46.147829193230876" lon="9.793754730930939"><ele>519.5</ele><time>2026-05-02T14:37:32.998Z</time></trkpt><trkpt lat="46.147861606199385" lon="9.79357336510173"><ele>520.25</ele><time>2026-05-02T14:37:33.998Z</time></trkpt><trkpt lat="46.1478817101852" lon="9.793383335213228"><ele>521.0</ele><time>2026-05-02T14:37:34.998Z</time></trkpt><trkpt lat="46.14790542015841" lon="9.793194530276429"><ele>521.8</ele><time>2026-05-02T14:37:35.998Z</time></trkpt><trkpt lat="46.14793558664478" lon="9.793015836809074"><ele>522.6</ele><time>2026-05-02T14:37:36.998Z</time></trkpt><trkpt lat="46.14795248066976" lon="9.792845372003837"><ele>523.4</ele><time>2026-05-02T14:37:37.998Z</time></trkpt><trkpt lat="46.147958808640944" lon="9.792716058510003"><ele>524.2</ele><time>2026-05-02T14:37:38.998Z</time></trkpt><trkpt lat="46.147956363797945" lon="9.792612279122112"><ele>525.0</ele><time>2026-05-02T14:37:39.998Z</time></trkpt><trkpt lat="46.147959915916125" lon="9.792496750687786"><ele>525.0</ele><time>2026-05-02T14:37:41.998Z</time></trkpt><trkpt lat="46.14802274230009" lon="9.792573743876558"><ele>525.0</ele><time>2026-05-02T14:37:42.998Z</time></trkpt><trkpt lat="46.14806403765712" lon="9.792660116597565"><ele>525.0</ele><time>2026-05-02T14:37:43.998Z</time></trkpt><trkpt lat="46.14805891066626" lon="9.792799263302337"><ele>525.0</ele><time>2026-05-02T14:37:44.998Z</time></trkpt><trkpt lat="46.148061757505985" lon="9.792958824573473"><ele>525.0</ele><time>2026-05-02T14:37:45.998Z</time></trkpt><trkpt lat="46.14807426549059" lon="9.79307946433827"><ele>525.0</ele><time>2026-05-02T14:37:46.998Z</time></trkpt><trkpt lat="46.1481291131337" lon="9.792943105760408"><ele>525.0</ele><time>2026-05-02T14:37:50.998Z</time></trkpt><trkpt lat="46.1481715985448" lon="9.792845081249382"><ele>525.0</ele><time>2026-05-02T14:37:51.998Z</time></trkpt><trkpt lat="46.14819427434212" lon="9.792731403286815"><ele>525.0</ele><time>2026-05-02T14:37:52.998Z</time></trkpt><trkpt lat="46.14821424387517" lon="9.792609703268022"><ele>525.0</ele><time>2026-05-02T14:37:53.998Z</time></trkpt><trkpt lat="46.14822943639785" lon="9.792518172066083"><ele>525.0</ele><time>2026-05-02T14:37:54.998Z</time></trkpt><trkpt lat="46.148238219200984" lon="9.792427894523081"><ele>525.0</ele><time>2026-05-02T14:37:55.998Z</time></trkpt><trkpt lat="46.1482685471878" lon="9.792317100260421"><ele>515.6</ele><time>2026-05-02T14:37:57.998Z</time></trkpt><trkpt lat="46.14830386468295" lon="9.792215449852591"><ele>506.2</ele><time>2026-05-02T14:37:59.998Z</time></trkpt><trkpt lat="46.14835281159484" lon="9.792087197867088"><ele>496.79999999999995</ele><time>2026-05-02T14:38:01.998Z</time></trkpt><trkpt lat="46.148362788313385" lon="9.791951021998065"><ele>487.4</ele><time>2026-05-02T14:38:03.998Z</time></trkpt><trkpt lat="46.14838264111769" lon="9.791776237228625"><ele>478.0</ele><time>2026-05-02T14:38:05.998Z</time></trkpt><trkpt lat="46.14842462828541" lon="9.791624374262168"><ele>476.79999999999995</ele><time>2026-05-02T14:38:07.999Z</time></trkpt><trkpt lat="46.148501480170665" lon="9.79154763033957"><ele>475.59999999999997</ele><time>2026-05-02T14:38:09.999Z</time></trkpt><trkpt lat="46.14858738378692" lon="9.791489325846811"><ele>474.40000000000003</ele><time>2026-05-02T14:38:11.998Z</time></trkpt><trkpt lat="46.14867112666188" lon="9.791429938413545"><ele>473.20000000000005</ele><time>2026-05-02T14:38:13.998Z</time></trkpt><trkpt lat="46.1487469907547" lon="9.79137332316934"><ele>472.0</ele><time>2026-05-02T14:38:15.998Z</time></trkpt><trkpt lat="46.148825252976245" lon="9.791332621892504"><ele>472.00000000000006</ele><time>2026-05-02T14:38:17.998Z</time></trkpt><trkpt lat="46.14889319613938" lon="9.791313675337767"><ele>472.0</ele><time>2026-05-02T14:38:20.998Z</time></trkpt><trkpt lat="46.14895613234937" lon="9.791332260032219"><ele>472.0</ele><time>2026-05-02T14:38:22.998Z</time></trkpt><trkpt lat="46.14902428968811" lon="9.791335536759693"><ele>472.0</ele><time>2026-05-02T14:38:25.998Z</time></trkpt><trkpt lat="46.1490446895162" lon="9.791225659709832"><ele>472.00000000000006</ele><time>2026-05-02T14:38:33.998Z</time></trkpt><trkpt lat="46.14901614386387" lon="9.791118443012726"><ele>472.0</ele><time>2026-05-02T14:38:34.998Z</time></trkpt><trkpt lat="46.1489996717958" lon="9.790973908492795"><ele>470.6</ele><time>2026-05-02T14:38:35.998Z</time></trkpt><trkpt lat="46.14897289321735" lon="9.790847953273754"><ele>469.20000000000005</ele><time>2026-05-02T14:38:36.998Z</time></trkpt><trkpt lat="46.14893589803037" lon="9.790711501961976"><ele>467.8</ele><time>2026-05-02T14:38:37.998Z</time></trkpt><trkpt lat="46.14889399480453" lon="9.790571820290944"><ele>466.4</ele><time>2026-05-02T14:38:38.998Z</time></trkpt><trkpt lat="46.14885400033831" lon="9.790454175100276"><ele>465.0</ele><time>2026-05-02T14:38:39.998Z</time></trkpt><trkpt lat="46.148842237395606" lon="9.790362115012938"><ele>465.0</ele><time>2026-05-02T14:38:40.998Z</time></trkpt><trkpt lat="46.14884582166684" lon="9.790196864740485"><ele>465.0</ele><time>2026-05-02T14:38:42.998Z</time></trkpt><trkpt lat="46.14877075817684" lon="9.790133335900503"><ele>465.0</ele><time>2026-05-02T14:38:44.998Z</time></trkpt><trkpt lat="46.148701160218195" lon="9.79011334039789"><ele>465.0</ele><time>2026-05-02T14:38:45.998Z</time></trkpt><trkpt lat="46.148606325681705" lon="9.790074236202639"><ele>465.0</ele><time>2026-05-02T14:38:46.998Z</time></trkpt><trkpt lat="46.1484992162439" lon="9.79000777895765"><ele>467.4</ele><time>2026-05-02T14:38:47.998Z</time></trkpt><trkpt lat="46.14840711502771" lon="9.789925867909663"><ele>469.8</ele><time>2026-05-02T14:38:48.998Z</time></trkpt><trkpt lat="46.148303014052026" lon="9.789846850397009"><ele>472.20000000000005</ele><time>2026-05-02T14:38:49.998Z</time></trkpt><trkpt lat="46.14822194827765" lon="9.789749605274864"><ele>474.6</ele><time>2026-05-02T14:38:50.998Z</time></trkpt><trkpt lat="46.14816088714268" lon="9.789629235942627"><ele>477.0</ele><time>2026-05-02T14:38:51.998Z</time></trkpt><trkpt lat="46.148086702883084" lon="9.78953456901214"><ele>477.0</ele><time>2026-05-02T14:38:52.998Z</time></trkpt><trkpt lat="46.147998317272815" lon="9.789442292733778"><ele>477.00000000000006</ele><time>2026-05-02T14:38:53.998Z</time></trkpt><trkpt lat="46.147929848782496" lon="9.789357341358816"><ele>477.00000000000006</ele><time>2026-05-02T14:38:54.998Z</time></trkpt><trkpt lat="46.147874126624515" lon="9.789262173998848"><ele>477.0</ele><time>2026-05-02T14:38:55.998Z</time></trkpt><trkpt lat="46.14780692795702" lon="9.789154803431641"><ele>477.0</ele><time>2026-05-02T14:38:56.998Z</time></trkpt><trkpt lat="46.14774641689356" lon="9.789103465781968"><ele>470.40000000000003</ele><time>2026-05-02T14:38:57.998Z</time></trkpt><trkpt lat="46.14765340792223" lon="9.789046927934615"><ele>463.80000000000007</ele><time>2026-05-02T14:38:58.998Z</time></trkpt><trkpt lat="46.14755317364332" lon="9.789005134450052"><ele>457.2</ele><time>2026-05-02T14:38:59.998Z</time></trkpt><trkpt lat="46.14744652029481" lon="9.788973175241994"><ele>450.6</ele><time>2026-05-02T14:39:00.998Z</time></trkpt><trkpt lat="46.147356343163004" lon="9.788957820920643"><ele>444.0</ele><time>2026-05-02T14:39:01.998Z</time></trkpt><trkpt lat="46.14730096071759" lon="9.788854940187937"><ele>444.0</ele><time>2026-05-02T14:39:03.997Z</time></trkpt><trkpt lat="46.147359142184854" lon="9.788756761410264"><ele>444.0</ele><time>2026-05-02T14:39:05.997Z</time></trkpt><trkpt lat="46.147308931585286" lon="9.788563933838944"><ele>444.0</ele><time>2026-05-02T14:39:07.997Z</time></trkpt><trkpt lat="46.14726670992905" lon="9.788446897833742"><ele>444.0</ele><time>2026-05-02T14:39:08.997Z</time></trkpt><trkpt lat="46.14722378429636" lon="9.788332711184974"><ele>444.0</ele><time>2026-05-02T14:39:09.997Z</time></trkpt><trkpt lat="46.147155422459775" lon="9.788215358390982"><ele>440.6666666666667</ele><time>2026-05-02T14:39:10.997Z</time></trkpt><trkpt lat="46.147074370757785" lon="9.788057771941396"><ele>437.33333333333337</ele><time>2026-05-02T14:39:11.997Z</time></trkpt><trkpt lat="46.14703369363366" lon="9.787959155400962"><ele>434.0</ele><time>2026-05-02T14:39:12.997Z</time></trkpt><trkpt lat="46.14699826567125" lon="9.7878584912952"><ele>430.6666666666667</ele><time>2026-05-02T14:39:14.997Z</time></trkpt><trkpt lat="46.14707713085826" lon="9.787822379903126"><ele>427.33333333333337</ele><time>2026-05-02T14:39:17.997Z</time></trkpt><trkpt lat="46.14713940927255" lon="9.787864203680302"><ele>424.0</ele><time>2026-05-02T14:39:21.997Z</time></trkpt><trkpt lat="46.1472221609339" lon="9.787828825904416"><ele>424.00000000000006</ele><time>2026-05-02T14:39:24.997Z</time></trkpt><trkpt lat="46.14730671128335" lon="9.787818810919108"><ele>424.0</ele><time>2026-05-02T14:39:26.997Z</time></trkpt><trkpt lat="46.147405312504944" lon="9.787798654385677"><ele>424.0</ele><time>2026-05-02T14:39:28.997Z</time></trkpt><trkpt lat="46.14747328950309" lon="9.787743770218079"><ele>424.0</ele><time>2026-05-02T14:39:31.997Z</time></trkpt><trkpt lat="46.1475595503295" lon="9.787731605188785"><ele>424.00000000000006</ele><time>2026-05-02T14:39:34.997Z</time></trkpt><trkpt lat="46.14761791509816" lon="9.787693937142668"><ele>424.0</ele><time>2026-05-02T14:39:35.997Z</time></trkpt><trkpt lat="46.14769847890319" lon="9.787665829656124"><ele>420.50000000000006</ele><time>2026-05-02T14:39:36.997Z</time></trkpt><trkpt lat="46.14779381000761" lon="9.787678210967647"><ele>417.0</ele><time>2026-05-02T14:39:38.997Z</time></trkpt><trkpt lat="46.14788573612181" lon="9.787660860378752"><ele>413.5</ele><time>2026-05-02T14:39:40.997Z</time></trkpt><trkpt lat="46.14796059321707" lon="9.787621028188662"><ele>410.0</ele><time>2026-05-02T14:39:41.997Z</time></trkpt><trkpt lat="46.14806444580176" lon="9.787550893862417"><ele>406.50000000000006</ele><time>2026-05-02T14:39:43.997Z</time></trkpt><trkpt lat="46.14810984494395" lon="9.78748669734616"><ele>403.0</ele><time>2026-05-02T14:39:44.997Z</time></trkpt><trkpt lat="46.14813822713282" lon="9.787401422694064"><ele>402.14285714285717</ele><time>2026-05-02T14:39:45.997Z</time></trkpt><trkpt lat="46.1481627884941" lon="9.78730565246537"><ele>401.2857142857143</ele><time>2026-05-02T14:39:46.997Z</time></trkpt><trkpt lat="46.148201827689526" lon="9.787214026919616"><ele>400.42857142857144</ele><time>2026-05-02T14:39:47.997Z</time></trkpt><trkpt lat="46.148242573129856" lon="9.787138683558736"><ele>399.57142857142856</ele><time>2026-05-02T14:39:48.997Z</time></trkpt><trkpt lat="46.14828504430415" lon="9.78703018350367"><ele>398.71428571428567</ele><time>2026-05-02T14:39:50.997Z</time></trkpt><trkpt lat="46.148320702448224" lon="9.78695298315623"><ele>397.85714285714283</ele><time>2026-05-02T14:39:51.997Z</time></trkpt><trkpt lat="46.148351202082615" lon="9.78686519074591"><ele>397.0</ele><time>2026-05-02T14:39:52.997Z</time></trkpt><trkpt lat="46.14839860344477" lon="9.786779093027043"><ele>394.00000000000006</ele><time>2026-05-02T14:39:54.997Z</time></trkpt><trkpt lat="46.14844405326295" lon="9.786697973414553"><ele>391.0</ele><time>2026-05-02T14:39:57.997Z</time></trkpt><trkpt lat="46.148535656587086" lon="9.786668649639823"><ele>388.0</ele><time>2026-05-02T14:40:00.997Z</time></trkpt><trkpt lat="46.1486107951652" lon="9.786639866040362"><ele>385.0</ele><time>2026-05-02T14:40:02.997Z</time></trkpt><trkpt lat="46.1486736061082" lon="9.786596458255259"><ele>382.0</ele><time>2026-05-02T14:40:03.997Z</time></trkpt><trkpt lat="46.148735163403394" lon="9.78654783725786"><ele>379.0</ele><time>2026-05-02T14:40:04.997Z</time></trkpt><trkpt lat="46.14879920187106" lon="9.786436707438737"><ele>379.0</ele><time>2026-05-02T14:40:06.999Z</time></trkpt><trkpt lat="46.1489025319821" lon="9.786448945553744"><ele>379.0</ele><time>2026-05-02T14:40:08.999Z</time></trkpt><trkpt lat="46.14896148554404" lon="9.786410465127664"><ele>379.0</ele><time>2026-05-02T14:40:10.998Z</time></trkpt><trkpt lat="46.1490362544133" lon="9.786362350179768"><ele>379.0</ele><time>2026-05-02T14:40:14.999Z</time></trkpt><trkpt lat="46.14911275057993" lon="9.786309475591983"><ele>379.0</ele><time>2026-05-02T14:40:16.998Z</time></trkpt><trkpt lat="46.14919232029791" lon="9.786275993617563"><ele>379.0</ele><time>2026-05-02T14:40:18.999Z</time></trkpt><trkpt lat="46.14925007098466" lon="9.786210752262145"><ele>375.0</ele><time>2026-05-02T14:40:23.999Z</time></trkpt><trkpt lat="46.149201716813344" lon="9.786073392700684"><ele>371.0</ele><time>2026-05-02T14:40:26.999Z</time></trkpt><trkpt lat="46.149121119031285" lon="9.785929365458182"><ele>367.0</ele><time>2026-05-02T14:40:28.999Z</time></trkpt><trkpt lat="46.14910694338725" lon="9.785828585743406"><ele>363.0</ele><time>2026-05-02T14:40:29.999Z</time></trkpt><trkpt lat="46.14909479477176" lon="9.785682918961443"><ele>359.0</ele><time>2026-05-02T14:40:30.999Z</time></trkpt><trkpt lat="46.14908017039236" lon="9.785563710487542"><ele>358.4</ele><time>2026-05-02T14:40:31.999Z</time></trkpt><trkpt lat="46.149047136527585" lon="9.785426649693399"><ele>357.79999999999995</ele><time>2026-05-02T14:40:32.999Z</time></trkpt><trkpt lat="46.14903833262601" lon="9.785310782788189"><ele>357.20000000000005</ele><time>2026-05-02T14:40:33.999Z</time></trkpt><trkpt lat="46.149015266379294" lon="9.785213256914592"><ele>356.6</ele><time>2026-05-02T14:40:34.999Z</time></trkpt><trkpt lat="46.148996820260756" lon="9.785104892477568"><ele>356.0</ele><time>2026-05-02T14:40:35.999Z</time></trkpt><trkpt lat="46.148973348429685" lon="9.784934891171675"><ele>355.33333333333337</ele><time>2026-05-02T14:40:37.999Z</time></trkpt><trkpt lat="46.14898354288156" lon="9.784814902577196"><ele>354.6666666666667</ele><time>2026-05-02T14:40:38.999Z</time></trkpt><trkpt lat="46.14903258147647" lon="9.784723373008166"><ele>354.0</ele><time>2026-05-02T14:40:39.999Z</time></trkpt><trkpt lat="46.149096529779506" lon="9.784572616913692"><ele>353.3333333333333</ele><time>2026-05-02T14:40:41.999Z</time></trkpt><trkpt lat="46.14914854006565" lon="9.784503486025958"><ele>352.66666666666663</ele><time>2026-05-02T14:40:42.999Z</time></trkpt><trkpt lat="46.14922778690049" lon="9.784456783077298"><ele>352.0</ele><time>2026-05-02T14:40:43.999Z</time></trkpt><trkpt lat="46.14929240088671" lon="9.784368171969446"><ele>352.40000000000003</ele><time>2026-05-02T14:40:45.999Z</time></trkpt><trkpt lat="46.14930452330731" lon="9.784265744083005"><ele>352.8</ele><time>2026-05-02T14:40:47.999Z</time></trkpt><trkpt lat="46.149405896178685" lon="9.784180048918046"><ele>353.2</ele><time>2026-05-02T14:40:49.999Z</time></trkpt><trkpt lat="46.14948357771913" lon="9.784019328514034"><ele>353.6</ele><time>2026-05-02T14:40:51.998Z</time></trkpt><trkpt lat="46.14952423841987" lon="9.783872878688236"><ele>354.0</ele><time>2026-05-02T14:40:52.998Z</time></trkpt><trkpt lat="46.149563113531244" lon="9.783745038478441"><ele>354.0</ele><time>2026-05-02T14:40:53.998Z</time></trkpt><trkpt lat="46.14959480752518" lon="9.783647924450802"><ele>354.0</ele><time>2026-05-02T14:40:54.998Z</time></trkpt><trkpt lat="46.1496401224556" lon="9.783559409475838"><ele>354.0</ele><time>2026-05-02T14:40:55.998Z</time></trkpt><trkpt lat="46.14970711858357" lon="9.783459243401028"><ele>354.0</ele><time>2026-05-02T14:40:57.998Z</time></trkpt><trkpt lat="46.149757232912584" lon="9.783386741188064"><ele>354.0</ele><time>2026-05-02T14:41:00.998Z</time></trkpt><trkpt lat="46.149823950479096" lon="9.783259600215754"><ele>354.0</ele><time>2026-05-02T14:41:02.998Z</time></trkpt><trkpt lat="46.14985769004805" lon="9.783128505680432"><ele>357.6</ele><time>2026-05-02T14:41:04.998Z</time></trkpt><trkpt lat="46.1498403420074" lon="9.782992043229271"><ele>361.2</ele><time>2026-05-02T14:41:07.998Z</time></trkpt><trkpt lat="46.149814875633616" lon="9.782886807535181"><ele>364.8</ele><time>2026-05-02T14:41:09.998Z</time></trkpt><trkpt lat="46.14983300074726" lon="9.782748647344723"><ele>368.40000000000003</ele><time>2026-05-02T14:41:11.998Z</time></trkpt><trkpt lat="46.14979515260081" lon="9.782613391402183"><ele>372.0</ele><time>2026-05-02T14:41:13.998Z</time></trkpt><trkpt lat="46.14974777960712" lon="9.782521865020257"><ele>373.28571428571433</ele><time>2026-05-02T14:41:15.998Z</time></trkpt><trkpt lat="46.14975041564971" lon="9.782404679133759"><ele>374.57142857142856</ele><time>2026-05-02T14:41:18.998Z</time></trkpt><trkpt lat="46.14976784311601" lon="9.782306809761247"><ele>375.8571428571429</ele><time>2026-05-02T14:41:20.998Z</time></trkpt><trkpt lat="46.14980673759696" lon="9.782207880294468"><ele>377.14285714285717</ele><time>2026-05-02T14:41:22.998Z</time></trkpt><trkpt lat="46.1498671223468" lon="9.782122563621918"><ele>378.42857142857144</ele><time>2026-05-02T14:41:24.998Z</time></trkpt><trkpt lat="46.149917383603565" lon="9.782056292530209"><ele>379.7142857142857</ele><time>2026-05-02T14:41:26.998Z</time></trkpt><trkpt lat="46.14998250913525" lon="9.782040820019736"><ele>381.0</ele><time>2026-05-02T14:41:28.998Z</time></trkpt><trkpt lat="46.15005947043825" lon="9.781997890645142"><ele>374.6666666666667</ele><time>2026-05-02T14:41:30.998Z</time></trkpt><trkpt lat="46.150136013919976" lon="9.781944732646753"><ele>368.3333333333333</ele><time>2026-05-02T14:41:32.998Z</time></trkpt><trkpt lat="46.150210590627374" lon="9.78191807195822"><ele>362.0</ele><time>2026-05-02T14:41:35.998Z</time></trkpt><trkpt lat="46.15029386552351" lon="9.781840270665711"><ele>355.66666666666663</ele><time>2026-05-02T14:41:38.998Z</time></trkpt><trkpt lat="46.15035262407866" lon="9.781761523068164"><ele>349.3333333333333</ele><time>2026-05-02T14:41:40.998Z</time></trkpt><trkpt lat="46.15039891008875" lon="9.781696943504084"><ele>343.0</ele><time>2026-05-02T14:41:41.998Z</time></trkpt><trkpt lat="46.15039363331605" lon="9.781599131631951"><ele>340.42857142857144</ele><time>2026-05-02T14:41:44.998Z</time></trkpt><trkpt lat="46.1503308660939" lon="9.781589653484653"><ele>337.8571428571429</ele><time>2026-05-02T14:41:47.998Z</time></trkpt><trkpt lat="46.150324640125966" lon="9.781497222290481"><ele>335.2857142857143</ele><time>2026-05-02T14:41:50.998Z</time></trkpt><trkpt lat="46.15028686865716" lon="9.781407430883098"><ele>332.7142857142857</ele><time>2026-05-02T14:41:53.998Z</time></trkpt><trkpt lat="46.15033121462906" lon="9.781342786736666"><ele>330.14285714285717</ele><time>2026-05-02T14:41:55.998Z</time></trkpt><trkpt lat="46.15035940930169" lon="9.781258672832113"><ele>327.57142857142856</ele><time>2026-05-02T14:41:58.998Z</time></trkpt><trkpt lat="46.150385464435374" lon="9.781163173240628"><ele>325.0</ele><time>2026-05-02T14:42:00.998Z</time></trkpt><trkpt lat="46.15048038191717" lon="9.781101751895763"><ele>320.3333333333333</ele><time>2026-05-02T14:42:02.998Z</time></trkpt><trkpt lat="46.15055787964222" lon="9.7810071353699"><ele>315.66666666666663</ele><time>2026-05-02T14:42:04.998Z</time></trkpt><trkpt lat="46.150596928690334" lon="9.78092469249743"><ele>311.0</ele><time>2026-05-02T14:42:06.998Z</time></trkpt><trkpt lat="46.150627833312846" lon="9.780838741542244"><ele>306.3333333333333</ele><time>2026-05-02T14:42:16.998Z</time></trkpt><trkpt lat="46.15068575681331" lon="9.780772357833177"><ele>301.6666666666667</ele><time>2026-05-02T14:42:17.998Z</time></trkpt><trkpt lat="46.15079101126826" lon="9.78071832110907"><ele>297.0</ele><time>2026-05-02T14:42:18.998Z</time></trkpt><trkpt lat="46.150933030680406" lon="9.78062997277963"><ele>292.25</ele><time>2026-05-02T14:42:19.998Z</time></trkpt><trkpt lat="46.15105072938316" lon="9.780539830463152"><ele>287.5</ele><time>2026-05-02T14:42:20.998Z</time></trkpt><trkpt lat="46.15119192319613" lon="9.780450822523786"><ele>282.75</ele><time>2026-05-02T14:42:21.998Z</time></trkpt><trkpt lat="46.151309230073025" lon="9.780382768916304"><ele>278.0</ele><time>2026-05-02T14:42:22.999Z</time></trkpt><trkpt lat="46.15139666271163" lon="9.780316968285877"><ele>278.0</ele><time>2026-05-02T14:42:23.999Z</time></trkpt><trkpt lat="46.15146892239847" lon="9.780274005745092"><ele>278.0</ele><time>2026-05-02T14:42:24.998Z</time></trkpt><trkpt lat="46.15153001726902" lon="9.780244712580823"><ele>278.0</ele><time>2026-05-02T14:42:25.998Z</time></trkpt><trkpt lat="46.15152133110559" lon="9.78013162608895"><ele>278.0</ele><time>2026-05-02T14:42:31.998Z</time></trkpt><trkpt lat="46.151461508796004" lon="9.779933294069368"><ele>278.0</ele><time>2026-05-02T14:42:33.998Z</time></trkpt><trkpt lat="46.15138351559356" lon="9.77977404747812"><ele>276.33333333333337</ele><time>2026-05-02T14:42:34.998Z</time></trkpt><trkpt lat="46.15130920635888" lon="9.779595750057112"><ele>274.6666666666667</ele><time>2026-05-02T14:42:35.998Z</time></trkpt><trkpt lat="46.15123871163555" lon="9.779403884440626"><ele>273.0</ele><time>2026-05-02T14:42:36.998Z</time></trkpt><trkpt lat="46.15114774712224" lon="9.779208804784012"><ele>273.0</ele><time>2026-05-02T14:42:37.998Z</time></trkpt><trkpt lat="46.15108284248518" lon="9.779028622621487"><ele>273.0</ele><time>2026-05-02T14:42:38.998Z</time></trkpt><trkpt lat="46.151050525990016" lon="9.778863391811973"><ele>273.0</ele><time>2026-05-02T14:42:39.998Z</time></trkpt><trkpt lat="46.151052083200234" lon="9.778695846139476"><ele>273.0</ele><time>2026-05-02T14:42:40.998Z</time></trkpt><trkpt lat="46.15103631663557" lon="9.778533111487615"><ele>273.5</ele><time>2026-05-02T14:42:41.998Z</time></trkpt><trkpt lat="46.151004117591604" lon="9.778420999963592"><ele>274.0</ele><time>2026-05-02T14:42:42.998Z</time></trkpt><trkpt lat="46.15111642130724" lon="9.778338700864282"><ele>274.5</ele><time>2026-05-02T14:42:45.998Z</time></trkpt><trkpt lat="46.1512228345094" lon="9.778312603358227"><ele>275.0</ele><time>2026-05-02T14:42:46.998Z</time></trkpt><trkpt lat="46.15136360465868" lon="9.778232693088858"><ele>275.0</ele><time>2026-05-02T14:42:47.998Z</time></trkpt><trkpt lat="46.151490297220704" lon="9.778147904218013"><ele>275.0</ele><time>2026-05-02T14:42:48.998Z</time></trkpt><trkpt lat="46.15155717129046" lon="9.778049877650455"><ele>275.0</ele><time>2026-05-02T14:42:49.998Z</time></trkpt><trkpt lat="46.151573240551734" lon="9.77795023894988"><ele>275.0</ele><time>2026-05-02T14:42:50.998Z</time></trkpt><trkpt lat="46.15154520290636" lon="9.777814065170706"><ele>275.0</ele><time>2026-05-02T14:42:51.998Z</time></trkpt><trkpt lat="46.151493836988124" lon="9.777656521642479"><ele>274.6666666666667</ele><time>2026-05-02T14:42:52.998Z</time></trkpt><trkpt lat="46.151442673282496" lon="9.777437805466517"><ele>274.3333333333333</ele><time>2026-05-02T14:42:53.998Z</time></trkpt><trkpt lat="46.151386089378924" lon="9.777204546784535"><ele>274.0</ele><time>2026-05-02T14:42:54.998Z</time></trkpt><trkpt lat="46.151345022027776" lon="9.77700047615388"><ele>274.25</ele><time>2026-05-02T14:42:55.998Z</time></trkpt><trkpt lat="46.151305773412695" lon="9.77683870175839"><ele>274.5</ele><time>2026-05-02T14:42:56.998Z</time></trkpt><trkpt lat="46.15129843255963" lon="9.776672475122153"><ele>274.75</ele><time>2026-05-02T14:42:57.998Z</time></trkpt><trkpt lat="46.151343193088884" lon="9.776510126493523"><ele>275.0</ele><time>2026-05-02T14:42:58.998Z</time></trkpt><trkpt lat="46.151408099932304" lon="9.776332441636798"><ele>275.0</ele><time>2026-05-02T14:42:59.998Z</time></trkpt><trkpt lat="46.15148984050759" lon="9.77616191887399"><ele>275.0</ele><time>2026-05-02T14:43:00.998Z</time></trkpt><trkpt lat="46.15158404555284" lon="9.775993426415743"><ele>275.0</ele><time>2026-05-02T14:43:01.998Z</time></trkpt><trkpt lat="46.15169519105052" lon="9.775817064871221"><ele>273.6666666666667</ele><time>2026-05-02T14:43:02.998Z</time></trkpt><trkpt lat="46.15179727403128" lon="9.775632493410729"><ele>272.3333333333333</ele><time>2026-05-02T14:43:03.998Z</time></trkpt><trkpt lat="46.15190817560887" lon="9.775447382087691"><ele>271.0</ele><time>2026-05-02T14:43:04.998Z</time></trkpt><trkpt lat="46.152023165834045" lon="9.775272871305894"><ele>271.0</ele><time>2026-05-02T14:43:05.998Z</time></trkpt><trkpt lat="46.152130935124774" lon="9.775108199349601"><ele>271.0</ele><time>2026-05-02T14:43:06.997Z</time></trkpt><trkpt lat="46.15223945602855" lon="9.774946843962464"><ele>271.0</ele><time>2026-05-02T14:43:07.997Z</time></trkpt><trkpt lat="46.15235260147519" lon="9.774779795931995"><ele>271.25</ele><time>2026-05-02T14:43:08.997Z</time></trkpt><trkpt lat="46.15245126801644" lon="9.774622937240071"><ele>271.5</ele><time>2026-05-02T14:43:09.997Z</time></trkpt><trkpt lat="46.15254137965105" lon="9.774461515813787"><ele>271.75</ele><time>2026-05-02T14:43:10.997Z</time></trkpt><trkpt lat="46.152617974088784" lon="9.774285922941463"><ele>272.0</ele><time>2026-05-02T14:43:11.997Z</time></trkpt><trkpt lat="46.15269866100438" lon="9.774106293537331"><ele>272.0</ele><time>2026-05-02T14:43:12.997Z</time></trkpt><trkpt lat="46.152771004319405" lon="9.773942815741835"><ele>272.0</ele><time>2026-05-02T14:43:13.997Z</time></trkpt><trkpt lat="46.15284262795348" lon="9.773773001990634"><ele>272.0</ele><time>2026-05-02T14:43:14.997Z</time></trkpt><trkpt lat="46.15290457113534" lon="9.773603508793176"><ele>272.0</ele><time>2026-05-02T14:43:15.997Z</time></trkpt><trkpt lat="46.15296408002832" lon="9.77342544071706"><ele>272.0</ele><time>2026-05-02T14:43:16.997Z</time></trkpt><trkpt lat="46.153018087758234" lon="9.773258004591387"><ele>272.0</ele><time>2026-05-02T14:43:17.997Z</time></trkpt><trkpt lat="46.15307275047883" lon="9.773080887996953"><ele>272.0</ele><time>2026-05-02T14:43:18.997Z</time></trkpt><trkpt lat="46.15312012114557" lon="9.772912583589678"><ele>272.0</ele><time>2026-05-02T14:43:19.997Z</time></trkpt><trkpt lat="46.15315984913324" lon="9.772760425153965"><ele>272.0</ele><time>2026-05-02T14:43:20.997Z</time></trkpt><trkpt lat="46.15319887153063" lon="9.772630869342876"><ele>272.0</ele><time>2026-05-02T14:43:21.997Z</time></trkpt><trkpt lat="46.15322800111156" lon="9.772523426644085"><ele>272.0</ele><time>2026-05-02T14:43:22.997Z</time></trkpt><trkpt lat="46.153247876565466" lon="9.772424883166048"><ele>272.0</ele><time>2026-05-02T14:43:23.997Z</time></trkpt><trkpt lat="46.15318125115705" lon="9.772311870123822"><ele>272.0</ele><time>2026-05-02T14:43:25.997Z</time></trkpt><trkpt lat="46.153099040548454" lon="9.77227464884378"><ele>272.0</ele><time>2026-05-02T14:43:26.997Z</time></trkpt><trkpt lat="46.152980903046206" lon="9.772225917477892"><ele>272.0</ele><time>2026-05-02T14:43:27.997Z</time></trkpt><trkpt lat="46.152818806538576" lon="9.772158124753343"><ele>272.0</ele><time>2026-05-02T14:43:28.997Z</time></trkpt><trkpt lat="46.152649638762774" lon="9.772071432749533"><ele>272.0</ele><time>2026-05-02T14:43:29.997Z</time></trkpt><trkpt lat="46.15244460275716" lon="9.77198294412134"><ele>272.6666666666667</ele><time>2026-05-02T14:43:30.997Z</time></trkpt><trkpt lat="46.15223589814528" lon="9.77189440078438"><ele>273.3333333333333</ele><time>2026-05-02T14:43:31.997Z</time></trkpt><trkpt lat="46.152040655140844" lon="9.77181654262394"><ele>274.0</ele><time>2026-05-02T14:43:32.997Z</time></trkpt><trkpt lat="46.15187849966251" lon="9.771757376854161"><ele>274.0</ele><time>2026-05-02T14:43:33.997Z</time></trkpt><trkpt lat="46.15174547076328" lon="9.771707890974701"><ele>274.0</ele><time>2026-05-02T14:43:34.997Z</time></trkpt><trkpt lat="46.15163869627925" lon="9.771655042898294"><ele>274.0</ele><time>2026-05-02T14:43:35.997Z</time></trkpt><trkpt lat="46.151558089505464" lon="9.771580471653278"><ele>274.0</ele><time>2026-05-02T14:43:36.997Z</time></trkpt><trkpt lat="46.15153719223705" lon="9.771450678559946"><ele>274.0</ele><time>2026-05-02T14:43:37.997Z</time></trkpt><trkpt lat="46.15154125374769" lon="9.771271850056193"><ele>274.0</ele><time>2026-05-02T14:43:38.997Z</time></trkpt><trkpt lat="46.151552436491464" lon="9.771075542786246"><ele>274.0</ele><time>2026-05-02T14:43:39.997Z</time></trkpt><trkpt lat="46.15157120009739" lon="9.770834779959054"><ele>274.0</ele><time>2026-05-02T14:43:40.997Z</time></trkpt><trkpt lat="46.15155175900472" lon="9.770678061048718"><ele>274.0</ele><time>2026-05-02T14:43:41.997Z</time></trkpt><trkpt lat="46.1514956690758" lon="9.77056872297818"><ele>275.2</ele><time>2026-05-02T14:43:42.997Z</time></trkpt><trkpt lat="46.15140147626708" lon="9.770516285508133"><ele>276.4</ele><time>2026-05-02T14:43:43.997Z</time></trkpt><trkpt lat="46.15128330996377" lon="9.7704608530326"><ele>277.6</ele><time>2026-05-02T14:43:44.997Z</time></trkpt><trkpt lat="46.151189627917695" lon="9.770377591808959"><ele>278.8</ele><time>2026-05-02T14:43:45.997Z</time></trkpt><trkpt lat="46.151179876259796" lon="9.770283120694069"><ele>280.0</ele><time>2026-05-02T14:43:46.997Z</time></trkpt><trkpt lat="46.151197716316545" lon="9.770159313535249"><ele>280.2</ele><time>2026-05-02T14:43:47.997Z</time></trkpt><trkpt lat="46.15123795546632" lon="9.770003670142094"><ele>280.4</ele><time>2026-05-02T14:43:48.997Z</time></trkpt><trkpt lat="46.15128294166594" lon="9.76985447370563"><ele>280.6</ele><time>2026-05-02T14:43:49.997Z</time></trkpt><trkpt lat="46.15128331238485" lon="9.769709714071944"><ele>280.8</ele><time>2026-05-02T14:43:50.997Z</time></trkpt><trkpt lat="46.15122964282886" lon="9.76956045986033"><ele>281.0</ele><time>2026-05-02T14:43:51.997Z</time></trkpt><trkpt lat="46.15116262683694" lon="9.769391663390081"><ele>281.5</ele><time>2026-05-02T14:43:52.997Z</time></trkpt><trkpt lat="46.15112301354875" lon="9.769207911419441"><ele>282.0</ele><time>2026-05-02T14:43:53.997Z</time></trkpt><trkpt lat="46.15114207064649" lon="9.769021795514519"><ele>282.5</ele><time>2026-05-02T14:43:54.997Z</time></trkpt><trkpt lat="46.151170689053" lon="9.7688589251101"><ele>283.0</ele><time>2026-05-02T14:43:55.997Z</time></trkpt><trkpt lat="46.15119815996287" lon="9.768730409991377"><ele>283.0</ele><time>2026-05-02T14:43:56.997Z</time></trkpt><trkpt lat="46.151181889927024" lon="9.76860695893535"><ele>283.0</ele><time>2026-05-02T14:43:57.997Z</time></trkpt><trkpt lat="46.15112687280178" lon="9.768531576366678"><ele>283.0</ele><time>2026-05-02T14:43:58.997Z</time></trkpt><trkpt lat="46.1510265694173" lon="9.768477797912267"><ele>283.0</ele><time>2026-05-02T14:43:59.997Z</time></trkpt><trkpt lat="46.15089999227466" lon="9.768441682571497"><ele>283.0</ele><time>2026-05-02T14:44:00.997Z</time></trkpt><trkpt lat="46.15076372719784" lon="9.768394978172486"><ele>284.6</ele><time>2026-05-02T14:44:01.997Z</time></trkpt><trkpt lat="46.15066298824373" lon="9.768334170997942"><ele>286.20000000000005</ele><time>2026-05-02T14:44:02.997Z</time></trkpt><trkpt lat="46.150599661250496" lon="9.768289571174344"><ele>287.8</ele><time>2026-05-02T14:44:03.997Z</time></trkpt><trkpt lat="46.15059637271885" lon="9.768167733201842"><ele>289.40000000000003</ele><time>2026-05-02T14:44:10.997Z</time></trkpt><trkpt lat="46.15060802576931" lon="9.768051661163494"><ele>291.0</ele><time>2026-05-02T14:44:11.997Z</time></trkpt><trkpt lat="46.15063354563327" lon="9.767869441683999"><ele>290.6666666666667</ele><time>2026-05-02T14:44:12.997Z</time></trkpt><trkpt lat="46.15067123671361" lon="9.767647266549934"><ele>290.33333333333337</ele><time>2026-05-02T14:44:13.997Z</time></trkpt><trkpt lat="46.1507038182413" lon="9.767368299393246"><ele>290.0</ele><time>2026-05-02T14:44:14.997Z</time></trkpt><trkpt lat="46.15070378341511" lon="9.767053302740404"><ele>289.5</ele><time>2026-05-02T14:44:15.997Z</time></trkpt><trkpt lat="46.1506905259822" lon="9.766705002018435"><ele>289.0</ele><time>2026-05-02T14:44:16.997Z</time></trkpt><trkpt lat="46.15065557473979" lon="9.766336817315286"><ele>288.5</ele><time>2026-05-02T14:44:17.997Z</time></trkpt><trkpt lat="46.15061620703513" lon="9.765970286399646"><ele>288.0</ele><time>2026-05-02T14:44:18.999Z</time></trkpt><trkpt lat="46.150568927082304" lon="9.765637498187395"><ele>288.0</ele><time>2026-05-02T14:44:19.999Z</time></trkpt><trkpt lat="46.1505333021038" lon="9.765356027274967"><ele>288.0</ele><time>2026-05-02T14:44:20.999Z</time></trkpt><trkpt lat="46.15049921467405" lon="9.76509695826269"><ele>288.0</ele><time>2026-05-02T14:44:21.998Z</time></trkpt><trkpt lat="46.15047300345822" lon="9.764876069825913"><ele>288.25</ele><time>2026-05-02T14:44:22.998Z</time></trkpt><trkpt lat="46.15044854792997" lon="9.764654313012018"><ele>288.5</ele><time>2026-05-02T14:44:23.998Z</time></trkpt><trkpt lat="46.150418507030714" lon="9.764453556547787"><ele>288.75</ele><time>2026-05-02T14:44:24.999Z</time></trkpt><trkpt lat="46.15039450618623" lon="9.76426581975066"><ele>289.0</ele><time>2026-05-02T14:44:25.999Z</time></trkpt><trkpt lat="46.15036977661915" lon="9.764100005525322"><ele>288.59999999999997</ele><time>2026-05-02T14:44:26.999Z</time></trkpt><trkpt lat="46.15035475779087" lon="9.763964827285333"><ele>288.2</ele><time>2026-05-02T14:44:27.998Z</time></trkpt><trkpt lat="46.15036177627382" lon="9.763864700055615"><ele>287.79999999999995</ele><time>2026-05-02T14:44:28.998Z</time></trkpt><trkpt lat="46.15048031305184" lon="9.763829332979983"><ele>287.4</ele><time>2026-05-02T14:44:30.998Z</time></trkpt><trkpt lat="46.150592496750086" lon="9.763846724425727"><ele>287.0</ele><time>2026-05-02T14:44:31.998Z</time></trkpt><trkpt lat="46.150742036549005" lon="9.763839280902545"><ele>286.0</ele><time>2026-05-02T14:44:32.998Z</time></trkpt><trkpt lat="46.15092552820913" lon="9.763822734306704"><ele>285.0</ele><time>2026-05-02T14:44:33.998Z</time></trkpt><trkpt lat="46.151140072714455" lon="9.76381578612218"><ele>284.0</ele><time>2026-05-02T14:44:34.998Z</time></trkpt><trkpt lat="46.15137719146324" lon="9.76382195048659"><ele>282.5</ele><time>2026-05-02T14:44:35.998Z</time></trkpt><trkpt lat="46.15162719069624" lon="9.763833759110177"><ele>281.0</ele><time>2026-05-02T14:44:36.998Z</time></trkpt><trkpt lat="46.151853601486245" lon="9.763833084728176"><ele>281.0</ele><time>2026-05-02T14:44:37.998Z</time></trkpt><trkpt lat="46.15205011130915" lon="9.763843174100716"><ele>281.0</ele><time>2026-05-02T14:44:38.998Z</time></trkpt><trkpt lat="46.152237374400684" lon="9.763866840305708"><ele>281.0</ele><time>2026-05-02T14:44:39.998Z</time></trkpt><trkpt lat="46.15241787058904" lon="9.763912636359253"><ele>280.33333333333337</ele><time>2026-05-02T14:44:40.998Z</time></trkpt><trkpt lat="46.15259839146575" lon="9.763978812399987"><ele>279.6666666666667</ele><time>2026-05-02T14:44:41.998Z</time></trkpt><trkpt lat="46.15277750644622" lon="9.764044226206293"><ele>279.0</ele><time>2026-05-02T14:44:42.998Z</time></trkpt><trkpt lat="46.1529668109003" lon="9.764107236302873"><ele>279.0</ele><time>2026-05-02T14:44:43.998Z</time></trkpt><trkpt lat="46.153135384093545" lon="9.764162088499278"><ele>279.0</ele><time>2026-05-02T14:44:44.998Z</time></trkpt><trkpt lat="46.153292340380396" lon="9.76420036663125"><ele>279.0</ele><time>2026-05-02T14:44:45.998Z</time></trkpt><trkpt lat="46.15343859789026" lon="9.764240801766894"><ele>278.6666666666667</ele><time>2026-05-02T14:44:46.998Z</time></trkpt><trkpt lat="46.15355966679035" lon="9.764272009014542"><ele>278.3333333333333</ele><time>2026-05-02T14:44:47.998Z</time></trkpt><trkpt lat="46.153653618328875" lon="9.764291397880072"><ele>278.0</ele><time>2026-05-02T14:44:48.998Z</time></trkpt><trkpt lat="46.15372301651294" lon="9.764282294933645"><ele>277.66666666666663</ele><time>2026-05-02T14:44:49.998Z</time></trkpt><trkpt lat="46.15376836275454" lon="9.764211824155602"><ele>277.3333333333333</ele><time>2026-05-02T14:44:50.998Z</time></trkpt><trkpt lat="46.15379181898999" lon="9.76408809396384"><ele>277.0</ele><time>2026-05-02T14:44:51.998Z</time></trkpt><trkpt lat="46.15379367702598" lon="9.763918907690988"><ele>277.0</ele><time>2026-05-02T14:44:52.998Z</time></trkpt><trkpt lat="46.153789667678694" lon="9.76369324565272"><ele>277.0</ele><time>2026-05-02T14:44:53.998Z</time></trkpt><trkpt lat="46.15380200856686" lon="9.763423192809475"><ele>277.0</ele><time>2026-05-02T14:44:54.998Z</time></trkpt><trkpt lat="46.15380202102281" lon="9.763168509145233"><ele>277.0</ele><time>2026-05-02T14:44:55.998Z</time></trkpt><trkpt lat="46.15380325088457" lon="9.762944536614137"><ele>277.0</ele><time>2026-05-02T14:44:56.998Z</time></trkpt><trkpt lat="46.15380531668214" lon="9.762722325053746"><ele>277.0</ele><time>2026-05-02T14:44:57.997Z</time></trkpt><trkpt lat="46.153806306545654" lon="9.762534597606992"><ele>277.0</ele><time>2026-05-02T14:44:58.997Z</time></trkpt><trkpt lat="46.15381062115532" lon="9.76235266370723"><ele>276.6</ele><time>2026-05-02T14:44:59.997Z</time></trkpt><trkpt lat="46.153822484113945" lon="9.762167552613354"><ele>276.2</ele><time>2026-05-02T14:45:00.997Z</time></trkpt><trkpt lat="46.153842929797904" lon="9.762011551907223"><ele>275.8</ele><time>2026-05-02T14:45:01.997Z</time></trkpt><trkpt lat="46.15384990384597" lon="9.761862738168146"><ele>275.4</ele><time>2026-05-02T14:45:02.997Z</time></trkpt><trkpt lat="46.15386680765986" lon="9.761767750712185"><ele>275.0</ele><time>2026-05-02T14:45:03.997Z</time></trkpt><trkpt lat="46.15399901162819" lon="9.761758815211794"><ele>273.6666666666667</ele><time>2026-05-02T14:45:05.997Z</time></trkpt><trkpt lat="46.15414995872607" lon="9.761780524392549"><ele>272.3333333333333</ele><time>2026-05-02T14:45:06.997Z</time></trkpt><trkpt lat="46.15434749748942" lon="9.761790082057729"><ele>271.0</ele><time>2026-05-02T14:45:07.997Z</time></trkpt><trkpt lat="46.154537996060476" lon="9.761788068488062"><ele>271.0</ele><time>2026-05-02T14:45:08.997Z</time></trkpt><trkpt lat="46.154686732349916" lon="9.761792617057239"><ele>271.0</ele><time>2026-05-02T14:45:09.997Z</time></trkpt><trkpt lat="46.15477894300261" lon="9.761798632428702"><ele>271.0</ele><time>2026-05-02T14:45:10.997Z</time></trkpt><trkpt lat="46.15484336274822" lon="9.761799782901566"><ele>271.0</ele><time>2026-05-02T14:45:11.997Z</time></trkpt><trkpt lat="46.15490714915429" lon="9.761789386802127"><ele>271.0</ele><time>2026-05-02T14:45:13.997Z</time></trkpt><trkpt lat="46.15484170925851" lon="9.761762352593383"><ele>271.0</ele><time>2026-05-02T14:45:17.997Z</time></trkpt><trkpt lat="46.15485297747222" lon="9.761671537020916"><ele>271.0</ele><time>2026-05-02T14:45:38.997Z</time></trkpt><trkpt lat="46.15491195794276" lon="9.76171018485841"><ele>270.0</ele><time>2026-05-02T14:45:57.997Z</time></trkpt><trkpt lat="46.15493785889084" lon="9.761800650350875"><ele>270.0</ele><time>2026-05-02T14:46:04.997Z</time></trkpt><trkpt lat="46.15486108773955" lon="9.76178582163482"><ele>271.0</ele><time>2026-05-02T14:46:19.997Z</time></trkpt></trkseg></trk></gpx>